<?xml version='1.0' encoding='UTF-8'?><gpx version="1.1" creator="JPX - https://github.com/jenetics/jpx" xmlns="http://www.topografix.com/GPX/1/1"><trk><trkseg><trkpt lat="40.38508301192846" lon="18.174887013651635"><ele>41.0</ele><time>2026-04-19T07:25:13.999Z</time></trkpt><trkpt lat="40.38501495472997" lon="18.17488257931989"><ele>41.0</ele><time>2026-04-19T07:25:15.999Z</time></trkpt><trkpt lat="40.38482534499513" lon="18.17493680354989"><ele>41.0</ele><time>2026-04-19T07:28:10.998Z</time></trkpt><trkpt lat="40.38477882633855" lon="18.175047260285012"><ele>41.0</ele><time>2026-04-19T07:28:47Z</time></trkpt><trkpt lat="40.38477121362504" lon="18.175162299147598"><ele>41.0</ele><time>2026-04-19T07:28:49Z</time></trkpt><trkpt lat="40.384767294336875" lon="18.175257435792247"><ele>41.0</ele><time>2026-04-19T07:28:51Z</time></trkpt><trkpt lat="40.384766323683706" lon="18.17540700467472"><ele>41.0</ele><time>2026-04-19T07:28:53Z</time></trkpt><trkpt lat="40.3847563504685" lon="18.175493757437778"><ele>41.0</ele><time>2026-04-19T07:28:54Z</time></trkpt><trkpt lat="40.3847485980703" lon="18.175580917212823"><ele>41.0</ele><time>2026-04-19T07:28:55Z</time></trkpt><trkpt lat="40.38474347688671" lon="18.17566749606272"><ele>41.0</ele><time>2026-04-19T07:28:56Z</time></trkpt><trkpt lat="40.384729351071265" lon="18.175751281806143"><ele>41.0</ele><time>2026-04-19T07:28:57Z</time></trkpt><trkpt lat="40.38469657836569" lon="18.175898683122835"><ele>41.0</ele><time>2026-04-19T07:28:59Z</time></trkpt><trkpt lat="40.384648434672606" lon="18.176021619270493"><ele>41.0</ele><time>2026-04-19T07:29:01Z</time></trkpt><trkpt lat="40.38459850859533" lon="18.176151763218314"><ele>41.0</ele><time>2026-04-19T07:29:03Z</time></trkpt><trkpt lat="40.384561171549564" lon="18.17622349960018"><ele>41.0</ele><time>2026-04-19T07:29:04Z</time></trkpt><trkpt lat="40.38449586827729" lon="18.176357099456492"><ele>41.0</ele><time>2026-04-19T07:29:06Z</time></trkpt><trkpt lat="40.38445724364941" lon="18.17644811045828"><ele>41.0</ele><time>2026-04-19T07:29:07Z</time></trkpt><trkpt lat="40.3844067738549" lon="18.176532799905758"><ele>41.0</ele><time>2026-04-19T07:29:07.999Z</time></trkpt><trkpt lat="40.38435393299535" lon="18.176620091161507"><ele>41.0</ele><time>2026-04-19T07:29:08.999Z</time></trkpt><trkpt lat="40.38428813688417" lon="18.176723592309695"><ele>41.0</ele><time>2026-04-19T07:29:09.999Z</time></trkpt><trkpt lat="40.38421222374411" lon="18.176852973309362"><ele>41.0</ele><time>2026-04-19T07:29:10.999Z</time></trkpt><trkpt lat="40.38412937420863" lon="18.17699342369927"><ele>41.0</ele><time>2026-04-19T07:29:11.999Z</time></trkpt><trkpt lat="40.38406804162299" lon="18.177094663552435"><ele>41.0</ele><time>2026-04-19T07:29:12.999Z</time></trkpt><trkpt lat="40.38400758831589" lon="18.177194146161984"><ele>41.0</ele><time>2026-04-19T07:29:13.999Z</time></trkpt><trkpt lat="40.383948791154204" lon="18.177309714569976"><ele>41.0</ele><time>2026-04-19T07:29:14.999Z</time></trkpt><trkpt lat="40.38388897491964" lon="18.17745199573924"><ele>41.0</ele><time>2026-04-19T07:29:15.999Z</time></trkpt><trkpt lat="40.38383320866503" lon="18.177592893577824"><ele>41.0</ele><time>2026-04-19T07:29:16.999Z</time></trkpt><trkpt lat="40.38378028568188" lon="18.177721919414477"><ele>41.0</ele><time>2026-04-19T07:29:17.999Z</time></trkpt><trkpt lat="40.38373258455181" lon="18.17785135849262"><ele>41.0</ele><time>2026-04-19T07:29:18.999Z</time></trkpt><trkpt lat="40.38369866550674" lon="18.177990007789226"><ele>41.0</ele><time>2026-04-19T07:29:19.999Z</time></trkpt><trkpt lat="40.38368476313873" lon="18.17812020148398"><ele>41.0</ele><time>2026-04-19T07:29:20.999Z</time></trkpt><trkpt lat="40.3836762967256" lon="18.17825707922874"><ele>41.199999999999996</ele><time>2026-04-19T07:29:21.999Z</time></trkpt><trkpt lat="40.383646841024685" lon="18.178396175279442"><ele>41.4</ele><time>2026-04-19T07:29:22.999Z</time></trkpt><trkpt lat="40.38359330621984" lon="18.17851651476522"><ele>41.6</ele><time>2026-04-19T07:29:23.999Z</time></trkpt><trkpt lat="40.3835180353379" lon="18.178622669326153"><ele>41.8</ele><time>2026-04-19T07:29:24.999Z</time></trkpt><trkpt lat="40.38346691959498" lon="18.178744022232618"><ele>42.0</ele><time>2026-04-19T07:29:25.999Z</time></trkpt><trkpt lat="40.383393137175666" lon="18.17888046516123"><ele>41.666666666666664</ele><time>2026-04-19T07:29:26.999Z</time></trkpt><trkpt lat="40.383288862771906" lon="18.179052711428575"><ele>41.33333333333333</ele><time>2026-04-19T07:29:27.999Z</time></trkpt><trkpt lat="40.38315788111282" lon="18.179250501754154"><ele>41.0</ele><time>2026-04-19T07:29:28.999Z</time></trkpt><trkpt lat="40.383048216421344" lon="18.179421690768567"><ele>41.25</ele><time>2026-04-19T07:29:29.999Z</time></trkpt><trkpt lat="40.38294089201164" lon="18.179568428053802"><ele>41.5</ele><time>2026-04-19T07:29:30.999Z</time></trkpt><trkpt lat="40.382839409895" lon="18.17971265878105"><ele>41.75</ele><time>2026-04-19T07:29:31.999Z</time></trkpt><trkpt lat="40.38275089249815" lon="18.179836890065204"><ele>42.0</ele><time>2026-04-19T07:29:32.999Z</time></trkpt><trkpt lat="40.38267577422997" lon="18.179934745852094"><ele>42.0</ele><time>2026-04-19T07:29:33.999Z</time></trkpt><trkpt lat="40.382606112259346" lon="18.180025657854657"><ele>42.0</ele><time>2026-04-19T07:29:34.999Z</time></trkpt><trkpt lat="40.382550488067395" lon="18.18010033376337"><ele>42.0</ele><time>2026-04-19T07:29:35.999Z</time></trkpt><trkpt lat="40.382503054247636" lon="18.18016885678302"><ele>42.0</ele><time>2026-04-19T07:29:36.999Z</time></trkpt><trkpt lat="40.382446880071484" lon="18.180260401323487"><ele>42.0</ele><time>2026-04-19T07:29:38.999Z</time></trkpt><trkpt lat="40.38239632815532" lon="18.18031876343879"><ele>42.0</ele><time>2026-04-19T07:29:40.999Z</time></trkpt><trkpt lat="40.382520522441595" lon="18.18050353523284"><ele>42.0</ele><time>2026-04-19T07:29:45.999Z</time></trkpt><trkpt lat="40.382580990383424" lon="18.18053122142328"><ele>42.0</ele><time>2026-04-19T07:29:46.999Z</time></trkpt><trkpt lat="40.38268418522531" lon="18.18059010439502"><ele>42.0</ele><time>2026-04-19T07:29:48.999Z</time></trkpt><trkpt lat="40.38278761055741" lon="18.18064219350351"><ele>42.0</ele><time>2026-04-19T07:29:50.999Z</time></trkpt><trkpt lat="40.382880553524515" lon="18.180693127419637"><ele>42.0</ele><time>2026-04-19T07:29:52.999Z</time></trkpt><trkpt lat="40.38301111548048" lon="18.180753259529162"><ele>41.8</ele><time>2026-04-19T07:29:54.999Z</time></trkpt><trkpt lat="40.383102347880616" lon="18.180791207656565"><ele>41.6</ele><time>2026-04-19T07:29:55.999Z</time></trkpt><trkpt lat="40.383193492655664" lon="18.18082852904697"><ele>41.4</ele><time>2026-04-19T07:29:56.999Z</time></trkpt><trkpt lat="40.38326726317188" lon="18.180859372777515"><ele>41.199999999999996</ele><time>2026-04-19T07:29:57.999Z</time></trkpt><trkpt lat="40.38337947852901" lon="18.18090029559062"><ele>41.0</ele><time>2026-04-19T07:29:59.999Z</time></trkpt><trkpt lat="40.38348825466031" lon="18.18093711771938"><ele>41.0</ele><time>2026-04-19T07:30:01.999Z</time></trkpt><trkpt lat="40.38359693434846" lon="18.18097301033256"><ele>41.0</ele><time>2026-04-19T07:30:03.999Z</time></trkpt><trkpt lat="40.3836903645318" lon="18.18100880029705"><ele>41.0</ele><time>2026-04-19T07:30:05.999Z</time></trkpt><trkpt lat="40.383777107683606" lon="18.18103745641136"><ele>41.0</ele><time>2026-04-19T07:30:07.999Z</time></trkpt><trkpt lat="40.383852583090516" lon="18.181064561466233"><ele>41.0</ele><time>2026-04-19T07:30:09.998Z</time></trkpt><trkpt lat="40.38391923453809" lon="18.181091855181126"><ele>41.0</ele><time>2026-04-19T07:30:11.998Z</time></trkpt><trkpt lat="40.38399446283348" lon="18.181120176655416"><ele>41.5</ele><time>2026-04-19T07:30:13.998Z</time></trkpt><trkpt lat="40.384104019520755" lon="18.18115173044481"><ele>42.0</ele><time>2026-04-19T07:30:15.998Z</time></trkpt><trkpt lat="40.38422196273951" lon="18.181193450711074"><ele>42.5</ele><time>2026-04-19T07:30:17.998Z</time></trkpt><trkpt lat="40.384328436584305" lon="18.18123193616851"><ele>43.0</ele><time>2026-04-19T07:30:19.998Z</time></trkpt><trkpt lat="40.38443979542825" lon="18.181267490787736"><ele>43.0</ele><time>2026-04-19T07:30:21.998Z</time></trkpt><trkpt lat="40.384546327843815" lon="18.181309363310017"><ele>43.0</ele><time>2026-04-19T07:30:23.998Z</time></trkpt><trkpt lat="40.38463343931497" lon="18.181339193672226"><ele>43.0</ele><time>2026-04-19T07:30:25.998Z</time></trkpt><trkpt lat="40.384686600244464" lon="18.181385568838152"><ele>43.0</ele><time>2026-04-19T07:30:27.998Z</time></trkpt><trkpt lat="40.384761987782404" lon="18.181405160985875"><ele>43.0</ele><time>2026-04-19T07:30:31.998Z</time></trkpt><trkpt lat="40.384671514084" lon="18.1813450881603"><ele>43.0</ele><time>2026-04-19T07:30:36.998Z</time></trkpt><trkpt lat="40.384560379720114" lon="18.18129742454968"><ele>43.0</ele><time>2026-04-19T07:30:38.998Z</time></trkpt><trkpt lat="40.38445680890571" lon="18.181252377627008"><ele>43.0</ele><time>2026-04-19T07:30:40.998Z</time></trkpt><trkpt lat="40.384388429583126" lon="18.181232520164052"><ele>43.0</ele><time>2026-04-19T07:30:41.998Z</time></trkpt><trkpt lat="40.384317373916105" lon="18.181211972578648"><ele>43.0</ele><time>2026-04-19T07:30:42.998Z</time></trkpt><trkpt lat="40.3842437999939" lon="18.181189371923512"><ele>43.0</ele><time>2026-04-19T07:30:43.998Z</time></trkpt><trkpt lat="40.38413326760503" lon="18.18115293951275"><ele>43.0</ele><time>2026-04-19T07:30:45.998Z</time></trkpt><trkpt lat="40.38402817270742" lon="18.18111847892056"><ele>43.0</ele><time>2026-04-19T07:30:47.998Z</time></trkpt><trkpt lat="40.383930193062696" lon="18.18108490281904"><ele>43.0</ele><time>2026-04-19T07:30:49.998Z</time></trkpt><trkpt lat="40.38384254735264" lon="18.18105037621866"><ele>43.0</ele><time>2026-04-19T07:30:51.998Z</time></trkpt><trkpt lat="40.38373291490155" lon="18.181007742730902"><ele>43.0</ele><time>2026-04-19T07:30:53.998Z</time></trkpt><trkpt lat="40.38360445663539" lon="18.1809611333871"><ele>43.0</ele><time>2026-04-19T07:30:55.999Z</time></trkpt><trkpt lat="40.383540377120454" lon="18.18093902136187"><ele>42.66666666666667</ele><time>2026-04-19T07:30:56.999Z</time></trkpt><trkpt lat="40.38347009558716" lon="18.180912013035186"><ele>42.333333333333336</ele><time>2026-04-19T07:30:57.999Z</time></trkpt><trkpt lat="40.38339416603885" lon="18.180882187112708"><ele>42.0</ele><time>2026-04-19T07:30:58.999Z</time></trkpt><trkpt lat="40.383316926649414" lon="18.180853152705314"><ele>41.666666666666664</ele><time>2026-04-19T07:30:59.999Z</time></trkpt><trkpt lat="40.3832497827266" lon="18.18082774466502"><ele>41.33333333333333</ele><time>2026-04-19T07:31:00.999Z</time></trkpt><trkpt lat="40.383176198546934" lon="18.180803824483768"><ele>41.0</ele><time>2026-04-19T07:31:01.999Z</time></trkpt><trkpt lat="40.38310744507523" lon="18.18075355776205"><ele>41.0</ele><time>2026-04-19T07:31:02.999Z</time></trkpt><trkpt lat="40.38303658493411" lon="18.180723479215892"><ele>41.0</ele><time>2026-04-19T07:31:03.999Z</time></trkpt><trkpt lat="40.38296173140468" lon="18.180690071802974"><ele>41.0</ele><time>2026-04-19T07:31:04.999Z</time></trkpt><trkpt lat="40.38289212676147" lon="18.180655806749865"><ele>41.0</ele><time>2026-04-19T07:31:05.999Z</time></trkpt><trkpt lat="40.38281871567512" lon="18.180619006625186"><ele>41.0</ele><time>2026-04-19T07:31:06.999Z</time></trkpt><trkpt lat="40.38274395157677" lon="18.180599799256573"><ele>41.0</ele><time>2026-04-19T07:31:07.999Z</time></trkpt><trkpt lat="40.38268294822587" lon="18.180542980107006"><ele>41.199999999999996</ele><time>2026-04-19T07:31:08.999Z</time></trkpt><trkpt lat="40.382619646261986" lon="18.18050802006706"><ele>41.4</ele><time>2026-04-19T07:31:09.999Z</time></trkpt><trkpt lat="40.38255642086725" lon="18.18047310231247"><ele>41.6</ele><time>2026-04-19T07:31:10.999Z</time></trkpt><trkpt lat="40.38244822495569" lon="18.18043697391743"><ele>41.8</ele><time>2026-04-19T07:31:12.999Z</time></trkpt><trkpt lat="40.38240622715907" lon="18.18036650403551"><ele>42.0</ele><time>2026-04-19T07:31:14.999Z</time></trkpt><trkpt lat="40.38251201214998" lon="18.180210317055618"><ele>42.0</ele><time>2026-04-19T07:31:16.999Z</time></trkpt><trkpt lat="40.38256685231091" lon="18.180129201046977"><ele>42.0</ele><time>2026-04-19T07:31:17.999Z</time></trkpt><trkpt lat="40.38262091554602" lon="18.180051648155654"><ele>42.0</ele><time>2026-04-19T07:31:18.999Z</time></trkpt><trkpt lat="40.38266412260448" lon="18.17997033970384"><ele>42.0</ele><time>2026-04-19T07:31:19.999Z</time></trkpt><trkpt lat="40.382714960059666" lon="18.179892536123102"><ele>42.0</ele><time>2026-04-19T07:31:20.999Z</time></trkpt><trkpt lat="40.382774356818146" lon="18.179824877793337"><ele>42.0</ele><time>2026-04-19T07:31:21.999Z</time></trkpt><trkpt lat="40.38282594833413" lon="18.179742385862475"><ele>42.0</ele><time>2026-04-19T07:31:22.999Z</time></trkpt><trkpt lat="40.38288303700557" lon="18.17967709533902"><ele>42.0</ele><time>2026-04-19T07:31:23.999Z</time></trkpt><trkpt lat="40.382933358775475" lon="18.179600786121732"><ele>42.0</ele><time>2026-04-19T07:31:24.999Z</time></trkpt><trkpt lat="40.38298490740246" lon="18.179530812191317"><ele>42.0</ele><time>2026-04-19T07:31:25.999Z</time></trkpt><trkpt lat="40.38304031398157" lon="18.179453866835765"><ele>42.0</ele><time>2026-04-19T07:31:26.999Z</time></trkpt><trkpt lat="40.38309129094503" lon="18.179375036444934"><ele>42.0</ele><time>2026-04-19T07:31:27.999Z</time></trkpt><trkpt lat="40.38314233121405" lon="18.179301058360068"><ele>42.0</ele><time>2026-04-19T07:31:28.999Z</time></trkpt><trkpt lat="40.383195143859055" lon="18.17923585398984"><ele>42.0</ele><time>2026-04-19T07:31:29.999Z</time></trkpt><trkpt lat="40.383249303716575" lon="18.17915620705044"><ele>42.0</ele><time>2026-04-19T07:31:30.999Z</time></trkpt><trkpt lat="40.38329918915302" lon="18.17907537541216"><ele>42.0</ele><time>2026-04-19T07:31:31.999Z</time></trkpt><trkpt lat="40.38334666793199" lon="18.17899426898384"><ele>42.0</ele><time>2026-04-19T07:31:32.999Z</time></trkpt><trkpt lat="40.38339350240587" lon="18.178909250611653"><ele>42.0</ele><time>2026-04-19T07:31:33.999Z</time></trkpt><trkpt lat="40.38343924803896" lon="18.17882653482045"><ele>42.0</ele><time>2026-04-19T07:31:34.999Z</time></trkpt><trkpt lat="40.38348487420391" lon="18.178746022754655"><ele>42.0</ele><time>2026-04-19T07:31:35.999Z</time></trkpt><trkpt lat="40.38353116277794" lon="18.17866683340261"><ele>42.0</ele><time>2026-04-19T07:31:36.999Z</time></trkpt><trkpt lat="40.383574716300195" lon="18.17858567185615"><ele>42.0</ele><time>2026-04-19T07:31:37.999Z</time></trkpt><trkpt lat="40.383615635314854" lon="18.178507902933642"><ele>42.0</ele><time>2026-04-19T07:31:38.999Z</time></trkpt><trkpt lat="40.38366452529513" lon="18.178415066766608"><ele>42.0</ele><time>2026-04-19T07:31:39.999Z</time></trkpt><trkpt lat="40.38368158825993" lon="18.178331099044186"><ele>42.0</ele><time>2026-04-19T07:31:40.999Z</time></trkpt><trkpt lat="40.38370048313827" lon="18.17822864407675"><ele>42.0</ele><time>2026-04-19T07:31:41.999Z</time></trkpt><trkpt lat="40.38372007896579" lon="18.178122073609536"><ele>42.0</ele><time>2026-04-19T07:31:42.999Z</time></trkpt><trkpt lat="40.38372715391076" lon="18.178028114727233"><ele>42.0</ele><time>2026-04-19T07:31:43.999Z</time></trkpt><trkpt lat="40.38373770166369" lon="18.177934425538503"><ele>42.0</ele><time>2026-04-19T07:31:44.999Z</time></trkpt><trkpt lat="40.383754031353874" lon="18.177844448211346"><ele>42.0</ele><time>2026-04-19T07:31:45.999Z</time></trkpt><trkpt lat="40.383782270306256" lon="18.177750276944025"><ele>41.833333333333336</ele><time>2026-04-19T07:31:46.999Z</time></trkpt><trkpt lat="40.3838198229836" lon="18.177654938979774"><ele>41.666666666666664</ele><time>2026-04-19T07:31:47.999Z</time></trkpt><trkpt lat="40.38386046579613" lon="18.17756622812204"><ele>41.5</ele><time>2026-04-19T07:31:48.999Z</time></trkpt><trkpt lat="40.38389802871749" lon="18.17748225100529"><ele>41.33333333333333</ele><time>2026-04-19T07:31:49.999Z</time></trkpt><trkpt lat="40.3839380193022" lon="18.177394955312256"><ele>41.166666666666664</ele><time>2026-04-19T07:31:50.999Z</time></trkpt><trkpt lat="40.38397301571995" lon="18.177309450571805"><ele>41.0</ele><time>2026-04-19T07:31:51.999Z</time></trkpt><trkpt lat="40.38401236446169" lon="18.177221933188164"><ele>41.0</ele><time>2026-04-19T07:31:52.999Z</time></trkpt><trkpt lat="40.38406482875586" lon="18.17714256199241"><ele>41.0</ele><time>2026-04-19T07:31:53.999Z</time></trkpt><trkpt lat="40.384114540093364" lon="18.17706444991388"><ele>41.0</ele><time>2026-04-19T07:31:54.999Z</time></trkpt><trkpt lat="40.38416175612295" lon="18.17698767949212"><ele>41.0</ele><time>2026-04-19T07:31:55.999Z</time></trkpt><trkpt lat="40.384209017692584" lon="18.17690601660664"><ele>41.0</ele><time>2026-04-19T07:31:56.999Z</time></trkpt><trkpt lat="40.38425561238333" lon="18.17682425154317"><ele>41.0</ele><time>2026-04-19T07:31:57.998Z</time></trkpt><trkpt lat="40.3843012597195" lon="18.17674637363359"><ele>41.0</ele><time>2026-04-19T07:31:58.998Z</time></trkpt><trkpt lat="40.384348516840284" lon="18.176676281593213"><ele>41.0</ele><time>2026-04-19T07:31:59.998Z</time></trkpt><trkpt lat="40.38440038607511" lon="18.176597206446097"><ele>41.0</ele><time>2026-04-19T07:32:00.998Z</time></trkpt><trkpt lat="40.38444273043533" lon="18.17652203503999"><ele>41.0</ele><time>2026-04-19T07:32:01.998Z</time></trkpt><trkpt lat="40.38448674593884" lon="18.176444998352157"><ele>41.0</ele><time>2026-04-19T07:32:02.998Z</time></trkpt><trkpt lat="40.38452852716496" lon="18.17635991052509"><ele>41.0</ele><time>2026-04-19T07:32:03.998Z</time></trkpt><trkpt lat="40.38457141894029" lon="18.17627409031771"><ele>41.0</ele><time>2026-04-19T07:32:04.998Z</time></trkpt><trkpt lat="40.38461733187282" lon="18.17619312473251"><ele>41.0</ele><time>2026-04-19T07:32:05.998Z</time></trkpt><trkpt lat="40.38465763434065" lon="18.176103366189125"><ele>41.0</ele><time>2026-04-19T07:32:06.998Z</time></trkpt><trkpt lat="40.38469638127585" lon="18.176018566505945"><ele>41.0</ele><time>2026-04-19T07:32:07.998Z</time></trkpt><trkpt lat="40.38472542586535" lon="18.175931077339797"><ele>41.0</ele><time>2026-04-19T07:32:08.998Z</time></trkpt><trkpt lat="40.384754680658496" lon="18.17583005228714"><ele>41.0</ele><time>2026-04-19T07:32:09.998Z</time></trkpt><trkpt lat="40.384770632112634" lon="18.175743480451015"><ele>40.99999999999999</ele><time>2026-04-19T07:32:10.998Z</time></trkpt><trkpt lat="40.38477923197393" lon="18.175640248907946"><ele>41.0</ele><time>2026-04-19T07:32:11.998Z</time></trkpt><trkpt lat="40.38478508161243" lon="18.175539323391867"><ele>41.0</ele><time>2026-04-19T07:32:12.998Z</time></trkpt><trkpt lat="40.38479544965474" lon="18.175438985785558"><ele>41.0</ele><time>2026-04-19T07:32:13.998Z</time></trkpt><trkpt lat="40.38479808061494" lon="18.17533899185725"><ele>41.0</ele><time>2026-04-19T07:32:14.998Z</time></trkpt><trkpt lat="40.384799896728744" lon="18.17524578852797"><ele>40.99999999999999</ele><time>2026-04-19T07:32:15.998Z</time></trkpt><trkpt lat="40.38480530898931" lon="18.175163249138674"><ele>41.0</ele><time>2026-04-19T07:32:16.998Z</time></trkpt><trkpt lat="40.384812064150566" lon="18.175032105742666"><ele>41.0</ele><time>2026-04-19T07:32:18.998Z</time></trkpt><trkpt lat="40.38481912771011" lon="18.174948276907813"><ele>41.0</ele><time>2026-04-19T07:32:20.998Z</time></trkpt><trkpt lat="40.38478878133566" lon="18.175043942264985"><ele>41.0</ele><time>2026-04-19T07:44:39Z</time></trkpt><trkpt lat="40.384785225793685" lon="18.175199346382314"><ele>41.0</ele><time>2026-04-19T07:44:40Z</time></trkpt><trkpt lat="40.384781009287096" lon="18.17533042293063"><ele>41.0</ele><time>2026-04-19T07:44:41Z</time></trkpt><trkpt lat="40.38476927383765" lon="18.17547505253376"><ele>41.0</ele><time>2026-04-19T07:44:42Z</time></trkpt><trkpt lat="40.38475334757725" lon="18.175628229781303"><ele>41.0</ele><time>2026-04-19T07:44:43Z</time></trkpt><trkpt lat="40.384730788949305" lon="18.17577548881319"><ele>41.0</ele><time>2026-04-19T07:44:44Z</time></trkpt><trkpt lat="40.38469494970698" lon="18.175921114923533"><ele>41.0</ele><time>2026-04-19T07:44:45Z</time></trkpt><trkpt lat="40.38464749522195" lon="18.17603714971542"><ele>41.0</ele><time>2026-04-19T07:44:46Z</time></trkpt><trkpt lat="40.38460043991629" lon="18.176131442523698"><ele>41.0</ele><time>2026-04-19T07:44:47Z</time></trkpt><trkpt lat="40.384541635926695" lon="18.176244548993"><ele>41.0</ele><time>2026-04-19T07:44:48Z</time></trkpt><trkpt lat="40.38449477948256" lon="18.176345746592762"><ele>41.0</ele><time>2026-04-19T07:44:49Z</time></trkpt><trkpt lat="40.38443896551181" lon="18.176458217131845"><ele>41.0</ele><time>2026-04-19T07:44:50Z</time></trkpt><trkpt lat="40.384365545561934" lon="18.17659249518513"><ele>41.0</ele><time>2026-04-19T07:44:51Z</time></trkpt><trkpt lat="40.38429896638755" lon="18.176702987875675"><ele>41.0</ele><time>2026-04-19T07:44:52Z</time></trkpt><trkpt lat="40.384241348982165" lon="18.176801627001524"><ele>41.0</ele><time>2026-04-19T07:44:53Z</time></trkpt><trkpt lat="40.38417696347942" lon="18.176907689165674"><ele>41.0</ele><time>2026-04-19T07:44:54Z</time></trkpt><trkpt lat="40.384122135636076" lon="18.17700500702081"><ele>41.0</ele><time>2026-04-19T07:44:55Z</time></trkpt><trkpt lat="40.384075239636196" lon="18.17709722678362"><ele>41.0</ele><time>2026-04-19T07:44:56Z</time></trkpt><trkpt lat="40.3840164773957" lon="18.17717119730031"><ele>41.0</ele><time>2026-04-19T07:44:57Z</time></trkpt><trkpt lat="40.38396490972546" lon="18.177269798283767"><ele>41.0</ele><time>2026-04-19T07:44:58Z</time></trkpt><trkpt lat="40.383922355225735" lon="18.177392810694254"><ele>41.0</ele><time>2026-04-19T07:44:59Z</time></trkpt><trkpt lat="40.38384967447191" lon="18.17752867414219"><ele>41.0</ele><time>2026-04-19T07:45:00Z</time></trkpt><trkpt lat="40.3837849308076" lon="18.17767805470917"><ele>41.0</ele><time>2026-04-19T07:45:01Z</time></trkpt><trkpt lat="40.38373886755564" lon="18.177826528062898"><ele>41.0</ele><time>2026-04-19T07:45:02Z</time></trkpt><trkpt lat="40.38370323351231" lon="18.17795907581161"><ele>41.0</ele><time>2026-04-19T07:45:03Z</time></trkpt><trkpt lat="40.383676539370754" lon="18.17813364789173"><ele>41.0</ele><time>2026-04-19T07:45:04Z</time></trkpt><trkpt lat="40.383660466767545" lon="18.178326777963843"><ele>41.199999999999996</ele><time>2026-04-19T07:45:05Z</time></trkpt><trkpt lat="40.38361606615772" lon="18.178440076379992"><ele>41.4</ele><time>2026-04-19T07:45:06Z</time></trkpt><trkpt lat="40.383561047509" lon="18.17854298236833"><ele>41.6</ele><time>2026-04-19T07:45:07Z</time></trkpt><trkpt lat="40.383498017272366" lon="18.178657955685367"><ele>41.8</ele><time>2026-04-19T07:45:08Z</time></trkpt><trkpt lat="40.38343651233748" lon="18.178796939148246"><ele>42.0</ele><time>2026-04-19T07:45:09Z</time></trkpt><trkpt lat="40.38335429959337" lon="18.17891401099465"><ele>41.75</ele><time>2026-04-19T07:45:10Z</time></trkpt><trkpt lat="40.383279739366436" lon="18.179054749215005"><ele>41.5</ele><time>2026-04-19T07:45:11Z</time></trkpt><trkpt lat="40.38319866973439" lon="18.17918398691996"><ele>41.25</ele><time>2026-04-19T07:45:12Z</time></trkpt><trkpt lat="40.38311548165733" lon="18.179311462384778"><ele>41.0</ele><time>2026-04-19T07:45:13Z</time></trkpt><trkpt lat="40.3830288118649" lon="18.179433969763565"><ele>41.25</ele><time>2026-04-19T07:45:14Z</time></trkpt><trkpt lat="40.382937288333046" lon="18.17956034648371"><ele>41.5</ele><time>2026-04-19T07:45:15Z</time></trkpt><trkpt lat="40.38285172365196" lon="18.179679955707275"><ele>41.75</ele><time>2026-04-19T07:45:16Z</time></trkpt><trkpt lat="40.38277141618575" lon="18.179784413107235"><ele>42.0</ele><time>2026-04-19T07:45:17Z</time></trkpt><trkpt lat="40.382700625869106" lon="18.179890814882537"><ele>42.0</ele><time>2026-04-19T07:45:18Z</time></trkpt><trkpt lat="40.3826314870753" lon="18.179984309787272"><ele>42.0</ele><time>2026-04-19T07:45:19Z</time></trkpt><trkpt lat="40.38256897750694" lon="18.180076378370764"><ele>42.0</ele><time>2026-04-19T07:45:20Z</time></trkpt><trkpt lat="40.3825172869488" lon="18.180154787069913"><ele>42.0</ele><time>2026-04-19T07:45:21Z</time></trkpt><trkpt lat="40.38247094802772" lon="18.180221479918966"><ele>42.0</ele><time>2026-04-19T07:45:22Z</time></trkpt><trkpt lat="40.38240777415091" lon="18.180329433894634"><ele>42.0</ele><time>2026-04-19T07:45:23.999Z</time></trkpt><trkpt lat="40.382357831684345" lon="18.180392963439786"><ele>42.0</ele><time>2026-04-19T07:45:27.999Z</time></trkpt><trkpt lat="40.38245634649149" lon="18.180501177065054"><ele>42.0</ele><time>2026-04-19T07:45:28.999Z</time></trkpt><trkpt lat="40.3825309278968" lon="18.180519140584554"><ele>42.0</ele><time>2026-04-19T07:45:29.999Z</time></trkpt><trkpt lat="40.382629728686695" lon="18.180563942291197"><ele>42.0</ele><time>2026-04-19T07:45:31.999Z</time></trkpt><trkpt lat="40.38273102438427" lon="18.18060490350633"><ele>42.0</ele><time>2026-04-19T07:45:33.999Z</time></trkpt><trkpt lat="40.382785818350946" lon="18.180652420799685"><ele>41.8</ele><time>2026-04-19T07:45:35.999Z</time></trkpt><trkpt lat="40.38286126748064" lon="18.18069440960851"><ele>41.6</ele><time>2026-04-19T07:45:38.999Z</time></trkpt><trkpt lat="40.382950352248905" lon="18.1807168546611"><ele>41.4</ele><time>2026-04-19T07:45:40.999Z</time></trkpt><trkpt lat="40.383051499217586" lon="18.180770229382784"><ele>41.199999999999996</ele><time>2026-04-19T07:45:42.999Z</time></trkpt><trkpt lat="40.383157640165756" lon="18.180814364679883"><ele>41.0</ele><time>2026-04-19T07:45:44.999Z</time></trkpt><trkpt lat="40.3832485278467" lon="18.18084941666901"><ele>41.0</ele><time>2026-04-19T07:45:46.999Z</time></trkpt><trkpt lat="40.38334857593228" lon="18.180883824627276"><ele>41.0</ele><time>2026-04-19T07:45:48.999Z</time></trkpt><trkpt lat="40.3834488333071" lon="18.180919452346675"><ele>41.0</ele><time>2026-04-19T07:45:50.999Z</time></trkpt><trkpt lat="40.38355418659415" lon="18.180954096200207"><ele>41.0</ele><time>2026-04-19T07:45:52.999Z</time></trkpt><trkpt lat="40.38362764497298" lon="18.18098156497645"><ele>41.0</ele><time>2026-04-19T07:45:54.999Z</time></trkpt><trkpt lat="40.383691357503146" lon="18.18101505220739"><ele>41.0</ele><time>2026-04-19T07:45:58.999Z</time></trkpt><trkpt lat="40.38377204842133" lon="18.18104562610601"><ele>41.0</ele><time>2026-04-19T07:47:33.999Z</time></trkpt><trkpt lat="40.38384107873368" lon="18.181055827038477"><ele>41.0</ele><time>2026-04-19T07:47:34.999Z</time></trkpt><trkpt lat="40.38394253896294" lon="18.181085290830264"><ele>41.0</ele><time>2026-04-19T07:47:35.999Z</time></trkpt><trkpt lat="40.38401274498166" lon="18.181105872325233"><ele>41.0</ele><time>2026-04-19T07:47:36.999Z</time></trkpt><trkpt lat="40.384118703084454" lon="18.181151648403567"><ele>41.0</ele><time>2026-04-19T07:47:37.999Z</time></trkpt><trkpt lat="40.38422020653693" lon="18.181189126543252"><ele>41.0</ele><time>2026-04-19T07:47:38.999Z</time></trkpt><trkpt lat="40.38431445327042" lon="18.18122187364187"><ele>41.0</ele><time>2026-04-19T07:47:39.999Z</time></trkpt><trkpt lat="40.384411672729435" lon="18.18125565463552"><ele>41.0</ele><time>2026-04-19T07:47:40.999Z</time></trkpt><trkpt lat="40.38453314044118" lon="18.18129472941572"><ele>41.0</ele><time>2026-04-19T07:47:41.999Z</time></trkpt><trkpt lat="40.384629165285" lon="18.181325212269464"><ele>41.0</ele><time>2026-04-19T07:47:42.999Z</time></trkpt><trkpt lat="40.38472814319925" lon="18.181354804776063"><ele>41.0</ele><time>2026-04-19T07:47:43.999Z</time></trkpt><trkpt lat="40.38485590735147" lon="18.18138577618259"><ele>41.0</ele><time>2026-04-19T07:47:44.999Z</time></trkpt><trkpt lat="40.384978983351964" lon="18.18141145231599"><ele>41.0</ele><time>2026-04-19T07:47:45.999Z</time></trkpt><trkpt lat="40.38510859271133" lon="18.18143906987305"><ele>41.0</ele><time>2026-04-19T07:47:46.999Z</time></trkpt><trkpt lat="40.38524518099755" lon="18.1814631700759"><ele>41.0</ele><time>2026-04-19T07:47:47.999Z</time></trkpt><trkpt lat="40.38537880041162" lon="18.181487138010308"><ele>41.0</ele><time>2026-04-19T07:47:48.999Z</time></trkpt><trkpt lat="40.38550188558127" lon="18.181520659907463"><ele>41.0</ele><time>2026-04-19T07:47:49.999Z</time></trkpt><trkpt lat="40.38563320498933" lon="18.181556171905665"><ele>41.0</ele><time>2026-04-19T07:47:50.999Z</time></trkpt><trkpt lat="40.385754915076085" lon="18.181596612527187"><ele>40.5</ele><time>2026-04-19T07:47:51.999Z</time></trkpt><trkpt lat="40.38586936449461" lon="18.18163262542875"><ele>40.0</ele><time>2026-04-19T07:47:52.999Z</time></trkpt><trkpt lat="40.38598704565862" lon="18.181667006507023"><ele>39.5</ele><time>2026-04-19T07:47:53.999Z</time></trkpt><trkpt lat="40.38610800782485" lon="18.181700247643096"><ele>39.0</ele><time>2026-04-19T07:47:54.999Z</time></trkpt><trkpt lat="40.386218274536596" lon="18.181731340457734"><ele>39.0</ele><time>2026-04-19T07:47:55.999Z</time></trkpt><trkpt lat="40.38633823192103" lon="18.1817688048208"><ele>39.0</ele><time>2026-04-19T07:47:56.999Z</time></trkpt><trkpt lat="40.386459069549126" lon="18.181804799565317"><ele>39.0</ele><time>2026-04-19T07:47:57.999Z</time></trkpt><trkpt lat="40.38657840958716" lon="18.18183575651878"><ele>39.0</ele><time>2026-04-19T07:47:58.999Z</time></trkpt><trkpt lat="40.38670086182577" lon="18.181869168480684"><ele>39.0</ele><time>2026-04-19T07:47:59.999Z</time></trkpt><trkpt lat="40.38682923892211" lon="18.181904292271984"><ele>39.0</ele><time>2026-04-19T07:48:00.999Z</time></trkpt><trkpt lat="40.38695608168736" lon="18.181923146177198"><ele>39.0</ele><time>2026-04-19T07:48:01.999Z</time></trkpt><trkpt lat="40.3870754586024" lon="18.181927592872885"><ele>39.0</ele><time>2026-04-19T07:48:03Z</time></trkpt><trkpt lat="40.38720271718733" lon="18.181932116296622"><ele>38.5</ele><time>2026-04-19T07:48:04Z</time></trkpt><trkpt lat="40.387321623639735" lon="18.181928603463536"><ele>38.0</ele><time>2026-04-19T07:48:05Z</time></trkpt><trkpt lat="40.38742660350661" lon="18.18193189431909"><ele>37.5</ele><time>2026-04-19T07:48:06Z</time></trkpt><trkpt lat="40.38752664593563" lon="18.181938247583886"><ele>37.0</ele><time>2026-04-19T07:48:07Z</time></trkpt><trkpt lat="40.387652489667836" lon="18.18196206703587"><ele>37.0</ele><time>2026-04-19T07:48:08Z</time></trkpt><trkpt lat="40.38778842451013" lon="18.181958212865464"><ele>37.0</ele><time>2026-04-19T07:48:09Z</time></trkpt><trkpt lat="40.387894433239246" lon="18.18197088820546"><ele>37.0</ele><time>2026-04-19T07:48:10Z</time></trkpt><trkpt lat="40.38798372825549" lon="18.181985908668896"><ele>37.0</ele><time>2026-04-19T07:48:11Z</time></trkpt><trkpt lat="40.388066288982714" lon="18.181992021289016"><ele>37.0</ele><time>2026-04-19T07:48:12Z</time></trkpt><trkpt lat="40.388157365657456" lon="18.181995154805207"><ele>37.0</ele><time>2026-04-19T07:48:13Z</time></trkpt><trkpt lat="40.388261124728345" lon="18.182005444021243"><ele>37.0</ele><time>2026-04-19T07:48:14Z</time></trkpt><trkpt lat="40.38837885877858" lon="18.18202350103799"><ele>37.0</ele><time>2026-04-19T07:48:15Z</time></trkpt><trkpt lat="40.3885716601432" lon="18.18203985180416"><ele>37.0</ele><time>2026-04-19T07:48:17Z</time></trkpt><trkpt lat="40.38866164617015" lon="18.182041530294782"><ele>37.0</ele><time>2026-04-19T07:48:18Z</time></trkpt><trkpt lat="40.38873658821131" lon="18.18204442398304"><ele>37.0</ele><time>2026-04-19T07:48:19Z</time></trkpt><trkpt lat="40.3888571333123" lon="18.182077727605563"><ele>37.0</ele><time>2026-04-19T07:48:21Z</time></trkpt><trkpt lat="40.38892000158767" lon="18.182088243209147"><ele>37.0</ele><time>2026-04-19T07:48:22Z</time></trkpt><trkpt lat="40.38902034030585" lon="18.181977204213204"><ele>37.0</ele><time>2026-04-19T07:48:23Z</time></trkpt><trkpt lat="40.38912037517021" lon="18.181949720604557"><ele>36.66666666666667</ele><time>2026-04-19T07:48:24Z</time></trkpt><trkpt lat="40.3892110213498" lon="18.181924941566322"><ele>36.333333333333336</ele><time>2026-04-19T07:48:25Z</time></trkpt><trkpt lat="40.38929035160226" lon="18.181879109242498"><ele>36.0</ele><time>2026-04-19T07:48:26Z</time></trkpt><trkpt lat="40.389365152473076" lon="18.181854776310935"><ele>35.666666666666664</ele><time>2026-04-19T07:48:27Z</time></trkpt><trkpt lat="40.389441978796604" lon="18.181820060806817"><ele>35.33333333333333</ele><time>2026-04-19T07:48:28Z</time></trkpt><trkpt lat="40.38953501032544" lon="18.18179314645383"><ele>35.0</ele><time>2026-04-19T07:48:29Z</time></trkpt><trkpt lat="40.38960355001221" lon="18.18173768580372"><ele>35.25</ele><time>2026-04-19T07:48:30Z</time></trkpt><trkpt lat="40.38967878423053" lon="18.181690600168075"><ele>35.5</ele><time>2026-04-19T07:48:31Z</time></trkpt><trkpt lat="40.38978594060375" lon="18.181629051822235"><ele>35.75</ele><time>2026-04-19T07:48:32Z</time></trkpt><trkpt lat="40.389904134851676" lon="18.181539008040655"><ele>36.0</ele><time>2026-04-19T07:48:33Z</time></trkpt><trkpt lat="40.39000774810139" lon="18.181453641156576"><ele>36.2</ele><time>2026-04-19T07:48:34Z</time></trkpt><trkpt lat="40.39009323319663" lon="18.181384860948437"><ele>36.400000000000006</ele><time>2026-04-19T07:48:35Z</time></trkpt><trkpt lat="40.39017528786216" lon="18.181320903578182"><ele>36.6</ele><time>2026-04-19T07:48:36Z</time></trkpt><trkpt lat="40.390262740505115" lon="18.181251314388785"><ele>36.800000000000004</ele><time>2026-04-19T07:48:37Z</time></trkpt><trkpt lat="40.390346195498864" lon="18.181186310745797"><ele>37.0</ele><time>2026-04-19T07:48:38Z</time></trkpt><trkpt lat="40.39042075539206" lon="18.181131539432847"><ele>37.0</ele><time>2026-04-19T07:48:39Z</time></trkpt><trkpt lat="40.39049764631932" lon="18.181070140576946"><ele>37.0</ele><time>2026-04-19T07:48:40Z</time></trkpt><trkpt lat="40.39056458174048" lon="18.18101913381036"><ele>37.0</ele><time>2026-04-19T07:48:41Z</time></trkpt><trkpt lat="40.39064682557079" lon="18.18097618264558"><ele>37.0</ele><time>2026-04-19T07:48:42Z</time></trkpt><trkpt lat="40.39071903943449" lon="18.180921732524542"><ele>37.0</ele><time>2026-04-19T07:48:43Z</time></trkpt><trkpt lat="40.390800960309264" lon="18.18086519615543"><ele>37.0</ele><time>2026-04-19T07:48:44Z</time></trkpt><trkpt lat="40.39091189891041" lon="18.180792477706063"><ele>37.0</ele><time>2026-04-19T07:48:45Z</time></trkpt><trkpt lat="40.391023385798185" lon="18.1807008372778"><ele>37.0</ele><time>2026-04-19T07:48:46Z</time></trkpt><trkpt lat="40.39115569520123" lon="18.18064069182394"><ele>37.0</ele><time>2026-04-19T07:48:47Z</time></trkpt><trkpt lat="40.391237375004756" lon="18.180571850945668"><ele>37.0</ele><time>2026-04-19T07:48:48Z</time></trkpt><trkpt lat="40.391309671703894" lon="18.180524653056263"><ele>37.0</ele><time>2026-04-19T07:48:49Z</time></trkpt><trkpt lat="40.39139316598202" lon="18.180499200006935"><ele>36.75</ele><time>2026-04-19T07:48:50Z</time></trkpt><trkpt lat="40.391511958845456" lon="18.180432950969404"><ele>36.5</ele><time>2026-04-19T07:48:51Z</time></trkpt><trkpt lat="40.39163751751584" lon="18.180372169359764"><ele>36.25</ele><time>2026-04-19T07:48:52Z</time></trkpt><trkpt lat="40.39176924881316" lon="18.180289495128918"><ele>36.0</ele><time>2026-04-19T07:48:53Z</time></trkpt><trkpt lat="40.39187718604501" lon="18.180235440484072"><ele>36.0</ele><time>2026-04-19T07:48:54Z</time></trkpt><trkpt lat="40.3919737479147" lon="18.180193433406885"><ele>36.0</ele><time>2026-04-19T07:48:55Z</time></trkpt><trkpt lat="40.39206658205783" lon="18.180147603003626"><ele>36.0</ele><time>2026-04-19T07:48:56Z</time></trkpt><trkpt lat="40.3921561169798" lon="18.180108218732457"><ele>36.0</ele><time>2026-04-19T07:48:57Z</time></trkpt><trkpt lat="40.39224010620992" lon="18.180067294959223"><ele>36.0</ele><time>2026-04-19T07:48:58Z</time></trkpt><trkpt lat="40.39231826881412" lon="18.180032713787657"><ele>36.0</ele><time>2026-04-19T07:48:59Z</time></trkpt><trkpt lat="40.392402983318256" lon="18.180001945444904"><ele>36.0</ele><time>2026-04-19T07:49:00Z</time></trkpt><trkpt lat="40.392493650523264" lon="18.17998939744877"><ele>36.0</ele><time>2026-04-19T07:49:01Z</time></trkpt><trkpt lat="40.392613376665835" lon="18.179956425007454"><ele>36.0</ele><time>2026-04-19T07:49:02Z</time></trkpt><trkpt lat="40.39272112704725" lon="18.179916873770196"><ele>36.0</ele><time>2026-04-19T07:49:03Z</time></trkpt><trkpt lat="40.39281734844532" lon="18.179881863335726"><ele>36.0</ele><time>2026-04-19T07:49:04Z</time></trkpt><trkpt lat="40.392905061559745" lon="18.179858039561182"><ele>36.0</ele><time>2026-04-19T07:49:05Z</time></trkpt><trkpt lat="40.39298021105975" lon="18.179831553519357"><ele>36.0</ele><time>2026-04-19T07:49:06Z</time></trkpt><trkpt lat="40.39304930789008" lon="18.17982671283182"><ele>36.0</ele><time>2026-04-19T07:49:07Z</time></trkpt><trkpt lat="40.39312231203609" lon="18.179802284404747"><ele>36.0</ele><time>2026-04-19T07:49:08Z</time></trkpt><trkpt lat="40.393197122637496" lon="18.179753841561148"><ele>36.0</ele><time>2026-04-19T07:49:09Z</time></trkpt><trkpt lat="40.39326387065656" lon="18.179727472235413"><ele>35.6</ele><time>2026-04-19T07:49:10Z</time></trkpt><trkpt lat="40.393387902139" lon="18.17970418802614"><ele>35.2</ele><time>2026-04-19T07:49:12Z</time></trkpt><trkpt lat="40.393452725965155" lon="18.179661766542907"><ele>34.8</ele><time>2026-04-19T07:49:13Z</time></trkpt><trkpt lat="40.39352514285885" lon="18.17963937573837"><ele>34.4</ele><time>2026-04-19T07:49:14Z</time></trkpt><trkpt lat="40.39363759890097" lon="18.179601120638967"><ele>34.0</ele><time>2026-04-19T07:49:16Z</time></trkpt><trkpt lat="40.393740050338586" lon="18.17959936518174"><ele>34.2</ele><time>2026-04-19T07:49:18.001Z</time></trkpt><trkpt lat="40.393866702620066" lon="18.17959888623591"><ele>34.4</ele><time>2026-04-19T07:49:20.001Z</time></trkpt><trkpt lat="40.39394550222128" lon="18.179573939455015"><ele>34.6</ele><time>2026-04-19T07:49:21.001Z</time></trkpt><trkpt lat="40.394025598482564" lon="18.179582390093437"><ele>34.8</ele><time>2026-04-19T07:49:22.001Z</time></trkpt><trkpt lat="40.39413010160134" lon="18.179542310578967"><ele>35.0</ele><time>2026-04-19T07:49:24.001Z</time></trkpt><trkpt lat="40.39402840205938" lon="18.179379478432363"><ele>35.0</ele><time>2026-04-19T07:49:25.001Z</time></trkpt><trkpt lat="40.39410194675102" lon="18.179267827578553"><ele>35.0</ele><time>2026-04-19T07:49:27.001Z</time></trkpt><trkpt lat="40.39415458064406" lon="18.179187484549185"><ele>35.0</ele><time>2026-04-19T07:49:28.001Z</time></trkpt><trkpt lat="40.39420298560836" lon="18.179116060917607"><ele>35.0</ele><time>2026-04-19T07:49:29.001Z</time></trkpt><trkpt lat="40.39424674252927" lon="18.179052353918475"><ele>35.0</ele><time>2026-04-19T07:49:30.001Z</time></trkpt><trkpt lat="40.39432852213935" lon="18.178935893137893"><ele>35.0</ele><time>2026-04-19T07:49:32.001Z</time></trkpt><trkpt lat="40.39438254755942" lon="18.178858956548144"><ele>35.0</ele><time>2026-04-19T07:49:33.001Z</time></trkpt><trkpt lat="40.394473030960775" lon="18.17872788627399"><ele>35.0</ele><time>2026-04-19T07:49:34.999Z</time></trkpt><trkpt lat="40.394516729658946" lon="18.178664355100217"><ele>35.0</ele><time>2026-04-19T07:49:35.999Z</time></trkpt><trkpt lat="40.394564947958926" lon="18.178595907187862"><ele>35.0</ele><time>2026-04-19T07:49:36.999Z</time></trkpt><trkpt lat="40.3946197095572" lon="18.17852226731897"><ele>35.0</ele><time>2026-04-19T07:49:37.999Z</time></trkpt><trkpt lat="40.394674740930625" lon="18.178451699748255"><ele>35.0</ele><time>2026-04-19T07:49:38.999Z</time></trkpt><trkpt lat="40.39472363688891" lon="18.178393098083912"><ele>35.0</ele><time>2026-04-19T07:49:39.999Z</time></trkpt><trkpt lat="40.39481118259994" lon="18.178288174429873"><ele>35.0</ele><time>2026-04-19T07:49:41.999Z</time></trkpt><trkpt lat="40.39488138373866" lon="18.178205919942563"><ele>35.0</ele><time>2026-04-19T07:49:44.999Z</time></trkpt><trkpt lat="40.394967496215344" lon="18.17814136467456"><ele>35.0</ele><time>2026-04-19T07:49:46.999Z</time></trkpt><trkpt lat="40.39544269736223" lon="18.178584484609516"><ele>34.6</ele><time>2026-04-19T07:49:48.999Z</time></trkpt><trkpt lat="40.39555785358775" lon="18.17855727997686"><ele>34.2</ele><time>2026-04-19T07:49:50.999Z</time></trkpt><trkpt lat="40.395645440080905" lon="18.178538209984136"><ele>33.8</ele><time>2026-04-19T07:49:52.999Z</time></trkpt><trkpt lat="40.39574890636495" lon="18.178508162244707"><ele>33.4</ele><time>2026-04-19T07:49:54.999Z</time></trkpt><trkpt lat="40.39585861776693" lon="18.17848573466864"><ele>33.0</ele><time>2026-04-19T07:49:56.999Z</time></trkpt><trkpt lat="40.395957847447406" lon="18.178462821342695"><ele>33.0</ele><time>2026-04-19T07:49:58.999Z</time></trkpt><trkpt lat="40.39606708760228" lon="18.178424217907473"><ele>33.0</ele><time>2026-04-19T07:50:00.999Z</time></trkpt><trkpt lat="40.39616923314463" lon="18.178398817863396"><ele>33.0</ele><time>2026-04-19T07:50:02.999Z</time></trkpt><trkpt lat="40.396233563494484" lon="18.178378919856872"><ele>33.0</ele><time>2026-04-19T07:50:04Z</time></trkpt><trkpt lat="40.39630675000385" lon="18.178363739210607"><ele>33.0</ele><time>2026-04-19T07:50:05Z</time></trkpt><trkpt lat="40.39640651115645" lon="18.178333339681405"><ele>33.0</ele><time>2026-04-19T07:50:07Z</time></trkpt><trkpt lat="40.39650905581641" lon="18.178308846519055"><ele>33.0</ele><time>2026-04-19T07:50:09Z</time></trkpt><trkpt lat="40.39660106594296" lon="18.17828059272462"><ele>33.0</ele><time>2026-04-19T07:50:11Z</time></trkpt><trkpt lat="40.39669906462236" lon="18.17825446491854"><ele>33.0</ele><time>2026-04-19T07:50:13Z</time></trkpt><trkpt lat="40.396780445547485" lon="18.17823041488411"><ele>33.0</ele><time>2026-04-19T07:50:15Z</time></trkpt><trkpt lat="40.39687551518982" lon="18.17820533244265"><ele>33.0</ele><time>2026-04-19T07:50:17Z</time></trkpt><trkpt lat="40.396978981317694" lon="18.17816525497871"><ele>33.0</ele><time>2026-04-19T07:50:19Z</time></trkpt><trkpt lat="40.397070503384654" lon="18.178148878855197"><ele>33.0</ele><time>2026-04-19T07:50:21Z</time></trkpt><trkpt lat="40.397194592493456" lon="18.178119118421236"><ele>33.0</ele><time>2026-04-19T07:50:23Z</time></trkpt><trkpt lat="40.39729275188339" lon="18.17810221631376"><ele>33.0</ele><time>2026-04-19T07:50:25Z</time></trkpt><trkpt lat="40.3974007054289" lon="18.17809096798277"><ele>32.8</ele><time>2026-04-19T07:50:27Z</time></trkpt><trkpt lat="40.397504429402964" lon="18.178073698718613"><ele>32.599999999999994</ele><time>2026-04-19T07:50:29Z</time></trkpt><trkpt lat="40.39760357301774" lon="18.17805620818521"><ele>32.400000000000006</ele><time>2026-04-19T07:50:31Z</time></trkpt><trkpt lat="40.397707435491846" lon="18.178044129931497"><ele>32.2</ele><time>2026-04-19T07:50:33Z</time></trkpt><trkpt lat="40.397799557803545" lon="18.178029833331877"><ele>32.0</ele><time>2026-04-19T07:50:35Z</time></trkpt><trkpt lat="40.39791587170876" lon="18.178017890293134"><ele>31.999999999999996</ele><time>2026-04-19T07:50:37Z</time></trkpt><trkpt lat="40.39801375612971" lon="18.178003722600334"><ele>32.0</ele><time>2026-04-19T07:50:39Z</time></trkpt><trkpt lat="40.3980797417429" lon="18.1780026161709"><ele>32.0</ele><time>2026-04-19T07:50:40Z</time></trkpt><trkpt lat="40.398184867565035" lon="18.177997631320128"><ele>32.0</ele><time>2026-04-19T07:50:42Z</time></trkpt><trkpt lat="40.39826402409103" lon="18.17798845685624"><ele>31.999999999999996</ele><time>2026-04-19T07:50:44Z</time></trkpt><trkpt lat="40.39834046682419" lon="18.17800148796564"><ele>32.0</ele><time>2026-04-19T07:50:46Z</time></trkpt><trkpt lat="40.39848110612424" lon="18.17798906931121"><ele>32.0</ele><time>2026-04-19T07:50:48Z</time></trkpt><trkpt lat="40.39859393679758" lon="18.177990315738047"><ele>32.0</ele><time>2026-04-19T07:50:50Z</time></trkpt><trkpt lat="40.398703805248864" lon="18.177992055573302"><ele>32.0</ele><time>2026-04-19T07:50:52Z</time></trkpt><trkpt lat="40.398821707308784" lon="18.177991479658616"><ele>32.0</ele><time>2026-04-19T07:50:54.001Z</time></trkpt><trkpt lat="40.398927787532884" lon="18.17799855806488"><ele>32.0</ele><time>2026-04-19T07:50:56.001Z</time></trkpt><trkpt lat="40.39903249533207" lon="18.177994246035478"><ele>32.0</ele><time>2026-04-19T07:50:58.001Z</time></trkpt><trkpt lat="40.399152598073904" lon="18.177990030045958"><ele>32.0</ele><time>2026-04-19T07:51:00.001Z</time></trkpt><trkpt lat="40.39925273614846" lon="18.17798230531714"><ele>32.0</ele><time>2026-04-19T07:51:02.001Z</time></trkpt><trkpt lat="40.39933836689091" lon="18.17798639622522"><ele>32.0</ele><time>2026-04-19T07:51:04.001Z</time></trkpt><trkpt lat="40.399436711356806" lon="18.177983925844877"><ele>32.0</ele><time>2026-04-19T07:51:06.001Z</time></trkpt><trkpt lat="40.39952881401399" lon="18.177982584459603"><ele>32.0</ele><time>2026-04-19T07:51:08.001Z</time></trkpt><trkpt lat="40.399634248865084" lon="18.177989754004184"><ele>32.0</ele><time>2026-04-19T07:51:09.001Z</time></trkpt><trkpt lat="40.399774106074645" lon="18.178012698124476"><ele>32.0</ele><time>2026-04-19T07:51:10.001Z</time></trkpt><trkpt lat="40.39987737039327" lon="18.178027444325128"><ele>32.0</ele><time>2026-04-19T07:51:11.001Z</time></trkpt><trkpt lat="40.39995749921876" lon="18.178019841523863"><ele>32.0</ele><time>2026-04-19T07:51:12.001Z</time></trkpt><trkpt lat="40.400066749187296" lon="18.178060810748313"><ele>32.0</ele><time>2026-04-19T07:51:14.001Z</time></trkpt><trkpt lat="40.40012975345272" lon="18.178125803267978"><ele>32.0</ele><time>2026-04-19T07:51:15.001Z</time></trkpt><trkpt lat="40.400226729666244" lon="18.17821889968325"><ele>32.0</ele><time>2026-04-19T07:51:16.001Z</time></trkpt><trkpt lat="40.40034257730779" lon="18.17834126834253"><ele>32.0</ele><time>2026-04-19T07:51:17.001Z</time></trkpt><trkpt lat="40.40044614826948" lon="18.178461792917126"><ele>32.0</ele><time>2026-04-19T07:51:18.001Z</time></trkpt><trkpt lat="40.400537187291896" lon="18.178559256527535"><ele>32.0</ele><time>2026-04-19T07:51:19.001Z</time></trkpt><trkpt lat="40.4006213641287" lon="18.178647350710488"><ele>32.0</ele><time>2026-04-19T07:51:20.001Z</time></trkpt><trkpt lat="40.400704104020846" lon="18.178732108844823"><ele>32.0</ele><time>2026-04-19T07:51:21.001Z</time></trkpt><trkpt lat="40.400790815406545" lon="18.178820911819468"><ele>32.0</ele><time>2026-04-19T07:51:22.001Z</time></trkpt><trkpt lat="40.40087631916265" lon="18.17890089309284"><ele>32.0</ele><time>2026-04-19T07:51:23.001Z</time></trkpt><trkpt lat="40.40097249313125" lon="18.17898937111706"><ele>32.0</ele><time>2026-04-19T07:51:24.001Z</time></trkpt><trkpt lat="40.40105820496971" lon="18.179065346339804"><ele>32.0</ele><time>2026-04-19T07:51:25.001Z</time></trkpt><trkpt lat="40.40115049005289" lon="18.17915027341121"><ele>32.0</ele><time>2026-04-19T07:51:26.001Z</time></trkpt><trkpt lat="40.40127335728075" lon="18.179261379232805"><ele>32.0</ele><time>2026-04-19T07:51:27.001Z</time></trkpt><trkpt lat="40.401381222801746" lon="18.179361877276815"><ele>32.0</ele><time>2026-04-19T07:51:28.001Z</time></trkpt><trkpt lat="40.40147190994284" lon="18.179436181893717"><ele>32.0</ele><time>2026-04-19T07:51:29.001Z</time></trkpt><trkpt lat="40.401542540122236" lon="18.179504730170642"><ele>32.0</ele><time>2026-04-19T07:51:30.001Z</time></trkpt><trkpt lat="40.40161676688564" lon="18.179571474686476"><ele>32.0</ele><time>2026-04-19T07:51:31.001Z</time></trkpt><trkpt lat="40.401683530500186" lon="18.179614214790845"><ele>32.0</ele><time>2026-04-19T07:51:32.001Z</time></trkpt><trkpt lat="40.4017757777261" lon="18.17972105244561"><ele>32.0</ele><time>2026-04-19T07:51:34.001Z</time></trkpt><trkpt lat="40.40181672841284" lon="18.17980690561284"><ele>32.0</ele><time>2026-04-19T07:51:35.001Z</time></trkpt><trkpt lat="40.4018074228073" lon="18.179892370324442"><ele>32.0</ele><time>2026-04-19T07:51:36.001Z</time></trkpt><trkpt lat="40.40172638312943" lon="18.180046529391443"><ele>32.0</ele><time>2026-04-19T07:51:38.001Z</time></trkpt><trkpt lat="40.40164207223752" lon="18.1801733050699"><ele>32.33333333333333</ele><time>2026-04-19T07:51:39.001Z</time></trkpt><trkpt lat="40.40153562302688" lon="18.180359398180606"><ele>32.666666666666664</ele><time>2026-04-19T07:51:40.001Z</time></trkpt><trkpt lat="40.40142877357856" lon="18.180552502073066"><ele>33.0</ele><time>2026-04-19T07:51:41Z</time></trkpt><trkpt lat="40.40132358495695" lon="18.180740677670936"><ele>33.0</ele><time>2026-04-19T07:51:42Z</time></trkpt><trkpt lat="40.40122847204273" lon="18.180897059749366"><ele>33.0</ele><time>2026-04-19T07:51:43Z</time></trkpt><trkpt lat="40.401161979406346" lon="18.18102270769357"><ele>33.0</ele><time>2026-04-19T07:51:44Z</time></trkpt><trkpt lat="40.40109020051258" lon="18.18115005627937"><ele>33.0</ele><time>2026-04-19T07:51:45Z</time></trkpt><trkpt lat="40.40101810645527" lon="18.181270374086367"><ele>33.0</ele><time>2026-04-19T07:51:46Z</time></trkpt><trkpt lat="40.40095009369104" lon="18.181395445548837"><ele>33.0</ele><time>2026-04-19T07:51:47Z</time></trkpt><trkpt lat="40.40088732995768" lon="18.18151743934823"><ele>33.0</ele><time>2026-04-19T07:51:48Z</time></trkpt><trkpt lat="40.400818331232195" lon="18.181629272860956"><ele>33.0</ele><time>2026-04-19T07:51:49Z</time></trkpt><trkpt lat="40.40074742718443" lon="18.181747316571286"><ele>33.5</ele><time>2026-04-19T07:51:50Z</time></trkpt><trkpt lat="40.40068030201618" lon="18.18187857681888"><ele>34.0</ele><time>2026-04-19T07:51:51Z</time></trkpt><trkpt lat="40.40060370356752" lon="18.181981910533626"><ele>34.5</ele><time>2026-04-19T07:51:52Z</time></trkpt><trkpt lat="40.40052659465541" lon="18.182100454139462"><ele>35.0</ele><time>2026-04-19T07:51:53Z</time></trkpt><trkpt lat="40.40045599892973" lon="18.182229726105888"><ele>35.0</ele><time>2026-04-19T07:51:54Z</time></trkpt><trkpt lat="40.400380489623906" lon="18.182327585234276"><ele>35.0</ele><time>2026-04-19T07:51:55Z</time></trkpt><trkpt lat="40.40031538312073" lon="18.182425097214228"><ele>35.0</ele><time>2026-04-19T07:51:56Z</time></trkpt><trkpt lat="40.400248904582554" lon="18.18254029051191"><ele>35.0</ele><time>2026-04-19T07:51:57Z</time></trkpt><trkpt lat="40.40017109115942" lon="18.18264074719556"><ele>35.0</ele><time>2026-04-19T07:51:58Z</time></trkpt><trkpt lat="40.40009607112742" lon="18.18272738333809"><ele>34.75</ele><time>2026-04-19T07:51:59Z</time></trkpt><trkpt lat="40.400022903695" lon="18.182822613922955"><ele>34.5</ele><time>2026-04-19T07:52:00Z</time></trkpt><trkpt lat="40.399940611372976" lon="18.182960620775177"><ele>34.25</ele><time>2026-04-19T07:52:01Z</time></trkpt><trkpt lat="40.39984951559804" lon="18.18313386584823"><ele>34.0</ele><time>2026-04-19T07:52:02Z</time></trkpt><trkpt lat="40.39978523753266" lon="18.18328372958172"><ele>33.75</ele><time>2026-04-19T07:52:03Z</time></trkpt><trkpt lat="40.399727477491474" lon="18.183418002382776"><ele>33.5</ele><time>2026-04-19T07:52:04Z</time></trkpt><trkpt lat="40.39966318239774" lon="18.183541874344538"><ele>33.25</ele><time>2026-04-19T07:52:05Z</time></trkpt><trkpt lat="40.39960532737389" lon="18.183669091155696"><ele>33.0</ele><time>2026-04-19T07:52:06Z</time></trkpt><trkpt lat="40.399545485718164" lon="18.183797148037605"><ele>32.6</ele><time>2026-04-19T07:52:07Z</time></trkpt><trkpt lat="40.399489496706174" lon="18.18391153167612"><ele>32.199999999999996</ele><time>2026-04-19T07:52:08Z</time></trkpt><trkpt lat="40.39944853763178" lon="18.184017212478008"><ele>31.8</ele><time>2026-04-19T07:52:09Z</time></trkpt><trkpt lat="40.39941392078217" lon="18.18412872089778"><ele>31.4</ele><time>2026-04-19T07:52:10Z</time></trkpt><trkpt lat="40.39936002901285" lon="18.184225322015713"><ele>31.0</ele><time>2026-04-19T07:52:11Z</time></trkpt><trkpt lat="40.39929326971537" lon="18.184315097702726"><ele>31.0</ele><time>2026-04-19T07:52:12Z</time></trkpt><trkpt lat="40.39923177849325" lon="18.184418434155358"><ele>31.0</ele><time>2026-04-19T07:52:13Z</time></trkpt><trkpt lat="40.399167483618825" lon="18.184554344158585"><ele>31.0</ele><time>2026-04-19T07:52:14Z</time></trkpt><trkpt lat="40.39908302203348" lon="18.18473197965616"><ele>31.0</ele><time>2026-04-19T07:52:15Z</time></trkpt><trkpt lat="40.39898437347794" lon="18.18491430118179"><ele>31.25</ele><time>2026-04-19T07:52:16Z</time></trkpt><trkpt lat="40.3989111665274" lon="18.185063035907625"><ele>31.5</ele><time>2026-04-19T07:52:17Z</time></trkpt><trkpt lat="40.39886151744757" lon="18.185203028818194"><ele>31.75</ele><time>2026-04-19T07:52:18Z</time></trkpt><trkpt lat="40.398802230600545" lon="18.185351546207574"><ele>32.0</ele><time>2026-04-19T07:52:19Z</time></trkpt><trkpt lat="40.39873261081628" lon="18.18548976963895"><ele>31.999999999999996</ele><time>2026-04-19T07:52:20.001Z</time></trkpt><trkpt lat="40.398686243192486" lon="18.18559395584138"><ele>32.0</ele><time>2026-04-19T07:52:21.001Z</time></trkpt><trkpt lat="40.398646181255856" lon="18.185702499434218"><ele>32.0</ele><time>2026-04-19T07:52:22.001Z</time></trkpt><trkpt lat="40.39860598427322" lon="18.185802407150053"><ele>32.0</ele><time>2026-04-19T07:52:23.001Z</time></trkpt><trkpt lat="40.39857909568519" lon="18.185883580571232"><ele>31.999999999999996</ele><time>2026-04-19T07:52:24.001Z</time></trkpt><trkpt lat="40.39855135737581" lon="18.185970144660878"><ele>32.0</ele><time>2026-04-19T07:52:25.001Z</time></trkpt><trkpt lat="40.39853518441614" lon="18.18605263150885"><ele>32.166666666666664</ele><time>2026-04-19T07:52:26.001Z</time></trkpt><trkpt lat="40.39851322440794" lon="18.186135361890795"><ele>32.33333333333333</ele><time>2026-04-19T07:52:27.001Z</time></trkpt><trkpt lat="40.39847772968101" lon="18.186264627788564"><ele>32.5</ele><time>2026-04-19T07:52:29.001Z</time></trkpt><trkpt lat="40.398457719312866" lon="18.18634699578928"><ele>32.666666666666664</ele><time>2026-04-19T07:52:31.001Z</time></trkpt><trkpt lat="40.39849037422278" lon="18.186430793288604"><ele>32.833333333333336</ele><time>2026-04-19T07:52:34.001Z</time></trkpt><trkpt lat="40.39861221395929" lon="18.186463209315185"><ele>33.0</ele><time>2026-04-19T07:52:36.001Z</time></trkpt><trkpt lat="40.3987093915252" lon="18.186471934276547"><ele>33.0</ele><time>2026-04-19T07:52:37.001Z</time></trkpt><trkpt lat="40.398816970366944" lon="18.186492506740088"><ele>33.0</ele><time>2026-04-19T07:52:38.001Z</time></trkpt><trkpt lat="40.39892579953685" lon="18.186510417798665"><ele>33.0</ele><time>2026-04-19T07:52:39.001Z</time></trkpt><trkpt lat="40.39902459976986" lon="18.186529654299243"><ele>33.0</ele><time>2026-04-19T07:52:40.001Z</time></trkpt><trkpt lat="40.39912039545236" lon="18.18655002755849"><ele>33.0</ele><time>2026-04-19T07:52:41.001Z</time></trkpt><trkpt lat="40.39921677476389" lon="18.186562241540717"><ele>32.5</ele><time>2026-04-19T07:52:42.001Z</time></trkpt><trkpt lat="40.39931906463114" lon="18.186570399576095"><ele>32.0</ele><time>2026-04-19T07:52:43.001Z</time></trkpt><trkpt lat="40.39942918565516" lon="18.18658643272145"><ele>31.5</ele><time>2026-04-19T07:52:44.001Z</time></trkpt><trkpt lat="40.399561487250764" lon="18.186611527830397"><ele>31.0</ele><time>2026-04-19T07:52:45.001Z</time></trkpt><trkpt lat="40.399722035204185" lon="18.1866321457829"><ele>31.0</ele><time>2026-04-19T07:52:46.001Z</time></trkpt><trkpt lat="40.39987829815345" lon="18.186652942583304"><ele>31.0</ele><time>2026-04-19T07:52:47.001Z</time></trkpt><trkpt lat="40.400010962971066" lon="18.186666360246356"><ele>31.0</ele><time>2026-04-19T07:52:48.001Z</time></trkpt><trkpt lat="40.40014118911721" lon="18.186669935213946"><ele>31.0</ele><time>2026-04-19T07:52:49.001Z</time></trkpt><trkpt lat="40.40026392882616" lon="18.186669959243073"><ele>31.0</ele><time>2026-04-19T07:52:50.001Z</time></trkpt><trkpt lat="40.40038569060711" lon="18.18665053833467"><ele>31.0</ele><time>2026-04-19T07:52:51.001Z</time></trkpt><trkpt lat="40.40051209014232" lon="18.18661394647448"><ele>31.0</ele><time>2026-04-19T07:52:52.001Z</time></trkpt><trkpt lat="40.400645321663866" lon="18.186578419371145"><ele>31.0</ele><time>2026-04-19T07:52:53.001Z</time></trkpt><trkpt lat="40.400772760173474" lon="18.186545904208344"><ele>31.0</ele><time>2026-04-19T07:52:54.001Z</time></trkpt><trkpt lat="40.400904228197085" lon="18.186518098704088"><ele>31.0</ele><time>2026-04-19T07:52:55.001Z</time></trkpt><trkpt lat="40.40101367792577" lon="18.186511719263247"><ele>31.0</ele><time>2026-04-19T07:52:56.001Z</time></trkpt><trkpt lat="40.40113166823928" lon="18.186507702929415"><ele>31.0</ele><time>2026-04-19T07:52:57.001Z</time></trkpt><trkpt lat="40.40126576462" lon="18.186501727028435"><ele>31.25</ele><time>2026-04-19T07:52:58.001Z</time></trkpt><trkpt lat="40.40140269285825" lon="18.18649744077356"><ele>31.5</ele><time>2026-04-19T07:52:59.001Z</time></trkpt><trkpt lat="40.40153221619139" lon="18.186490408364218"><ele>31.75</ele><time>2026-04-19T07:53:00.001Z</time></trkpt><trkpt lat="40.40165882411704" lon="18.18647109880375"><ele>32.0</ele><time>2026-04-19T07:53:01.001Z</time></trkpt><trkpt lat="40.4017878242833" lon="18.186449481432437"><ele>32.0</ele><time>2026-04-19T07:53:02.001Z</time></trkpt><trkpt lat="40.40190461008366" lon="18.186428321953237"><ele>32.0</ele><time>2026-04-19T07:53:03.001Z</time></trkpt><trkpt lat="40.40200349596816" lon="18.186399565427923"><ele>32.0</ele><time>2026-04-19T07:53:04.001Z</time></trkpt><trkpt lat="40.40210921858901" lon="18.186369994369407"><ele>32.0</ele><time>2026-04-19T07:53:05.001Z</time></trkpt><trkpt lat="40.4022243960681" lon="18.18634015541865"><ele>32.0</ele><time>2026-04-19T07:53:06.001Z</time></trkpt><trkpt lat="40.40232264343939" lon="18.186328731471185"><ele>32.0</ele><time>2026-04-19T07:53:07.001Z</time></trkpt><trkpt lat="40.402412080539726" lon="18.186328704409096"><ele>32.0</ele><time>2026-04-19T07:53:08.001Z</time></trkpt><trkpt lat="40.40250573551074" lon="18.186333562612052"><ele>32.0</ele><time>2026-04-19T07:53:09.001Z</time></trkpt><trkpt lat="40.40260187475178" lon="18.186347268127353"><ele>32.0</ele><time>2026-04-19T07:53:10.001Z</time></trkpt><trkpt lat="40.402701634395584" lon="18.186374155507014"><ele>32.0</ele><time>2026-04-19T07:53:11.001Z</time></trkpt><trkpt lat="40.40279206740197" lon="18.186416713355896"><ele>32.0</ele><time>2026-04-19T07:53:12.001Z</time></trkpt><trkpt lat="40.40287947682365" lon="18.18647060978447"><ele>32.0</ele><time>2026-04-19T07:53:13.001Z</time></trkpt><trkpt lat="40.40296569834052" lon="18.186507136747167"><ele>32.0</ele><time>2026-04-19T07:53:14.001Z</time></trkpt><trkpt lat="40.40304591453972" lon="18.186531012815145"><ele>32.0</ele><time>2026-04-19T07:53:15.001Z</time></trkpt><trkpt lat="40.40312865384154" lon="18.1865714052416"><ele>32.0</ele><time>2026-04-19T07:53:16.001Z</time></trkpt><trkpt lat="40.40322014690806" lon="18.186617674998004"><ele>31.8</ele><time>2026-04-19T07:53:17.001Z</time></trkpt><trkpt lat="40.403320990123156" lon="18.18665054628379"><ele>31.6</ele><time>2026-04-19T07:53:18.001Z</time></trkpt><trkpt lat="40.40342632785409" lon="18.18669665160855"><ele>31.400000000000002</ele><time>2026-04-19T07:53:19.001Z</time></trkpt><trkpt lat="40.40352516006188" lon="18.186752175721523"><ele>31.200000000000003</ele><time>2026-04-19T07:53:20.002Z</time></trkpt><trkpt lat="40.40361183863011" lon="18.186795189294774"><ele>31.0</ele><time>2026-04-19T07:53:21.002Z</time></trkpt><trkpt lat="40.40369190301258" lon="18.18683752154953"><ele>31.000000000000004</ele><time>2026-04-19T07:53:22.002Z</time></trkpt><trkpt lat="40.40378128810417" lon="18.186865779090006"><ele>31.0</ele><time>2026-04-19T07:53:23.002Z</time></trkpt><trkpt lat="40.403862251741664" lon="18.18690155482341"><ele>31.0</ele><time>2026-04-19T07:53:24.002Z</time></trkpt><trkpt lat="40.40393157134961" lon="18.186934590259593"><ele>31.0</ele><time>2026-04-19T07:53:25.002Z</time></trkpt><trkpt lat="40.40400708701385" lon="18.18695913755893"><ele>31.000000000000004</ele><time>2026-04-19T07:53:26.002Z</time></trkpt><trkpt lat="40.40407543374428" lon="18.186998876303758"><ele>31.0</ele><time>2026-04-19T07:53:27.002Z</time></trkpt><trkpt lat="40.40416092948257" lon="18.187046327159685"><ele>31.0</ele><time>2026-04-19T07:53:28.002Z</time></trkpt><trkpt lat="40.404238589093886" lon="18.18709803456148"><ele>31.0</ele><time>2026-04-19T07:53:29.002Z</time></trkpt><trkpt lat="40.404289567654686" lon="18.187164808461365"><ele>31.0</ele><time>2026-04-19T07:53:30.002Z</time></trkpt><trkpt lat="40.404340494676" lon="18.187262271786484"><ele>31.0</ele><time>2026-04-19T07:53:31.002Z</time></trkpt><trkpt lat="40.404402121475854" lon="18.187414782413896"><ele>31.0</ele><time>2026-04-19T07:53:32.002Z</time></trkpt><trkpt lat="40.40445419407131" lon="18.18754659634898"><ele>31.000000000000004</ele><time>2026-04-19T07:53:33.002Z</time></trkpt><trkpt lat="40.4044914217907" lon="18.187656833867276"><ele>31.0</ele><time>2026-04-19T07:53:34.002Z</time></trkpt><trkpt lat="40.40453313274241" lon="18.187737008050004"><ele>31.0</ele><time>2026-04-19T07:53:35.002Z</time></trkpt><trkpt lat="40.40458848751229" lon="18.187804820932342"><ele>31.0</ele><time>2026-04-19T07:53:36.002Z</time></trkpt><trkpt lat="40.40466646208243" lon="18.187859769418814"><ele>31.000000000000004</ele><time>2026-04-19T07:53:37.002Z</time></trkpt><trkpt lat="40.40473568121588" lon="18.187895717695287"><ele>31.0</ele><time>2026-04-19T07:53:38.002Z</time></trkpt><trkpt lat="40.40479723536633" lon="18.18792175086092"><ele>31.0</ele><time>2026-04-19T07:53:39.002Z</time></trkpt><trkpt lat="40.404896209651035" lon="18.187929333032542"><ele>31.0</ele><time>2026-04-19T07:53:40.002Z</time></trkpt><trkpt lat="40.40500690120116" lon="18.187928505539873"><ele>31.0</ele><time>2026-04-19T07:53:41.002Z</time></trkpt><trkpt lat="40.40511105503355" lon="18.18793829983961"><ele>31.0</ele><time>2026-04-19T07:53:42.002Z</time></trkpt><trkpt lat="40.405196668912446" lon="18.187945640568763"><ele>31.0</ele><time>2026-04-19T07:53:43.002Z</time></trkpt><trkpt lat="40.40528309552564" lon="18.187935376731787"><ele>31.0</ele><time>2026-04-19T07:53:44.002Z</time></trkpt><trkpt lat="40.40536650726003" lon="18.187905342109325"><ele>31.0</ele><time>2026-04-19T07:53:45.002Z</time></trkpt><trkpt lat="40.40548224876707" lon="18.187863120526494"><ele>31.0</ele><time>2026-04-19T07:53:46.002Z</time></trkpt><trkpt lat="40.405626477755696" lon="18.187811099806545"><ele>31.0</ele><time>2026-04-19T07:53:47.001Z</time></trkpt><trkpt lat="40.40576533197409" lon="18.187755928844503"><ele>31.200000000000003</ele><time>2026-04-19T07:53:48.001Z</time></trkpt><trkpt lat="40.40587699382421" lon="18.187707065732344"><ele>31.400000000000002</ele><time>2026-04-19T07:53:49.001Z</time></trkpt><trkpt lat="40.405980874801166" lon="18.187669917007444"><ele>31.6</ele><time>2026-04-19T07:53:50.001Z</time></trkpt><trkpt lat="40.406074939414886" lon="18.187627798129526"><ele>31.8</ele><time>2026-04-19T07:53:51.001Z</time></trkpt><trkpt lat="40.40616401637228" lon="18.187586563649237"><ele>32.0</ele><time>2026-04-19T07:53:52.001Z</time></trkpt><trkpt lat="40.4062592636703" lon="18.187542635844647"><ele>31.666666666666664</ele><time>2026-04-19T07:53:53.001Z</time></trkpt><trkpt lat="40.4063403284646" lon="18.187486715032072"><ele>31.333333333333332</ele><time>2026-04-19T07:53:54.001Z</time></trkpt><trkpt lat="40.40641227137126" lon="18.187411825019694"><ele>31.0</ele><time>2026-04-19T07:53:55.001Z</time></trkpt><trkpt lat="40.40648698921245" lon="18.18734249794296"><ele>30.666666666666664</ele><time>2026-04-19T07:53:56.001Z</time></trkpt><trkpt lat="40.40654701155865" lon="18.187279982162103"><ele>30.333333333333332</ele><time>2026-04-19T07:53:57.001Z</time></trkpt><trkpt lat="40.40660385457322" lon="18.187232345095882"><ele>30.0</ele><time>2026-04-19T07:53:58.001Z</time></trkpt><trkpt lat="40.406732531841804" lon="18.18717955789727"><ele>30.0</ele><time>2026-04-19T07:54:00.001Z</time></trkpt><trkpt lat="40.40681394650491" lon="18.187179055030114"><ele>30.0</ele><time>2026-04-19T07:54:01.001Z</time></trkpt><trkpt lat="40.40690133069264" lon="18.187197935221707"><ele>30.0</ele><time>2026-04-19T07:54:02.001Z</time></trkpt><trkpt lat="40.406986357998555" lon="18.1872252778176"><ele>30.0</ele><time>2026-04-19T07:54:03.001Z</time></trkpt><trkpt lat="40.40710099401151" lon="18.18727903900242"><ele>30.0</ele><time>2026-04-19T07:54:04.001Z</time></trkpt><trkpt lat="40.407229955217765" lon="18.187330252205186"><ele>29.0</ele><time>2026-04-19T07:54:05.001Z</time></trkpt><trkpt lat="40.407373330777" lon="18.187384301436445"><ele>28.0</ele><time>2026-04-19T07:54:06.001Z</time></trkpt><trkpt lat="40.4075529864871" lon="18.187466417502442"><ele>27.0</ele><time>2026-04-19T07:54:07.001Z</time></trkpt><trkpt lat="40.407695991014585" lon="18.18752505011616"><ele>27.0</ele><time>2026-04-19T07:54:08.001Z</time></trkpt><trkpt lat="40.407812706669056" lon="18.18757959373252"><ele>27.0</ele><time>2026-04-19T07:54:09.001Z</time></trkpt><trkpt lat="40.407935030511496" lon="18.187631169860865"><ele>27.0</ele><time>2026-04-19T07:54:10.001Z</time></trkpt><trkpt lat="40.408043931046684" lon="18.187674130959756"><ele>27.0</ele><time>2026-04-19T07:54:11.001Z</time></trkpt><trkpt lat="40.40815014994746" lon="18.187715102044113"><ele>27.0</ele><time>2026-04-19T07:54:12.001Z</time></trkpt><trkpt lat="40.408242402313086" lon="18.187748991427487"><ele>27.0</ele><time>2026-04-19T07:54:13.001Z</time></trkpt><trkpt lat="40.40832216108362" lon="18.187771638359187"><ele>27.0</ele><time>2026-04-19T07:54:14.001Z</time></trkpt><trkpt lat="40.408390284883474" lon="18.18779795836757"><ele>27.0</ele><time>2026-04-19T07:54:15.001Z</time></trkpt><trkpt lat="40.408478214806166" lon="18.187845762750584"><ele>27.0</ele><time>2026-04-19T07:54:16.001Z</time></trkpt><trkpt lat="40.4085668444704" lon="18.187879182842067"><ele>27.0</ele><time>2026-04-19T07:54:17.001Z</time></trkpt><trkpt lat="40.40863763663987" lon="18.187908605426006"><ele>27.0</ele><time>2026-04-19T07:54:18.001Z</time></trkpt><trkpt lat="40.408721132979274" lon="18.18796377136571"><ele>27.000000000000004</ele><time>2026-04-19T07:54:19.001Z</time></trkpt><trkpt lat="40.40879446398285" lon="18.188039540220217"><ele>27.000000000000004</ele><time>2026-04-19T07:54:20.001Z</time></trkpt><trkpt lat="40.4088660320906" lon="18.188143676964284"><ele>27.0</ele><time>2026-04-19T07:54:21.001Z</time></trkpt><trkpt lat="40.408923039534756" lon="18.188236462186495"><ele>27.0</ele><time>2026-04-19T07:54:22.001Z</time></trkpt><trkpt lat="40.4089909363414" lon="18.188335013920742"><ele>27.5</ele><time>2026-04-19T07:54:23.001Z</time></trkpt><trkpt lat="40.40905300091462" lon="18.188403294535075"><ele>28.0</ele><time>2026-04-19T07:54:24.001Z</time></trkpt><trkpt lat="40.40916735285239" lon="18.1885595095433"><ele>28.5</ele><time>2026-04-19T07:54:26.001Z</time></trkpt><trkpt lat="40.40927027429686" lon="18.188657100809046"><ele>29.0</ele><time>2026-04-19T07:54:27.001Z</time></trkpt><trkpt lat="40.409390978187176" lon="18.188745016492856"><ele>29.0</ele><time>2026-04-19T07:54:28.001Z</time></trkpt><trkpt lat="40.4095107182818" lon="18.188823666477116"><ele>29.0</ele><time>2026-04-19T07:54:29.001Z</time></trkpt><trkpt lat="40.40959477732121" lon="18.18888514092668"><ele>29.0</ele><time>2026-04-19T07:54:30.001Z</time></trkpt><trkpt lat="40.40966492048629" lon="18.188937600142776"><ele>29.0</ele><time>2026-04-19T07:54:31.001Z</time></trkpt><trkpt lat="40.40973281681642" lon="18.18898352588402"><ele>29.0</ele><time>2026-04-19T07:54:32.001Z</time></trkpt><trkpt lat="40.40979474127344" lon="18.18903431940942"><ele>29.0</ele><time>2026-04-19T07:54:33.001Z</time></trkpt><trkpt lat="40.40988942300582" lon="18.189109782152283"><ele>29.0</ele><time>2026-04-19T07:54:35.001Z</time></trkpt><trkpt lat="40.40998410495214" lon="18.18916709554366"><ele>29.0</ele><time>2026-04-19T07:54:37.001Z</time></trkpt><trkpt lat="40.41009558446019" lon="18.189268766176223"><ele>29.0</ele><time>2026-04-19T07:54:39.001Z</time></trkpt><trkpt lat="40.410176113477895" lon="18.18932178753806"><ele>29.0</ele><time>2026-04-19T07:54:40.001Z</time></trkpt><trkpt lat="40.41025576176003" lon="18.189370475112995"><ele>29.0</ele><time>2026-04-19T07:54:41.001Z</time></trkpt><trkpt lat="40.41034065054232" lon="18.189420841213852"><ele>29.0</ele><time>2026-04-19T07:54:42.001Z</time></trkpt><trkpt lat="40.41043040259993" lon="18.18948161785176"><ele>29.0</ele><time>2026-04-19T07:54:43.001Z</time></trkpt><trkpt lat="40.4105028182279" lon="18.18953297906371"><ele>29.0</ele><time>2026-04-19T07:54:44.001Z</time></trkpt><trkpt lat="40.410591665922" lon="18.18960332809416"><ele>29.0</ele><time>2026-04-19T07:54:45.001Z</time></trkpt><trkpt lat="40.41067838422119" lon="18.189654565240282"><ele>28.0</ele><time>2026-04-19T07:54:46.001Z</time></trkpt><trkpt lat="40.41076964795701" lon="18.189713859974958"><ele>27.0</ele><time>2026-04-19T07:54:47.001Z</time></trkpt><trkpt lat="40.4108536537635" lon="18.189763898650767"><ele>26.0</ele><time>2026-04-19T07:54:48.001Z</time></trkpt><trkpt lat="40.41094617540673" lon="18.18981764082121"><ele>25.0</ele><time>2026-04-19T07:54:49.001Z</time></trkpt><trkpt lat="40.41104603660688" lon="18.18988890716439"><ele>24.0</ele><time>2026-04-19T07:54:50.001Z</time></trkpt><trkpt lat="40.41118040669559" lon="18.18998906823829"><ele>23.6</ele><time>2026-04-19T07:54:51.001Z</time></trkpt><trkpt lat="40.411304307908686" lon="18.19006964210598"><ele>23.2</ele><time>2026-04-19T07:54:52.001Z</time></trkpt><trkpt lat="40.41140009479725" lon="18.190119926632534"><ele>22.8</ele><time>2026-04-19T07:54:53.001Z</time></trkpt><trkpt lat="40.41149284765951" lon="18.19016073907563"><ele>22.400000000000002</ele><time>2026-04-19T07:54:54.001Z</time></trkpt><trkpt lat="40.41157677356021" lon="18.190186659998766"><ele>22.0</ele><time>2026-04-19T07:54:55.001Z</time></trkpt><trkpt lat="40.41166549664353" lon="18.190228519838076"><ele>21.400000000000002</ele><time>2026-04-19T07:54:56.001Z</time></trkpt><trkpt lat="40.41175214824116" lon="18.190297595458397"><ele>20.8</ele><time>2026-04-19T07:54:57.001Z</time></trkpt><trkpt lat="40.41183012971474" lon="18.190369351185804"><ele>20.2</ele><time>2026-04-19T07:54:58.001Z</time></trkpt><trkpt lat="40.41190283610323" lon="18.190414848342236"><ele>19.6</ele><time>2026-04-19T07:54:59.001Z</time></trkpt><trkpt lat="40.41200410204542" lon="18.190464600299826"><ele>19.0</ele><time>2026-04-19T07:55:00.001Z</time></trkpt><trkpt lat="40.412088792482585" lon="18.190503296496683"><ele>19.0</ele><time>2026-04-19T07:55:01.001Z</time></trkpt><trkpt lat="40.41215664531206" lon="18.190523266161712"><ele>19.0</ele><time>2026-04-19T07:55:02.001Z</time></trkpt><trkpt lat="40.41228631778438" lon="18.190579351710678"><ele>19.0</ele><time>2026-04-19T07:55:04.001Z</time></trkpt><trkpt lat="40.41236176326267" lon="18.19061393751826"><ele>19.0</ele><time>2026-04-19T07:55:05.001Z</time></trkpt><trkpt lat="40.4124333561301" lon="18.190640614174356"><ele>19.0</ele><time>2026-04-19T07:55:06.001Z</time></trkpt><trkpt lat="40.412511850229265" lon="18.190674806686257"><ele>19.0</ele><time>2026-04-19T07:55:07.001Z</time></trkpt><trkpt lat="40.41258338926619" lon="18.19070290700753"><ele>19.0</ele><time>2026-04-19T07:55:08.001Z</time></trkpt><trkpt lat="40.41265794198813" lon="18.19073678053687"><ele>19.0</ele><time>2026-04-19T07:55:09.001Z</time></trkpt><trkpt lat="40.41274321527353" lon="18.190777038104933"><ele>19.0</ele><time>2026-04-19T07:55:10.001Z</time></trkpt><trkpt lat="40.41281535247495" lon="18.190817432542598"><ele>19.0</ele><time>2026-04-19T07:55:11.001Z</time></trkpt><trkpt lat="40.41288438796659" lon="18.190860289490864"><ele>19.0</ele><time>2026-04-19T07:55:12.001Z</time></trkpt><trkpt lat="40.41298086485901" lon="18.19091249635171"><ele>19.0</ele><time>2026-04-19T07:55:13.001Z</time></trkpt><trkpt lat="40.413094542904744" lon="18.190978324050434"><ele>19.0</ele><time>2026-04-19T07:55:14.001Z</time></trkpt><trkpt lat="40.413184823953664" lon="18.191043203288274"><ele>19.0</ele><time>2026-04-19T07:55:15.001Z</time></trkpt><trkpt lat="40.41325037363112" lon="18.191090945221013"><ele>19.0</ele><time>2026-04-19T07:55:16.001Z</time></trkpt><trkpt lat="40.41331486335932" lon="18.191132004264404"><ele>19.0</ele><time>2026-04-19T07:55:17.001Z</time></trkpt><trkpt lat="40.41338734127146" lon="18.19118141485347"><ele>19.0</ele><time>2026-04-19T07:55:18.001Z</time></trkpt><trkpt lat="40.413458558923644" lon="18.191229665265855"><ele>19.0</ele><time>2026-04-19T07:55:19.001Z</time></trkpt><trkpt lat="40.41356788950489" lon="18.191295378910656"><ele>19.0</ele><time>2026-04-19T07:55:21.001Z</time></trkpt><trkpt lat="40.41365294158438" lon="18.191354364561136"><ele>19.0</ele><time>2026-04-19T07:55:23.002Z</time></trkpt><trkpt lat="40.41374461134149" lon="18.19137012846677"><ele>19.0</ele><time>2026-04-19T07:55:25.002Z</time></trkpt><trkpt lat="40.41385765225752" lon="18.191350201931773"><ele>19.0</ele><time>2026-04-19T07:55:27.002Z</time></trkpt><trkpt lat="40.413932754356175" lon="18.191352812609683"><ele>19.0</ele><time>2026-04-19T07:55:29.002Z</time></trkpt><trkpt lat="40.41401848999354" lon="18.19133677716922"><ele>19.2</ele><time>2026-04-19T07:55:31.002Z</time></trkpt><trkpt lat="40.414089259907875" lon="18.191320895855068"><ele>19.4</ele><time>2026-04-19T07:55:32.002Z</time></trkpt><trkpt lat="40.41418316768287" lon="18.191288795356314"><ele>19.6</ele><time>2026-04-19T07:55:34.002Z</time></trkpt><trkpt lat="40.414283460836046" lon="18.191290632724012"><ele>19.8</ele><time>2026-04-19T07:55:36.002Z</time></trkpt><trkpt lat="40.414380272788534" lon="18.191255842570595"><ele>20.0</ele><time>2026-04-19T07:55:38.002Z</time></trkpt><trkpt lat="40.414503329528166" lon="18.19122212030964"><ele>20.0</ele><time>2026-04-19T07:55:40.002Z</time></trkpt><trkpt lat="40.41457237623227" lon="18.191189966176573"><ele>20.0</ele><time>2026-04-19T07:55:41.002Z</time></trkpt><trkpt lat="40.41463524660089" lon="18.19117409401036"><ele>20.0</ele><time>2026-04-19T07:55:42.002Z</time></trkpt><trkpt lat="40.414725796857894" lon="18.191135136235513"><ele>20.0</ele><time>2026-04-19T07:55:44.002Z</time></trkpt><trkpt lat="40.41484572410957" lon="18.191060933219045"><ele>20.0</ele><time>2026-04-19T07:55:46.002Z</time></trkpt><trkpt lat="40.41490756110563" lon="18.191023299040694"><ele>20.0</ele><time>2026-04-19T07:55:47.002Z</time></trkpt><trkpt lat="40.41496142141415" lon="18.190978086150743"><ele>20.333333333333336</ele><time>2026-04-19T07:55:48.002Z</time></trkpt><trkpt lat="40.4150564222663" lon="18.19089218812243"><ele>20.666666666666668</ele><time>2026-04-19T07:55:50.002Z</time></trkpt><trkpt lat="40.415121271409824" lon="18.19084583340813"><ele>21.0</ele><time>2026-04-19T07:55:51.002Z</time></trkpt><trkpt lat="40.41517944753657" lon="18.19080452169009"><ele>21.333333333333332</ele><time>2026-04-19T07:55:52.002Z</time></trkpt><trkpt lat="40.41523429062081" lon="18.190759588092256"><ele>21.666666666666664</ele><time>2026-04-19T07:55:53.001Z</time></trkpt><trkpt lat="40.415323973835015" lon="18.190704633292693"><ele>22.0</ele><time>2026-04-19T07:55:55.001Z</time></trkpt><trkpt lat="40.41538985629295" lon="18.190688230008835"><ele>22.0</ele><time>2026-04-19T07:55:56.001Z</time></trkpt><trkpt lat="40.415506776487895" lon="18.190710616523344"><ele>22.0</ele><time>2026-04-19T07:55:58.001Z</time></trkpt><trkpt lat="40.415588980286785" lon="18.19080299140364"><ele>22.0</ele><time>2026-04-19T07:56:00.001Z</time></trkpt><trkpt lat="40.41566529004888" lon="18.190945175173386"><ele>22.0</ele><time>2026-04-19T07:56:02.001Z</time></trkpt><trkpt lat="40.41569797684001" lon="18.19102075297298"><ele>22.0</ele><time>2026-04-19T07:56:03.001Z</time></trkpt><trkpt lat="40.41574749350698" lon="18.191107792308724"><ele>22.0</ele><time>2026-04-19T07:56:05.001Z</time></trkpt><trkpt lat="40.41580616540361" lon="18.1912277133927"><ele>22.0</ele><time>2026-04-19T07:56:08.001Z</time></trkpt><trkpt lat="40.4158661527478" lon="18.19133831016101"><ele>22.0</ele><time>2026-04-19T07:56:10.001Z</time></trkpt><trkpt lat="40.41597981588486" lon="18.191449022626113"><ele>22.0</ele><time>2026-04-19T07:56:12.001Z</time></trkpt><trkpt lat="40.416065317080935" lon="18.191523868372542"><ele>22.333333333333332</ele><time>2026-04-19T07:56:13.001Z</time></trkpt><trkpt lat="40.41612054022196" lon="18.191573835698584"><ele>22.666666666666664</ele><time>2026-04-19T07:56:14.001Z</time></trkpt><trkpt lat="40.41620775744308" lon="18.191626273453043"><ele>23.0</ele><time>2026-04-19T07:56:16.001Z</time></trkpt><trkpt lat="40.416269009717396" lon="18.19164689255904"><ele>23.333333333333332</ele><time>2026-04-19T07:56:17.001Z</time></trkpt><trkpt lat="40.41633327134984" lon="18.19164749460096"><ele>23.666666666666668</ele><time>2026-04-19T07:56:18.001Z</time></trkpt><trkpt lat="40.41645324154734" lon="18.191623855601396"><ele>24.0</ele><time>2026-04-19T07:56:20.001Z</time></trkpt><trkpt lat="40.416519477705734" lon="18.191612334781208"><ele>24.2</ele><time>2026-04-19T07:56:21.001Z</time></trkpt><trkpt lat="40.41661804391113" lon="18.191610114110603"><ele>24.4</ele><time>2026-04-19T07:56:23.001Z</time></trkpt><trkpt lat="40.416695016984555" lon="18.191620351220266"><ele>24.6</ele><time>2026-04-19T07:56:24.001Z</time></trkpt><trkpt lat="40.41677468121271" lon="18.191631428064504"><ele>24.8</ele><time>2026-04-19T07:56:25.001Z</time></trkpt><trkpt lat="40.416839826361375" lon="18.191647138064805"><ele>25.0</ele><time>2026-04-19T07:56:26.001Z</time></trkpt><trkpt lat="40.41696695208992" lon="18.191654138955844"><ele>25.000000000000004</ele><time>2026-04-19T07:56:28.001Z</time></trkpt><trkpt lat="40.41702996037273" lon="18.19165492901849"><ele>25.0</ele><time>2026-04-19T07:56:29.001Z</time></trkpt><trkpt lat="40.41710011604317" lon="18.19165175337706"><ele>25.0</ele><time>2026-04-19T07:56:30.001Z</time></trkpt><trkpt lat="40.41719288435549" lon="18.191640199134866"><ele>25.0</ele><time>2026-04-19T07:56:31.001Z</time></trkpt><trkpt lat="40.41729364246932" lon="18.191629930351976"><ele>25.000000000000004</ele><time>2026-04-19T07:56:32.001Z</time></trkpt><trkpt lat="40.41736513773825" lon="18.1916308720115"><ele>25.0</ele><time>2026-04-19T07:56:33.001Z</time></trkpt><trkpt lat="40.417440853403974" lon="18.191625480251805"><ele>25.000000000000004</ele><time>2026-04-19T07:56:34.001Z</time></trkpt><trkpt lat="40.41751867200022" lon="18.19162439466313"><ele>25.0</ele><time>2026-04-19T07:56:35.001Z</time></trkpt><trkpt lat="40.41759815365506" lon="18.19162746172029"><ele>25.0</ele><time>2026-04-19T07:56:36.001Z</time></trkpt><trkpt lat="40.41767388428318" lon="18.19162522441491"><ele>25.0</ele><time>2026-04-19T07:56:37.001Z</time></trkpt><trkpt lat="40.41777283927993" lon="18.191618510572457"><ele>25.000000000000004</ele><time>2026-04-19T07:56:39.001Z</time></trkpt><trkpt lat="40.41784965877239" lon="18.191614849274107"><ele>25.0</ele><time>2026-04-19T07:56:41.001Z</time></trkpt><trkpt lat="40.417932936048125" lon="18.19159865505398"><ele>25.0</ele><time>2026-04-19T07:56:44.001Z</time></trkpt><trkpt lat="40.418036157539596" lon="18.19160335839478"><ele>25.0</ele><time>2026-04-19T07:56:47.001Z</time></trkpt><trkpt lat="40.41815713544005" lon="18.191608096113942"><ele>25.0</ele><time>2026-04-19T07:56:49.001Z</time></trkpt><trkpt lat="40.41827448878111" lon="18.19161264280365"><ele>25.0</ele><time>2026-04-19T07:56:51.001Z</time></trkpt><trkpt lat="40.418348980252134" lon="18.191618871493088"><ele>25.0</ele><time>2026-04-19T07:56:52.001Z</time></trkpt><trkpt lat="40.418418135895514" lon="18.19162931458986"><ele>25.000000000000004</ele><time>2026-04-19T07:56:53.001Z</time></trkpt><trkpt lat="40.418486689223734" lon="18.19164175052765"><ele>25.0</ele><time>2026-04-19T07:56:54.001Z</time></trkpt><trkpt lat="40.41855399236008" lon="18.19165462788585"><ele>25.0</ele><time>2026-04-19T07:56:55.001Z</time></trkpt><trkpt lat="40.41868149123137" lon="18.191679816038857"><ele>25.0</ele><time>2026-04-19T07:56:57.001Z</time></trkpt><trkpt lat="40.41875636838259" lon="18.19168465920323"><ele>25.000000000000004</ele><time>2026-04-19T07:56:58.001Z</time></trkpt><trkpt lat="40.418834116603875" lon="18.191684717035766"><ele>25.0</ele><time>2026-04-19T07:56:59.001Z</time></trkpt><trkpt lat="40.41890775178569" lon="18.191687460295032"><ele>24.833333333333336</ele><time>2026-04-19T07:57:00.001Z</time></trkpt><trkpt lat="40.41903967098479" lon="18.191706214727493"><ele>24.666666666666668</ele><time>2026-04-19T07:57:02.001Z</time></trkpt><trkpt lat="40.419125229907564" lon="18.191719907424226"><ele>24.5</ele><time>2026-04-19T07:57:03.001Z</time></trkpt><trkpt lat="40.419193565161414" lon="18.191738201519257"><ele>24.333333333333336</ele><time>2026-04-19T07:57:04.001Z</time></trkpt><trkpt lat="40.41925274519048" lon="18.19176970166493"><ele>24.166666666666668</ele><time>2026-04-19T07:57:05.001Z</time></trkpt><trkpt lat="40.41931355045118" lon="18.191827193527793"><ele>24.0</ele><time>2026-04-19T07:57:06.001Z</time></trkpt><trkpt lat="40.41936557089376" lon="18.19188351658364"><ele>24.0</ele><time>2026-04-19T07:57:07.001Z</time></trkpt><trkpt lat="40.419446730801624" lon="18.191971036345993"><ele>24.0</ele><time>2026-04-19T07:57:09.001Z</time></trkpt><trkpt lat="40.41950376553745" lon="18.192032531272524"><ele>24.0</ele><time>2026-04-19T07:57:11.001Z</time></trkpt><trkpt lat="40.4195554740795" lon="18.192112889886687"><ele>24.0</ele><time>2026-04-19T07:57:14.001Z</time></trkpt><trkpt lat="40.4196069767629" lon="18.19217165792896"><ele>24.0</ele><time>2026-04-19T07:57:16.001Z</time></trkpt><trkpt lat="40.419661431707326" lon="18.19221779399521"><ele>24.0</ele><time>2026-04-19T07:57:18.001Z</time></trkpt><trkpt lat="40.419715948602544" lon="18.192272668034988"><ele>24.166666666666668</ele><time>2026-04-19T07:57:21.001Z</time></trkpt><trkpt lat="40.419778423294694" lon="18.192331788029772"><ele>24.333333333333336</ele><time>2026-04-19T07:57:24.001Z</time></trkpt><trkpt lat="40.41983311819262" lon="18.192398815535526"><ele>24.5</ele><time>2026-04-19T07:57:29.001Z</time></trkpt><trkpt lat="40.4199014942149" lon="18.192457083933665"><ele>24.666666666666668</ele><time>2026-04-19T07:57:33.001Z</time></trkpt><trkpt lat="40.41996270722954" lon="18.192498300948355"><ele>24.833333333333336</ele><time>2026-04-19T08:00:21.001Z</time></trkpt><trkpt lat="40.42002586981258" lon="18.19256199422659"><ele>25.0</ele><time>2026-04-19T08:13:22Z</time></trkpt><trkpt lat="40.42009101623803" lon="18.192622496016565"><ele>25.0</ele><time>2026-04-19T08:13:24Z</time></trkpt><trkpt lat="40.42017390993661" lon="18.19268435678744"><ele>25.0</ele><time>2026-04-19T08:13:26Z</time></trkpt><trkpt lat="40.42024585965925" lon="18.192769176095783"><ele>25.0</ele><time>2026-04-19T08:13:28Z</time></trkpt><trkpt lat="40.42034808114157" lon="18.192881304765105"><ele>25.0</ele><time>2026-04-19T08:13:30Z</time></trkpt><trkpt lat="40.42042111836402" lon="18.192941511253373"><ele>25.0</ele><time>2026-04-19T08:13:32Z</time></trkpt><trkpt lat="40.42052075875821" lon="18.193049581724235"><ele>25.000000000000004</ele><time>2026-04-19T08:13:34Z</time></trkpt><trkpt lat="40.4205784144573" lon="18.193108840465523"><ele>25.0</ele><time>2026-04-19T08:13:35Z</time></trkpt><trkpt lat="40.42064835816643" lon="18.193198811941038"><ele>25.0</ele><time>2026-04-19T08:13:36Z</time></trkpt><trkpt lat="40.42073611967548" lon="18.19327569263838"><ele>25.0</ele><time>2026-04-19T08:13:37Z</time></trkpt><trkpt lat="40.42080010730873" lon="18.193354701934847"><ele>25.000000000000004</ele><time>2026-04-19T08:13:38Z</time></trkpt><trkpt lat="40.42086074433277" lon="18.19339644921592"><ele>25.0</ele><time>2026-04-19T08:13:39Z</time></trkpt><trkpt lat="40.420915288607894" lon="18.19345444459315"><ele>25.0</ele><time>2026-04-19T08:13:40Z</time></trkpt><trkpt lat="40.42099726591119" lon="18.193543325211458"><ele>25.0</ele><time>2026-04-19T08:13:42Z</time></trkpt><trkpt lat="40.42107934108761" lon="18.19361963466002"><ele>25.0</ele><time>2026-04-19T08:13:44Z</time></trkpt><trkpt lat="40.42111000495531" lon="18.19369397204837"><ele>25.0</ele><time>2026-04-19T08:14:12.999Z</time></trkpt><trkpt lat="40.421064184910875" lon="18.19380363184826"><ele>25.0</ele><time>2026-04-19T08:20:13.999Z</time></trkpt><trkpt lat="40.420989361955186" lon="18.19386573611806"><ele>25.0</ele><time>2026-04-19T08:20:15.999Z</time></trkpt><trkpt lat="40.42093658135705" lon="18.193925439117592"><ele>25.0</ele><time>2026-04-19T08:20:16.999Z</time></trkpt><trkpt lat="40.42086316618929" lon="18.193986952067775"><ele>25.0</ele><time>2026-04-19T08:20:17.999Z</time></trkpt><trkpt lat="40.420785359237435" lon="18.19406653523574"><ele>25.0</ele><time>2026-04-19T08:20:18.999Z</time></trkpt><trkpt lat="40.42070455399054" lon="18.19414879844252"><ele>25.0</ele><time>2026-04-19T08:20:19.999Z</time></trkpt><trkpt lat="40.42061241314644" lon="18.194237334118995"><ele>24.833333333333336</ele><time>2026-04-19T08:20:20.999Z</time></trkpt><trkpt lat="40.4205366851296" lon="18.19430766253222"><ele>24.666666666666668</ele><time>2026-04-19T08:20:21.999Z</time></trkpt><trkpt lat="40.420467332927224" lon="18.194376394807453"><ele>24.5</ele><time>2026-04-19T08:20:22.999Z</time></trkpt><trkpt lat="40.420404149380936" lon="18.19444258351381"><ele>24.333333333333336</ele><time>2026-04-19T08:20:23.999Z</time></trkpt><trkpt lat="40.4203450416769" lon="18.19450416385448"><ele>24.166666666666668</ele><time>2026-04-19T08:20:24.999Z</time></trkpt><trkpt lat="40.42027073883698" lon="18.19457888943825"><ele>24.0</ele><time>2026-04-19T08:20:25.999Z</time></trkpt><trkpt lat="40.42018551969709" lon="18.194666413021928"><ele>23.75</ele><time>2026-04-19T08:20:26.999Z</time></trkpt><trkpt lat="40.42009577333113" lon="18.19475499846665"><ele>23.5</ele><time>2026-04-19T08:20:27.999Z</time></trkpt><trkpt lat="40.42000171382422" lon="18.194847917654922"><ele>23.25</ele><time>2026-04-19T08:20:28.999Z</time></trkpt><trkpt lat="40.41990987577391" lon="18.194938519727557"><ele>23.0</ele><time>2026-04-19T08:20:29.999Z</time></trkpt><trkpt lat="40.41982096870184" lon="18.19502700858356"><ele>23.0</ele><time>2026-04-19T08:20:30.999Z</time></trkpt><trkpt lat="40.41973094702281" lon="18.195119889815356"><ele>23.0</ele><time>2026-04-19T08:20:31.999Z</time></trkpt><trkpt lat="40.419637052379805" lon="18.195212393463002"><ele>23.0</ele><time>2026-04-19T08:20:32.999Z</time></trkpt><trkpt lat="40.41954636828547" lon="18.19530173569484"><ele>23.0</ele><time>2026-04-19T08:20:33.999Z</time></trkpt><trkpt lat="40.41945964856601" lon="18.195391436330485"><ele>23.25</ele><time>2026-04-19T08:20:34.999Z</time></trkpt><trkpt lat="40.419366819449486" lon="18.195482938904604"><ele>23.5</ele><time>2026-04-19T08:20:35.999Z</time></trkpt><trkpt lat="40.41927367643685" lon="18.195577416655045"><ele>23.75</ele><time>2026-04-19T08:20:36.999Z</time></trkpt><trkpt lat="40.419182291398975" lon="18.19567257213883"><ele>24.0</ele><time>2026-04-19T08:20:37.999Z</time></trkpt><trkpt lat="40.419092189233076" lon="18.195765118959923"><ele>24.25</ele><time>2026-04-19T08:20:38.999Z</time></trkpt><trkpt lat="40.41899776235237" lon="18.19587316837472"><ele>24.5</ele><time>2026-04-19T08:20:39.999Z</time></trkpt><trkpt lat="40.4189003667145" lon="18.1959757313823"><ele>24.75</ele><time>2026-04-19T08:20:40.999Z</time></trkpt><trkpt lat="40.41880552331538" lon="18.19607539119191"><ele>25.0</ele><time>2026-04-19T08:20:41.999Z</time></trkpt><trkpt lat="40.4187075554912" lon="18.19617856974286"><ele>24.5</ele><time>2026-04-19T08:20:42.999Z</time></trkpt><trkpt lat="40.418601865658566" lon="18.196281237195752"><ele>24.0</ele><time>2026-04-19T08:20:43.999Z</time></trkpt><trkpt lat="40.41850344169993" lon="18.19638170093275"><ele>23.5</ele><time>2026-04-19T08:20:44.999Z</time></trkpt><trkpt lat="40.418410781261834" lon="18.196478780352958"><ele>23.0</ele><time>2026-04-19T08:20:45.999Z</time></trkpt><trkpt lat="40.418315242676236" lon="18.196569455297116"><ele>23.0</ele><time>2026-04-19T08:20:46.999Z</time></trkpt><trkpt lat="40.41821686168941" lon="18.19667214766107"><ele>23.0</ele><time>2026-04-19T08:20:47.999Z</time></trkpt><trkpt lat="40.41811603798385" lon="18.19677820035661"><ele>23.0</ele><time>2026-04-19T08:20:48.999Z</time></trkpt><trkpt lat="40.41801828613935" lon="18.1968797271206"><ele>23.0</ele><time>2026-04-19T08:20:49.999Z</time></trkpt><trkpt lat="40.41792073215538" lon="18.196982688851733"><ele>23.0</ele><time>2026-04-19T08:20:50.999Z</time></trkpt><trkpt lat="40.41782345034082" lon="18.197084576374536"><ele>23.0</ele><time>2026-04-19T08:20:51.999Z</time></trkpt><trkpt lat="40.417723324281454" lon="18.19718581131809"><ele>23.0</ele><time>2026-04-19T08:20:52.999Z</time></trkpt><trkpt lat="40.41761995613607" lon="18.197291009560782"><ele>23.0</ele><time>2026-04-19T08:20:53.999Z</time></trkpt><trkpt lat="40.41751736140728" lon="18.197395327334114"><ele>23.0</ele><time>2026-04-19T08:20:54.999Z</time></trkpt><trkpt lat="40.41741720964741" lon="18.1974971227086"><ele>23.0</ele><time>2026-04-19T08:20:55.999Z</time></trkpt><trkpt lat="40.41731455293844" lon="18.197604846914974"><ele>23.0</ele><time>2026-04-19T08:20:56.999Z</time></trkpt><trkpt lat="40.417208274063796" lon="18.197706966588562"><ele>23.0</ele><time>2026-04-19T08:20:57.999Z</time></trkpt><trkpt lat="40.41710180472698" lon="18.19781249759787"><ele>23.0</ele><time>2026-04-19T08:20:58.999Z</time></trkpt><trkpt lat="40.41699430289226" lon="18.197921307894422"><ele>23.0</ele><time>2026-04-19T08:20:59.999Z</time></trkpt><trkpt lat="40.41688200627246" lon="18.19803868397719"><ele>23.0</ele><time>2026-04-19T08:21:00.999Z</time></trkpt><trkpt lat="40.41676961809581" lon="18.19815728416527"><ele>23.0</ele><time>2026-04-19T08:21:01.999Z</time></trkpt><trkpt lat="40.41666034167952" lon="18.198273664113927"><ele>23.0</ele><time>2026-04-19T08:21:02.999Z</time></trkpt><trkpt lat="40.41654519151731" lon="18.19838401716797"><ele>23.0</ele><time>2026-04-19T08:21:03.999Z</time></trkpt><trkpt lat="40.416432206058936" lon="18.198499242851067"><ele>23.0</ele><time>2026-04-19T08:21:04.999Z</time></trkpt><trkpt lat="40.41631931091142" lon="18.198610739399108"><ele>23.0</ele><time>2026-04-19T08:21:05.999Z</time></trkpt><trkpt lat="40.41621083586891" lon="18.198721134385664"><ele>23.0</ele><time>2026-04-19T08:21:06.999Z</time></trkpt><trkpt lat="40.41610070298516" lon="18.198832120395437"><ele>23.0</ele><time>2026-04-19T08:21:07.999Z</time></trkpt><trkpt lat="40.41599091697868" lon="18.19894541309284"><ele>23.0</ele><time>2026-04-19T08:21:08.999Z</time></trkpt><trkpt lat="40.41588151137965" lon="18.199058018949717"><ele>23.0</ele><time>2026-04-19T08:21:09.999Z</time></trkpt><trkpt lat="40.4157717938349" lon="18.19917107888242"><ele>22.5</ele><time>2026-04-19T08:21:10.999Z</time></trkpt><trkpt lat="40.41565783408773" lon="18.19928695244439"><ele>22.0</ele><time>2026-04-19T08:21:11.999Z</time></trkpt><trkpt lat="40.41554692958245" lon="18.199399222436597"><ele>21.5</ele><time>2026-04-19T08:21:12.999Z</time></trkpt><trkpt lat="40.415438758890865" lon="18.19951340821107"><ele>21.0</ele><time>2026-04-19T08:21:13.999Z</time></trkpt><trkpt lat="40.41532135899552" lon="18.19963944269055"><ele>21.0</ele><time>2026-04-19T08:21:14.999Z</time></trkpt><trkpt lat="40.41520553023185" lon="18.19975915821738"><ele>21.0</ele><time>2026-04-19T08:21:15.999Z</time></trkpt><trkpt lat="40.41509195292992" lon="18.19987196698554"><ele>21.0</ele><time>2026-04-19T08:21:16.999Z</time></trkpt><trkpt lat="40.414977023859976" lon="18.19998601589394"><ele>21.0</ele><time>2026-04-19T08:21:17.999Z</time></trkpt><trkpt lat="40.414859759114876" lon="18.20010468911271"><ele>21.0</ele><time>2026-04-19T08:21:18.999Z</time></trkpt><trkpt lat="40.414745554208935" lon="18.200219577379567"><ele>21.0</ele><time>2026-04-19T08:21:19.999Z</time></trkpt><trkpt lat="40.4146310612747" lon="18.200335499432324"><ele>21.0</ele><time>2026-04-19T08:21:20.999Z</time></trkpt><trkpt lat="40.41451898276273" lon="18.20045218572208"><ele>21.0</ele><time>2026-04-19T08:21:22Z</time></trkpt><trkpt lat="40.4144102179143" lon="18.20056616680169"><ele>20.75</ele><time>2026-04-19T08:21:23Z</time></trkpt><trkpt lat="40.41430476276285" lon="18.20067561512869"><ele>20.5</ele><time>2026-04-19T08:21:24Z</time></trkpt><trkpt lat="40.4141977293864" lon="18.20078461901467"><ele>20.25</ele><time>2026-04-19T08:21:25Z</time></trkpt><trkpt lat="40.41408814624014" lon="18.200891866460857"><ele>20.0</ele><time>2026-04-19T08:21:26Z</time></trkpt><trkpt lat="40.41398002451094" lon="18.201000133417942"><ele>20.0</ele><time>2026-04-19T08:21:27Z</time></trkpt><trkpt lat="40.4138821388577" lon="18.20110549263633"><ele>20.0</ele><time>2026-04-19T08:21:28Z</time></trkpt><trkpt lat="40.41378800676085" lon="18.201211158834003"><ele>20.0</ele><time>2026-04-19T08:21:29Z</time></trkpt><trkpt lat="40.41368862004547" lon="18.20131284463532"><ele>20.0</ele><time>2026-04-19T08:21:30Z</time></trkpt><trkpt lat="40.41358576305899" lon="18.20140747286426"><ele>20.5</ele><time>2026-04-19T08:21:31Z</time></trkpt><trkpt lat="40.413488914760485" lon="18.201501130546227"><ele>21.0</ele><time>2026-04-19T08:21:32Z</time></trkpt><trkpt lat="40.41339525584203" lon="18.20160518756515"><ele>21.5</ele><time>2026-04-19T08:21:33Z</time></trkpt><trkpt lat="40.41330041348977" lon="18.201708718407392"><ele>22.0</ele><time>2026-04-19T08:21:34Z</time></trkpt><trkpt lat="40.41321047417087" lon="18.201799629357"><ele>22.0</ele><time>2026-04-19T08:21:35Z</time></trkpt><trkpt lat="40.41312811455617" lon="18.20188321021396"><ele>22.0</ele><time>2026-04-19T08:21:36Z</time></trkpt><trkpt lat="40.41304867337618" lon="18.201964180733537"><ele>22.0</ele><time>2026-04-19T08:21:37Z</time></trkpt><trkpt lat="40.412972838144526" lon="18.202039322622074"><ele>22.0</ele><time>2026-04-19T08:21:38Z</time></trkpt><trkpt lat="40.41290307855943" lon="18.202100899012446"><ele>22.0</ele><time>2026-04-19T08:21:39Z</time></trkpt><trkpt lat="40.4128402960618" lon="18.202158790532074"><ele>22.0</ele><time>2026-04-19T08:21:40Z</time></trkpt><trkpt lat="40.41277841736036" lon="18.202196432209984"><ele>22.0</ele><time>2026-04-19T08:21:41Z</time></trkpt><trkpt lat="40.41272560565075" lon="18.202241831399775"><ele>22.0</ele><time>2026-04-19T08:21:42Z</time></trkpt><trkpt lat="40.41264261965642" lon="18.202221856805416"><ele>22.0</ele><time>2026-04-19T08:21:43Z</time></trkpt><trkpt lat="40.41257959375356" lon="18.202238104075995"><ele>22.0</ele><time>2026-04-19T08:21:44Z</time></trkpt><trkpt lat="40.41252141028759" lon="18.20228074229909"><ele>22.0</ele><time>2026-04-19T08:21:45Z</time></trkpt><trkpt lat="40.412470396151804" lon="18.202347199157824"><ele>22.0</ele><time>2026-04-19T08:21:46Z</time></trkpt><trkpt lat="40.41243423084197" lon="18.202426158287082"><ele>22.0</ele><time>2026-04-19T08:21:47Z</time></trkpt><trkpt lat="40.412404972677976" lon="18.20252209482381"><ele>22.0</ele><time>2026-04-19T08:21:47.999Z</time></trkpt><trkpt lat="40.412358007560854" lon="18.202618588701945"><ele>22.0</ele><time>2026-04-19T08:21:48.999Z</time></trkpt><trkpt lat="40.41229337455515" lon="18.202704076198224"><ele>22.0</ele><time>2026-04-19T08:21:49.999Z</time></trkpt><trkpt lat="40.4122093323865" lon="18.202794176456376"><ele>22.0</ele><time>2026-04-19T08:21:50.999Z</time></trkpt><trkpt lat="40.41211437278007" lon="18.20288837201187"><ele>22.0</ele><time>2026-04-19T08:21:51.999Z</time></trkpt><trkpt lat="40.412010978448315" lon="18.202992568950936"><ele>22.0</ele><time>2026-04-19T08:21:52.999Z</time></trkpt><trkpt lat="40.41190414171334" lon="18.203106694360557"><ele>22.0</ele><time>2026-04-19T08:21:53.999Z</time></trkpt><trkpt lat="40.411795671383274" lon="18.20321983474092"><ele>22.0</ele><time>2026-04-19T08:21:54.999Z</time></trkpt><trkpt lat="40.41168271288364" lon="18.203333098309315"><ele>22.0</ele><time>2026-04-19T08:21:55.999Z</time></trkpt><trkpt lat="40.41156668101915" lon="18.20344802087703"><ele>22.0</ele><time>2026-04-19T08:21:56.999Z</time></trkpt><trkpt lat="40.411446786329506" lon="18.2035711006096"><ele>22.0</ele><time>2026-04-19T08:21:57.999Z</time></trkpt><trkpt lat="40.41132776245095" lon="18.20370192821618"><ele>22.0</ele><time>2026-04-19T08:21:58.999Z</time></trkpt><trkpt lat="40.411207726308405" lon="18.203826450092325"><ele>22.0</ele><time>2026-04-19T08:21:59.999Z</time></trkpt><trkpt lat="40.411085109520535" lon="18.20395174086839"><ele>22.0</ele><time>2026-04-19T08:22:00.999Z</time></trkpt><trkpt lat="40.410961212110735" lon="18.204079617380994"><ele>22.0</ele><time>2026-04-19T08:22:01.999Z</time></trkpt><trkpt lat="40.410834243951456" lon="18.20421148720832"><ele>22.0</ele><time>2026-04-19T08:22:02.999Z</time></trkpt><trkpt lat="40.41070639870451" lon="18.204343469641202"><ele>22.0</ele><time>2026-04-19T08:22:03.999Z</time></trkpt><trkpt lat="40.41058091353838" lon="18.204470166022602"><ele>22.333333333333332</ele><time>2026-04-19T08:22:04.999Z</time></trkpt><trkpt lat="40.41045174910731" lon="18.20460362062243"><ele>22.666666666666668</ele><time>2026-04-19T08:22:05.999Z</time></trkpt><trkpt lat="40.41032598066277" lon="18.204731113485973"><ele>23.0</ele><time>2026-04-19T08:22:06.999Z</time></trkpt><trkpt lat="40.41019908779322" lon="18.2048660213161"><ele>22.333333333333336</ele><time>2026-04-19T08:22:07.999Z</time></trkpt><trkpt lat="40.41007634046809" lon="18.20498716873698"><ele>21.666666666666668</ele><time>2026-04-19T08:22:08.999Z</time></trkpt><trkpt lat="40.409942590882636" lon="18.205124380005003"><ele>21.0</ele><time>2026-04-19T08:22:09.999Z</time></trkpt><trkpt lat="40.409819299367484" lon="18.205248049368407"><ele>21.0</ele><time>2026-04-19T08:22:10.999Z</time></trkpt><trkpt lat="40.40968501294468" lon="18.205389167467175"><ele>21.0</ele><time>2026-04-19T08:22:11.999Z</time></trkpt><trkpt lat="40.40956162372788" lon="18.205512883243056"><ele>21.0</ele><time>2026-04-19T08:22:12.999Z</time></trkpt><trkpt lat="40.40943238906278" lon="18.20564916930854"><ele>21.333333333333332</ele><time>2026-04-19T08:22:13.999Z</time></trkpt><trkpt lat="40.40930946643522" lon="18.20576790770161"><ele>21.666666666666664</ele><time>2026-04-19T08:22:14.999Z</time></trkpt><trkpt lat="40.40918529438753" lon="18.20589608975087"><ele>22.0</ele><time>2026-04-19T08:22:15.999Z</time></trkpt><trkpt lat="40.40905966367064" lon="18.206024945912404"><ele>22.0</ele><time>2026-04-19T08:22:16.999Z</time></trkpt><trkpt lat="40.408941726053875" lon="18.206143388036896"><ele>22.0</ele><time>2026-04-19T08:22:17.999Z</time></trkpt><trkpt lat="40.408816665206295" lon="18.20627430080749"><ele>22.0</ele><time>2026-04-19T08:22:18.999Z</time></trkpt><trkpt lat="40.40868866240434" lon="18.206407525946194"><ele>22.0</ele><time>2026-04-19T08:22:19.999Z</time></trkpt><trkpt lat="40.408570642108124" lon="18.20652922623177"><ele>22.0</ele><time>2026-04-19T08:22:20.999Z</time></trkpt><trkpt lat="40.40845138530884" lon="18.206647353211697"><ele>22.0</ele><time>2026-04-19T08:22:21.999Z</time></trkpt><trkpt lat="40.40832254640979" lon="18.20678281942061"><ele>22.0</ele><time>2026-04-19T08:22:22.999Z</time></trkpt><trkpt lat="40.408198712430924" lon="18.20690933949034"><ele>22.0</ele><time>2026-04-19T08:22:23.999Z</time></trkpt><trkpt lat="40.40807623832966" lon="18.207029818154545"><ele>22.0</ele><time>2026-04-19T08:22:24.999Z</time></trkpt><trkpt lat="40.40794799083271" lon="18.207158673953906"><ele>22.0</ele><time>2026-04-19T08:22:25.999Z</time></trkpt><trkpt lat="40.40782512775637" lon="18.20728521756966"><ele>22.0</ele><time>2026-04-19T08:22:26.999Z</time></trkpt><trkpt lat="40.4077048009806" lon="18.207408264856422"><ele>22.0</ele><time>2026-04-19T08:22:27.999Z</time></trkpt><trkpt lat="40.40758629627241" lon="18.207533362620353"><ele>22.0</ele><time>2026-04-19T08:22:28.999Z</time></trkpt><trkpt lat="40.4074621701263" lon="18.207664575656928"><ele>22.0</ele><time>2026-04-19T08:22:29.999Z</time></trkpt><trkpt lat="40.4073389408758" lon="18.207788153514155"><ele>22.0</ele><time>2026-04-19T08:22:30.999Z</time></trkpt><trkpt lat="40.40721310182665" lon="18.207916929441648"><ele>22.0</ele><time>2026-04-19T08:22:31.999Z</time></trkpt><trkpt lat="40.40709420996865" lon="18.208035937615055"><ele>22.0</ele><time>2026-04-19T08:22:32.999Z</time></trkpt><trkpt lat="40.40697313092201" lon="18.20816069751187"><ele>22.0</ele><time>2026-04-19T08:22:33.999Z</time></trkpt><trkpt lat="40.4068548540072" lon="18.208278309217004"><ele>22.0</ele><time>2026-04-19T08:22:34.999Z</time></trkpt><trkpt lat="40.40673760196791" lon="18.208396636272752"><ele>22.0</ele><time>2026-04-19T08:22:35.999Z</time></trkpt><trkpt lat="40.40662943288904" lon="18.208505453530165"><ele>22.0</ele><time>2026-04-19T08:22:36.999Z</time></trkpt><trkpt lat="40.406522805413296" lon="18.208621298937885"><ele>22.0</ele><time>2026-04-19T08:22:37.999Z</time></trkpt><trkpt lat="40.406417087897246" lon="18.208733641263475"><ele>22.0</ele><time>2026-04-19T08:22:38.999Z</time></trkpt><trkpt lat="40.40631872260858" lon="18.20882862049963"><ele>22.0</ele><time>2026-04-19T08:22:39.999Z</time></trkpt><trkpt lat="40.40622879832878" lon="18.208919547065705"><ele>22.0</ele><time>2026-04-19T08:22:40.999Z</time></trkpt><trkpt lat="40.406136543847346" lon="18.20901771497263"><ele>22.0</ele><time>2026-04-19T08:22:41.999Z</time></trkpt><trkpt lat="40.40604007493448" lon="18.209111998242104"><ele>22.0</ele><time>2026-04-19T08:22:42.999Z</time></trkpt><trkpt lat="40.405946130531476" lon="18.209204429403247"><ele>22.0</ele><time>2026-04-19T08:22:43.999Z</time></trkpt><trkpt lat="40.40586170827981" lon="18.209289690984665"><ele>22.0</ele><time>2026-04-19T08:22:44.999Z</time></trkpt><trkpt lat="40.40578955718622" lon="18.209367481266728"><ele>22.0</ele><time>2026-04-19T08:22:45.999Z</time></trkpt><trkpt lat="40.40573297566058" lon="18.209456365771544"><ele>22.0</ele><time>2026-04-19T08:22:46.999Z</time></trkpt><trkpt lat="40.405658601664626" lon="18.209511830468653"><ele>22.0</ele><time>2026-04-19T08:22:47.999Z</time></trkpt><trkpt lat="40.40565156177714" lon="18.20969461189167"><ele>22.0</ele><time>2026-04-19T08:22:48.999Z</time></trkpt><trkpt lat="40.405603720419336" lon="18.20983933263498"><ele>22.0</ele><time>2026-04-19T08:22:49.999Z</time></trkpt><trkpt lat="40.40553731654908" lon="18.21000609339407"><ele>22.0</ele><time>2026-04-19T08:22:50.999Z</time></trkpt><trkpt lat="40.40545964420201" lon="18.210182311562804"><ele>22.25</ele><time>2026-04-19T08:22:51.999Z</time></trkpt><trkpt lat="40.4053853088254" lon="18.210360251576486"><ele>22.5</ele><time>2026-04-19T08:22:52.999Z</time></trkpt><trkpt lat="40.40531786600264" lon="18.210526942529636"><ele>22.75</ele><time>2026-04-19T08:22:53.999Z</time></trkpt><trkpt lat="40.405250313265945" lon="18.21068960680473"><ele>23.0</ele><time>2026-04-19T08:22:54.999Z</time></trkpt><trkpt lat="40.40518165565381" lon="18.210848307430147"><ele>23.25</ele><time>2026-04-19T08:22:55.999Z</time></trkpt><trkpt lat="40.40511276741434" lon="18.211002354931352"><ele>23.5</ele><time>2026-04-19T08:22:56.999Z</time></trkpt><trkpt lat="40.405046827000405" lon="18.211153015132066"><ele>23.75</ele><time>2026-04-19T08:22:57.999Z</time></trkpt><trkpt lat="40.40498671092095" lon="18.21130303932833"><ele>24.0</ele><time>2026-04-19T08:22:58.999Z</time></trkpt><trkpt lat="40.404932354201804" lon="18.21144572948562"><ele>24.2</ele><time>2026-04-19T08:22:59.999Z</time></trkpt><trkpt lat="40.40488296520017" lon="18.211574202502227"><ele>24.4</ele><time>2026-04-19T08:23:00.999Z</time></trkpt><trkpt lat="40.404839326616454" lon="18.21169240240771"><ele>24.6</ele><time>2026-04-19T08:23:01.999Z</time></trkpt><trkpt lat="40.40479513335493" lon="18.211799993758625"><ele>24.8</ele><time>2026-04-19T08:23:02.999Z</time></trkpt><trkpt lat="40.40477481309223" lon="18.211930737976623"><ele>25.0</ele><time>2026-04-19T08:23:03.999Z</time></trkpt><trkpt lat="40.40480369297895" lon="18.212070139788587"><ele>24.75</ele><time>2026-04-19T08:23:04.999Z</time></trkpt><trkpt lat="40.40463916849843" lon="18.212200665219527"><ele>24.5</ele><time>2026-04-19T08:23:05.999Z</time></trkpt><trkpt lat="40.40458488562396" lon="18.212335585374063"><ele>24.25</ele><time>2026-04-19T08:23:06.999Z</time></trkpt><trkpt lat="40.404523158007294" lon="18.212468502054723"><ele>24.0</ele><time>2026-04-19T08:23:07.999Z</time></trkpt><trkpt lat="40.404471923930316" lon="18.21259159277484"><ele>24.0</ele><time>2026-04-19T08:23:08.999Z</time></trkpt><trkpt lat="40.40442715105465" lon="18.21271022301198"><ele>24.0</ele><time>2026-04-19T08:23:09.999Z</time></trkpt><trkpt lat="40.40438605757484" lon="18.21281656810499"><ele>24.0</ele><time>2026-04-19T08:23:10.998Z</time></trkpt><trkpt lat="40.40434747917536" lon="18.21290013220681"><ele>24.0</ele><time>2026-04-19T08:23:11.998Z</time></trkpt><trkpt lat="40.404294565201155" lon="18.21298437263106"><ele>24.0</ele><time>2026-04-19T08:23:12.998Z</time></trkpt><trkpt lat="40.404242419326565" lon="18.213091775182182"><ele>24.0</ele><time>2026-04-19T08:23:13.998Z</time></trkpt><trkpt lat="40.40418867792216" lon="18.213218355843463"><ele>24.0</ele><time>2026-04-19T08:23:14.998Z</time></trkpt><trkpt lat="40.40415311733149" lon="18.213347229294325"><ele>24.0</ele><time>2026-04-19T08:23:15.998Z</time></trkpt><trkpt lat="40.40411151311398" lon="18.2134605991777"><ele>24.0</ele><time>2026-04-19T08:23:16.998Z</time></trkpt><trkpt lat="40.4040643272516" lon="18.213577187454895"><ele>24.0</ele><time>2026-04-19T08:23:17.998Z</time></trkpt><trkpt lat="40.40400956739428" lon="18.213711578496614"><ele>24.0</ele><time>2026-04-19T08:23:18.998Z</time></trkpt><trkpt lat="40.40396341126343" lon="18.213823005669475"><ele>24.0</ele><time>2026-04-19T08:23:19.998Z</time></trkpt><trkpt lat="40.40390061193015" lon="18.213955298601487"><ele>24.0</ele><time>2026-04-19T08:23:20.998Z</time></trkpt><trkpt lat="40.40383812329362" lon="18.214108960260262"><ele>24.0</ele><time>2026-04-19T08:23:21.998Z</time></trkpt><trkpt lat="40.40377152291753" lon="18.21426213284606"><ele>24.0</ele><time>2026-04-19T08:23:22.998Z</time></trkpt><trkpt lat="40.40370984924466" lon="18.214391465772866"><ele>24.0</ele><time>2026-04-19T08:23:23.998Z</time></trkpt><trkpt lat="40.403659051595" lon="18.214508594950058"><ele>24.0</ele><time>2026-04-19T08:23:24.998Z</time></trkpt><trkpt lat="40.40361601422131" lon="18.21461283359535"><ele>24.0</ele><time>2026-04-19T08:23:25.998Z</time></trkpt><trkpt lat="40.40357465742191" lon="18.2146912265063"><ele>24.0</ele><time>2026-04-19T08:23:26.998Z</time></trkpt><trkpt lat="40.40353451380538" lon="18.21479305597304"><ele>24.0</ele><time>2026-04-19T08:23:27.999Z</time></trkpt><trkpt lat="40.40349442066124" lon="18.214903166442912"><ele>24.0</ele><time>2026-04-19T08:23:28.999Z</time></trkpt><trkpt lat="40.403457233510395" lon="18.214991384103723"><ele>23.6</ele><time>2026-04-19T08:23:29.999Z</time></trkpt><trkpt lat="40.40342708126972" lon="18.21507483108302"><ele>23.2</ele><time>2026-04-19T08:23:30.999Z</time></trkpt><trkpt lat="40.40338246209856" lon="18.215167592663263"><ele>22.8</ele><time>2026-04-19T08:23:31.999Z</time></trkpt><trkpt lat="40.40333671056104" lon="18.21527394078731"><ele>22.400000000000002</ele><time>2026-04-19T08:23:32.999Z</time></trkpt><trkpt lat="40.40329141814844" lon="18.2153927373702"><ele>22.0</ele><time>2026-04-19T08:23:33.999Z</time></trkpt><trkpt lat="40.40322333418027" lon="18.21554087015458"><ele>21.75</ele><time>2026-04-19T08:23:34.999Z</time></trkpt><trkpt lat="40.40314629159973" lon="18.215704501099676"><ele>21.5</ele><time>2026-04-19T08:23:35.999Z</time></trkpt><trkpt lat="40.40307093402871" lon="18.215875088025868"><ele>21.25</ele><time>2026-04-19T08:23:36.999Z</time></trkpt><trkpt lat="40.40301150694279" lon="18.216042504845383"><ele>21.0</ele><time>2026-04-19T08:23:37.999Z</time></trkpt><trkpt lat="40.40295347356541" lon="18.216205684108413"><ele>21.0</ele><time>2026-04-19T08:23:38.999Z</time></trkpt><trkpt lat="40.402885887885915" lon="18.216349147937276"><ele>21.0</ele><time>2026-04-19T08:23:39.999Z</time></trkpt><trkpt lat="40.40282769016367" lon="18.216491013495627"><ele>21.0</ele><time>2026-04-19T08:23:40.999Z</time></trkpt><trkpt lat="40.4027645555791" lon="18.216624881298454"><ele>21.0</ele><time>2026-04-19T08:23:41.999Z</time></trkpt><trkpt lat="40.40270302876776" lon="18.21676306944317"><ele>20.5</ele><time>2026-04-19T08:23:42.999Z</time></trkpt><trkpt lat="40.402654505243554" lon="18.2169080804325"><ele>20.0</ele><time>2026-04-19T08:23:43.999Z</time></trkpt><trkpt lat="40.40260038965704" lon="18.21705698239676"><ele>19.5</ele><time>2026-04-19T08:23:44.999Z</time></trkpt><trkpt lat="40.4025331899698" lon="18.217192631303703"><ele>19.0</ele><time>2026-04-19T08:23:45.999Z</time></trkpt><trkpt lat="40.40246931627396" lon="18.217334659327708"><ele>18.8</ele><time>2026-04-19T08:23:46.999Z</time></trkpt><trkpt lat="40.40241862393432" lon="18.217465412695674"><ele>18.599999999999998</ele><time>2026-04-19T08:23:47.999Z</time></trkpt><trkpt lat="40.402373862534496" lon="18.21757788585207"><ele>18.4</ele><time>2026-04-19T08:23:48.999Z</time></trkpt><trkpt lat="40.40232043865614" lon="18.217699434694147"><ele>18.2</ele><time>2026-04-19T08:23:49.999Z</time></trkpt><trkpt lat="40.40227695845292" lon="18.217810566095046"><ele>18.0</ele><time>2026-04-19T08:23:50.999Z</time></trkpt><trkpt lat="40.40223422607005" lon="18.217910746939758"><ele>18.0</ele><time>2026-04-19T08:23:51.999Z</time></trkpt><trkpt lat="40.402191034715486" lon="18.218024902580865"><ele>18.0</ele><time>2026-04-19T08:23:52.999Z</time></trkpt><trkpt lat="40.402140778923666" lon="18.218137966275382"><ele>18.0</ele><time>2026-04-19T08:23:53.999Z</time></trkpt><trkpt lat="40.402090331828056" lon="18.218231618426373"><ele>18.0</ele><time>2026-04-19T08:23:54.999Z</time></trkpt><trkpt lat="40.402042646101236" lon="18.218322725321734"><ele>18.0</ele><time>2026-04-19T08:23:55.999Z</time></trkpt><trkpt lat="40.40201831097706" lon="18.218411082517033"><ele>18.0</ele><time>2026-04-19T08:23:56.999Z</time></trkpt><trkpt lat="40.401981577918065" lon="18.218523309899638"><ele>18.0</ele><time>2026-04-19T08:23:57.999Z</time></trkpt><trkpt lat="40.40193773564091" lon="18.218620768180287"><ele>18.0</ele><time>2026-04-19T08:23:58.999Z</time></trkpt><trkpt lat="40.40189106300908" lon="18.218729831459793"><ele>18.0</ele><time>2026-04-19T08:23:59.999Z</time></trkpt><trkpt lat="40.40184282693272" lon="18.218848780658195"><ele>18.0</ele><time>2026-04-19T08:24:00.999Z</time></trkpt><trkpt lat="40.401789463797044" lon="18.218967585672438"><ele>18.0</ele><time>2026-04-19T08:24:01.999Z</time></trkpt><trkpt lat="40.40173626429105" lon="18.219084885846247"><ele>18.0</ele><time>2026-04-19T08:24:02.999Z</time></trkpt><trkpt lat="40.40169027335624" lon="18.21919838227667"><ele>18.0</ele><time>2026-04-19T08:24:03.999Z</time></trkpt><trkpt lat="40.40163883621817" lon="18.21931276790492"><ele>18.0</ele><time>2026-04-19T08:24:04.999Z</time></trkpt><trkpt lat="40.401573812964905" lon="18.21944478135165"><ele>18.0</ele><time>2026-04-19T08:24:05.999Z</time></trkpt><trkpt lat="40.40152401951022" lon="18.219579616218255"><ele>18.0</ele><time>2026-04-19T08:24:06.999Z</time></trkpt><trkpt lat="40.401483638708356" lon="18.219740387720318"><ele>18.0</ele><time>2026-04-19T08:24:07.999Z</time></trkpt><trkpt lat="40.40142030106205" lon="18.219902757257785"><ele>18.0</ele><time>2026-04-19T08:24:08.999Z</time></trkpt><trkpt lat="40.401343486864604" lon="18.220072961063497"><ele>18.0</ele><time>2026-04-19T08:24:09.999Z</time></trkpt><trkpt lat="40.401284420629935" lon="18.220227613785635"><ele>18.0</ele><time>2026-04-19T08:24:10.999Z</time></trkpt><trkpt lat="40.40122780007087" lon="18.22036442152459"><ele>18.0</ele><time>2026-04-19T08:24:11.999Z</time></trkpt><trkpt lat="40.401173949876664" lon="18.220479149211663"><ele>18.0</ele><time>2026-04-19T08:24:12.999Z</time></trkpt><trkpt lat="40.40112770088738" lon="18.22059164262249"><ele>18.0</ele><time>2026-04-19T08:24:13.999Z</time></trkpt><trkpt lat="40.40108528441396" lon="18.220700950996253"><ele>18.0</ele><time>2026-04-19T08:24:14.999Z</time></trkpt><trkpt lat="40.40103779903259" lon="18.220802763152765"><ele>18.0</ele><time>2026-04-19T08:24:15.999Z</time></trkpt><trkpt lat="40.400999722736415" lon="18.22089506669977"><ele>18.0</ele><time>2026-04-19T08:24:16.999Z</time></trkpt><trkpt lat="40.40096546868255" lon="18.220992753460035"><ele>18.0</ele><time>2026-04-19T08:24:17.999Z</time></trkpt><trkpt lat="40.40093288756867" lon="18.221087137766784"><ele>18.0</ele><time>2026-04-19T08:24:18.999Z</time></trkpt><trkpt lat="40.40089947280266" lon="18.22117479402006"><ele>18.0</ele><time>2026-04-19T08:24:19.999Z</time></trkpt><trkpt lat="40.40086554948051" lon="18.22124579074176"><ele>18.0</ele><time>2026-04-19T08:24:20.999Z</time></trkpt><trkpt lat="40.40083392061891" lon="18.221322512160352"><ele>18.0</ele><time>2026-04-19T08:24:21.999Z</time></trkpt><trkpt lat="40.40078556450788" lon="18.221451055651276"><ele>18.0</ele><time>2026-04-19T08:24:23.999Z</time></trkpt><trkpt lat="40.400762132061914" lon="18.221528394005603"><ele>18.0</ele><time>2026-04-19T08:24:25.999Z</time></trkpt><trkpt lat="40.400789972170486" lon="18.221628572947953"><ele>18.0</ele><time>2026-04-19T08:24:29.999Z</time></trkpt><trkpt lat="40.4009247761803" lon="18.221715093468777"><ele>18.0</ele><time>2026-04-19T08:24:31.999Z</time></trkpt><trkpt lat="40.40101423615416" lon="18.221773582568343"><ele>18.0</ele><time>2026-04-19T08:24:32.999Z</time></trkpt><trkpt lat="40.40109783360554" lon="18.221833571096436"><ele>18.0</ele><time>2026-04-19T08:24:33.999Z</time></trkpt><trkpt lat="40.40117299246217" lon="18.221882958233053"><ele>18.0</ele><time>2026-04-19T08:24:34.999Z</time></trkpt><trkpt lat="40.4012350469568" lon="18.22192180130864"><ele>18.0</ele><time>2026-04-19T08:24:35.999Z</time></trkpt><trkpt lat="40.40131503014971" lon="18.221972688768606"><ele>18.0</ele><time>2026-04-19T08:24:37.999Z</time></trkpt><trkpt lat="40.40130622632427" lon="18.222086819103332"><ele>18.0</ele><time>2026-04-19T08:24:40.999Z</time></trkpt><trkpt lat="40.401250852897654" lon="18.222149666245677"><ele>18.0</ele><time>2026-04-19T08:24:41.999Z</time></trkpt><trkpt lat="40.4011839972502" lon="18.22222405413695"><ele>18.4</ele><time>2026-04-19T08:24:42.999Z</time></trkpt><trkpt lat="40.40111986871988" lon="18.2223209192964"><ele>18.8</ele><time>2026-04-19T08:24:43.999Z</time></trkpt><trkpt lat="40.40105749466338" lon="18.222415446706577"><ele>19.2</ele><time>2026-04-19T08:24:44.999Z</time></trkpt><trkpt lat="40.40099502075783" lon="18.22249239611873"><ele>19.6</ele><time>2026-04-19T08:24:45.999Z</time></trkpt><trkpt lat="40.40092115095071" lon="18.22255764963558"><ele>20.0</ele><time>2026-04-19T08:24:46.999Z</time></trkpt><trkpt lat="40.40083528559885" lon="18.222611966586744"><ele>20.0</ele><time>2026-04-19T08:24:47.999Z</time></trkpt><trkpt lat="40.40077051647278" lon="18.222650768230768"><ele>20.0</ele><time>2026-04-19T08:24:48.999Z</time></trkpt><trkpt lat="40.40071879951515" lon="18.222701684885955"><ele>20.0</ele><time>2026-04-19T08:24:49.999Z</time></trkpt><trkpt lat="40.40066933387545" lon="18.222859687109636"><ele>20.0</ele><time>2026-04-19T08:24:51.999Z</time></trkpt><trkpt lat="40.40063424377763" lon="18.222935375701695"><ele>20.0</ele><time>2026-04-19T08:24:52.999Z</time></trkpt><trkpt lat="40.40058688589894" lon="18.22300236740238"><ele>20.0</ele><time>2026-04-19T08:24:53.999Z</time></trkpt><trkpt lat="40.400511010577326" lon="18.22303800601918"><ele>20.142857142857142</ele><time>2026-04-19T08:24:54.999Z</time></trkpt><trkpt lat="40.40045627703718" lon="18.223080146549858"><ele>20.285714285714285</ele><time>2026-04-19T08:24:55.999Z</time></trkpt><trkpt lat="40.400410809603265" lon="18.22315701310077"><ele>20.42857142857143</ele><time>2026-04-19T08:24:56.999Z</time></trkpt><trkpt lat="40.40036651587936" lon="18.223249836253654"><ele>20.57142857142857</ele><time>2026-04-19T08:24:57.999Z</time></trkpt><trkpt lat="40.400325646676194" lon="18.223318695880916"><ele>20.714285714285715</ele><time>2026-04-19T08:24:58.999Z</time></trkpt><trkpt lat="40.40026286049854" lon="18.223363143754895"><ele>20.857142857142858</ele><time>2026-04-19T08:24:59.999Z</time></trkpt><trkpt lat="40.400205493681206" lon="18.223428758370247"><ele>21.0</ele><time>2026-04-19T08:25:00.999Z</time></trkpt><trkpt lat="40.40011056267829" lon="18.2235495291585"><ele>21.0</ele><time>2026-04-19T08:25:02.999Z</time></trkpt><trkpt lat="40.40008038468168" lon="18.223628063103146"><ele>21.0</ele><time>2026-04-19T08:25:03.999Z</time></trkpt><trkpt lat="40.40003568805656" lon="18.22370519077725"><ele>21.0</ele><time>2026-04-19T08:25:04.999Z</time></trkpt><trkpt lat="40.39997777718684" lon="18.223754983200923"><ele>21.0</ele><time>2026-04-19T08:25:05.999Z</time></trkpt><trkpt lat="40.39991309892849" lon="18.223813095959915"><ele>21.0</ele><time>2026-04-19T08:25:06.999Z</time></trkpt><trkpt lat="40.399842550975805" lon="18.223895611514088"><ele>21.0</ele><time>2026-04-19T08:25:07.999Z</time></trkpt><trkpt lat="40.39974482384858" lon="18.223977519784818"><ele>21.200000000000003</ele><time>2026-04-19T08:25:08.999Z</time></trkpt><trkpt lat="40.399637687611126" lon="18.224068302114116"><ele>21.400000000000002</ele><time>2026-04-19T08:25:09.999Z</time></trkpt><trkpt lat="40.39953680408844" lon="18.224160413325055"><ele>21.6</ele><time>2026-04-19T08:25:10.999Z</time></trkpt><trkpt lat="40.39946102536341" lon="18.22423293315546"><ele>21.8</ele><time>2026-04-19T08:25:11.999Z</time></trkpt><trkpt lat="40.39940534298759" lon="18.224323665972797"><ele>22.0</ele><time>2026-04-19T08:25:12.999Z</time></trkpt><trkpt lat="40.3993566897896" lon="18.22441070449188"><ele>22.0</ele><time>2026-04-19T08:25:13.999Z</time></trkpt><trkpt lat="40.39931733180661" lon="18.22449296837137"><ele>22.0</ele><time>2026-04-19T08:25:14.999Z</time></trkpt><trkpt lat="40.399290932929986" lon="18.224579941954783"><ele>22.0</ele><time>2026-04-19T08:25:15.999Z</time></trkpt><trkpt lat="40.39929012264713" lon="18.22466892957288"><ele>22.0</ele><time>2026-04-19T08:25:16.997Z</time></trkpt><trkpt lat="40.39926417309569" lon="18.224801992041506"><ele>22.0</ele><time>2026-04-19T08:25:18.997Z</time></trkpt><trkpt lat="40.39915066621685" lon="18.22485822841314"><ele>22.0</ele><time>2026-04-19T08:25:20.997Z</time></trkpt><trkpt lat="40.399079362451026" lon="18.224918848638975"><ele>22.6</ele><time>2026-04-19T08:25:21.997Z</time></trkpt><trkpt lat="40.39901440174281" lon="18.22497798047151"><ele>23.200000000000003</ele><time>2026-04-19T08:25:22.997Z</time></trkpt><trkpt lat="40.39894815919793" lon="18.224992405745716"><ele>23.8</ele><time>2026-04-19T08:25:23.997Z</time></trkpt><trkpt lat="40.39886517126802" lon="18.225006867479525"><ele>24.4</ele><time>2026-04-19T08:25:24.997Z</time></trkpt><trkpt lat="40.39876461100892" lon="18.225043062187886"><ele>25.0</ele><time>2026-04-19T08:25:26.998Z</time></trkpt><trkpt lat="40.398633161737195" lon="18.22503369579781"><ele>25.000000000000004</ele><time>2026-04-19T08:25:28.998Z</time></trkpt><trkpt lat="40.398558836869974" lon="18.224996266008844"><ele>25.0</ele><time>2026-04-19T08:25:29.998Z</time></trkpt><trkpt lat="40.398477233565885" lon="18.224989610540007"><ele>25.0</ele><time>2026-04-19T08:25:31.998Z</time></trkpt><trkpt lat="40.398488006278974" lon="18.225079082239127"><ele>25.0</ele><time>2026-04-19T08:25:34.998Z</time></trkpt><trkpt lat="40.398582799700385" lon="18.225207345730635"><ele>25.000000000000004</ele><time>2026-04-19T08:25:36.998Z</time></trkpt><trkpt lat="40.398632453347226" lon="18.225275250177482"><ele>25.0</ele><time>2026-04-19T08:25:37.998Z</time></trkpt><trkpt lat="40.398765192278226" lon="18.225390235050817"><ele>24.8</ele><time>2026-04-19T08:25:39.998Z</time></trkpt><trkpt lat="40.39886854901007" lon="18.225491486716482"><ele>24.6</ele><time>2026-04-19T08:25:40.998Z</time></trkpt><trkpt lat="40.39893710070362" lon="18.225577738456757"><ele>24.4</ele><time>2026-04-19T08:25:41.998Z</time></trkpt><trkpt lat="40.398995031712026" lon="18.225659134675617"><ele>24.2</ele><time>2026-04-19T08:25:42.998Z</time></trkpt><trkpt lat="40.399054390498534" lon="18.225712741136718"><ele>24.0</ele><time>2026-04-19T08:25:43.999Z</time></trkpt><trkpt lat="40.39915843914344" lon="18.225759878455644"><ele>24.0</ele><time>2026-04-19T08:25:45.999Z</time></trkpt><trkpt lat="40.39924845001444" lon="18.225803946224495"><ele>24.0</ele><time>2026-04-19T08:25:47.999Z</time></trkpt><trkpt lat="40.39928673726208" lon="18.225897488152746"><ele>24.0</ele><time>2026-04-19T08:25:49.999Z</time></trkpt><trkpt lat="40.39928195639846" lon="18.226020600956204"><ele>24.0</ele><time>2026-04-19T08:25:51.999Z</time></trkpt><trkpt lat="40.39922904929969" lon="18.226078759190187"><ele>24.0</ele><time>2026-04-19T08:25:53.999Z</time></trkpt><trkpt lat="40.39911202339446" lon="18.226201735628106"><ele>24.0</ele><time>2026-04-19T08:25:55.999Z</time></trkpt><trkpt lat="40.39905480740833" lon="18.226267438839155"><ele>24.0</ele><time>2026-04-19T08:25:56.999Z</time></trkpt><trkpt lat="40.398969141342164" lon="18.226344797904954"><ele>24.0</ele><time>2026-04-19T08:25:58.999Z</time></trkpt><trkpt lat="40.398939218332984" lon="18.226423831301183"><ele>24.0</ele><time>2026-04-19T08:26:00.999Z</time></trkpt><trkpt lat="40.39894390753726" lon="18.22655938335948"><ele>24.0</ele><time>2026-04-19T08:26:02.999Z</time></trkpt><trkpt lat="40.398993012708026" lon="18.226681388729446"><ele>24.0</ele><time>2026-04-19T08:26:04.999Z</time></trkpt><trkpt lat="40.39900221597171" lon="18.226834410771406"><ele>24.0</ele><time>2026-04-19T08:26:06.999Z</time></trkpt><trkpt lat="40.39898395296855" lon="18.227000179192725"><ele>24.0</ele><time>2026-04-19T08:26:08.999Z</time></trkpt><trkpt lat="40.39894393623858" lon="18.22708988725278"><ele>24.0</ele><time>2026-04-19T08:26:09.999Z</time></trkpt><trkpt lat="40.39890779044657" lon="18.22721993836046"><ele>24.0</ele><time>2026-04-19T08:26:11.999Z</time></trkpt><trkpt lat="40.3988734699466" lon="18.227304233616596"><ele>24.666666666666668</ele><time>2026-04-19T08:26:13.999Z</time></trkpt><trkpt lat="40.39882536463587" lon="18.227381695027212"><ele>25.333333333333336</ele><time>2026-04-19T08:26:16.999Z</time></trkpt><trkpt lat="40.39875496123534" lon="18.227399978979435"><ele>26.0</ele><time>2026-04-19T08:26:18.999Z</time></trkpt><trkpt lat="40.39868575655695" lon="18.227388569471913"><ele>26.666666666666668</ele><time>2026-04-19T08:26:20.999Z</time></trkpt><trkpt lat="40.398610498972054" lon="18.227350761729987"><ele>27.333333333333336</ele><time>2026-04-19T08:26:22.999Z</time></trkpt><trkpt lat="40.398529496726596" lon="18.227320501446915"><ele>28.0</ele><time>2026-04-19T08:26:25.999Z</time></trkpt><trkpt lat="40.39846396203937" lon="18.22737839610007"><ele>28.0</ele><time>2026-04-19T08:26:27.999Z</time></trkpt><trkpt lat="40.398417031210464" lon="18.22746591631041"><ele>27.999999999999996</ele><time>2026-04-19T08:26:29.999Z</time></trkpt><trkpt lat="40.39832236564904" lon="18.22747727154935"><ele>27.999999999999996</ele><time>2026-04-19T08:26:32.999Z</time></trkpt><trkpt lat="40.39827394409112" lon="18.227579226434774"><ele>28.0</ele><time>2026-04-19T08:26:35.999Z</time></trkpt><trkpt lat="40.39821534196946" lon="18.22770994613787"><ele>28.0</ele><time>2026-04-19T08:26:38.999Z</time></trkpt><trkpt lat="40.398148855174476" lon="18.227809238533148"><ele>28.0</ele><time>2026-04-19T08:26:40.999Z</time></trkpt><trkpt lat="40.39806825839115" lon="18.22788353451573"><ele>27.999999999999996</ele><time>2026-04-19T08:26:42.999Z</time></trkpt><trkpt lat="40.397987809537305" lon="18.22794188766832"><ele>27.999999999999996</ele><time>2026-04-19T08:26:43.999Z</time></trkpt><trkpt lat="40.39790869581601" lon="18.228000449222236"><ele>28.0</ele><time>2026-04-19T08:26:44.999Z</time></trkpt><trkpt lat="40.39784301999779" lon="18.228063454724072"><ele>28.0</ele><time>2026-04-19T08:26:46.999Z</time></trkpt><trkpt lat="40.397763577722145" lon="18.228116420129417"><ele>27.333333333333336</ele><time>2026-04-19T08:26:48.999Z</time></trkpt><trkpt lat="40.39770564571777" lon="18.22815443534458"><ele>26.666666666666668</ele><time>2026-04-19T08:26:49.999Z</time></trkpt><trkpt lat="40.39765871060556" lon="18.228211886890637"><ele>26.0</ele><time>2026-04-19T08:26:50.999Z</time></trkpt><trkpt lat="40.39760444118712" lon="18.228295219846146"><ele>25.333333333333336</ele><time>2026-04-19T08:26:51.999Z</time></trkpt><trkpt lat="40.39754055309594" lon="18.22840237347198"><ele>24.666666666666668</ele><time>2026-04-19T08:26:52.999Z</time></trkpt><trkpt lat="40.39747616240754" lon="18.228486394944365"><ele>24.0</ele><time>2026-04-19T08:26:53.999Z</time></trkpt><trkpt lat="40.39739294922635" lon="18.22858111663805"><ele>24.0</ele><time>2026-04-19T08:26:55.999Z</time></trkpt><trkpt lat="40.3973272580247" lon="18.228697042494883"><ele>24.0</ele><time>2026-04-19T08:26:57.999Z</time></trkpt><trkpt lat="40.39727111141053" lon="18.22876933097022"><ele>24.0</ele><time>2026-04-19T08:26:59.999Z</time></trkpt><trkpt lat="40.39721388680893" lon="18.22880702316478"><ele>24.0</ele><time>2026-04-19T08:27:01.999Z</time></trkpt><trkpt lat="40.397145464976916" lon="18.22886577721598"><ele>24.0</ele><time>2026-04-19T08:27:03.999Z</time></trkpt><trkpt lat="40.39704022888647" lon="18.228886020889036"><ele>24.0</ele><time>2026-04-19T08:27:05.999Z</time></trkpt><trkpt lat="40.396972769749915" lon="18.228885257639924"><ele>24.2</ele><time>2026-04-19T08:27:07.999Z</time></trkpt><trkpt lat="40.39692938859392" lon="18.22900997056533"><ele>24.4</ele><time>2026-04-19T08:27:09.999Z</time></trkpt><trkpt lat="40.3969110746735" lon="18.22910744917228"><ele>24.6</ele><time>2026-04-19T08:27:10.999Z</time></trkpt><trkpt lat="40.39683016167954" lon="18.22920321848967"><ele>24.8</ele><time>2026-04-19T08:27:12.999Z</time></trkpt><trkpt lat="40.39677154215514" lon="18.22929645404557"><ele>25.0</ele><time>2026-04-19T08:27:14.999Z</time></trkpt><trkpt lat="40.39669737642238" lon="18.229346490546526"><ele>25.0</ele><time>2026-04-19T08:27:16.999Z</time></trkpt><trkpt lat="40.396608675030535" lon="18.22938643215116"><ele>25.0</ele><time>2026-04-19T08:27:18.999Z</time></trkpt><trkpt lat="40.396523358118586" lon="18.229437765844086"><ele>25.0</ele><time>2026-04-19T08:27:21Z</time></trkpt><trkpt lat="40.3964817673153" lon="18.22950463348212"><ele>25.0</ele><time>2026-04-19T08:27:22Z</time></trkpt><trkpt lat="40.39642962722942" lon="18.229618225276962"><ele>25.0</ele><time>2026-04-19T08:27:22.998Z</time></trkpt><trkpt lat="40.39634958319471" lon="18.229748887691514"><ele>25.2</ele><time>2026-04-19T08:27:23.998Z</time></trkpt><trkpt lat="40.396250727800535" lon="18.229862210495753"><ele>25.4</ele><time>2026-04-19T08:27:24.998Z</time></trkpt><trkpt lat="40.39619634767544" lon="18.229920321670043"><ele>25.6</ele><time>2026-04-19T08:27:25.998Z</time></trkpt><trkpt lat="40.39623429375856" lon="18.230046134358282"><ele>25.8</ele><time>2026-04-19T08:27:28.998Z</time></trkpt><trkpt lat="40.39628485808439" lon="18.230150389382572"><ele>26.0</ele><time>2026-04-19T08:27:30.998Z</time></trkpt><trkpt lat="40.39630589702427" lon="18.23023483073101"><ele>25.999999999999996</ele><time>2026-04-19T08:27:32.998Z</time></trkpt><trkpt lat="40.396287490825166" lon="18.23031681497185"><ele>26.0</ele><time>2026-04-19T08:27:34.999Z</time></trkpt><trkpt lat="40.396235278230876" lon="18.230369183336762"><ele>26.0</ele><time>2026-04-19T08:27:36.999Z</time></trkpt><trkpt lat="40.39618889700114" lon="18.230440265468086"><ele>26.0</ele><time>2026-04-19T08:27:39.999Z</time></trkpt><trkpt lat="40.3961477701248" lon="18.230544981846194"><ele>25.999999999999996</ele><time>2026-04-19T08:27:50.999Z</time></trkpt><trkpt lat="40.39611624423557" lon="18.23064257523081"><ele>26.0</ele><time>2026-04-19T08:27:52.999Z</time></trkpt><trkpt lat="40.39612198565022" lon="18.230756610753012"><ele>25.833333333333332</ele><time>2026-04-19T08:27:54.999Z</time></trkpt><trkpt lat="40.39608988465934" lon="18.230835001877917"><ele>25.666666666666664</ele><time>2026-04-19T08:27:56.999Z</time></trkpt><trkpt lat="40.39613260317751" lon="18.23090092780228"><ele>25.5</ele><time>2026-04-19T08:27:58.999Z</time></trkpt><trkpt lat="40.39622388597205" lon="18.230991600191654"><ele>25.333333333333336</ele><time>2026-04-19T08:28:00.999Z</time></trkpt><trkpt lat="40.39626408538128" lon="18.231091833047014"><ele>25.166666666666668</ele><time>2026-04-19T08:28:02.999Z</time></trkpt><trkpt lat="40.39629999675792" lon="18.231233650258737"><ele>25.0</ele><time>2026-04-19T08:28:05Z</time></trkpt><trkpt lat="40.396285497191684" lon="18.231348205053038"><ele>25.0</ele><time>2026-04-19T08:28:07Z</time></trkpt><trkpt lat="40.39618835726989" lon="18.231486984159993"><ele>25.0</ele><time>2026-04-19T08:28:09Z</time></trkpt><trkpt lat="40.39613952021944" lon="18.231554619686882"><ele>25.0</ele><time>2026-04-19T08:28:10Z</time></trkpt><trkpt lat="40.396075509033025" lon="18.231616323554615"><ele>25.0</ele><time>2026-04-19T08:28:11Z</time></trkpt><trkpt lat="40.39599214083298" lon="18.231695116050222"><ele>25.0</ele><time>2026-04-19T08:28:12Z</time></trkpt><trkpt lat="40.39591759807217" lon="18.2317892884662"><ele>25.000000000000004</ele><time>2026-04-19T08:28:13Z</time></trkpt><trkpt lat="40.395854971622" lon="18.231866901097412"><ele>25.0</ele><time>2026-04-19T08:28:14Z</time></trkpt><trkpt lat="40.39579252856668" lon="18.23190644986847"><ele>25.0</ele><time>2026-04-19T08:28:15Z</time></trkpt><trkpt lat="40.39573126765159" lon="18.231955770691467"><ele>25.0</ele><time>2026-04-19T08:28:16Z</time></trkpt><trkpt lat="40.39568243680351" lon="18.23201322244423"><ele>25.000000000000004</ele><time>2026-04-19T08:28:17Z</time></trkpt><trkpt lat="40.395643721784204" lon="18.232102726435716"><ele>25.0</ele><time>2026-04-19T08:28:18Z</time></trkpt><trkpt lat="40.39559702586657" lon="18.232217959233147"><ele>25.000000000000004</ele><time>2026-04-19T08:28:19Z</time></trkpt><trkpt lat="40.39553194609913" lon="18.232327354319395"><ele>25.0</ele><time>2026-04-19T08:28:21Z</time></trkpt><trkpt lat="40.39548069278587" lon="18.232411766077906"><ele>25.0</ele><time>2026-04-19T08:28:22Z</time></trkpt><trkpt lat="40.395432913321564" lon="18.232500674747556"><ele>25.0</ele><time>2026-04-19T08:28:23Z</time></trkpt><trkpt lat="40.3953691747861" lon="18.23259133393746"><ele>25.000000000000004</ele><time>2026-04-19T08:28:24Z</time></trkpt><trkpt lat="40.395323245672216" lon="18.232681725160674"><ele>25.0</ele><time>2026-04-19T08:28:25Z</time></trkpt><trkpt lat="40.395274361190566" lon="18.23277379781109"><ele>25.000000000000004</ele><time>2026-04-19T08:28:27Z</time></trkpt><trkpt lat="40.395226673713275" lon="18.232844356274448"><ele>25.0</ele><time>2026-04-19T08:28:30Z</time></trkpt><trkpt lat="40.39527990940446" lon="18.232943173633025"><ele>25.0</ele><time>2026-04-19T08:28:33Z</time></trkpt><trkpt lat="40.39532891767551" lon="18.232995255182377"><ele>25.0</ele><time>2026-04-19T08:28:34Z</time></trkpt><trkpt lat="40.395386700630226" lon="18.233073550331294"><ele>25.000000000000004</ele><time>2026-04-19T08:28:35Z</time></trkpt><trkpt lat="40.3954528533725" lon="18.233174595756378"><ele>25.0</ele><time>2026-04-19T08:28:36Z</time></trkpt><trkpt lat="40.395505719338885" lon="18.233245419656882"><ele>24.833333333333336</ele><time>2026-04-19T08:28:37Z</time></trkpt><trkpt lat="40.39553500606092" lon="18.233319938218923"><ele>24.666666666666668</ele><time>2026-04-19T08:28:38Z</time></trkpt><trkpt lat="40.39558520857623" lon="18.23340089717811"><ele>24.5</ele><time>2026-04-19T08:28:39Z</time></trkpt><trkpt lat="40.395631133883924" lon="18.23346922920967"><ele>24.333333333333336</ele><time>2026-04-19T08:28:40Z</time></trkpt><trkpt lat="40.39569249299008" lon="18.23357976382726"><ele>24.166666666666668</ele><time>2026-04-19T08:28:42Z</time></trkpt><trkpt lat="40.395737270022835" lon="18.233654832758063"><ele>24.0</ele><time>2026-04-19T08:28:43Z</time></trkpt><trkpt lat="40.39579356087416" lon="18.23373202347721"><ele>24.0</ele><time>2026-04-19T08:28:45Z</time></trkpt><trkpt lat="40.39586347578219" lon="18.233845326999127"><ele>24.0</ele><time>2026-04-19T08:28:47Z</time></trkpt><trkpt lat="40.39592428866328" lon="18.233961825206176"><ele>24.0</ele><time>2026-04-19T08:28:49Z</time></trkpt><trkpt lat="40.39597946868188" lon="18.23409713723906"><ele>24.0</ele><time>2026-04-19T08:28:51Z</time></trkpt><trkpt lat="40.39602744121554" lon="18.23425291036644"><ele>24.0</ele><time>2026-04-19T08:28:53Z</time></trkpt><trkpt lat="40.39607074511763" lon="18.234365534678727"><ele>24.0</ele><time>2026-04-19T08:28:55Z</time></trkpt><trkpt lat="40.396110983161655" lon="18.234489359649608"><ele>24.0</ele><time>2026-04-19T08:28:57Z</time></trkpt><trkpt lat="40.39615071811465" lon="18.234627001853475"><ele>24.0</ele><time>2026-04-19T08:28:59Z</time></trkpt><trkpt lat="40.396216178539575" lon="18.234757856941698"><ele>24.0</ele><time>2026-04-19T08:29:01Z</time></trkpt><trkpt lat="40.39623703663291" lon="18.234843333326303"><ele>24.0</ele><time>2026-04-19T08:29:02Z</time></trkpt><trkpt lat="40.39623913705343" lon="18.234957537992788"><ele>24.0</ele><time>2026-04-19T08:29:03Z</time></trkpt><trkpt lat="40.39627614473395" lon="18.235103373518154"><ele>24.0</ele><time>2026-04-19T08:29:04Z</time></trkpt><trkpt lat="40.396295719418305" lon="18.235185940383424"><ele>24.0</ele><time>2026-04-19T08:29:05Z</time></trkpt><trkpt lat="40.39635510426818" lon="18.2353282131743"><ele>24.0</ele><time>2026-04-19T08:29:07Z</time></trkpt><trkpt lat="40.39639989730866" lon="18.235411265567937"><ele>23.6</ele><time>2026-04-19T08:29:08Z</time></trkpt><trkpt lat="40.39644192439912" lon="18.235538934840218"><ele>23.2</ele><time>2026-04-19T08:29:10Z</time></trkpt><trkpt lat="40.396490634795846" lon="18.235633387621636"><ele>22.8</ele><time>2026-04-19T08:29:12Z</time></trkpt><trkpt lat="40.39656165235876" lon="18.235692706308843"><ele>22.400000000000002</ele><time>2026-04-19T08:29:14Z</time></trkpt><trkpt lat="40.396665689393586" lon="18.235725030221687"><ele>22.0</ele><time>2026-04-19T08:29:16Z</time></trkpt><trkpt lat="40.39670999967309" lon="18.235789761501017"><ele>21.6</ele><time>2026-04-19T08:29:17Z</time></trkpt><trkpt lat="40.39677295441053" lon="18.235890241957954"><ele>21.200000000000003</ele><time>2026-04-19T08:29:18Z</time></trkpt><trkpt lat="40.39685075870728" lon="18.235987878474507"><ele>20.8</ele><time>2026-04-19T08:29:19Z</time></trkpt><trkpt lat="40.39693177411879" lon="18.236068112196495"><ele>20.4</ele><time>2026-04-19T08:29:20Z</time></trkpt><trkpt lat="40.396996629395254" lon="18.236160906108438"><ele>20.0</ele><time>2026-04-19T08:29:21Z</time></trkpt><trkpt lat="40.397051219758325" lon="18.236261059279844"><ele>20.0</ele><time>2026-04-19T08:29:22Z</time></trkpt><trkpt lat="40.39708492004549" lon="18.236335929260687"><ele>20.0</ele><time>2026-04-19T08:29:23Z</time></trkpt><trkpt lat="40.397150909141295" lon="18.236452028942544"><ele>20.0</ele><time>2026-04-19T08:29:25Z</time></trkpt><trkpt lat="40.39719577179396" lon="18.236539105917558"><ele>20.0</ele><time>2026-04-19T08:29:26Z</time></trkpt><trkpt lat="40.39722888785353" lon="18.236630083974728"><ele>20.0</ele><time>2026-04-19T08:29:27Z</time></trkpt><trkpt lat="40.39726449258453" lon="18.23673479991257"><ele>20.0</ele><time>2026-04-19T08:29:28Z</time></trkpt><trkpt lat="40.397299530359255" lon="18.236872115975757"><ele>20.0</ele><time>2026-04-19T08:29:28.999Z</time></trkpt><trkpt lat="40.39734153697893" lon="18.237018237471535"><ele>20.0</ele><time>2026-04-19T08:29:29.999Z</time></trkpt><trkpt lat="40.397373147070006" lon="18.237121392494313"><ele>20.0</ele><time>2026-04-19T08:29:30.999Z</time></trkpt><trkpt lat="40.39739681048764" lon="18.237208830539466"><ele>20.0</ele><time>2026-04-19T08:29:31.999Z</time></trkpt><trkpt lat="40.397420483658564" lon="18.23730118850745"><ele>20.0</ele><time>2026-04-19T08:29:32.999Z</time></trkpt><trkpt lat="40.397452018364724" lon="18.237402936229415"><ele>20.0</ele><time>2026-04-19T08:29:33.999Z</time></trkpt><trkpt lat="40.39748359755027" lon="18.237477017692374"><ele>19.8</ele><time>2026-04-19T08:29:34.999Z</time></trkpt><trkpt lat="40.39754406862844" lon="18.2376191997406"><ele>19.6</ele><time>2026-04-19T08:29:36.999Z</time></trkpt><trkpt lat="40.39756483921643" lon="18.23773007457259"><ele>19.4</ele><time>2026-04-19T08:29:38.999Z</time></trkpt><trkpt lat="40.39761369560285" lon="18.237834676611623"><ele>19.2</ele><time>2026-04-19T08:29:40.999Z</time></trkpt><trkpt lat="40.397642594269975" lon="18.23799011908358"><ele>19.0</ele><time>2026-04-19T08:29:42.999Z</time></trkpt><trkpt lat="40.397679881290486" lon="18.23809491511793"><ele>18.8</ele><time>2026-04-19T08:29:43.999Z</time></trkpt><trkpt lat="40.39772762815666" lon="18.238208296204693"><ele>18.599999999999998</ele><time>2026-04-19T08:29:44.999Z</time></trkpt><trkpt lat="40.39777793565082" lon="18.23834153499391"><ele>18.4</ele><time>2026-04-19T08:29:46.999Z</time></trkpt><trkpt lat="40.39781931577563" lon="18.238457975977678"><ele>18.2</ele><time>2026-04-19T08:29:48.999Z</time></trkpt><trkpt lat="40.39786841390802" lon="18.238610865298313"><ele>18.0</ele><time>2026-04-19T08:29:51Z</time></trkpt><trkpt lat="40.39792711859214" lon="18.23874129953268"><ele>18.0</ele><time>2026-04-19T08:29:52Z</time></trkpt><trkpt lat="40.39797111911461" lon="18.23886651686108"><ele>18.0</ele><time>2026-04-19T08:29:53Z</time></trkpt><trkpt lat="40.397999489674035" lon="18.238952059647236"><ele>18.0</ele><time>2026-04-19T08:29:54Z</time></trkpt><trkpt lat="40.39804452198274" lon="18.239078868780627"><ele>18.0</ele><time>2026-04-19T08:29:56Z</time></trkpt><trkpt lat="40.39810039020285" lon="18.239215875832997"><ele>18.0</ele><time>2026-04-19T08:29:58Z</time></trkpt><trkpt lat="40.398169661327614" lon="18.23934742946799"><ele>18.2</ele><time>2026-04-19T08:30:00Z</time></trkpt><trkpt lat="40.39824541575306" lon="18.23945196292003"><ele>18.4</ele><time>2026-04-19T08:30:02Z</time></trkpt><trkpt lat="40.39829709235576" lon="18.23951070152574"><ele>18.599999999999998</ele><time>2026-04-19T08:30:03Z</time></trkpt><trkpt lat="40.398414312973884" lon="18.23959688032698"><ele>18.8</ele><time>2026-04-19T08:30:05Z</time></trkpt><trkpt lat="40.398517679866366" lon="18.23966159319019"><ele>19.0</ele><time>2026-04-19T08:30:06Z</time></trkpt><trkpt lat="40.3986004152003" lon="18.239746497142857"><ele>19.0</ele><time>2026-04-19T08:30:07Z</time></trkpt><trkpt lat="40.39865102812882" lon="18.239812445050305"><ele>19.0</ele><time>2026-04-19T08:30:08Z</time></trkpt><trkpt lat="40.39869475373615" lon="18.239889063822115"><ele>19.0</ele><time>2026-04-19T08:30:09Z</time></trkpt><trkpt lat="40.398737596276874" lon="18.239982975539434"><ele>19.0</ele><time>2026-04-19T08:30:10Z</time></trkpt><trkpt lat="40.39878727150878" lon="18.240082358238357"><ele>19.0</ele><time>2026-04-19T08:30:12Z</time></trkpt><trkpt lat="40.3988249272477" lon="18.240176471735722"><ele>19.0</ele><time>2026-04-19T08:30:14Z</time></trkpt><trkpt lat="40.39886187431375" lon="18.240256470840855"><ele>19.2</ele><time>2026-04-19T08:30:15Z</time></trkpt><trkpt lat="40.3989352712686" lon="18.24034535912456"><ele>19.4</ele><time>2026-04-19T08:30:17Z</time></trkpt><trkpt lat="40.399044674112105" lon="18.240342201339647"><ele>19.6</ele><time>2026-04-19T08:30:19Z</time></trkpt><trkpt lat="40.39912090068204" lon="18.240360554211403"><ele>19.8</ele><time>2026-04-19T08:30:21Z</time></trkpt><trkpt lat="40.39921993443886" lon="18.240374264809827"><ele>20.0</ele><time>2026-04-19T08:30:23Z</time></trkpt><trkpt lat="40.39926443217971" lon="18.240458083426685"><ele>20.0</ele><time>2026-04-19T08:30:25Z</time></trkpt><trkpt lat="40.39929571641548" lon="18.24059779269476"><ele>20.0</ele><time>2026-04-19T08:30:27Z</time></trkpt><trkpt lat="40.39932055670262" lon="18.24075046790279"><ele>20.0</ele><time>2026-04-19T08:30:29Z</time></trkpt><trkpt lat="40.39934778195681" lon="18.240865056968747"><ele>20.0</ele><time>2026-04-19T08:30:30Z</time></trkpt><trkpt lat="40.39937523970784" lon="18.240993083787497"><ele>20.0</ele><time>2026-04-19T08:30:31Z</time></trkpt><trkpt lat="40.39939569975875" lon="18.241092535985107"><ele>20.4</ele><time>2026-04-19T08:30:32Z</time></trkpt><trkpt lat="40.39944417523755" lon="18.241198221528165"><ele>20.8</ele><time>2026-04-19T08:30:34Z</time></trkpt><trkpt lat="40.399496733401996" lon="18.24130492927239"><ele>21.200000000000003</ele><time>2026-04-19T08:30:36Z</time></trkpt><trkpt lat="40.39958869044894" lon="18.241422961021026"><ele>21.6</ele><time>2026-04-19T08:30:38Z</time></trkpt><trkpt lat="40.39965153971733" lon="18.241527449144748"><ele>22.0</ele><time>2026-04-19T08:30:39Z</time></trkpt><trkpt lat="40.39973137475176" lon="18.241621403934854"><ele>22.0</ele><time>2026-04-19T08:30:40Z</time></trkpt><trkpt lat="40.39980321016613" lon="18.241695540112353"><ele>22.0</ele><time>2026-04-19T08:30:41Z</time></trkpt><trkpt lat="40.39986816574022" lon="18.24175632239553"><ele>22.0</ele><time>2026-04-19T08:30:42Z</time></trkpt><trkpt lat="40.39991866424989" lon="18.241811682428953"><ele>22.0</ele><time>2026-04-19T08:30:43Z</time></trkpt><trkpt lat="40.399984223965" lon="18.241856281418205"><ele>22.0</ele><time>2026-04-19T08:30:44Z</time></trkpt><trkpt lat="40.400057836183564" lon="18.24188536169109"><ele>22.0</ele><time>2026-04-19T08:30:45Z</time></trkpt><trkpt lat="40.40015390117005" lon="18.241907756430532"><ele>22.0</ele><time>2026-04-19T08:30:46Z</time></trkpt><trkpt lat="40.40025046732109" lon="18.241917043034345"><ele>22.0</ele><time>2026-04-19T08:30:47Z</time></trkpt><trkpt lat="40.40032988920313" lon="18.241932454611685"><ele>22.0</ele><time>2026-04-19T08:30:48Z</time></trkpt><trkpt lat="40.400410673996696" lon="18.24197262281024"><ele>22.0</ele><time>2026-04-19T08:30:49Z</time></trkpt><trkpt lat="40.4004802427134" lon="18.24203072601859"><ele>22.0</ele><time>2026-04-19T08:30:50Z</time></trkpt><trkpt lat="40.400535299873845" lon="18.24209107856779"><ele>22.0</ele><time>2026-04-19T08:30:51Z</time></trkpt><trkpt lat="40.40063460967678" lon="18.242136902471852"><ele>21.6</ele><time>2026-04-19T08:30:53.001Z</time></trkpt><trkpt lat="40.40072434139093" lon="18.242130741600015"><ele>21.200000000000003</ele><time>2026-04-19T08:30:54.001Z</time></trkpt><trkpt lat="40.40085735029937" lon="18.242124133718498"><ele>20.8</ele><time>2026-04-19T08:30:55.001Z</time></trkpt><trkpt lat="40.4009630073644" lon="18.242112582391755"><ele>20.4</ele><time>2026-04-19T08:30:56.001Z</time></trkpt><trkpt lat="40.4010516985927" lon="18.24210444442942"><ele>20.0</ele><time>2026-04-19T08:30:57.001Z</time></trkpt><trkpt lat="40.401135288001875" lon="18.24210620441276"><ele>20.0</ele><time>2026-04-19T08:30:58.001Z</time></trkpt><trkpt lat="40.40122744575433" lon="18.24211302194599"><ele>20.0</ele><time>2026-04-19T08:30:59.001Z</time></trkpt><trkpt lat="40.40131495587975" lon="18.242117700799575"><ele>20.0</ele><time>2026-04-19T08:31:00.001Z</time></trkpt><trkpt lat="40.401403609538036" lon="18.242113273515233"><ele>20.0</ele><time>2026-04-19T08:31:01.001Z</time></trkpt><trkpt lat="40.40148603061143" lon="18.242096561304475"><ele>20.0</ele><time>2026-04-19T08:31:02.001Z</time></trkpt><trkpt lat="40.40156665178616" lon="18.242088349889126"><ele>20.0</ele><time>2026-04-19T08:31:03.001Z</time></trkpt><trkpt lat="40.401661235670595" lon="18.2420956353904"><ele>20.25</ele><time>2026-04-19T08:31:04.001Z</time></trkpt><trkpt lat="40.40176145694516" lon="18.242115495037226"><ele>20.5</ele><time>2026-04-19T08:31:05.001Z</time></trkpt><trkpt lat="40.40188993118168" lon="18.242118517858447"><ele>20.75</ele><time>2026-04-19T08:31:06.001Z</time></trkpt><trkpt lat="40.40202413272061" lon="18.24211591907603"><ele>21.0</ele><time>2026-04-19T08:31:07.001Z</time></trkpt><trkpt lat="40.40215194293427" lon="18.24211618470784"><ele>20.666666666666668</ele><time>2026-04-19T08:31:08.001Z</time></trkpt><trkpt lat="40.402243160143705" lon="18.242110432288452"><ele>20.333333333333332</ele><time>2026-04-19T08:31:09.001Z</time></trkpt><trkpt lat="40.402315587327884" lon="18.24211027638955"><ele>20.0</ele><time>2026-04-19T08:31:10.001Z</time></trkpt><trkpt lat="40.402383147737616" lon="18.24211321102002"><ele>19.666666666666664</ele><time>2026-04-19T08:31:11.001Z</time></trkpt><trkpt lat="40.40246716001288" lon="18.242112393424225"><ele>19.333333333333332</ele><time>2026-04-19T08:31:12.001Z</time></trkpt><trkpt lat="40.40257386915303" lon="18.242109669102813"><ele>19.0</ele><time>2026-04-19T08:31:13.001Z</time></trkpt><trkpt lat="40.402676808854935" lon="18.24210375724331"><ele>19.0</ele><time>2026-04-19T08:31:14.001Z</time></trkpt><trkpt lat="40.402762448073034" lon="18.24209549314311"><ele>19.0</ele><time>2026-04-19T08:31:15.001Z</time></trkpt><trkpt lat="40.40286361758557" lon="18.242089185199944"><ele>19.0</ele><time>2026-04-19T08:31:16.001Z</time></trkpt><trkpt lat="40.402998858317005" lon="18.242099439569095"><ele>19.0</ele><time>2026-04-19T08:31:17.001Z</time></trkpt><trkpt lat="40.40310903526689" lon="18.242100957688706"><ele>19.0</ele><time>2026-04-19T08:31:18.001Z</time></trkpt><trkpt lat="40.40320913712425" lon="18.24209827803358"><ele>18.833333333333332</ele><time>2026-04-19T08:31:19.001Z</time></trkpt><trkpt lat="40.40330803403324" lon="18.242104259223524"><ele>18.666666666666664</ele><time>2026-04-19T08:31:20.001Z</time></trkpt><trkpt lat="40.403387729653005" lon="18.2420952261179"><ele>18.5</ele><time>2026-04-19T08:31:21.001Z</time></trkpt><trkpt lat="40.4034610289564" lon="18.242084998322937"><ele>18.333333333333332</ele><time>2026-04-19T08:31:22.001Z</time></trkpt><trkpt lat="40.403542967017245" lon="18.242091592639028"><ele>18.166666666666668</ele><time>2026-04-19T08:31:23.001Z</time></trkpt><trkpt lat="40.40363665330645" lon="18.242100656579417"><ele>18.0</ele><time>2026-04-19T08:31:24.001Z</time></trkpt><trkpt lat="40.403735277100864" lon="18.242097661659724"><ele>18.0</ele><time>2026-04-19T08:31:25.001Z</time></trkpt><trkpt lat="40.40382280704242" lon="18.242097137045626"><ele>18.0</ele><time>2026-04-19T08:31:26.001Z</time></trkpt><trkpt lat="40.403891988454056" lon="18.24209413463633"><ele>18.0</ele><time>2026-04-19T08:31:27.001Z</time></trkpt><trkpt lat="40.40396158044306" lon="18.242083989313578"><ele>18.0</ele><time>2026-04-19T08:31:28.001Z</time></trkpt><trkpt lat="40.40405073824112" lon="18.242078441596412"><ele>18.0</ele><time>2026-04-19T08:31:29.001Z</time></trkpt><trkpt lat="40.40418028315559" lon="18.24208476008089"><ele>18.0</ele><time>2026-04-19T08:31:30.001Z</time></trkpt><trkpt lat="40.40430964299722" lon="18.242080558369608"><ele>18.0</ele><time>2026-04-19T08:31:31.001Z</time></trkpt><trkpt lat="40.40440388582047" lon="18.242072614775545"><ele>18.0</ele><time>2026-04-19T08:31:32.001Z</time></trkpt><trkpt lat="40.40447789522147" lon="18.242072910891764"><ele>18.0</ele><time>2026-04-19T08:31:33.001Z</time></trkpt><trkpt lat="40.40455072458848" lon="18.24208465734585"><ele>18.0</ele><time>2026-04-19T08:31:34.001Z</time></trkpt><trkpt lat="40.40463157636413" lon="18.24209050252836"><ele>18.0</ele><time>2026-04-19T08:31:34.999Z</time></trkpt><trkpt lat="40.40470589282755" lon="18.24208179631466"><ele>18.0</ele><time>2026-04-19T08:31:35.999Z</time></trkpt><trkpt lat="40.4047983789775" lon="18.24207770378031"><ele>17.75</ele><time>2026-04-19T08:31:36.999Z</time></trkpt><trkpt lat="40.40491225860066" lon="18.24207690539322"><ele>17.5</ele><time>2026-04-19T08:31:37.999Z</time></trkpt><trkpt lat="40.40504994985964" lon="18.242068209048426"><ele>17.25</ele><time>2026-04-19T08:31:38.999Z</time></trkpt><trkpt lat="40.4052102729405" lon="18.24207006401312"><ele>17.0</ele><time>2026-04-19T08:31:39.999Z</time></trkpt><trkpt lat="40.40534995825125" lon="18.242069497444078"><ele>17.0</ele><time>2026-04-19T08:31:40.999Z</time></trkpt><trkpt lat="40.40547127889938" lon="18.242067672941378"><ele>17.0</ele><time>2026-04-19T08:31:41.999Z</time></trkpt><trkpt lat="40.4056070018563" lon="18.242066748324593"><ele>17.0</ele><time>2026-04-19T08:31:42.999Z</time></trkpt><trkpt lat="40.40574508553833" lon="18.242062069552194"><ele>17.0</ele><time>2026-04-19T08:31:43.999Z</time></trkpt><trkpt lat="40.40588956467724" lon="18.242064948918387"><ele>17.0</ele><time>2026-04-19T08:31:44.999Z</time></trkpt><trkpt lat="40.40601562947394" lon="18.2420652554607"><ele>17.0</ele><time>2026-04-19T08:31:45.999Z</time></trkpt><trkpt lat="40.40612486974819" lon="18.242065210809578"><ele>17.0</ele><time>2026-04-19T08:31:47Z</time></trkpt><trkpt lat="40.40622617613643" lon="18.242065475104773"><ele>17.0</ele><time>2026-04-19T08:31:48Z</time></trkpt><trkpt lat="40.40632350143049" lon="18.242057353085116"><ele>17.0</ele><time>2026-04-19T08:31:49Z</time></trkpt><trkpt lat="40.406409419583554" lon="18.242059706816733"><ele>16.8</ele><time>2026-04-19T08:31:50Z</time></trkpt><trkpt lat="40.4064935436661" lon="18.24206333643375"><ele>16.6</ele><time>2026-04-19T08:31:51Z</time></trkpt><trkpt lat="40.406587115335945" lon="18.242056109266507"><ele>16.400000000000002</ele><time>2026-04-19T08:31:52Z</time></trkpt><trkpt lat="40.40666515189426" lon="18.242056347454767"><ele>16.2</ele><time>2026-04-19T08:31:53Z</time></trkpt><trkpt lat="40.406764898837054" lon="18.24206731214579"><ele>16.0</ele><time>2026-04-19T08:31:54Z</time></trkpt><trkpt lat="40.40688974982479" lon="18.24205729172535"><ele>16.0</ele><time>2026-04-19T08:31:55Z</time></trkpt><trkpt lat="40.40701000026453" lon="18.242056607478556"><ele>16.0</ele><time>2026-04-19T08:31:56Z</time></trkpt><trkpt lat="40.407110451682456" lon="18.242052268865823"><ele>16.0</ele><time>2026-04-19T08:31:57Z</time></trkpt><trkpt lat="40.40719292808365" lon="18.242054960491703"><ele>16.0</ele><time>2026-04-19T08:31:58Z</time></trkpt><trkpt lat="40.40726517004227" lon="18.242056803798448"><ele>16.0</ele><time>2026-04-19T08:31:59Z</time></trkpt><trkpt lat="40.407357185229465" lon="18.24204439311254"><ele>16.166666666666664</ele><time>2026-04-19T08:32:00Z</time></trkpt><trkpt lat="40.407437672429715" lon="18.242048248912305"><ele>16.333333333333332</ele><time>2026-04-19T08:32:01Z</time></trkpt><trkpt lat="40.407517910519864" lon="18.242056121009355"><ele>16.5</ele><time>2026-04-19T08:32:02Z</time></trkpt><trkpt lat="40.40760507279219" lon="18.242055911487835"><ele>16.666666666666668</ele><time>2026-04-19T08:32:03Z</time></trkpt><trkpt lat="40.407686298959845" lon="18.24204915196015"><ele>16.833333333333336</ele><time>2026-04-19T08:32:04Z</time></trkpt><trkpt lat="40.40775165603679" lon="18.24204814725087"><ele>17.0</ele><time>2026-04-19T08:32:05Z</time></trkpt><trkpt lat="40.40786630982281" lon="18.242053060531074"><ele>17.0</ele><time>2026-04-19T08:32:07Z</time></trkpt><trkpt lat="40.407972026078845" lon="18.24205415067204"><ele>17.0</ele><time>2026-04-19T08:32:08Z</time></trkpt><trkpt lat="40.40809689823287" lon="18.242050792339953"><ele>17.0</ele><time>2026-04-19T08:32:09Z</time></trkpt><trkpt lat="40.40820322239065" lon="18.242050517173432"><ele>17.0</ele><time>2026-04-19T08:32:10Z</time></trkpt><trkpt lat="40.40829267237117" lon="18.24204828314903"><ele>17.0</ele><time>2026-04-19T08:32:11Z</time></trkpt><trkpt lat="40.4083784438346" lon="18.242051051471748"><ele>16.833333333333336</ele><time>2026-04-19T08:32:12Z</time></trkpt><trkpt lat="40.40846954174367" lon="18.242049535602156"><ele>16.666666666666668</ele><time>2026-04-19T08:32:13Z</time></trkpt><trkpt lat="40.40854420640327" lon="18.24205048514682"><ele>16.5</ele><time>2026-04-19T08:32:14Z</time></trkpt><trkpt lat="40.40863102969384" lon="18.242049948670275"><ele>16.333333333333332</ele><time>2026-04-19T08:32:15Z</time></trkpt><trkpt lat="40.40871850386703" lon="18.242042780826235"><ele>16.166666666666664</ele><time>2026-04-19T08:32:16Z</time></trkpt><trkpt lat="40.40878486390891" lon="18.242034064763352"><ele>16.0</ele><time>2026-04-19T08:32:17Z</time></trkpt><trkpt lat="40.40885215064338" lon="18.242057246521597"><ele>16.0</ele><time>2026-04-19T08:32:19Z</time></trkpt><trkpt lat="40.40885920937732" lon="18.242178869494037"><ele>16.0</ele><time>2026-04-19T08:32:21Z</time></trkpt><trkpt lat="40.408861448739685" lon="18.24231235260324"><ele>16.0</ele><time>2026-04-19T08:32:22Z</time></trkpt><trkpt lat="40.40888852171092" lon="18.242455472034845"><ele>16.0</ele><time>2026-04-19T08:32:23Z</time></trkpt><trkpt lat="40.408935612910405" lon="18.242657668906073"><ele>15.75</ele><time>2026-04-19T08:32:24Z</time></trkpt><trkpt lat="40.40898022750148" lon="18.242883824666485"><ele>15.5</ele><time>2026-04-19T08:32:25Z</time></trkpt><trkpt lat="40.409013146334146" lon="18.243056299957892"><ele>15.25</ele><time>2026-04-19T08:32:26Z</time></trkpt><trkpt lat="40.409033508156384" lon="18.243192345969522"><ele>15.0</ele><time>2026-04-19T08:32:27Z</time></trkpt><trkpt lat="40.4090523099356" lon="18.243312459223276"><ele>15.0</ele><time>2026-04-19T08:32:28Z</time></trkpt><trkpt lat="40.40907031874616" lon="18.243435832954233"><ele>15.0</ele><time>2026-04-19T08:32:29Z</time></trkpt><trkpt lat="40.40909674863417" lon="18.24354622993585"><ele>15.0</ele><time>2026-04-19T08:32:30Z</time></trkpt><trkpt lat="40.40912131991796" lon="18.243648324044525"><ele>15.0</ele><time>2026-04-19T08:32:31Z</time></trkpt><trkpt lat="40.40914058673086" lon="18.243746818918694"><ele>15.0</ele><time>2026-04-19T08:32:32Z</time></trkpt><trkpt lat="40.409164400647406" lon="18.243875182863345"><ele>15.0</ele><time>2026-04-19T08:32:33Z</time></trkpt><trkpt lat="40.40919411032143" lon="18.244028415560084"><ele>14.75</ele><time>2026-04-19T08:32:34Z</time></trkpt><trkpt lat="40.40924031438694" lon="18.244218777982855"><ele>14.5</ele><time>2026-04-19T08:32:35Z</time></trkpt><trkpt lat="40.409275141652266" lon="18.24438445897846"><ele>14.25</ele><time>2026-04-19T08:32:36Z</time></trkpt><trkpt lat="40.409301348852246" lon="18.244524927212307"><ele>14.0</ele><time>2026-04-19T08:32:37Z</time></trkpt><trkpt lat="40.40932266310184" lon="18.2446540004526"><ele>14.0</ele><time>2026-04-19T08:32:38Z</time></trkpt><trkpt lat="40.40934656303757" lon="18.244784142872426"><ele>13.999999999999998</ele><time>2026-04-19T08:32:39.001Z</time></trkpt><trkpt lat="40.40936191017792" lon="18.244907079889803"><ele>13.999999999999998</ele><time>2026-04-19T08:32:40.001Z</time></trkpt><trkpt lat="40.40938055650365" lon="18.245027587563403"><ele>14.0</ele><time>2026-04-19T08:32:41.001Z</time></trkpt><trkpt lat="40.40940165616337" lon="18.2451455022005"><ele>14.0</ele><time>2026-04-19T08:32:42.001Z</time></trkpt><trkpt lat="40.40942679497469" lon="18.245279867841166"><ele>14.0</ele><time>2026-04-19T08:32:43.001Z</time></trkpt><trkpt lat="40.40945679924114" lon="18.245404326720788"><ele>14.0</ele><time>2026-04-19T08:32:44.001Z</time></trkpt><trkpt lat="40.40950377982775" lon="18.245522501215483"><ele>14.0</ele><time>2026-04-19T08:32:45.001Z</time></trkpt><trkpt lat="40.409586453039886" lon="18.245678004546313"><ele>14.0</ele><time>2026-04-19T08:32:46.001Z</time></trkpt><trkpt lat="40.40968405591994" lon="18.2458829520017"><ele>13.333333333333334</ele><time>2026-04-19T08:32:47.001Z</time></trkpt><trkpt lat="40.409771765098114" lon="18.246069166246794"><ele>12.666666666666668</ele><time>2026-04-19T08:32:48.001Z</time></trkpt><trkpt lat="40.40986515000052" lon="18.24627212389018"><ele>12.0</ele><time>2026-04-19T08:32:49.001Z</time></trkpt><trkpt lat="40.40993335083922" lon="18.24642141117506"><ele>12.166666666666666</ele><time>2026-04-19T08:32:50.001Z</time></trkpt><trkpt lat="40.409979639164135" lon="18.246527480680964"><ele>12.333333333333332</ele><time>2026-04-19T08:32:51.001Z</time></trkpt><trkpt lat="40.410013088652995" lon="18.246605924413824"><ele>12.5</ele><time>2026-04-19T08:32:52.001Z</time></trkpt><trkpt lat="40.4100591617656" lon="18.246696016159643"><ele>12.666666666666666</ele><time>2026-04-19T08:32:54.001Z</time></trkpt><trkpt lat="40.41014114938291" lon="18.246737268252193"><ele>12.833333333333332</ele><time>2026-04-19T08:32:57.001Z</time></trkpt><trkpt lat="40.410199009037854" lon="18.246683604638918"><ele>13.0</ele><time>2026-04-19T08:33:00.001Z</time></trkpt><trkpt lat="40.41026089905612" lon="18.246782229493117"><ele>12.999999999999998</ele><time>2026-04-19T08:33:03.001Z</time></trkpt><trkpt lat="40.41027958959504" lon="18.246888905693453"><ele>13.0</ele><time>2026-04-19T08:33:05.001Z</time></trkpt><trkpt lat="40.41031821046152" lon="18.246964273976467"><ele>13.0</ele><time>2026-04-19T08:33:07.001Z</time></trkpt><trkpt lat="40.41036535478743" lon="18.247059956070117"><ele>13.0</ele><time>2026-04-19T08:33:10.001Z</time></trkpt><trkpt lat="40.41029298338593" lon="18.246969471494342"><ele>12.999999999999998</ele><time>2026-04-19T08:33:19.001Z</time></trkpt><trkpt lat="40.41025683663262" lon="18.246874207519802"><ele>13.0</ele><time>2026-04-19T08:33:20.001Z</time></trkpt><trkpt lat="40.41022502133739" lon="18.246776581325975"><ele>13.0</ele><time>2026-04-19T08:33:22.001Z</time></trkpt><trkpt lat="40.4101937739226" lon="18.246680145007996"><ele>13.0</ele><time>2026-04-19T08:33:25.001Z</time></trkpt><trkpt lat="40.410286819372" lon="18.24658176742349"><ele>13.0</ele><time>2026-04-19T08:33:28.001Z</time></trkpt><trkpt lat="40.41035577343423" lon="18.246546959718195"><ele>13.0</ele><time>2026-04-19T08:33:29.001Z</time></trkpt><trkpt lat="40.41043412069756" lon="18.246491826015863"><ele>13.0</ele><time>2026-04-19T08:33:30.001Z</time></trkpt><trkpt lat="40.41051906851431" lon="18.24641554222139"><ele>12.833333333333332</ele><time>2026-04-19T08:33:31.001Z</time></trkpt><trkpt lat="40.41060250042794" lon="18.246346040694938"><ele>12.666666666666666</ele><time>2026-04-19T08:33:32.001Z</time></trkpt><trkpt lat="40.41068205699752" lon="18.246281171170033"><ele>12.5</ele><time>2026-04-19T08:33:33.001Z</time></trkpt><trkpt lat="40.41076097583471" lon="18.2462160846922"><ele>12.333333333333332</ele><time>2026-04-19T08:33:34.001Z</time></trkpt><trkpt lat="40.410833112012206" lon="18.246159472362727"><ele>12.166666666666666</ele><time>2026-04-19T08:33:35.001Z</time></trkpt><trkpt lat="40.41089473774632" lon="18.246114540839486"><ele>12.0</ele><time>2026-04-19T08:33:36.001Z</time></trkpt><trkpt lat="40.41095039581338" lon="18.246075243753396"><ele>12.0</ele><time>2026-04-19T08:33:37.001Z</time></trkpt><trkpt lat="40.41101944608465" lon="18.246024696771453"><ele>12.0</ele><time>2026-04-19T08:33:38.001Z</time></trkpt><trkpt lat="40.411097744059646" lon="18.24595886447435"><ele>12.0</ele><time>2026-04-19T08:33:39.001Z</time></trkpt><trkpt lat="40.41118939471239" lon="18.24588571065463"><ele>12.0</ele><time>2026-04-19T08:33:40.001Z</time></trkpt><trkpt lat="40.4112899833285" lon="18.245807265511406"><ele>12.0</ele><time>2026-04-19T08:33:41Z</time></trkpt><trkpt lat="40.411395916388834" lon="18.245723919914685"><ele>11.8</ele><time>2026-04-19T08:33:42Z</time></trkpt><trkpt lat="40.4114949811341" lon="18.245644760221456"><ele>11.6</ele><time>2026-04-19T08:33:43Z</time></trkpt><trkpt lat="40.41158719303442" lon="18.245573025412394"><ele>11.4</ele><time>2026-04-19T08:33:44Z</time></trkpt><trkpt lat="40.411673309351805" lon="18.24550252477704"><ele>11.200000000000001</ele><time>2026-04-19T08:33:45Z</time></trkpt><trkpt lat="40.41175559499503" lon="18.245437699337575"><ele>11.0</ele><time>2026-04-19T08:33:46Z</time></trkpt><trkpt lat="40.41183930621963" lon="18.245368779356784"><ele>11.0</ele><time>2026-04-19T08:33:47Z</time></trkpt><trkpt lat="40.41191844473936" lon="18.245308723977654"><ele>11.0</ele><time>2026-04-19T08:33:48Z</time></trkpt><trkpt lat="40.41199493675577" lon="18.24523990620084"><ele>11.0</ele><time>2026-04-19T08:33:49Z</time></trkpt><trkpt lat="40.41208574711094" lon="18.24517006269214"><ele>11.0</ele><time>2026-04-19T08:33:50Z</time></trkpt><trkpt lat="40.41218304954958" lon="18.245102497004655"><ele>11.0</ele><time>2026-04-19T08:33:51Z</time></trkpt><trkpt lat="40.41228418302506" lon="18.24502845583226"><ele>11.0</ele><time>2026-04-19T08:33:52Z</time></trkpt><trkpt lat="40.41237955216854" lon="18.244944707731786"><ele>11.0</ele><time>2026-04-19T08:33:53Z</time></trkpt><trkpt lat="40.412463228834426" lon="18.244875021102366"><ele>11.0</ele><time>2026-04-19T08:33:54Z</time></trkpt><trkpt lat="40.412554058492816" lon="18.244803038934798"><ele>11.0</ele><time>2026-04-19T08:33:55Z</time></trkpt><trkpt lat="40.41264660327994" lon="18.244736335390677"><ele>11.0</ele><time>2026-04-19T08:33:56Z</time></trkpt><trkpt lat="40.41272325737641" lon="18.24467452211335"><ele>11.0</ele><time>2026-04-19T08:33:57Z</time></trkpt><trkpt lat="40.41278845725895" lon="18.24462477219348"><ele>11.0</ele><time>2026-04-19T08:33:58Z</time></trkpt><trkpt lat="40.41284894483452" lon="18.244576611022605"><ele>11.0</ele><time>2026-04-19T08:33:59Z</time></trkpt><trkpt lat="40.41290270746155" lon="18.244533307608055"><ele>11.0</ele><time>2026-04-19T08:34:00Z</time></trkpt><trkpt lat="40.41299905639277" lon="18.24446481039479"><ele>11.0</ele><time>2026-04-19T08:34:02Z</time></trkpt><trkpt lat="40.41305829290953" lon="18.244367576740196"><ele>11.0</ele><time>2026-04-19T08:34:04Z</time></trkpt><trkpt lat="40.41303944312235" lon="18.244205410680305"><ele>11.0</ele><time>2026-04-19T08:34:06Z</time></trkpt><trkpt lat="40.41299829749309" lon="18.24412137209599"><ele>11.0</ele><time>2026-04-19T08:34:07Z</time></trkpt><trkpt lat="40.41294351002661" lon="18.244045775351886"><ele>11.0</ele><time>2026-04-19T08:34:08Z</time></trkpt><trkpt lat="40.412905631782905" lon="18.24397060220614"><ele>11.0</ele><time>2026-04-19T08:34:09Z</time></trkpt><trkpt lat="40.41288640735119" lon="18.24385933733783"><ele>11.0</ele><time>2026-04-19T08:34:11Z</time></trkpt><trkpt lat="40.41297421508181" lon="18.243745081149733"><ele>11.0</ele><time>2026-04-19T08:34:13Z</time></trkpt><trkpt lat="40.413070121290644" lon="18.243691032725703"><ele>11.25</ele><time>2026-04-19T08:34:14Z</time></trkpt><trkpt lat="40.41319111511691" lon="18.243597584209812"><ele>11.5</ele><time>2026-04-19T08:34:15Z</time></trkpt><trkpt lat="40.41330320334619" lon="18.243516265447813"><ele>11.75</ele><time>2026-04-19T08:34:16Z</time></trkpt><trkpt lat="40.41339679331201" lon="18.243441351247302"><ele>12.0</ele><time>2026-04-19T08:34:17Z</time></trkpt><trkpt lat="40.41349200293404" lon="18.24336053647711"><ele>12.0</ele><time>2026-04-19T08:34:18Z</time></trkpt><trkpt lat="40.4135722079803" lon="18.243305233972084"><ele>12.0</ele><time>2026-04-19T08:34:19Z</time></trkpt><trkpt lat="40.41363868989288" lon="18.243254327225504"><ele>12.0</ele><time>2026-04-19T08:34:20Z</time></trkpt><trkpt lat="40.41369617898816" lon="18.243210799338573"><ele>12.0</ele><time>2026-04-19T08:34:21Z</time></trkpt><trkpt lat="40.41379137993695" lon="18.243157657752718"><ele>12.0</ele><time>2026-04-19T08:34:23Z</time></trkpt><trkpt lat="40.413862141678784" lon="18.2432125211712"><ele>12.0</ele><time>2026-04-19T08:34:25Z</time></trkpt><trkpt lat="40.4138978930797" lon="18.24329556087454"><ele>11.6</ele><time>2026-04-19T08:34:26Z</time></trkpt><trkpt lat="40.4139294581737" lon="18.243403862585154"><ele>11.2</ele><time>2026-04-19T08:34:27Z</time></trkpt><trkpt lat="40.41399509035849" lon="18.24352033728661"><ele>10.8</ele><time>2026-04-19T08:34:29.001Z</time></trkpt><trkpt lat="40.41405880106713" lon="18.243588138381657"><ele>10.4</ele><time>2026-04-19T08:34:31.001Z</time></trkpt><trkpt lat="40.41415521691609" lon="18.243563837413053"><ele>10.0</ele><time>2026-04-19T08:34:33.001Z</time></trkpt><trkpt lat="40.41422420637767" lon="18.243493139733097"><ele>10.0</ele><time>2026-04-19T08:34:34.001Z</time></trkpt><trkpt lat="40.414330173787306" lon="18.243398946869895"><ele>10.0</ele><time>2026-04-19T08:34:35.001Z</time></trkpt><trkpt lat="40.414472467816346" lon="18.243292194429397"><ele>10.0</ele><time>2026-04-19T08:34:36.001Z</time></trkpt><trkpt lat="40.4145823973569" lon="18.243206514304035"><ele>10.0</ele><time>2026-04-19T08:34:37.001Z</time></trkpt><trkpt lat="40.41468305056907" lon="18.243124942842826"><ele>10.25</ele><time>2026-04-19T08:34:38.001Z</time></trkpt><trkpt lat="40.41478256728978" lon="18.24303955635504"><ele>10.5</ele><time>2026-04-19T08:34:39.001Z</time></trkpt><trkpt lat="40.41489027059118" lon="18.24295118325976"><ele>10.75</ele><time>2026-04-19T08:34:40.001Z</time></trkpt><trkpt lat="40.415002462562896" lon="18.242865704332733"><ele>11.0</ele><time>2026-04-19T08:34:41.001Z</time></trkpt><trkpt lat="40.41511087918396" lon="18.2427859992163"><ele>11.0</ele><time>2026-04-19T08:34:42.001Z</time></trkpt><trkpt lat="40.415217540132325" lon="18.24270246607711"><ele>11.0</ele><time>2026-04-19T08:34:43.001Z</time></trkpt><trkpt lat="40.41531877590884" lon="18.24262721391515"><ele>11.0</ele><time>2026-04-19T08:34:44.001Z</time></trkpt><trkpt lat="40.41540115012788" lon="18.24256436581576"><ele>11.0</ele><time>2026-04-19T08:34:45.001Z</time></trkpt><trkpt lat="40.41548127613565" lon="18.24249606649047"><ele>11.0</ele><time>2026-04-19T08:34:46.001Z</time></trkpt><trkpt lat="40.41556740846204" lon="18.242419784174867"><ele>10.8</ele><time>2026-04-19T08:34:47.001Z</time></trkpt><trkpt lat="40.41565817629916" lon="18.242348219902293"><ele>10.600000000000001</ele><time>2026-04-19T08:34:48.001Z</time></trkpt><trkpt lat="40.415744537823045" lon="18.242277537385732"><ele>10.4</ele><time>2026-04-19T08:34:49.001Z</time></trkpt><trkpt lat="40.415821810325205" lon="18.24222105980342"><ele>10.2</ele><time>2026-04-19T08:34:50.001Z</time></trkpt><trkpt lat="40.415895798747044" lon="18.24216467903894"><ele>10.0</ele><time>2026-04-19T08:34:51.001Z</time></trkpt><trkpt lat="40.41596861951203" lon="18.24211612767494"><ele>10.0</ele><time>2026-04-19T08:34:52.001Z</time></trkpt><trkpt lat="40.41602241227472" lon="18.24207274068321"><ele>10.0</ele><time>2026-04-19T08:34:53.001Z</time></trkpt><trkpt lat="40.416076421535365" lon="18.241940088798856"><ele>10.0</ele><time>2026-04-19T08:34:55.001Z</time></trkpt><trkpt lat="40.416044115252205" lon="18.241773471484045"><ele>10.0</ele><time>2026-04-19T08:34:57.001Z</time></trkpt><trkpt lat="40.416030101964765" lon="18.241692073376676"><ele>10.0</ele><time>2026-04-19T08:34:58.001Z</time></trkpt><trkpt lat="40.416127800888965" lon="18.24155256706641"><ele>10.0</ele><time>2026-04-19T08:35:00.001Z</time></trkpt><trkpt lat="40.41621271045334" lon="18.24147070476276"><ele>10.0</ele><time>2026-04-19T08:35:01.001Z</time></trkpt><trkpt lat="40.41631163692733" lon="18.241367080631534"><ele>10.0</ele><time>2026-04-19T08:35:02.001Z</time></trkpt><trkpt lat="40.41641184840412" lon="18.241244794607923"><ele>10.0</ele><time>2026-04-19T08:35:03.001Z</time></trkpt><trkpt lat="40.41648781648216" lon="18.241136747224974"><ele>10.0</ele><time>2026-04-19T08:35:04.001Z</time></trkpt><trkpt lat="40.41657725697229" lon="18.241023713006932"><ele>10.0</ele><time>2026-04-19T08:35:05.001Z</time></trkpt><trkpt lat="40.416695862084474" lon="18.24088270826047"><ele>10.0</ele><time>2026-04-19T08:35:06.001Z</time></trkpt><trkpt lat="40.41679312871148" lon="18.240761688464943"><ele>10.0</ele><time>2026-04-19T08:35:07.001Z</time></trkpt><trkpt lat="40.41687697306527" lon="18.240654872324527"><ele>10.2</ele><time>2026-04-19T08:35:08.001Z</time></trkpt><trkpt lat="40.41696005168712" lon="18.240559162686303"><ele>10.4</ele><time>2026-04-19T08:35:09.001Z</time></trkpt><trkpt lat="40.41704190382843" lon="18.240472136692976"><ele>10.600000000000001</ele><time>2026-04-19T08:35:10.001Z</time></trkpt><trkpt lat="40.41710625949211" lon="18.240393681651444"><ele>10.8</ele><time>2026-04-19T08:35:11.001Z</time></trkpt><trkpt lat="40.417162174338515" lon="18.240317333966615"><ele>11.0</ele><time>2026-04-19T08:35:12.001Z</time></trkpt><trkpt lat="40.417213509903526" lon="18.24024323677664"><ele>10.666666666666666</ele><time>2026-04-19T08:35:13.001Z</time></trkpt><trkpt lat="40.417260551975005" lon="18.24018809954358"><ele>10.333333333333332</ele><time>2026-04-19T08:35:14.001Z</time></trkpt><trkpt lat="40.417344207816924" lon="18.24008248155791"><ele>10.0</ele><time>2026-04-19T08:35:16.001Z</time></trkpt><trkpt lat="40.41739929514419" lon="18.2400202842831"><ele>9.666666666666666</ele><time>2026-04-19T08:35:18.001Z</time></trkpt><trkpt lat="40.417459383579406" lon="18.239982214660472"><ele>9.333333333333334</ele><time>2026-04-19T08:35:21.001Z</time></trkpt><trkpt lat="40.41754795669336" lon="18.240005227535015"><ele>9.0</ele><time>2026-04-19T08:35:23.001Z</time></trkpt><trkpt lat="40.417617250965215" lon="18.240064029715185"><ele>9.0</ele><time>2026-04-19T08:35:24.001Z</time></trkpt><trkpt lat="40.41767485752442" lon="18.240098768775617"><ele>9.0</ele><time>2026-04-19T08:35:25.001Z</time></trkpt><trkpt lat="40.41777162687236" lon="18.24007534837842"><ele>9.0</ele><time>2026-04-19T08:35:27.001Z</time></trkpt><trkpt lat="40.417827288353344" lon="18.240022347057742"><ele>9.0</ele><time>2026-04-19T08:35:28.001Z</time></trkpt><trkpt lat="40.41791354212538" lon="18.23995303231374"><ele>9.0</ele><time>2026-04-19T08:35:29.001Z</time></trkpt><trkpt lat="40.41801809970089" lon="18.239893512864903"><ele>9.0</ele><time>2026-04-19T08:35:30.001Z</time></trkpt><trkpt lat="40.41812275650836" lon="18.239834057818303"><ele>8.833333333333334</ele><time>2026-04-19T08:35:31.001Z</time></trkpt><trkpt lat="40.41820559617455" lon="18.239786862037914"><ele>8.666666666666666</ele><time>2026-04-19T08:35:32.001Z</time></trkpt><trkpt lat="40.41826769041648" lon="18.239741910554663"><ele>8.5</ele><time>2026-04-19T08:35:33.001Z</time></trkpt><trkpt lat="40.418333124702485" lon="18.23970232595254"><ele>8.333333333333332</ele><time>2026-04-19T08:35:34.002Z</time></trkpt><trkpt lat="40.41840836053221" lon="18.23965684170161"><ele>8.166666666666666</ele><time>2026-04-19T08:35:35.002Z</time></trkpt><trkpt lat="40.41850021693494" lon="18.239606789633374"><ele>8.0</ele><time>2026-04-19T08:35:36.002Z</time></trkpt><trkpt lat="40.418581479220364" lon="18.239557887149562"><ele>7.999999999999999</ele><time>2026-04-19T08:35:37.002Z</time></trkpt><trkpt lat="40.4186556560748" lon="18.239508567459186"><ele>8.0</ele><time>2026-04-19T08:35:38.002Z</time></trkpt><trkpt lat="40.41872721437487" lon="18.2394583166276"><ele>8.0</ele><time>2026-04-19T08:35:39.002Z</time></trkpt><trkpt lat="40.418789407043505" lon="18.23941469981291"><ele>8.0</ele><time>2026-04-19T08:35:40.002Z</time></trkpt><trkpt lat="40.41885468952343" lon="18.23936037914458"><ele>7.999999999999999</ele><time>2026-04-19T08:35:41.002Z</time></trkpt><trkpt lat="40.4189266462114" lon="18.239294604484606"><ele>8.0</ele><time>2026-04-19T08:35:42.002Z</time></trkpt><trkpt lat="40.41901192915457" lon="18.2392251263807"><ele>7.800000000000001</ele><time>2026-04-19T08:35:43.002Z</time></trkpt><trkpt lat="40.419093761268094" lon="18.23916380127069"><ele>7.6000000000000005</ele><time>2026-04-19T08:35:44.002Z</time></trkpt><trkpt lat="40.419166660085715" lon="18.23911094728848"><ele>7.3999999999999995</ele><time>2026-04-19T08:35:45.002Z</time></trkpt><trkpt lat="40.41924888311594" lon="18.239060864407406"><ele>7.199999999999999</ele><time>2026-04-19T08:35:46.002Z</time></trkpt><trkpt lat="40.41934836015449" lon="18.238999664577673"><ele>7.0</ele><time>2026-04-19T08:35:47Z</time></trkpt><trkpt lat="40.41942071863933" lon="18.23894484284502"><ele>7.6</ele><time>2026-04-19T08:35:48Z</time></trkpt><trkpt lat="40.419493800606666" lon="18.238903376293457"><ele>8.2</ele><time>2026-04-19T08:35:49Z</time></trkpt><trkpt lat="40.41957359820453" lon="18.238866015705053"><ele>8.8</ele><time>2026-04-19T08:35:50Z</time></trkpt><trkpt lat="40.41966126615675" lon="18.238820859108497"><ele>9.4</ele><time>2026-04-19T08:35:51Z</time></trkpt><trkpt lat="40.41975146098049" lon="18.238749302276982"><ele>10.0</ele><time>2026-04-19T08:35:52Z</time></trkpt><trkpt lat="40.41984669428511" lon="18.238675961287754"><ele>10.166666666666668</ele><time>2026-04-19T08:35:53Z</time></trkpt><trkpt lat="40.41991881619828" lon="18.238629083560735"><ele>10.333333333333334</ele><time>2026-04-19T08:35:54Z</time></trkpt><trkpt lat="40.419985816581814" lon="18.238588547103873"><ele>10.5</ele><time>2026-04-19T08:35:55Z</time></trkpt><trkpt lat="40.42004868403849" lon="18.23854679576207"><ele>10.666666666666666</ele><time>2026-04-19T08:35:56Z</time></trkpt><trkpt lat="40.42011226914914" lon="18.238504222147753"><ele>10.833333333333332</ele><time>2026-04-19T08:35:57Z</time></trkpt><trkpt lat="40.42017347446376" lon="18.23847612774072"><ele>11.0</ele><time>2026-04-19T08:35:58Z</time></trkpt><trkpt lat="40.42028370928861" lon="18.23843633659553"><ele>11.0</ele><time>2026-04-19T08:36:00Z</time></trkpt><trkpt lat="40.420398201824206" lon="18.238390532881848"><ele>11.0</ele><time>2026-04-19T08:36:02Z</time></trkpt><trkpt lat="40.42045606211615" lon="18.238327500176972"><ele>11.0</ele><time>2026-04-19T08:36:03Z</time></trkpt><trkpt lat="40.42050356071045" lon="18.238258063669637"><ele>11.0</ele><time>2026-04-19T08:36:04Z</time></trkpt><trkpt lat="40.42058558770696" lon="18.238160014775083"><ele>11.0</ele><time>2026-04-19T08:36:06Z</time></trkpt><trkpt lat="40.42067411334588" lon="18.238170970254263"><ele>10.8</ele><time>2026-04-19T08:36:08Z</time></trkpt><trkpt lat="40.4207285039953" lon="18.238254131009924"><ele>10.600000000000001</ele><time>2026-04-19T08:36:10Z</time></trkpt><trkpt lat="40.420764900791056" lon="18.238347740109816"><ele>10.4</ele><time>2026-04-19T08:36:11Z</time></trkpt><trkpt lat="40.420810440389836" lon="18.238489286554383"><ele>10.2</ele><time>2026-04-19T08:36:12Z</time></trkpt><trkpt lat="40.4208544682467" lon="18.23862705505263"><ele>10.0</ele><time>2026-04-19T08:36:13Z</time></trkpt><trkpt lat="40.420884654817115" lon="18.238719666221765"><ele>10.0</ele><time>2026-04-19T08:36:14Z</time></trkpt><trkpt lat="40.420920776233054" lon="18.23882371011842"><ele>10.0</ele><time>2026-04-19T08:36:15Z</time></trkpt><trkpt lat="40.42097083132106" lon="18.23894946019487"><ele>10.0</ele><time>2026-04-19T08:36:16Z</time></trkpt><trkpt lat="40.42101392284319" lon="18.239071354259142"><ele>10.0</ele><time>2026-04-19T08:36:17Z</time></trkpt><trkpt lat="40.42105392859913" lon="18.239167458782518"><ele>10.0</ele><time>2026-04-19T08:36:18Z</time></trkpt><trkpt lat="40.42108659242228" lon="18.23924800492323"><ele>9.666666666666668</ele><time>2026-04-19T08:36:19Z</time></trkpt><trkpt lat="40.42112191128048" lon="18.239325303481202"><ele>9.333333333333334</ele><time>2026-04-19T08:36:20Z</time></trkpt><trkpt lat="40.42115591528813" lon="18.239433145305203"><ele>9.0</ele><time>2026-04-19T08:36:22Z</time></trkpt><trkpt lat="40.4212110212504" lon="18.239484875926376"><ele>8.666666666666666</ele><time>2026-04-19T08:36:25Z</time></trkpt><trkpt lat="40.42130297295762" lon="18.239423784731628"><ele>8.333333333333332</ele><time>2026-04-19T08:36:27Z</time></trkpt><trkpt lat="40.42138076851984" lon="18.23932791079646"><ele>8.0</ele><time>2026-04-19T08:36:28Z</time></trkpt><trkpt lat="40.42147436352936" lon="18.239223813750264"><ele>8.0</ele><time>2026-04-19T08:36:29Z</time></trkpt><trkpt lat="40.42159041029201" lon="18.239115269662086"><ele>8.0</ele><time>2026-04-19T08:36:30Z</time></trkpt><trkpt lat="40.42167780295893" lon="18.239031271104167"><ele>8.0</ele><time>2026-04-19T08:36:31Z</time></trkpt><trkpt lat="40.421762865138234" lon="18.238962798856164"><ele>8.0</ele><time>2026-04-19T08:36:32.001Z</time></trkpt><trkpt lat="40.42186798886228" lon="18.238877333856696"><ele>7.6000000000000005</ele><time>2026-04-19T08:36:33.001Z</time></trkpt><trkpt lat="40.421968057466316" lon="18.23879285337087"><ele>7.200000000000001</ele><time>2026-04-19T08:36:34.001Z</time></trkpt><trkpt lat="40.422040497906025" lon="18.238712418208458"><ele>6.8</ele><time>2026-04-19T08:36:35.001Z</time></trkpt><trkpt lat="40.422111839039935" lon="18.23865038959957"><ele>6.4</ele><time>2026-04-19T08:36:36.001Z</time></trkpt><trkpt lat="40.42217809197574" lon="18.238617942393333"><ele>6.0</ele><time>2026-04-19T08:36:37.001Z</time></trkpt><trkpt lat="40.422259352732034" lon="18.238579062986318"><ele>6.0</ele><time>2026-04-19T08:36:38.001Z</time></trkpt><trkpt lat="40.42234916315274" lon="18.238518318355204"><ele>6.0</ele><time>2026-04-19T08:36:39.001Z</time></trkpt><trkpt lat="40.42243573770416" lon="18.238443677164078"><ele>6.0</ele><time>2026-04-19T08:36:40.001Z</time></trkpt><trkpt lat="40.42254270781109" lon="18.23834861788046"><ele>6.0</ele><time>2026-04-19T08:36:41.001Z</time></trkpt><trkpt lat="40.422616199753584" lon="18.23826777083325"><ele>6.0</ele><time>2026-04-19T08:36:42.001Z</time></trkpt><trkpt lat="40.42267435258774" lon="18.238209457127585"><ele>6.0</ele><time>2026-04-19T08:36:43.001Z</time></trkpt><trkpt lat="40.42273173970032" lon="18.23816606986739"><ele>6.0</ele><time>2026-04-19T08:36:44.001Z</time></trkpt><trkpt lat="40.422793554269795" lon="18.23813592313069"><ele>6.0</ele><time>2026-04-19T08:36:45.001Z</time></trkpt><trkpt lat="40.42285307646204" lon="18.238099792280437"><ele>6.0</ele><time>2026-04-19T08:36:46.001Z</time></trkpt><trkpt lat="40.42297627503781" lon="18.238004324089555"><ele>6.0</ele><time>2026-04-19T08:36:48.001Z</time></trkpt><trkpt lat="40.42304291742315" lon="18.237959378852775"><ele>6.0</ele><time>2026-04-19T08:36:49.001Z</time></trkpt><trkpt lat="40.42310695798434" lon="18.237912631086445"><ele>6.0</ele><time>2026-04-19T08:36:50.001Z</time></trkpt><trkpt lat="40.42316370417735" lon="18.237867852204296"><ele>6.0</ele><time>2026-04-19T08:36:51.001Z</time></trkpt><trkpt lat="40.423239581645895" lon="18.237812009764006"><ele>6.0</ele><time>2026-04-19T08:36:52.001Z</time></trkpt><trkpt lat="40.42330478199801" lon="18.23776282127783"><ele>6.0</ele><time>2026-04-19T08:36:53.001Z</time></trkpt><trkpt lat="40.423372603014656" lon="18.237717713456043"><ele>6.0</ele><time>2026-04-19T08:36:54.001Z</time></trkpt><trkpt lat="40.42344426587886" lon="18.23767131540364"><ele>6.0</ele><time>2026-04-19T08:36:55.001Z</time></trkpt><trkpt lat="40.42352049727558" lon="18.237618330944855"><ele>6.0</ele><time>2026-04-19T08:36:56.001Z</time></trkpt><trkpt lat="40.42358727896237" lon="18.237573385576212"><ele>6.0</ele><time>2026-04-19T08:36:57.001Z</time></trkpt><trkpt lat="40.423650641248045" lon="18.23753010080824"><ele>6.0</ele><time>2026-04-19T08:36:58.001Z</time></trkpt><trkpt lat="40.423712725280524" lon="18.237478705677436"><ele>6.0</ele><time>2026-04-19T08:36:59.001Z</time></trkpt><trkpt lat="40.423778055747036" lon="18.23742498386757"><ele>6.0</ele><time>2026-04-19T08:37:00.001Z</time></trkpt><trkpt lat="40.423867213434264" lon="18.237356284187634"><ele>6.0</ele><time>2026-04-19T08:37:02.001Z</time></trkpt><trkpt lat="40.42393070354284" lon="18.237299569891928"><ele>6.0</ele><time>2026-04-19T08:37:04.001Z</time></trkpt><trkpt lat="40.42400961859772" lon="18.237254504338956"><ele>6.0</ele><time>2026-04-19T08:37:33.001Z</time></trkpt><trkpt lat="40.42407963559831" lon="18.23722978509162"><ele>6.0</ele><time>2026-04-19T08:37:36.001Z</time></trkpt><trkpt lat="40.42414684360731" lon="18.237355288017707"><ele>6.0</ele><time>2026-04-19T08:37:38.001Z</time></trkpt><trkpt lat="40.424175496280704" lon="18.237468104086513"><ele>6.0</ele><time>2026-04-19T08:37:39.001Z</time></trkpt><trkpt lat="40.42421385164656" lon="18.237603240792332"><ele>6.0</ele><time>2026-04-19T08:37:40.001Z</time></trkpt><trkpt lat="40.42424856058421" lon="18.237714924414924"><ele>6.0</ele><time>2026-04-19T08:37:41.001Z</time></trkpt><trkpt lat="40.4242918213142" lon="18.23784292312999"><ele>6.0</ele><time>2026-04-19T08:37:42.002Z</time></trkpt><trkpt lat="40.42433742963751" lon="18.237948487869243"><ele>6.0</ele><time>2026-04-19T08:37:43.002Z</time></trkpt><trkpt lat="40.42437992391971" lon="18.23805858682287"><ele>6.0</ele><time>2026-04-19T08:37:44.002Z</time></trkpt><trkpt lat="40.424428477222875" lon="18.238182686784462"><ele>6.0</ele><time>2026-04-19T08:37:45.002Z</time></trkpt><trkpt lat="40.42447267925376" lon="18.238305503869693"><ele>6.0</ele><time>2026-04-19T08:37:46.002Z</time></trkpt><trkpt lat="40.42451240646644" lon="18.238426497267586"><ele>6.0</ele><time>2026-04-19T08:37:47.002Z</time></trkpt><trkpt lat="40.424549211564425" lon="18.23854079163936"><ele>6.0</ele><time>2026-04-19T08:37:48.002Z</time></trkpt><trkpt lat="40.424588398896454" lon="18.23865418954394"><ele>6.0</ele><time>2026-04-19T08:37:49.002Z</time></trkpt><trkpt lat="40.42462506241216" lon="18.23876376902312"><ele>6.0</ele><time>2026-04-19T08:37:50.002Z</time></trkpt><trkpt lat="40.424659949143525" lon="18.238876096829166"><ele>6.0</ele><time>2026-04-19T08:37:51.002Z</time></trkpt><trkpt lat="40.42469486208342" lon="18.238983283302762"><ele>6.0</ele><time>2026-04-19T08:37:52.002Z</time></trkpt><trkpt lat="40.424731040276185" lon="18.23908607755592"><ele>6.0</ele><time>2026-04-19T08:37:53.001Z</time></trkpt><trkpt lat="40.424764299739174" lon="18.2391859012752"><ele>6.0</ele><time>2026-04-19T08:37:54.001Z</time></trkpt><trkpt lat="40.42479840427084" lon="18.23927375356884"><ele>6.0</ele><time>2026-04-19T08:37:55.001Z</time></trkpt><trkpt lat="40.42483394859309" lon="18.239357795274795"><ele>5.999999999999999</ele><time>2026-04-19T08:37:56.001Z</time></trkpt><trkpt lat="40.42486574445223" lon="18.2394382156774"><ele>6.0</ele><time>2026-04-19T08:37:57.001Z</time></trkpt><trkpt lat="40.42489048095464" lon="18.239521838680428"><ele>6.0</ele><time>2026-04-19T08:37:58.001Z</time></trkpt><trkpt lat="40.42491468969766" lon="18.239614298028698"><ele>6.0</ele><time>2026-04-19T08:37:59.001Z</time></trkpt><trkpt lat="40.424933503543365" lon="18.239712053285313"><ele>6.0</ele><time>2026-04-19T08:38:00.001Z</time></trkpt><trkpt lat="40.42495437537927" lon="18.23981110239904"><ele>5.999999999999999</ele><time>2026-04-19T08:38:01.001Z</time></trkpt><trkpt lat="40.424982034628066" lon="18.239899682391698"><ele>6.0</ele><time>2026-04-19T08:38:02.001Z</time></trkpt><trkpt lat="40.42501840283029" lon="18.23997240060021"><ele>6.166666666666667</ele><time>2026-04-19T08:38:03.001Z</time></trkpt><trkpt lat="40.425062314787674" lon="18.240038436713657"><ele>6.333333333333334</ele><time>2026-04-19T08:38:04.001Z</time></trkpt><trkpt lat="40.425098547149695" lon="18.240160815806195"><ele>6.5</ele><time>2026-04-19T08:38:06.001Z</time></trkpt><trkpt lat="40.42509513214101" lon="18.24027488481129"><ele>6.666666666666667</ele><time>2026-04-19T08:38:08.001Z</time></trkpt><trkpt lat="40.42514717408822" lon="18.24032211315836"><ele>6.833333333333334</ele><time>2026-04-19T08:38:10.001Z</time></trkpt><trkpt lat="40.42523161982533" lon="18.240266576476586"><ele>7.0</ele><time>2026-04-19T08:38:12.001Z</time></trkpt><trkpt lat="40.425282131793956" lon="18.240203069638014"><ele>7.0</ele><time>2026-04-19T08:38:13.001Z</time></trkpt><trkpt lat="40.42535419552675" lon="18.240150377211954"><ele>6.999999999999999</ele><time>2026-04-19T08:38:14.001Z</time></trkpt><trkpt lat="40.425410658968154" lon="18.240109052385602"><ele>6.999999999999999</ele><time>2026-04-19T08:38:15.001Z</time></trkpt><trkpt lat="40.42552115237675" lon="18.24003801863909"><ele>7.0</ele><time>2026-04-19T08:38:17.001Z</time></trkpt><trkpt lat="40.42562464863016" lon="18.239974210558433"><ele>7.0</ele><time>2026-04-19T08:38:19.001Z</time></trkpt><trkpt lat="40.425713760457555" lon="18.239925759560723"><ele>7.000000000000001</ele><time>2026-04-19T08:38:21.001Z</time></trkpt><trkpt lat="40.42577774668258" lon="18.239859886253054"><ele>7.0</ele><time>2026-04-19T08:38:24.001Z</time></trkpt><trkpt lat="40.42585067748861" lon="18.23979565418043"><ele>7.0</ele><time>2026-04-19T08:38:27.001Z</time></trkpt><trkpt lat="40.42593594629843" lon="18.23973204697355"><ele>7.0</ele><time>2026-04-19T08:38:29.001Z</time></trkpt><trkpt lat="40.42601952777428" lon="18.239695036359944"><ele>7.000000000000001</ele><time>2026-04-19T08:38:31.001Z</time></trkpt><trkpt lat="40.42608314944615" lon="18.239651204033066"><ele>7.0</ele><time>2026-04-19T08:38:33.001Z</time></trkpt><trkpt lat="40.42616026647102" lon="18.239619730424053"><ele>7.000000000000001</ele><time>2026-04-19T08:38:35.001Z</time></trkpt><trkpt lat="40.426261629660104" lon="18.239684319927523"><ele>7.0</ele><time>2026-04-19T08:38:37.001Z</time></trkpt><trkpt lat="40.42632474754272" lon="18.23972477114586"><ele>7.0</ele><time>2026-04-19T08:38:38.001Z</time></trkpt><trkpt lat="40.42637780558019" lon="18.239779052189135"><ele>7.0</ele><time>2026-04-19T08:38:39.001Z</time></trkpt><trkpt lat="40.42642915408503" lon="18.239849194516697"><ele>7.000000000000001</ele><time>2026-04-19T08:38:40.001Z</time></trkpt><trkpt lat="40.426480949527694" lon="18.239926181659882"><ele>7.0</ele><time>2026-04-19T08:38:41.001Z</time></trkpt><trkpt lat="40.42653054392554" lon="18.240006946714853"><ele>7.000000000000001</ele><time>2026-04-19T08:38:42.001Z</time></trkpt><trkpt lat="40.4265743595733" lon="18.240085209147605"><ele>7.0</ele><time>2026-04-19T08:38:43.001Z</time></trkpt><trkpt lat="40.42662206254543" lon="18.240172873729946"><ele>7.0</ele><time>2026-04-19T08:38:44.001Z</time></trkpt><trkpt lat="40.426660879177014" lon="18.240265062940452"><ele>7.0</ele><time>2026-04-19T08:38:45.001Z</time></trkpt><trkpt lat="40.42669839651312" lon="18.24035565500493"><ele>7.000000000000001</ele><time>2026-04-19T08:38:46.001Z</time></trkpt><trkpt lat="40.42673418365881" lon="18.240444765855045"><ele>7.0</ele><time>2026-04-19T08:38:47.001Z</time></trkpt><trkpt lat="40.42677861436083" lon="18.24055831605696"><ele>6.8</ele><time>2026-04-19T08:38:48.001Z</time></trkpt><trkpt lat="40.42682434450674" lon="18.24068856426986"><ele>6.6</ele><time>2026-04-19T08:38:49.001Z</time></trkpt><trkpt lat="40.426871299294305" lon="18.240817310319578"><ele>6.3999999999999995</ele><time>2026-04-19T08:38:50.001Z</time></trkpt><trkpt lat="40.42691685998026" lon="18.240934235264127"><ele>6.199999999999999</ele><time>2026-04-19T08:38:51.001Z</time></trkpt><trkpt lat="40.42693890067378" lon="18.241054988642894"><ele>6.0</ele><time>2026-04-19T08:38:52.001Z</time></trkpt><trkpt lat="40.42695343361009" lon="18.241176195983854"><ele>6.0</ele><time>2026-04-19T08:38:53.001Z</time></trkpt><trkpt lat="40.426957999182946" lon="18.24130369480173"><ele>6.0</ele><time>2026-04-19T08:38:54.001Z</time></trkpt><trkpt lat="40.42694918912165" lon="18.241432339288327"><ele>6.0</ele><time>2026-04-19T08:38:55.001Z</time></trkpt><trkpt lat="40.42693087592071" lon="18.2415658163878"><ele>6.0</ele><time>2026-04-19T08:38:56.001Z</time></trkpt><trkpt lat="40.42690829747001" lon="18.241705349816574"><ele>6.0</ele><time>2026-04-19T08:38:57.001Z</time></trkpt><trkpt lat="40.42687888953644" lon="18.241844551176616"><ele>6.0</ele><time>2026-04-19T08:38:58.001Z</time></trkpt><trkpt lat="40.42685512532312" lon="18.241983485427042"><ele>6.0</ele><time>2026-04-19T08:38:59.001Z</time></trkpt><trkpt lat="40.42683477466425" lon="18.24212191512954"><ele>6.0</ele><time>2026-04-19T08:39:00.001Z</time></trkpt><trkpt lat="40.42682292515706" lon="18.242257186976104"><ele>6.0</ele><time>2026-04-19T08:39:01.001Z</time></trkpt><trkpt lat="40.42682472935346" lon="18.242380855786237"><ele>6.0</ele><time>2026-04-19T08:39:02.001Z</time></trkpt><trkpt lat="40.426838960882286" lon="18.242508662531762"><ele>5.833333333333333</ele><time>2026-04-19T08:39:03.001Z</time></trkpt><trkpt lat="40.42687054331715" lon="18.242640234862197"><ele>5.666666666666667</ele><time>2026-04-19T08:39:04.001Z</time></trkpt><trkpt lat="40.42691112864237" lon="18.24276495191569"><ele>5.5</ele><time>2026-04-19T08:39:05.001Z</time></trkpt><trkpt lat="40.426953011607836" lon="18.242870060172756"><ele>5.333333333333334</ele><time>2026-04-19T08:39:06.001Z</time></trkpt><trkpt lat="40.42698618819138" lon="18.242958576232244"><ele>5.166666666666667</ele><time>2026-04-19T08:39:07.001Z</time></trkpt><trkpt lat="40.42700918987702" lon="18.243042075098103"><ele>5.0</ele><time>2026-04-19T08:39:08.001Z</time></trkpt><trkpt lat="40.42703023147669" lon="18.243120235621806"><ele>4.8</ele><time>2026-04-19T08:39:09.001Z</time></trkpt><trkpt lat="40.42705151711226" lon="18.243234468385065"><ele>4.6</ele><time>2026-04-19T08:39:12.001Z</time></trkpt><trkpt lat="40.42701538171615" lon="18.243395189962197"><ele>4.4</ele><time>2026-04-19T08:39:14.001Z</time></trkpt><trkpt lat="40.42696008303762" lon="18.243498454133572"><ele>4.2</ele><time>2026-04-19T08:39:15.001Z</time></trkpt><trkpt lat="40.4268894377389" lon="18.243608616608476"><ele>4.0</ele><time>2026-04-19T08:39:16.001Z</time></trkpt><trkpt lat="40.426807378180264" lon="18.243712870064037"><ele>4.0</ele><time>2026-04-19T08:39:17.001Z</time></trkpt><trkpt lat="40.42671151527362" lon="18.24379842905762"><ele>4.0</ele><time>2026-04-19T08:39:18.001Z</time></trkpt><trkpt lat="40.42657314324582" lon="18.24389606299973"><ele>4.0</ele><time>2026-04-19T08:39:19.001Z</time></trkpt><trkpt lat="40.42645535004683" lon="18.24398722334245"><ele>4.0</ele><time>2026-04-19T08:39:20.001Z</time></trkpt><trkpt lat="40.42633638868068" lon="18.244080199853844"><ele>3.75</ele><time>2026-04-19T08:39:21.001Z</time></trkpt><trkpt lat="40.42620625654896" lon="18.244184046031037"><ele>3.5</ele><time>2026-04-19T08:39:22.001Z</time></trkpt><trkpt lat="40.42608114951185" lon="18.244280938249286"><ele>3.25</ele><time>2026-04-19T08:39:23.001Z</time></trkpt><trkpt lat="40.42595283540531" lon="18.24437485261947"><ele>3.0</ele><time>2026-04-19T08:39:24.001Z</time></trkpt><trkpt lat="40.42582800294575" lon="18.24446118666688"><ele>3.0</ele><time>2026-04-19T08:39:25.001Z</time></trkpt><trkpt lat="40.42570705114781" lon="18.24455924272136"><ele>3.0</ele><time>2026-04-19T08:39:26.001Z</time></trkpt><trkpt lat="40.42559246654825" lon="18.24464769758647"><ele>3.0</ele><time>2026-04-19T08:39:27.001Z</time></trkpt><trkpt lat="40.42547783632194" lon="18.244736325072676"><ele>3.0</ele><time>2026-04-19T08:39:28.001Z</time></trkpt><trkpt lat="40.42536792773094" lon="18.244821428095257"><ele>3.25</ele><time>2026-04-19T08:39:29.002Z</time></trkpt><trkpt lat="40.425257873576506" lon="18.24490565515471"><ele>3.5</ele><time>2026-04-19T08:39:30.002Z</time></trkpt><trkpt lat="40.42514287760841" lon="18.244997541349626"><ele>3.75</ele><time>2026-04-19T08:39:31.002Z</time></trkpt><trkpt lat="40.42502397000415" lon="18.24508721213201"><ele>4.0</ele><time>2026-04-19T08:39:32.002Z</time></trkpt><trkpt lat="40.42490326471055" lon="18.245174546566183"><ele>4.0</ele><time>2026-04-19T08:39:33.002Z</time></trkpt><trkpt lat="40.424779519643636" lon="18.245267957744222"><ele>4.0</ele><time>2026-04-19T08:39:34.002Z</time></trkpt><trkpt lat="40.42466156522078" lon="18.245361127766987"><ele>4.0</ele><time>2026-04-19T08:39:35.002Z</time></trkpt><trkpt lat="40.424545275756174" lon="18.2454589259194"><ele>4.0</ele><time>2026-04-19T08:39:36.002Z</time></trkpt><trkpt lat="40.4244253823087" lon="18.24554563964024"><ele>4.25</ele><time>2026-04-19T08:39:37.002Z</time></trkpt><trkpt lat="40.42430120468337" lon="18.24564207726459"><ele>4.5</ele><time>2026-04-19T08:39:38.002Z</time></trkpt><trkpt lat="40.42418305922439" lon="18.245734368036"><ele>4.75</ele><time>2026-04-19T08:39:39.002Z</time></trkpt><trkpt lat="40.42406839058368" lon="18.24582168472021"><ele>5.0</ele><time>2026-04-19T08:39:40.002Z</time></trkpt><trkpt lat="40.42394981396839" lon="18.24591449396467"><ele>5.0</ele><time>2026-04-19T08:39:41.002Z</time></trkpt><trkpt lat="40.423835732035506" lon="18.2460038960459"><ele>5.0</ele><time>2026-04-19T08:39:42.002Z</time></trkpt><trkpt lat="40.42371277061367" lon="18.24608949617191"><ele>5.0</ele><time>2026-04-19T08:39:43.002Z</time></trkpt><trkpt lat="40.4235910004715" lon="18.246175549920622"><ele>5.0</ele><time>2026-04-19T08:39:44.002Z</time></trkpt><trkpt lat="40.42346547547035" lon="18.246267823148735"><ele>4.75</ele><time>2026-04-19T08:39:45.002Z</time></trkpt><trkpt lat="40.42333607801014" lon="18.246366373726833"><ele>4.5</ele><time>2026-04-19T08:39:46.002Z</time></trkpt><trkpt lat="40.42321368341411" lon="18.246459269883452"><ele>4.25</ele><time>2026-04-19T08:39:47.002Z</time></trkpt><trkpt lat="40.42309197460544" lon="18.246558763556536"><ele>4.0</ele><time>2026-04-19T08:39:48.002Z</time></trkpt><trkpt lat="40.42296606729032" lon="18.246667093736725"><ele>4.0</ele><time>2026-04-19T08:39:49.002Z</time></trkpt><trkpt lat="40.42283649332085" lon="18.24676383493657"><ele>4.0</ele><time>2026-04-19T08:39:50.002Z</time></trkpt><trkpt lat="40.42271058142383" lon="18.246859372110187"><ele>4.0</ele><time>2026-04-19T08:39:51.002Z</time></trkpt><trkpt lat="40.422592220983226" lon="18.2469469764668"><ele>4.0</ele><time>2026-04-19T08:39:52.002Z</time></trkpt><trkpt lat="40.422472025518154" lon="18.247039375323443"><ele>4.0</ele><time>2026-04-19T08:39:53.002Z</time></trkpt><trkpt lat="40.42234499846028" lon="18.247136104965715"><ele>4.0</ele><time>2026-04-19T08:39:54.002Z</time></trkpt><trkpt lat="40.422226930307765" lon="18.24723018070947"><ele>4.0</ele><time>2026-04-19T08:39:55.002Z</time></trkpt><trkpt lat="40.4221119890818" lon="18.247323385629503"><ele>4.0</ele><time>2026-04-19T08:39:56.002Z</time></trkpt><trkpt lat="40.4219928590107" lon="18.247414189513805"><ele>4.25</ele><time>2026-04-19T08:39:57.002Z</time></trkpt><trkpt lat="40.42188295449675" lon="18.24749291629415"><ele>4.5</ele><time>2026-04-19T08:39:58.002Z</time></trkpt><trkpt lat="40.4217763738981" lon="18.247574802385554"><ele>4.75</ele><time>2026-04-19T08:39:59.001Z</time></trkpt><trkpt lat="40.42167317418755" lon="18.24765754371506"><ele>5.0</ele><time>2026-04-19T08:40:00.001Z</time></trkpt><trkpt lat="40.42156857461816" lon="18.247739327420124"><ele>5.0</ele><time>2026-04-19T08:40:01.001Z</time></trkpt><trkpt lat="40.42146285697306" lon="18.247828319349136"><ele>5.0</ele><time>2026-04-19T08:40:02.001Z</time></trkpt><trkpt lat="40.4212287426376" lon="18.24801372002356"><ele>5.0</ele><time>2026-04-19T08:40:04.001Z</time></trkpt><trkpt lat="40.42112027722064" lon="18.248097080285103"><ele>5.25</ele><time>2026-04-19T08:40:05.001Z</time></trkpt><trkpt lat="40.421013654623096" lon="18.24816980846118"><ele>5.5</ele><time>2026-04-19T08:40:06.001Z</time></trkpt><trkpt lat="40.420902417520765" lon="18.24825223856437"><ele>5.75</ele><time>2026-04-19T08:40:07.001Z</time></trkpt><trkpt lat="40.42079006621779" lon="18.24834143136838"><ele>6.0</ele><time>2026-04-19T08:40:08.001Z</time></trkpt><trkpt lat="40.42067191348829" lon="18.248429230926536"><ele>6.0</ele><time>2026-04-19T08:40:09.001Z</time></trkpt><trkpt lat="40.420549710320316" lon="18.248521862915283"><ele>6.0</ele><time>2026-04-19T08:40:10.001Z</time></trkpt><trkpt lat="40.42042884719853" lon="18.248614260439865"><ele>6.0</ele><time>2026-04-19T08:40:11.001Z</time></trkpt><trkpt lat="40.42031822502184" lon="18.248699744593523"><ele>6.0</ele><time>2026-04-19T08:40:12.001Z</time></trkpt><trkpt lat="40.42020566220433" lon="18.248784640053316"><ele>6.0</ele><time>2026-04-19T08:40:13.001Z</time></trkpt><trkpt lat="40.42008965860259" lon="18.248876111354587"><ele>6.0</ele><time>2026-04-19T08:40:14.001Z</time></trkpt><trkpt lat="40.41997106927543" lon="18.248964951934692"><ele>6.0</ele><time>2026-04-19T08:40:15.001Z</time></trkpt><trkpt lat="40.41985042653828" lon="18.24905685241127"><ele>6.0</ele><time>2026-04-19T08:40:16.001Z</time></trkpt><trkpt lat="40.41972999041355" lon="18.249149937922862"><ele>5.75</ele><time>2026-04-19T08:40:17.001Z</time></trkpt><trkpt lat="40.41960894483981" lon="18.249244482403462"><ele>5.5</ele><time>2026-04-19T08:40:18.001Z</time></trkpt><trkpt lat="40.4194915267823" lon="18.24933039357294"><ele>5.25</ele><time>2026-04-19T08:40:19.001Z</time></trkpt><trkpt lat="40.4193717979941" lon="18.24942112486952"><ele>5.0</ele><time>2026-04-19T08:40:20.001Z</time></trkpt><trkpt lat="40.41925178653726" lon="18.249512066044822"><ele>5.0</ele><time>2026-04-19T08:40:21.001Z</time></trkpt><trkpt lat="40.41913762351349" lon="18.249598701475065"><ele>5.0</ele><time>2026-04-19T08:40:22.001Z</time></trkpt><trkpt lat="40.41902441657803" lon="18.249683824768216"><ele>5.0</ele><time>2026-04-19T08:40:23.001Z</time></trkpt><trkpt lat="40.418923062781225" lon="18.24976304251637"><ele>5.0</ele><time>2026-04-19T08:40:24.001Z</time></trkpt><trkpt lat="40.41882988232441" lon="18.24984078645873"><ele>5.2</ele><time>2026-04-19T08:40:25Z</time></trkpt><trkpt lat="40.41874072430934" lon="18.249908254479692"><ele>5.4</ele><time>2026-04-19T08:40:26Z</time></trkpt><trkpt lat="40.41864529607506" lon="18.249975840459676"><ele>5.6</ele><time>2026-04-19T08:40:27Z</time></trkpt><trkpt lat="40.418556299483285" lon="18.25004344912697"><ele>5.8</ele><time>2026-04-19T08:40:28Z</time></trkpt><trkpt lat="40.41846958032289" lon="18.25010957707611"><ele>6.0</ele><time>2026-04-19T08:40:29Z</time></trkpt><trkpt lat="40.41838219837794" lon="18.250183391787782"><ele>6.0</ele><time>2026-04-19T08:40:30Z</time></trkpt><trkpt lat="40.41830091614721" lon="18.250250730406172"><ele>6.0</ele><time>2026-04-19T08:40:31Z</time></trkpt><trkpt lat="40.41822761882809" lon="18.25030974360568"><ele>6.0</ele><time>2026-04-19T08:40:32Z</time></trkpt><trkpt lat="40.41816344084423" lon="18.250354872761253"><ele>6.0</ele><time>2026-04-19T08:40:33Z</time></trkpt><trkpt lat="40.41807380224686" lon="18.250450563408048"><ele>6.0</ele><time>2026-04-19T08:40:35Z</time></trkpt><trkpt lat="40.41804994157191" lon="18.25059474218135"><ele>6.0</ele><time>2026-04-19T08:40:37Z</time></trkpt><trkpt lat="40.4180688777291" lon="18.25067735560527"><ele>6.0</ele><time>2026-04-19T08:40:38Z</time></trkpt><trkpt lat="40.41811204682064" lon="18.25076262745165"><ele>6.0</ele><time>2026-04-19T08:40:39Z</time></trkpt><trkpt lat="40.41816692159003" lon="18.250880074019744"><ele>6.0</ele><time>2026-04-19T08:40:40Z</time></trkpt><trkpt lat="40.41822360688548" lon="18.250992919841895"><ele>6.0</ele><time>2026-04-19T08:40:41Z</time></trkpt><trkpt lat="40.41827631542369" lon="18.25109605503041"><ele>6.0</ele><time>2026-04-19T08:40:42Z</time></trkpt><trkpt lat="40.418326663316975" lon="18.25120107843593"><ele>6.0</ele><time>2026-04-19T08:40:43Z</time></trkpt><trkpt lat="40.41837832329564" lon="18.251303896242465"><ele>6.0</ele><time>2026-04-19T08:40:44Z</time></trkpt><trkpt lat="40.41842499372934" lon="18.251404169757652"><ele>6.0</ele><time>2026-04-19T08:40:45Z</time></trkpt><trkpt lat="40.41847249023327" lon="18.251506443371383"><ele>6.0</ele><time>2026-04-19T08:40:46Z</time></trkpt><trkpt lat="40.418516318515024" lon="18.251603882519053"><ele>6.0</ele><time>2026-04-19T08:40:47.001Z</time></trkpt><trkpt lat="40.418572979805035" lon="18.25171753538482"><ele>5.75</ele><time>2026-04-19T08:40:48.001Z</time></trkpt><trkpt lat="40.41862228666209" lon="18.25184354115344"><ele>5.5</ele><time>2026-04-19T08:40:49.001Z</time></trkpt><trkpt lat="40.418684592169775" lon="18.25197135988377"><ele>5.25</ele><time>2026-04-19T08:40:50.001Z</time></trkpt><trkpt lat="40.41874665059611" lon="18.252105447367683"><ele>5.0</ele><time>2026-04-19T08:40:51.001Z</time></trkpt><trkpt lat="40.418812678344665" lon="18.252248402007897"><ele>4.75</ele><time>2026-04-19T08:40:52.001Z</time></trkpt><trkpt lat="40.41888191383955" lon="18.252381952975792"><ele>4.5</ele><time>2026-04-19T08:40:53.001Z</time></trkpt><trkpt lat="40.418946219346786" lon="18.252517628867878"><ele>4.25</ele><time>2026-04-19T08:40:54.001Z</time></trkpt><trkpt lat="40.41901120123224" lon="18.252650949783842"><ele>4.0</ele><time>2026-04-19T08:40:55.001Z</time></trkpt><trkpt lat="40.419081108142244" lon="18.25278852303219"><ele>4.0</ele><time>2026-04-19T08:40:56.001Z</time></trkpt><trkpt lat="40.4191565060272" lon="18.25292992649451"><ele>4.0</ele><time>2026-04-19T08:40:57.001Z</time></trkpt><trkpt lat="40.41922829741937" lon="18.253076388632728"><ele>4.0</ele><time>2026-04-19T08:40:58.001Z</time></trkpt><trkpt lat="40.41929916125585" lon="18.253225651021378"><ele>4.0</ele><time>2026-04-19T08:40:59.001Z</time></trkpt><trkpt lat="40.4193688434128" lon="18.253368765730063"><ele>4.0</ele><time>2026-04-19T08:41:00.001Z</time></trkpt><trkpt lat="40.419439231989706" lon="18.253499301427123"><ele>4.0</ele><time>2026-04-19T08:41:01.001Z</time></trkpt><trkpt lat="40.41951069125905" lon="18.253631889361834"><ele>4.0</ele><time>2026-04-19T08:41:02.001Z</time></trkpt><trkpt lat="40.41957943432257" lon="18.25376421156162"><ele>4.0</ele><time>2026-04-19T08:41:03.001Z</time></trkpt><trkpt lat="40.4196486351104" lon="18.253887348471704"><ele>3.8000000000000003</ele><time>2026-04-19T08:41:04.001Z</time></trkpt><trkpt lat="40.41970964560652" lon="18.25400373631237"><ele>3.6000000000000005</ele><time>2026-04-19T08:41:05.001Z</time></trkpt><trkpt lat="40.41975966507384" lon="18.25412184711906"><ele>3.4</ele><time>2026-04-19T08:41:06.001Z</time></trkpt><trkpt lat="40.41980463649226" lon="18.254232603259656"><ele>3.2</ele><time>2026-04-19T08:41:07.001Z</time></trkpt><trkpt lat="40.41983840981114" lon="18.254343807593447"><ele>3.0</ele><time>2026-04-19T08:41:08.001Z</time></trkpt><trkpt lat="40.419867609601624" lon="18.254450161373477"><ele>3.0</ele><time>2026-04-19T08:41:09.001Z</time></trkpt><trkpt lat="40.419894309422126" lon="18.254555587936075"><ele>3.0</ele><time>2026-04-19T08:41:10.001Z</time></trkpt><trkpt lat="40.41991831896055" lon="18.25468439595011"><ele>3.0</ele><time>2026-04-19T08:41:11.001Z</time></trkpt><trkpt lat="40.41994576372485" lon="18.25481041637164"><ele>3.0</ele><time>2026-04-19T08:41:12.001Z</time></trkpt><trkpt lat="40.41997201361762" lon="18.254926691141684"><ele>3.0</ele><time>2026-04-19T08:41:13.001Z</time></trkpt><trkpt lat="40.41999131978466" lon="18.25502113869705"><ele>3.0</ele><time>2026-04-19T08:41:14.001Z</time></trkpt><trkpt lat="40.4200095065608" lon="18.255113832611393"><ele>3.0</ele><time>2026-04-19T08:41:15.001Z</time></trkpt><trkpt lat="40.42003519698697" lon="18.255206665441218"><ele>3.0</ele><time>2026-04-19T08:41:16.001Z</time></trkpt><trkpt lat="40.42006201873099" lon="18.25530388678113"><ele>3.0</ele><time>2026-04-19T08:41:17.001Z</time></trkpt><trkpt lat="40.42008037540938" lon="18.25540342276358"><ele>3.0</ele><time>2026-04-19T08:41:18.001Z</time></trkpt><trkpt lat="40.42009711819522" lon="18.255510462787946"><ele>3.0</ele><time>2026-04-19T08:41:19.001Z</time></trkpt><trkpt lat="40.4201139383176" lon="18.255622753727465"><ele>2.8333333333333335</ele><time>2026-04-19T08:41:20.001Z</time></trkpt><trkpt lat="40.42013024037057" lon="18.255730140806428"><ele>2.6666666666666665</ele><time>2026-04-19T08:41:21.001Z</time></trkpt><trkpt lat="40.420147591646625" lon="18.25582045035536"><ele>2.5</ele><time>2026-04-19T08:41:22.001Z</time></trkpt><trkpt lat="40.42017472730406" lon="18.25591918583533"><ele>2.333333333333333</ele><time>2026-04-19T08:41:23.001Z</time></trkpt><trkpt lat="40.42019676181738" lon="18.256026101544055"><ele>2.1666666666666665</ele><time>2026-04-19T08:41:24.001Z</time></trkpt><trkpt lat="40.420226127876774" lon="18.256130361101818"><ele>2.0</ele><time>2026-04-19T08:41:25.001Z</time></trkpt><trkpt lat="40.420249354778086" lon="18.256222011395955"><ele>1.9999999999999998</ele><time>2026-04-19T08:41:26.001Z</time></trkpt><trkpt lat="40.42028547926943" lon="18.25637679944118"><ele>2.0</ele><time>2026-04-19T08:41:28.001Z</time></trkpt><trkpt lat="40.42030517440013" lon="18.25646910612946"><ele>2.0</ele><time>2026-04-19T08:41:29.001Z</time></trkpt><trkpt lat="40.420310534536476" lon="18.2565733994884"><ele>2.0</ele><time>2026-04-19T08:41:30.001Z</time></trkpt><trkpt lat="40.42031905040041" lon="18.25665934037827"><ele>1.9999999999999998</ele><time>2026-04-19T08:41:31.001Z</time></trkpt><trkpt lat="40.420330257827786" lon="18.25674620255722"><ele>2.0</ele><time>2026-04-19T08:41:32.001Z</time></trkpt><trkpt lat="40.42036292753546" lon="18.2568878191622"><ele>2.0</ele><time>2026-04-19T08:41:34.001Z</time></trkpt><trkpt lat="40.42040163257362" lon="18.256960381234926"><ele>2.0</ele><time>2026-04-19T08:41:35.001Z</time></trkpt><trkpt lat="40.42043673347867" lon="18.25704209346248"><ele>2.0</ele><time>2026-04-19T08:41:36.001Z</time></trkpt><trkpt lat="40.420467424679366" lon="18.257149111773376"><ele>2.0</ele><time>2026-04-19T08:41:37.001Z</time></trkpt><trkpt lat="40.420521914776195" lon="18.25727225269299"><ele>2.0</ele><time>2026-04-19T08:41:38.001Z</time></trkpt><trkpt lat="40.42057987602918" lon="18.257405469044148"><ele>1.8</ele><time>2026-04-19T08:41:39.001Z</time></trkpt><trkpt lat="40.420617229648656" lon="18.257514925640038"><ele>1.6</ele><time>2026-04-19T08:41:40.001Z</time></trkpt><trkpt lat="40.42064324793769" lon="18.2576112816148"><ele>1.4000000000000001</ele><time>2026-04-19T08:41:41.001Z</time></trkpt><trkpt lat="40.42067981268978" lon="18.25774361663108"><ele>1.2000000000000002</ele><time>2026-04-19T08:41:43.001Z</time></trkpt><trkpt lat="40.42074681209528" lon="18.257887669141503"><ele>1.0</ele><time>2026-04-19T08:41:45.001Z</time></trkpt><trkpt lat="40.42078949998248" lon="18.25798730035425"><ele>0.9999999999999999</ele><time>2026-04-19T08:41:46.001Z</time></trkpt><trkpt lat="40.42081976068053" lon="18.258088617257783"><ele>1.0</ele><time>2026-04-19T08:41:47.001Z</time></trkpt><trkpt lat="40.42085297274125" lon="18.258179469899805"><ele>1.0</ele><time>2026-04-19T08:41:48.001Z</time></trkpt><trkpt lat="40.420903907138495" lon="18.258287835382333"><ele>1.0</ele><time>2026-04-19T08:41:49.001Z</time></trkpt><trkpt lat="40.4209343915032" lon="18.258392486610234"><ele>0.9999999999999999</ele><time>2026-04-19T08:41:50.001Z</time></trkpt><trkpt lat="40.42097127976999" lon="18.258508417615303"><ele>1.0</ele><time>2026-04-19T08:41:51.001Z</time></trkpt><trkpt lat="40.421004312181736" lon="18.258600899177416"><ele>1.2000000000000002</ele><time>2026-04-19T08:41:52.001Z</time></trkpt><trkpt lat="40.42104075141003" lon="18.258689497146054"><ele>1.4000000000000001</ele><time>2026-04-19T08:41:53.001Z</time></trkpt><trkpt lat="40.421070926362596" lon="18.258778028284464"><ele>1.6</ele><time>2026-04-19T08:41:54.001Z</time></trkpt><trkpt lat="40.42108980341867" lon="18.258883455356372"><ele>1.8</ele><time>2026-04-19T08:41:55.001Z</time></trkpt><trkpt lat="40.4211079748833" lon="18.259020459653172"><ele>2.0</ele><time>2026-04-19T08:41:56.001Z</time></trkpt><trkpt lat="40.42111936552059" lon="18.25917602972541"><ele>1.9999999999999998</ele><time>2026-04-19T08:41:57.001Z</time></trkpt><trkpt lat="40.42112853922232" lon="18.259285397401136"><ele>2.0</ele><time>2026-04-19T08:41:58.001Z</time></trkpt><trkpt lat="40.421132376726206" lon="18.259373736073638"><ele>2.0</ele><time>2026-04-19T08:41:59.001Z</time></trkpt><trkpt lat="40.42113727636563" lon="18.25945665641192"><ele>2.0</ele><time>2026-04-19T08:42:00.001Z</time></trkpt><trkpt lat="40.4211470232202" lon="18.259538834677176"><ele>1.9999999999999998</ele><time>2026-04-19T08:42:01.001Z</time></trkpt><trkpt lat="40.42114272937684" lon="18.259716330744716"><ele>2.0</ele><time>2026-04-19T08:42:03.001Z</time></trkpt><trkpt lat="40.42112270715258" lon="18.259815559400174"><ele>1.6</ele><time>2026-04-19T08:42:04.001Z</time></trkpt><trkpt lat="40.421104336887666" lon="18.25995307148926"><ele>1.2000000000000002</ele><time>2026-04-19T08:42:06Z</time></trkpt><trkpt lat="40.42107343857308" lon="18.260046347591963"><ele>0.8</ele><time>2026-04-19T08:42:08Z</time></trkpt><trkpt lat="40.421058639139034" lon="18.260155196945774"><ele>0.4</ele><time>2026-04-19T08:42:11Z</time></trkpt><trkpt lat="40.42106184635329" lon="18.26026460049102"><ele>0.0</ele><time>2026-04-19T08:42:13Z</time></trkpt><trkpt lat="40.421048816305905" lon="18.26040329557689"><ele>0.0</ele><time>2026-04-19T08:42:15Z</time></trkpt><trkpt lat="40.42102365335882" lon="18.260518205442697"><ele>0.0</ele><time>2026-04-19T08:42:16Z</time></trkpt><trkpt lat="40.42100224217398" lon="18.260619143269157"><ele>0.0</ele><time>2026-04-19T08:42:17Z</time></trkpt><trkpt lat="40.42097366474301" lon="18.26074873260746"><ele>0.0</ele><time>2026-04-19T08:42:18.999Z</time></trkpt><trkpt lat="40.42097448423332" lon="18.26084947580027"><ele>0.0</ele><time>2026-04-19T08:42:20.999Z</time></trkpt><trkpt lat="40.42095606431473" lon="18.260932164255816"><ele>0.0</ele><time>2026-04-19T08:42:22.999Z</time></trkpt><trkpt lat="40.4209430031647" lon="18.261028463564724"><ele>0.0</ele><time>2026-04-19T08:42:24.999Z</time></trkpt><trkpt lat="40.4209260014332" lon="18.261112720503093"><ele>0.0</ele><time>2026-04-19T08:42:26.999Z</time></trkpt><trkpt lat="40.42090839083804" lon="18.261223540058015"><ele>0.0</ele><time>2026-04-19T08:42:29.999Z</time></trkpt><trkpt lat="40.4208941772524" lon="18.261315599909253"><ele>0.0</ele><time>2026-04-19T08:42:31.999Z</time></trkpt><trkpt lat="40.42087186292179" lon="18.261418930660444"><ele>0.0</ele><time>2026-04-19T08:42:33.999Z</time></trkpt><trkpt lat="40.42085849404679" lon="18.261523659302735"><ele>0.0</ele><time>2026-04-19T08:42:35.999Z</time></trkpt><trkpt lat="40.42083535116339" lon="18.261623242230367"><ele>0.0</ele><time>2026-04-19T08:42:37.999Z</time></trkpt><trkpt lat="40.42084276254831" lon="18.26173083299222"><ele>0.0</ele><time>2026-04-19T08:42:40Z</time></trkpt><trkpt lat="40.420936666360504" lon="18.261849782853034"><ele>0.0</ele><time>2026-04-19T08:42:42Z</time></trkpt><trkpt lat="40.42099511732106" lon="18.26190479961306"><ele>0.0</ele><time>2026-04-19T08:42:43Z</time></trkpt><trkpt lat="40.42105838549232" lon="18.262027125696125"><ele>0.0</ele><time>2026-04-19T08:42:45Z</time></trkpt><trkpt lat="40.421168506692794" lon="18.262107930767346"><ele>0.0</ele><time>2026-04-19T08:42:47Z</time></trkpt><trkpt lat="40.421235742614286" lon="18.262132866911674"><ele>0.0</ele><time>2026-04-19T08:42:48Z</time></trkpt><trkpt lat="40.42132013765685" lon="18.262072586623084"><ele>0.0</ele><time>2026-04-19T08:42:50Z</time></trkpt><trkpt lat="40.42137840672441" lon="18.262030243730976"><ele>0.0</ele><time>2026-04-19T08:42:51Z</time></trkpt><trkpt lat="40.42152202225328" lon="18.262039357110634"><ele>0.0</ele><time>2026-04-19T08:42:53Z</time></trkpt><trkpt lat="40.4216305642539" lon="18.262054643971346"><ele>0.16666666666666666</ele><time>2026-04-19T08:42:55Z</time></trkpt><trkpt lat="40.42167012674931" lon="18.261954721217727"><ele>0.3333333333333333</ele><time>2026-04-19T08:42:57Z</time></trkpt><trkpt lat="40.4217121364754" lon="18.261866848844633"><ele>0.5</ele><time>2026-04-19T08:42:59Z</time></trkpt><trkpt lat="40.42178475834633" lon="18.261834673243936"><ele>0.6666666666666666</ele><time>2026-04-19T08:43:00Z</time></trkpt><trkpt lat="40.421856588607206" lon="18.26180807750717"><ele>0.8333333333333333</ele><time>2026-04-19T08:43:01Z</time></trkpt><trkpt lat="40.421956394952076" lon="18.261726106361095"><ele>1.0</ele><time>2026-04-19T08:43:03Z</time></trkpt><trkpt lat="40.42203656571034" lon="18.261724957919057"><ele>1.0</ele><time>2026-04-19T08:43:05Z</time></trkpt><trkpt lat="40.42211013660561" lon="18.26178110584703"><ele>1.0</ele><time>2026-04-19T08:43:06Z</time></trkpt><trkpt lat="40.422202080282304" lon="18.261786634459703"><ele>1.0</ele><time>2026-04-19T08:43:08Z</time></trkpt><trkpt lat="40.42226869243405" lon="18.261665719030752"><ele>1.0</ele><time>2026-04-19T08:43:10Z</time></trkpt><trkpt lat="40.422303876162445" lon="18.261577720790992"><ele>1.0</ele><time>2026-04-19T08:43:11Z</time></trkpt><trkpt lat="40.422391786173065" lon="18.26150668221111"><ele>1.0</ele><time>2026-04-19T08:43:13Z</time></trkpt><trkpt lat="40.42248272998044" lon="18.261496499157563"><ele>1.0</ele><time>2026-04-19T08:43:14Z</time></trkpt><trkpt lat="40.42256266905462" lon="18.26148493413903"><ele>1.0</ele><time>2026-04-19T08:43:15Z</time></trkpt><trkpt lat="40.422653699107265" lon="18.26142044461603"><ele>1.0</ele><time>2026-04-19T08:43:17Z</time></trkpt><trkpt lat="40.42269521211578" lon="18.261283130041416"><ele>1.0</ele><time>2026-04-19T08:43:19Z</time></trkpt><trkpt lat="40.42270497250269" lon="18.261177474001073"><ele>1.0</ele><time>2026-04-19T08:43:20Z</time></trkpt><trkpt lat="40.422707469269376" lon="18.261081050408343"><ele>1.0</ele><time>2026-04-19T08:43:21Z</time></trkpt><trkpt lat="40.422721577853345" lon="18.260924934116414"><ele>1.0</ele><time>2026-04-19T08:43:23Z</time></trkpt><trkpt lat="40.422746739786874" lon="18.260804275587372"><ele>1.0</ele><time>2026-04-19T08:43:25Z</time></trkpt><trkpt lat="40.42278439892793" lon="18.26066685042444"><ele>1.0</ele><time>2026-04-19T08:43:27Z</time></trkpt><trkpt lat="40.42288241770911" lon="18.260561637334582"><ele>1.2000000000000002</ele><time>2026-04-19T08:43:29Z</time></trkpt><trkpt lat="40.42293961216674" lon="18.26052267407231"><ele>1.4000000000000001</ele><time>2026-04-19T08:43:30Z</time></trkpt><trkpt lat="40.42304043561299" lon="18.260462828848926"><ele>1.6</ele><time>2026-04-19T08:43:32Z</time></trkpt><trkpt lat="40.42315454410782" lon="18.260421526721338"><ele>1.8</ele><time>2026-04-19T08:43:34Z</time></trkpt><trkpt lat="40.423246388820075" lon="18.260345090505137"><ele>2.0</ele><time>2026-04-19T08:43:36Z</time></trkpt><trkpt lat="40.423329409787925" lon="18.26022103688338"><ele>1.6666666666666665</ele><time>2026-04-19T08:43:38Z</time></trkpt><trkpt lat="40.42337503483565" lon="18.260143730719662"><ele>1.3333333333333333</ele><time>2026-04-19T08:43:39Z</time></trkpt><trkpt lat="40.42341947105895" lon="18.26008321459713"><ele>1.0</ele><time>2026-04-19T08:43:40Z</time></trkpt><trkpt lat="40.42349129123921" lon="18.260020957703222"><ele>0.6666666666666666</ele><time>2026-04-19T08:43:42Z</time></trkpt><trkpt lat="40.423563179040926" lon="18.260105094460677"><ele>0.3333333333333333</ele><time>2026-04-19T08:43:44Z</time></trkpt><trkpt lat="40.423624250940485" lon="18.260161177887102"><ele>0.0</ele><time>2026-04-19T08:43:47Z</time></trkpt><trkpt lat="40.4236924270956" lon="18.26009466472732"><ele>0.0</ele><time>2026-04-19T08:43:50Z</time></trkpt><trkpt lat="40.423794454482326" lon="18.259969007716904"><ele>0.0</ele><time>2026-04-19T08:43:52Z</time></trkpt><trkpt lat="40.423769554301025" lon="18.259891037272457"><ele>0.0</ele><time>2026-04-19T08:43:54Z</time></trkpt><trkpt lat="40.42373417210696" lon="18.25980100520567"><ele>0.0</ele><time>2026-04-19T08:43:56Z</time></trkpt><trkpt lat="40.42369107709404" lon="18.259719027181042"><ele>0.0</ele><time>2026-04-19T08:43:58Z</time></trkpt><trkpt lat="40.42371033735057" lon="18.25963820696817"><ele>0.0</ele><time>2026-04-19T08:44:00Z</time></trkpt><trkpt lat="40.42373387006067" lon="18.25972351334051"><ele>0.0</ele><time>2026-04-19T08:58:28.999Z</time></trkpt><trkpt lat="40.42372568338154" lon="18.259808888972074"><ele>0.0</ele><time>2026-04-19T08:58:33.999Z</time></trkpt><trkpt lat="40.4236941982659" lon="18.259892641430444"><ele>0.0</ele><time>2026-04-19T08:58:36.999Z</time></trkpt><trkpt lat="40.42366351433499" lon="18.25996764596251"><ele>0.0</ele><time>2026-04-19T08:58:40.999Z</time></trkpt><trkpt lat="40.42360247964547" lon="18.25999216160185"><ele>0.0</ele><time>2026-04-19T08:59:04Z</time></trkpt><trkpt lat="40.42354534622064" lon="18.26004376582089"><ele>0.0</ele><time>2026-04-19T08:59:08Z</time></trkpt><trkpt lat="40.423464968714285" lon="18.260037092003934"><ele>0.0</ele><time>2026-04-19T08:59:15Z</time></trkpt><trkpt lat="40.423402248056675" lon="18.260045676895317"><ele>0.0</ele><time>2026-04-19T08:59:17Z</time></trkpt><trkpt lat="40.4233621969599" lon="18.260136111657623"><ele>0.0</ele><time>2026-04-19T08:59:19Z</time></trkpt><trkpt lat="40.423307762874394" lon="18.26022657777021"><ele>0.0</ele><time>2026-04-19T08:59:21Z</time></trkpt><trkpt lat="40.423241225814294" lon="18.260309734951335"><ele>0.0</ele><time>2026-04-19T08:59:23Z</time></trkpt><trkpt lat="40.42317000381187" lon="18.26037619728251"><ele>0.0</ele><time>2026-04-19T08:59:25Z</time></trkpt><trkpt lat="40.42310667134129" lon="18.26043087369816"><ele>0.0</ele><time>2026-04-19T08:59:27Z</time></trkpt><trkpt lat="40.42304006977925" lon="18.260459168477496"><ele>0.2</ele><time>2026-04-19T08:59:30Z</time></trkpt><trkpt lat="40.422965286968996" lon="18.260497553695348"><ele>0.4</ele><time>2026-04-19T08:59:32Z</time></trkpt><trkpt lat="40.422907187196785" lon="18.26054674090937"><ele>0.6000000000000001</ele><time>2026-04-19T08:59:34Z</time></trkpt><trkpt lat="40.422813161585935" lon="18.260623052055177"><ele>0.8</ele><time>2026-04-19T08:59:37Z</time></trkpt><trkpt lat="40.422745928790135" lon="18.26073402956278"><ele>1.0</ele><time>2026-04-19T08:59:39Z</time></trkpt><trkpt lat="40.422721786785544" lon="18.260860465796018"><ele>0.9999999999999999</ele><time>2026-04-19T08:59:41Z</time></trkpt><trkpt lat="40.42270573837365" lon="18.260976960919592"><ele>1.0</ele><time>2026-04-19T08:59:43Z</time></trkpt><trkpt lat="40.422685676748486" lon="18.261096833109786"><ele>1.0</ele><time>2026-04-19T08:59:46Z</time></trkpt><trkpt lat="40.42268454834459" lon="18.261201371492476"><ele>1.0</ele><time>2026-04-19T08:59:48Z</time></trkpt><trkpt lat="40.422668049940796" lon="18.26131805350495"><ele>0.9999999999999999</ele><time>2026-04-19T08:59:50Z</time></trkpt><trkpt lat="40.42262442410245" lon="18.261420287751793"><ele>1.0</ele><time>2026-04-19T08:59:52Z</time></trkpt><trkpt lat="40.42254966976954" lon="18.261476803754817"><ele>1.1666666666666665</ele><time>2026-04-19T08:59:54Z</time></trkpt><trkpt lat="40.422447562398084" lon="18.261504471072584"><ele>1.3333333333333333</ele><time>2026-04-19T08:59:56Z</time></trkpt><trkpt lat="40.422347302419126" lon="18.261523154557384"><ele>1.5</ele><time>2026-04-19T08:59:57.999Z</time></trkpt><trkpt lat="40.42227682345211" lon="18.261561476555414"><ele>1.6666666666666665</ele><time>2026-04-19T09:00:01.999Z</time></trkpt><trkpt lat="40.42222741376594" lon="18.26162904894296"><ele>1.8333333333333333</ele><time>2026-04-19T09:00:05.999Z</time></trkpt><trkpt lat="40.42223151253044" lon="18.26172260202349"><ele>2.0</ele><time>2026-04-19T09:00:08.999Z</time></trkpt><trkpt lat="40.42217198905748" lon="18.26178840229306"><ele>1.8333333333333333</ele><time>2026-04-19T09:00:11.999Z</time></trkpt><trkpt lat="40.42208820083521" lon="18.261767776661653"><ele>1.6666666666666665</ele><time>2026-04-19T09:00:14.999Z</time></trkpt><trkpt lat="40.42202275477677" lon="18.261712624390892"><ele>1.5</ele><time>2026-04-19T09:00:16.999Z</time></trkpt><trkpt lat="40.421941170636835" lon="18.261685328019126"><ele>1.3333333333333333</ele><time>2026-04-19T09:00:19.999Z</time></trkpt><trkpt lat="40.4218796396269" lon="18.261778558320614"><ele>1.1666666666666665</ele><time>2026-04-19T09:00:22.999Z</time></trkpt><trkpt lat="40.42178572461105" lon="18.26181218110745"><ele>1.0</ele><time>2026-04-19T09:00:25.999Z</time></trkpt><trkpt lat="40.421705759760684" lon="18.261858344084263"><ele>0.9999999999999999</ele><time>2026-04-19T09:00:27.999Z</time></trkpt><trkpt lat="40.42163452614391" lon="18.26192146372642"><ele>1.0</ele><time>2026-04-19T09:00:29.999Z</time></trkpt><trkpt lat="40.42157422445389" lon="18.26199936956105"><ele>1.0</ele><time>2026-04-19T09:00:31.999Z</time></trkpt><trkpt lat="40.42148124484303" lon="18.26203189048953"><ele>1.0</ele><time>2026-04-19T09:00:33.999Z</time></trkpt><trkpt lat="40.42141678125982" lon="18.262023025976905"><ele>0.9999999999999999</ele><time>2026-04-19T09:00:34.999Z</time></trkpt><trkpt lat="40.42133759376865" lon="18.262026098420446"><ele>1.0</ele><time>2026-04-19T09:00:36.999Z</time></trkpt><trkpt lat="40.421243601921795" lon="18.262102677191162"><ele>0.8333333333333333</ele><time>2026-04-19T09:00:39.999Z</time></trkpt><trkpt lat="40.42117143962082" lon="18.262087934617433"><ele>0.6666666666666666</ele><time>2026-04-19T09:00:41.999Z</time></trkpt><trkpt lat="40.42109286090078" lon="18.262037608271232"><ele>0.5</ele><time>2026-04-19T09:00:43.999Z</time></trkpt><trkpt lat="40.421022005252844" lon="18.26197820581527"><ele>0.3333333333333333</ele><time>2026-04-19T09:00:45.999Z</time></trkpt><trkpt lat="40.42096620077421" lon="18.26186327564075"><ele>0.16666666666666666</ele><time>2026-04-19T09:00:47.999Z</time></trkpt><trkpt lat="40.420909127813644" lon="18.261806808448803"><ele>0.0</ele><time>2026-04-19T09:00:49.999Z</time></trkpt><trkpt lat="40.42086628662539" lon="18.26173369643671"><ele>0.0</ele><time>2026-04-19T09:00:51.999Z</time></trkpt><trkpt lat="40.420846516205344" lon="18.261639893473852"><ele>0.0</ele><time>2026-04-19T09:00:53.999Z</time></trkpt><trkpt lat="40.42085346404446" lon="18.261554770310024"><ele>0.0</ele><time>2026-04-19T09:00:55.999Z</time></trkpt><trkpt lat="40.42086996927052" lon="18.261431846458013"><ele>0.0</ele><time>2026-04-19T09:00:58.999Z</time></trkpt><trkpt lat="40.4208864030914" lon="18.26132445458406"><ele>0.0</ele><time>2026-04-19T09:01:00.999Z</time></trkpt><trkpt lat="40.42091649746747" lon="18.261196076169142"><ele>0.0</ele><time>2026-04-19T09:01:02.999Z</time></trkpt><trkpt lat="40.420942788992804" lon="18.261068000395635"><ele>0.0</ele><time>2026-04-19T09:01:04.999Z</time></trkpt><trkpt lat="40.420983655336705" lon="18.26096345834749"><ele>0.0</ele><time>2026-04-19T09:01:06.999Z</time></trkpt><trkpt lat="40.421002752091596" lon="18.26084640075126"><ele>0.0</ele><time>2026-04-19T09:01:08.999Z</time></trkpt><trkpt lat="40.42100717838977" lon="18.26072099657423"><ele>0.0</ele><time>2026-04-19T09:01:10.999Z</time></trkpt><trkpt lat="40.42102506559412" lon="18.260606648317864"><ele>0.0</ele><time>2026-04-19T09:01:12.999Z</time></trkpt><trkpt lat="40.42104359275584" lon="18.260502978608837"><ele>0.0</ele><time>2026-04-19T09:01:14.999Z</time></trkpt><trkpt lat="40.42106360952419" lon="18.260418335927188"><ele>0.0</ele><time>2026-04-19T09:01:16.999Z</time></trkpt><trkpt lat="40.42108613851569" lon="18.260294473970855"><ele>0.0</ele><time>2026-04-19T09:01:18.999Z</time></trkpt><trkpt lat="40.42109607759564" lon="18.260181620991556"><ele>0.0</ele><time>2026-04-19T09:01:20.999Z</time></trkpt><trkpt lat="40.42112156139118" lon="18.260051515896873"><ele>0.0</ele><time>2026-04-19T09:01:22.999Z</time></trkpt><trkpt lat="40.42113785202096" lon="18.25991881393081"><ele>0.0</ele><time>2026-04-19T09:01:24.999Z</time></trkpt><trkpt lat="40.42117351294627" lon="18.25977090441294"><ele>0.3333333333333333</ele><time>2026-04-19T09:01:26.999Z</time></trkpt><trkpt lat="40.42118384972776" lon="18.25968774930911"><ele>0.6666666666666666</ele><time>2026-04-19T09:01:27.999Z</time></trkpt><trkpt lat="40.42118925956189" lon="18.2595901841328"><ele>1.0</ele><time>2026-04-19T09:01:28.999Z</time></trkpt><trkpt lat="40.421187372578224" lon="18.25948871721305"><ele>1.3333333333333333</ele><time>2026-04-19T09:01:29.999Z</time></trkpt><trkpt lat="40.42117718286385" lon="18.259371181017876"><ele>1.6666666666666665</ele><time>2026-04-19T09:01:30.999Z</time></trkpt><trkpt lat="40.421166827917205" lon="18.259258344170785"><ele>2.0</ele><time>2026-04-19T09:01:31.999Z</time></trkpt><trkpt lat="40.421158389368784" lon="18.2591607216108"><ele>1.9999999999999998</ele><time>2026-04-19T09:01:32.999Z</time></trkpt><trkpt lat="40.42114967905366" lon="18.259067064439037"><ele>2.0</ele><time>2026-04-19T09:01:33.999Z</time></trkpt><trkpt lat="40.42113741915909" lon="18.258959192434602"><ele>2.0</ele><time>2026-04-19T09:01:34.999Z</time></trkpt><trkpt lat="40.42112131568748" lon="18.25885114095252"><ele>2.0</ele><time>2026-04-19T09:01:35.999Z</time></trkpt><trkpt lat="40.42110315993521" lon="18.258754327399327"><ele>1.9999999999999998</ele><time>2026-04-19T09:01:36.999Z</time></trkpt><trkpt lat="40.4210776775687" lon="18.258658791338668"><ele>2.0</ele><time>2026-04-19T09:01:37.999Z</time></trkpt><trkpt lat="40.42103387709116" lon="18.258551468114568"><ele>2.0</ele><time>2026-04-19T09:01:39.999Z</time></trkpt><trkpt lat="40.42083343463786" lon="18.25860949618753"><ele>2.0</ele><time>2026-04-19T09:01:42.999Z</time></trkpt><trkpt lat="40.42076958357758" lon="18.258642494730537"><ele>2.0</ele><time>2026-04-19T09:01:43.999Z</time></trkpt><trkpt lat="40.42067127185862" lon="18.258678752430956"><ele>2.0</ele><time>2026-04-19T09:01:45.999Z</time></trkpt><trkpt lat="40.42058710758139" lon="18.25870160070378"><ele>2.0</ele><time>2026-04-19T09:01:46.999Z</time></trkpt><trkpt lat="40.420497164994124" lon="18.258737103919625"><ele>2.0</ele><time>2026-04-19T09:01:47.999Z</time></trkpt><trkpt lat="40.420391085998986" lon="18.258778120947152"><ele>2.0</ele><time>2026-04-19T09:01:48.999Z</time></trkpt><trkpt lat="40.42029966724091" lon="18.258799021999632"><ele>2.0</ele><time>2026-04-19T09:01:49.999Z</time></trkpt><trkpt lat="40.420223508193246" lon="18.2588359251602"><ele>2.0</ele><time>2026-04-19T09:01:50.999Z</time></trkpt><trkpt lat="40.42015475745449" lon="18.258860580960505"><ele>1.8</ele><time>2026-04-19T09:01:51.999Z</time></trkpt><trkpt lat="40.42005016035801" lon="18.258909380049527"><ele>1.6</ele><time>2026-04-19T09:01:53.999Z</time></trkpt><trkpt lat="40.4199562138515" lon="18.25892680213058"><ele>1.4000000000000001</ele><time>2026-04-19T09:01:55.999Z</time></trkpt><trkpt lat="40.419849017332446" lon="18.258984287121347"><ele>1.2000000000000002</ele><time>2026-04-19T09:01:57.999Z</time></trkpt><trkpt lat="40.41974197851997" lon="18.259021943257093"><ele>1.0</ele><time>2026-04-19T09:01:59.999Z</time></trkpt><trkpt lat="40.419626836574636" lon="18.25906120057808"><ele>0.9999999999999999</ele><time>2026-04-19T09:02:01.999Z</time></trkpt><trkpt lat="40.419562585060994" lon="18.25907037340465"><ele>1.0</ele><time>2026-04-19T09:02:02.999Z</time></trkpt><trkpt lat="40.419501201901156" lon="18.259035275312108"><ele>1.0</ele><time>2026-04-19T09:02:03.999Z</time></trkpt><trkpt lat="40.4193852412699" lon="18.259014762159083"><ele>1.0</ele><time>2026-04-19T09:02:05.999Z</time></trkpt><trkpt lat="40.41933136071667" lon="18.258905034199525"><ele>0.9999999999999999</ele><time>2026-04-19T09:02:07.999Z</time></trkpt><trkpt lat="40.41930830883511" lon="18.258791267605723"><ele>1.0</ele><time>2026-04-19T09:02:09.999Z</time></trkpt><trkpt lat="40.41930276024471" lon="18.25864268630365"><ele>1.0</ele><time>2026-04-19T09:02:11.999Z</time></trkpt><trkpt lat="40.41934096670225" lon="18.258510659788644"><ele>1.0</ele><time>2026-04-19T09:02:13.999Z</time></trkpt><trkpt lat="40.419390563851266" lon="18.25835269057355"><ele>1.0</ele><time>2026-04-19T09:02:15.999Z</time></trkpt><trkpt lat="40.41941117934435" lon="18.25827162923529"><ele>1.0</ele><time>2026-04-19T09:02:16.999Z</time></trkpt><trkpt lat="40.419396399491085" lon="18.258121486554764"><ele>1.0</ele><time>2026-04-19T09:02:18.999Z</time></trkpt><trkpt lat="40.4194051216649" lon="18.25802520408202"><ele>0.8333333333333333</ele><time>2026-04-19T09:02:20.999Z</time></trkpt><trkpt lat="40.41949577452904" lon="18.258003046776118"><ele>0.6666666666666666</ele><time>2026-04-19T09:02:22.999Z</time></trkpt><trkpt lat="40.419557453390105" lon="18.25807335353032"><ele>0.5</ele><time>2026-04-19T09:02:24.999Z</time></trkpt><trkpt lat="40.41962748660553" lon="18.2580832328087"><ele>0.3333333333333333</ele><time>2026-04-19T09:02:28.999Z</time></trkpt><trkpt lat="40.419615753327996" lon="18.25799821650986"><ele>0.16666666666666666</ele><time>2026-04-19T09:02:30.999Z</time></trkpt><trkpt lat="40.41952083909397" lon="18.257984878039085"><ele>0.0</ele><time>2026-04-19T09:02:32.999Z</time></trkpt><trkpt lat="40.41942202189903" lon="18.258044330940418"><ele>0.0</ele><time>2026-04-19T09:02:34.999Z</time></trkpt><trkpt lat="40.41935872874979" lon="18.258100979836524"><ele>0.0</ele><time>2026-04-19T09:02:36.999Z</time></trkpt><trkpt lat="40.419354162182614" lon="18.258259200803636"><ele>0.0</ele><time>2026-04-19T09:02:38.999Z</time></trkpt><trkpt lat="40.419359816236984" lon="18.25837109898363"><ele>0.0</ele><time>2026-04-19T09:02:39.999Z</time></trkpt><trkpt lat="40.41933123671212" lon="18.25846951430643"><ele>0.0</ele><time>2026-04-19T09:02:40.999Z</time></trkpt><trkpt lat="40.41928245468113" lon="18.25857535808696"><ele>0.16666666666666666</ele><time>2026-04-19T09:02:41.999Z</time></trkpt><trkpt lat="40.41925950708102" lon="18.2586683277785"><ele>0.3333333333333333</ele><time>2026-04-19T09:02:42.999Z</time></trkpt><trkpt lat="40.41925834505045" lon="18.258759502713335"><ele>0.5</ele><time>2026-04-19T09:02:43.999Z</time></trkpt><trkpt lat="40.419276364517614" lon="18.258844225387957"><ele>0.6666666666666666</ele><time>2026-04-19T09:02:44.999Z</time></trkpt><trkpt lat="40.41930599872909" lon="18.258934081284455"><ele>0.8333333333333333</ele><time>2026-04-19T09:02:45.999Z</time></trkpt><trkpt lat="40.41939500403744" lon="18.25904126924492"><ele>1.0</ele><time>2026-04-19T09:02:47.999Z</time></trkpt><trkpt lat="40.41947514998108" lon="18.25907193510825"><ele>1.0</ele><time>2026-04-19T09:02:48.999Z</time></trkpt><trkpt lat="40.41957434877194" lon="18.259083438300085"><ele>1.0</ele><time>2026-04-19T09:02:49.999Z</time></trkpt><trkpt lat="40.41967456276083" lon="18.25907104315406"><ele>1.0</ele><time>2026-04-19T09:02:50.999Z</time></trkpt><trkpt lat="40.419781882663415" lon="18.25902353191137"><ele>1.0</ele><time>2026-04-19T09:02:51.999Z</time></trkpt><trkpt lat="40.419893356568835" lon="18.258973652334454"><ele>1.0</ele><time>2026-04-19T09:02:52.999Z</time></trkpt><trkpt lat="40.420023150637306" lon="18.25892188551262"><ele>0.9999999999999999</ele><time>2026-04-19T09:02:53.999Z</time></trkpt><trkpt lat="40.42012829924959" lon="18.258907060890884"><ele>1.0</ele><time>2026-04-19T09:02:54.999Z</time></trkpt><trkpt lat="40.42021107938584" lon="18.25887558088401"><ele>1.0</ele><time>2026-04-19T09:02:55.999Z</time></trkpt><trkpt lat="40.42029839711695" lon="18.258844640351185"><ele>1.0</ele><time>2026-04-19T09:02:56.999Z</time></trkpt><trkpt lat="40.4203671389587" lon="18.258801431409665"><ele>0.9999999999999999</ele><time>2026-04-19T09:02:57.999Z</time></trkpt><trkpt lat="40.42043674620931" lon="18.258778044746165"><ele>1.0</ele><time>2026-04-19T09:02:58.999Z</time></trkpt><trkpt lat="40.4205497054593" lon="18.25874136211119"><ele>1.1428571428571428</ele><time>2026-04-19T09:03:00.998Z</time></trkpt><trkpt lat="40.4206158312819" lon="18.258720283659574"><ele>1.2857142857142856</ele><time>2026-04-19T09:03:01.998Z</time></trkpt><trkpt lat="40.42068004627187" lon="18.25870163479238"><ele>1.4285714285714284</ele><time>2026-04-19T09:03:02.998Z</time></trkpt><trkpt lat="40.42074191408651" lon="18.25868435847601"><ele>1.5714285714285714</ele><time>2026-04-19T09:03:03.998Z</time></trkpt><trkpt lat="40.42080386770568" lon="18.258657324785098"><ele>1.714285714285714</ele><time>2026-04-19T09:03:04.998Z</time></trkpt><trkpt lat="40.4209098734091" lon="18.258632674464266"><ele>1.857142857142857</ele><time>2026-04-19T09:03:06.998Z</time></trkpt><trkpt lat="40.42097196784211" lon="18.25860002979818"><ele>2.0</ele><time>2026-04-19T09:03:09.998Z</time></trkpt><trkpt lat="40.42096950995098" lon="18.258388965362595"><ele>1.9999999999999998</ele><time>2026-04-19T09:03:12.998Z</time></trkpt><trkpt lat="40.420940676890275" lon="18.258311749444704"><ele>2.0</ele><time>2026-04-19T09:03:13.998Z</time></trkpt><trkpt lat="40.42091197596502" lon="18.258232844561928"><ele>2.0</ele><time>2026-04-19T09:03:14.998Z</time></trkpt><trkpt lat="40.420876921414774" lon="18.258136472101892"><ele>2.0</ele><time>2026-04-19T09:03:15.998Z</time></trkpt><trkpt lat="40.42083651912276" lon="18.258025397400214"><ele>1.9999999999999998</ele><time>2026-04-19T09:03:16.998Z</time></trkpt><trkpt lat="40.420797413212384" lon="18.257917886754164"><ele>2.0</ele><time>2026-04-19T09:03:17.998Z</time></trkpt><trkpt lat="40.42075552746213" lon="18.257802733861926"><ele>1.8333333333333333</ele><time>2026-04-19T09:03:18.998Z</time></trkpt><trkpt lat="40.420714421310805" lon="18.25768972429579"><ele>1.6666666666666665</ele><time>2026-04-19T09:03:19.998Z</time></trkpt><trkpt lat="40.42067821111679" lon="18.257590174659775"><ele>1.5</ele><time>2026-04-19T09:03:20.998Z</time></trkpt><trkpt lat="40.420649248558554" lon="18.257510550347806"><ele>1.3333333333333333</ele><time>2026-04-19T09:03:21.998Z</time></trkpt><trkpt lat="40.42059343872336" lon="18.257402500000875"><ele>1.1666666666666665</ele><time>2026-04-19T09:03:22.999Z</time></trkpt><trkpt lat="40.42054989708454" lon="18.25728741569716"><ele>1.0</ele><time>2026-04-19T09:03:23.999Z</time></trkpt><trkpt lat="40.42052193451266" lon="18.257165496179724"><ele>0.9999999999999999</ele><time>2026-04-19T09:03:24.999Z</time></trkpt><trkpt lat="40.4204858725767" lon="18.257070177822378"><ele>1.0</ele><time>2026-04-19T09:03:25.999Z</time></trkpt><trkpt lat="40.42045484552689" lon="18.25698865166933"><ele>1.0</ele><time>2026-04-19T09:03:26.999Z</time></trkpt><trkpt lat="40.42041972485679" lon="18.256899279672915"><ele>1.0</ele><time>2026-04-19T09:03:27.999Z</time></trkpt><trkpt lat="40.420368100338266" lon="18.25678064040582"><ele>0.9999999999999999</ele><time>2026-04-19T09:03:29.999Z</time></trkpt><trkpt lat="40.420342440486884" lon="18.25669776088512"><ele>1.0</ele><time>2026-04-19T09:03:32.999Z</time></trkpt><trkpt lat="40.4201201689243" lon="18.256694253306197"><ele>1.1428571428571428</ele><time>2026-04-19T09:03:36.999Z</time></trkpt><trkpt lat="40.420052916664574" lon="18.256682469236495"><ele>1.2857142857142856</ele><time>2026-04-19T09:03:37.999Z</time></trkpt><trkpt lat="40.419982399046965" lon="18.256683093832805"><ele>1.4285714285714284</ele><time>2026-04-19T09:03:38.999Z</time></trkpt><trkpt lat="40.41989838399908" lon="18.25670401012851"><ele>1.5714285714285714</ele><time>2026-04-19T09:03:39.999Z</time></trkpt><trkpt lat="40.419821722287786" lon="18.256745165232825"><ele>1.714285714285714</ele><time>2026-04-19T09:03:40.999Z</time></trkpt><trkpt lat="40.419756563559176" lon="18.256798541948122"><ele>1.857142857142857</ele><time>2026-04-19T09:03:41.999Z</time></trkpt><trkpt lat="40.41970229910586" lon="18.25684623091088"><ele>2.0</ele><time>2026-04-19T09:03:42.999Z</time></trkpt><trkpt lat="40.41957726876107" lon="18.256912551295265"><ele>2.0</ele><time>2026-04-19T09:03:44.999Z</time></trkpt><trkpt lat="40.419453223187546" lon="18.25693292142738"><ele>2.0</ele><time>2026-04-19T09:03:46.999Z</time></trkpt><trkpt lat="40.41936277043441" lon="18.256928333075486"><ele>2.0</ele><time>2026-04-19T09:03:48.999Z</time></trkpt><trkpt lat="40.41926242937413" lon="18.256921197538297"><ele>2.0</ele><time>2026-04-19T09:03:51.999Z</time></trkpt><trkpt lat="40.419167402454434" lon="18.256920764247894"><ele>2.0</ele><time>2026-04-19T09:03:53.999Z</time></trkpt><trkpt lat="40.4190921678238" lon="18.2569058735561"><ele>2.0</ele><time>2026-04-19T09:03:55.999Z</time></trkpt><trkpt lat="40.419014313167416" lon="18.256872903974763"><ele>2.0</ele><time>2026-04-19T09:03:57.999Z</time></trkpt><trkpt lat="40.418916543284034" lon="18.25685561482113"><ele>2.0</ele><time>2026-04-19T09:04:00.999Z</time></trkpt><trkpt lat="40.418832190253234" lon="18.2568734514495"><ele>2.0</ele><time>2026-04-19T09:04:03.999Z</time></trkpt><trkpt lat="40.41874094984786" lon="18.25686178468782"><ele>2.0</ele><time>2026-04-19T09:04:05.999Z</time></trkpt><trkpt lat="40.41864337763184" lon="18.256818798770286"><ele>1.8</ele><time>2026-04-19T09:04:07.999Z</time></trkpt><trkpt lat="40.418540842949845" lon="18.256778109985017"><ele>1.6</ele><time>2026-04-19T09:04:09.999Z</time></trkpt><trkpt lat="40.418414064669136" lon="18.256762881385278"><ele>1.4000000000000001</ele><time>2026-04-19T09:04:11.999Z</time></trkpt><trkpt lat="40.41834378494836" lon="18.256768260765885"><ele>1.2000000000000002</ele><time>2026-04-19T09:04:12.999Z</time></trkpt><trkpt lat="40.41823035028234" lon="18.2567989569118"><ele>1.0</ele><time>2026-04-19T09:04:14.999Z</time></trkpt><trkpt lat="40.41814987520153" lon="18.256822170950734"><ele>0.9999999999999999</ele><time>2026-04-19T09:04:16.999Z</time></trkpt><trkpt lat="40.41807796601314" lon="18.256759410554146"><ele>1.0</ele><time>2026-04-19T09:04:19.999Z</time></trkpt><trkpt lat="40.4180376922511" lon="18.25666489774478"><ele>1.0</ele><time>2026-04-19T09:04:22.999Z</time></trkpt><trkpt lat="40.417991406058604" lon="18.256603839804804"><ele>1.0</ele><time>2026-04-19T09:04:25.999Z</time></trkpt><trkpt lat="40.41793464123562" lon="18.25664314581639"><ele>0.9999999999999999</ele><time>2026-04-19T09:04:29.999Z</time></trkpt><trkpt lat="40.41799259163302" lon="18.256704073418362"><ele>1.0</ele><time>2026-04-19T09:05:17.998Z</time></trkpt><trkpt lat="40.41806083440247" lon="18.256752936815012"><ele>1.0</ele><time>2026-04-19T09:05:57.999Z</time></trkpt><trkpt lat="40.41812872221728" lon="18.256814733116173"><ele>0.9999999999999999</ele><time>2026-04-19T09:06:01.999Z</time></trkpt><trkpt lat="40.418199456583885" lon="18.256805611210375"><ele>1.0</ele><time>2026-04-19T09:06:44.999Z</time></trkpt><trkpt lat="40.41826474967294" lon="18.256780009540485"><ele>1.0</ele><time>2026-04-19T09:06:49.999Z</time></trkpt><trkpt lat="40.4183414583167" lon="18.256764028520177"><ele>0.9999999999999999</ele><time>2026-04-19T09:07:03.999Z</time></trkpt><trkpt lat="40.418415502144" lon="18.256746322285032"><ele>1.0</ele><time>2026-04-19T09:07:48Z</time></trkpt><trkpt lat="40.418477117960094" lon="18.25676499457373"><ele>1.0</ele><time>2026-04-19T09:08:29Z</time></trkpt><trkpt lat="40.41855017548198" lon="18.2567848959989"><ele>1.0</ele><time>2026-04-19T09:08:37Z</time></trkpt><trkpt lat="40.41861371871797" lon="18.25680224989955"><ele>0.9999999999999999</ele><time>2026-04-19T09:08:43Z</time></trkpt><trkpt lat="40.418676053672" lon="18.256832867679098"><ele>1.0</ele><time>2026-04-19T09:09:14Z</time></trkpt><trkpt lat="40.418652816774184" lon="18.256917643565075"><ele>1.0</ele><time>2026-04-19T09:09:24Z</time></trkpt><trkpt lat="40.418596551432714" lon="18.256974008586802"><ele>0.9999999999999999</ele><time>2026-04-19T09:09:28Z</time></trkpt><trkpt lat="40.4185245756266" lon="18.257037717014153"><ele>1.0</ele><time>2026-04-19T09:09:32Z</time></trkpt><trkpt lat="40.41847516186608" lon="18.257099298853383"><ele>1.0</ele><time>2026-04-19T09:09:35Z</time></trkpt><trkpt lat="40.418539961292936" lon="18.257115706681823"><ele>0.9999999999999999</ele><time>2026-04-19T09:10:06Z</time></trkpt><trkpt lat="40.41860140939113" lon="18.25709001686658"><ele>1.0</ele><time>2026-04-19T09:21:31.999Z</time></trkpt><trkpt lat="40.4186137059849" lon="18.25695652744482"><ele>1.0</ele><time>2026-04-19T09:21:34.999Z</time></trkpt><trkpt lat="40.41865570964231" lon="18.25689306118246"><ele>1.0</ele><time>2026-04-19T09:21:36.999Z</time></trkpt><trkpt lat="40.41871459186166" lon="18.256854188683715"><ele>0.9999999999999999</ele><time>2026-04-19T09:21:38.999Z</time></trkpt><trkpt lat="40.418786552856346" lon="18.256858560019925"><ele>1.0</ele><time>2026-04-19T09:21:40.999Z</time></trkpt><trkpt lat="40.418868423900534" lon="18.256868974761208"><ele>1.1666666666666665</ele><time>2026-04-19T09:21:43.999Z</time></trkpt><trkpt lat="40.418940022510036" lon="18.256862111685958"><ele>1.3333333333333333</ele><time>2026-04-19T09:21:45.999Z</time></trkpt><trkpt lat="40.41902905649131" lon="18.256874141278104"><ele>1.5</ele><time>2026-04-19T09:21:48.999Z</time></trkpt><trkpt lat="40.41912363309002" lon="18.256908451193002"><ele>1.6666666666666665</ele><time>2026-04-19T09:21:51.999Z</time></trkpt><trkpt lat="40.41919640234364" lon="18.256933529993997"><ele>1.8333333333333333</ele><time>2026-04-19T09:21:53.999Z</time></trkpt><trkpt lat="40.419266778482" lon="18.25693489880567"><ele>2.0</ele><time>2026-04-19T09:21:55.999Z</time></trkpt><trkpt lat="40.41936274201889" lon="18.256934950397458"><ele>2.0</ele><time>2026-04-19T09:21:59Z</time></trkpt><trkpt lat="40.4194543524433" lon="18.256937693496457"><ele>2.0</ele><time>2026-04-19T09:22:01Z</time></trkpt><trkpt lat="40.41954354903399" lon="18.256912988934285"><ele>2.0</ele><time>2026-04-19T09:22:03Z</time></trkpt><trkpt lat="40.41963287987574" lon="18.25688248345015"><ele>2.0</ele><time>2026-04-19T09:22:05Z</time></trkpt><trkpt lat="40.419728001152365" lon="18.256815166776395"><ele>2.0</ele><time>2026-04-19T09:22:07Z</time></trkpt><trkpt lat="40.4198201009225" lon="18.256760571176894"><ele>1.9999999999999998</ele><time>2026-04-19T09:22:09Z</time></trkpt><trkpt lat="40.41989925160407" lon="18.256706221562187"><ele>2.0</ele><time>2026-04-19T09:22:11Z</time></trkpt><trkpt lat="40.42001699874315" lon="18.256675976860524"><ele>2.0</ele><time>2026-04-19T09:22:13Z</time></trkpt><trkpt lat="40.42008672722954" lon="18.25667917540959"><ele>2.0</ele><time>2026-04-19T09:22:14Z</time></trkpt><trkpt lat="40.420156315387516" lon="18.256689108132978"><ele>1.9999999999999998</ele><time>2026-04-19T09:22:15Z</time></trkpt><trkpt lat="40.42024779445135" lon="18.256727798948404"><ele>2.0</ele><time>2026-04-19T09:22:17Z</time></trkpt><trkpt lat="40.42031224922641" lon="18.256728478638337"><ele>2.0</ele><time>2026-04-19T09:22:20Z</time></trkpt><trkpt lat="40.42032813879618" lon="18.256597213613237"><ele>2.0</ele><time>2026-04-19T09:22:37Z</time></trkpt><trkpt lat="40.42031027764839" lon="18.256471867703098"><ele>2.0</ele><time>2026-04-19T09:22:39Z</time></trkpt><trkpt lat="40.420291097691546" lon="18.256308736020106"><ele>2.0</ele><time>2026-04-19T09:22:41Z</time></trkpt><trkpt lat="40.42025686068934" lon="18.2561522099186"><ele>2.0</ele><time>2026-04-19T09:22:43Z</time></trkpt><trkpt lat="40.420237619698426" lon="18.256067291191854"><ele>1.9999999999999998</ele><time>2026-04-19T09:22:44Z</time></trkpt><trkpt lat="40.42021629482767" lon="18.255980546250925"><ele>2.0</ele><time>2026-04-19T09:22:45Z</time></trkpt><trkpt lat="40.420196284829615" lon="18.25589235999017"><ele>2.0</ele><time>2026-04-19T09:22:46Z</time></trkpt><trkpt lat="40.420175245753214" lon="18.25580499433821"><ele>2.0</ele><time>2026-04-19T09:22:47Z</time></trkpt><trkpt lat="40.420160918675045" lon="18.25571787912812"><ele>1.9999999999999998</ele><time>2026-04-19T09:22:48Z</time></trkpt><trkpt lat="40.42012876655697" lon="18.25556304406709"><ele>2.0</ele><time>2026-04-19T09:22:50Z</time></trkpt><trkpt lat="40.42011672340128" lon="18.25546024803571"><ele>2.142857142857143</ele><time>2026-04-19T09:22:51Z</time></trkpt><trkpt lat="40.420093534408544" lon="18.255341958287442"><ele>2.2857142857142856</ele><time>2026-04-19T09:22:52Z</time></trkpt><trkpt lat="40.420074513260616" lon="18.255242926736436"><ele>2.4285714285714284</ele><time>2026-04-19T09:22:53Z</time></trkpt><trkpt lat="40.42005513237127" lon="18.255161244864635"><ele>2.571428571428571</ele><time>2026-04-19T09:22:54Z</time></trkpt><trkpt lat="40.42003610592725" lon="18.25508065707251"><ele>2.7142857142857144</ele><time>2026-04-19T09:22:55Z</time></trkpt><trkpt lat="40.42001404566492" lon="18.254987667951223"><ele>2.8571428571428568</ele><time>2026-04-19T09:22:56Z</time></trkpt><trkpt lat="40.41999011599574" lon="18.254897122114947"><ele>3.0</ele><time>2026-04-19T09:22:57Z</time></trkpt><trkpt lat="40.419974999356654" lon="18.25481104708693"><ele>3.0</ele><time>2026-04-19T09:22:58Z</time></trkpt><trkpt lat="40.419954571058966" lon="18.254713758421527"><ele>3.0</ele><time>2026-04-19T09:22:59Z</time></trkpt><trkpt lat="40.41993230775399" lon="18.254613066848442"><ele>3.0</ele><time>2026-04-19T09:23:00Z</time></trkpt><trkpt lat="40.41991169588705" lon="18.25451451982587"><ele>3.0</ele><time>2026-04-19T09:23:00.999Z</time></trkpt><trkpt lat="40.41988600024707" lon="18.254418487293876"><ele>3.0</ele><time>2026-04-19T09:23:01.999Z</time></trkpt><trkpt lat="40.4198695005635" lon="18.254332162093938"><ele>3.0</ele><time>2026-04-19T09:23:02.999Z</time></trkpt><trkpt lat="40.419834391353184" lon="18.254245471731924"><ele>3.0</ele><time>2026-04-19T09:23:03.999Z</time></trkpt><trkpt lat="40.419809770981814" lon="18.254152536166696"><ele>3.0</ele><time>2026-04-19T09:23:04.999Z</time></trkpt><trkpt lat="40.419759161712825" lon="18.254050090580208"><ele>3.0</ele><time>2026-04-19T09:23:05.999Z</time></trkpt><trkpt lat="40.41971421729281" lon="18.253939002329297"><ele>3.0</ele><time>2026-04-19T09:23:06.999Z</time></trkpt><trkpt lat="40.41965742161924" lon="18.253824506193634"><ele>3.0</ele><time>2026-04-19T09:23:07.999Z</time></trkpt><trkpt lat="40.419594995613956" lon="18.253703172464203"><ele>3.25</ele><time>2026-04-19T09:23:08.999Z</time></trkpt><trkpt lat="40.41951839682496" lon="18.253584221671158"><ele>3.5</ele><time>2026-04-19T09:23:09.999Z</time></trkpt><trkpt lat="40.41945159034381" lon="18.253440339274757"><ele>3.75</ele><time>2026-04-19T09:23:10.999Z</time></trkpt><trkpt lat="40.41935983187501" lon="18.253295291300955"><ele>4.0</ele><time>2026-04-19T09:23:11.999Z</time></trkpt><trkpt lat="40.41930547326713" lon="18.253158794449014"><ele>4.0</ele><time>2026-04-19T09:23:12.999Z</time></trkpt><trkpt lat="40.419239467770495" lon="18.253031021266764"><ele>4.0</ele><time>2026-04-19T09:23:13.999Z</time></trkpt><trkpt lat="40.41917157068856" lon="18.25290309073929"><ele>4.0</ele><time>2026-04-19T09:23:14.999Z</time></trkpt><trkpt lat="40.41911066433095" lon="18.25277191652834"><ele>4.0</ele><time>2026-04-19T09:23:15.999Z</time></trkpt><trkpt lat="40.41905243965721" lon="18.252651190466008"><ele>4.0</ele><time>2026-04-19T09:23:16.999Z</time></trkpt><trkpt lat="40.418998261811375" lon="18.2525428774556"><ele>4.0</ele><time>2026-04-19T09:23:17.999Z</time></trkpt><trkpt lat="40.418941423210576" lon="18.252426752052575"><ele>4.0</ele><time>2026-04-19T09:23:18.999Z</time></trkpt><trkpt lat="40.418876247396256" lon="18.25230968538678"><ele>4.0</ele><time>2026-04-19T09:23:19.999Z</time></trkpt><trkpt lat="40.418819689091926" lon="18.25219770059869"><ele>4.0</ele><time>2026-04-19T09:23:20.999Z</time></trkpt><trkpt lat="40.41876983947808" lon="18.252086856419233"><ele>4.166666666666666</ele><time>2026-04-19T09:23:21.999Z</time></trkpt><trkpt lat="40.41871762352782" lon="18.251982161943086"><ele>4.333333333333333</ele><time>2026-04-19T09:23:22.999Z</time></trkpt><trkpt lat="40.41867747799041" lon="18.251891038549676"><ele>4.5</ele><time>2026-04-19T09:23:23.999Z</time></trkpt><trkpt lat="40.41864303434437" lon="18.251810450235183"><ele>4.666666666666667</ele><time>2026-04-19T09:23:24.999Z</time></trkpt><trkpt lat="40.418604924783494" lon="18.251725772390994"><ele>4.833333333333334</ele><time>2026-04-19T09:23:25.999Z</time></trkpt><trkpt lat="40.41856029375737" lon="18.251635048681774"><ele>5.0</ele><time>2026-04-19T09:23:26.999Z</time></trkpt><trkpt lat="40.41851436809611" lon="18.251537875688257"><ele>5.166666666666667</ele><time>2026-04-19T09:23:27.999Z</time></trkpt><trkpt lat="40.41847776880559" lon="18.251438413019116"><ele>5.333333333333334</ele><time>2026-04-19T09:23:28.999Z</time></trkpt><trkpt lat="40.41842945429787" lon="18.25133898743753"><ele>5.5</ele><time>2026-04-19T09:23:29.999Z</time></trkpt><trkpt lat="40.41838596274807" lon="18.25124020849267"><ele>5.666666666666667</ele><time>2026-04-19T09:23:30.999Z</time></trkpt><trkpt lat="40.41834143416949" lon="18.251140928897545"><ele>5.833333333333333</ele><time>2026-04-19T09:23:31.999Z</time></trkpt><trkpt lat="40.41829349561044" lon="18.251046550241355"><ele>6.0</ele><time>2026-04-19T09:23:32.999Z</time></trkpt><trkpt lat="40.41824785839379" lon="18.250954346456616"><ele>6.0</ele><time>2026-04-19T09:23:33.999Z</time></trkpt><trkpt lat="40.41820917092112" lon="18.2508644866946"><ele>6.0</ele><time>2026-04-19T09:23:34.999Z</time></trkpt><trkpt lat="40.418163112664146" lon="18.25076648190074"><ele>6.0</ele><time>2026-04-19T09:23:35.999Z</time></trkpt><trkpt lat="40.41812961890957" lon="18.250686192264457"><ele>6.0</ele><time>2026-04-19T09:23:36.999Z</time></trkpt><trkpt lat="40.41808261642663" lon="18.250574809962174"><ele>6.0</ele><time>2026-04-19T09:23:38.999Z</time></trkpt><trkpt lat="40.41805964623878" lon="18.25048166617013"><ele>6.0</ele><time>2026-04-19T09:23:41.999Z</time></trkpt><trkpt lat="40.41802800163808" lon="18.25039751917657"><ele>5.6</ele><time>2026-04-19T09:23:49.999Z</time></trkpt><trkpt lat="40.41796513795954" lon="18.250296570577248"><ele>5.199999999999999</ele><time>2026-04-19T09:23:51.999Z</time></trkpt><trkpt lat="40.4178829545295" lon="18.250146511462447"><ele>4.800000000000001</ele><time>2026-04-19T09:23:53.999Z</time></trkpt><trkpt lat="40.4178329413375" lon="18.250045081398746"><ele>4.4</ele><time>2026-04-19T09:23:54.999Z</time></trkpt><trkpt lat="40.41778443116885" lon="18.24994354961303"><ele>4.0</ele><time>2026-04-19T09:23:55.999Z</time></trkpt><trkpt lat="40.417733094125474" lon="18.249834666493822"><ele>4.5</ele><time>2026-04-19T09:23:56.999Z</time></trkpt><trkpt lat="40.41768027281551" lon="18.249722635347204"><ele>5.0</ele><time>2026-04-19T09:23:57.999Z</time></trkpt><trkpt lat="40.41763765819834" lon="18.249631988554476"><ele>5.5</ele><time>2026-04-19T09:23:58.999Z</time></trkpt><trkpt lat="40.417595179900516" lon="18.249541543723087"><ele>6.0</ele><time>2026-04-19T09:23:59.999Z</time></trkpt><trkpt lat="40.41754730394741" lon="18.249439606243776"><ele>6.500000000000001</ele><time>2026-04-19T09:24:00.999Z</time></trkpt><trkpt lat="40.41749840528093" lon="18.249335491149424"><ele>7.0</ele><time>2026-04-19T09:24:01.999Z</time></trkpt><trkpt lat="40.41745034107007" lon="18.24923315279778"><ele>7.000000000000001</ele><time>2026-04-19T09:24:02.999Z</time></trkpt><trkpt lat="40.41740264624379" lon="18.249131600970237"><ele>7.0</ele><time>2026-04-19T09:24:03.999Z</time></trkpt><trkpt lat="40.417345405908925" lon="18.24903439139394"><ele>7.0</ele><time>2026-04-19T09:24:04.999Z</time></trkpt><trkpt lat="40.41729388819516" lon="18.248937907822572"><ele>7.0</ele><time>2026-04-19T09:24:05.999Z</time></trkpt><trkpt lat="40.417255372469086" lon="18.248849357771018"><ele>7.000000000000001</ele><time>2026-04-19T09:24:06.999Z</time></trkpt><trkpt lat="40.41721726704196" lon="18.248754453399652"><ele>7.0</ele><time>2026-04-19T09:24:07.999Z</time></trkpt><trkpt lat="40.41717512766243" lon="18.24866209048835"><ele>6.833333333333334</ele><time>2026-04-19T09:24:08.999Z</time></trkpt><trkpt lat="40.417129792799614" lon="18.24856378022232"><ele>6.666666666666667</ele><time>2026-04-19T09:24:09.999Z</time></trkpt><trkpt lat="40.41708781903186" lon="18.248480382347747"><ele>6.5</ele><time>2026-04-19T09:24:10.999Z</time></trkpt><trkpt lat="40.41705409031986" lon="18.248408354780388"><ele>6.333333333333334</ele><time>2026-04-19T09:24:11.999Z</time></trkpt><trkpt lat="40.417003734519945" lon="18.2482739085636"><ele>6.166666666666667</ele><time>2026-04-19T09:24:13.999Z</time></trkpt><trkpt lat="40.416981250314485" lon="18.24818319598634"><ele>6.0</ele><time>2026-04-19T09:24:15.999Z</time></trkpt><trkpt lat="40.417074537882264" lon="18.24811764969566"><ele>6.0</ele><time>2026-04-19T09:24:17.999Z</time></trkpt><trkpt lat="40.417134073740435" lon="18.248072301490556"><ele>6.0</ele><time>2026-04-19T09:24:18.999Z</time></trkpt><trkpt lat="40.41720306467865" lon="18.248019751383545"><ele>6.0</ele><time>2026-04-19T09:24:19.999Z</time></trkpt><trkpt lat="40.41728226887566" lon="18.24795942197517"><ele>6.0</ele><time>2026-04-19T09:24:20.999Z</time></trkpt><trkpt lat="40.417366519750836" lon="18.247898420811556"><ele>6.0</ele><time>2026-04-19T09:24:21.999Z</time></trkpt><trkpt lat="40.417468155470644" lon="18.247819757436506"><ele>6.0</ele><time>2026-04-19T09:24:22.999Z</time></trkpt><trkpt lat="40.417578020939125" lon="18.247768701259943"><ele>6.0</ele><time>2026-04-19T09:24:23.999Z</time></trkpt><trkpt lat="40.417671920950696" lon="18.24770646613498"><ele>6.0</ele><time>2026-04-19T09:24:24.999Z</time></trkpt><trkpt lat="40.41778036626259" lon="18.247649410390203"><ele>6.0</ele><time>2026-04-19T09:24:25.999Z</time></trkpt><trkpt lat="40.41788771237539" lon="18.24760303154204"><ele>6.0</ele><time>2026-04-19T09:24:26.999Z</time></trkpt><trkpt lat="40.417987175037155" lon="18.24755855230159"><ele>6.0</ele><time>2026-04-19T09:24:27.999Z</time></trkpt><trkpt lat="40.41808598343489" lon="18.247497790965514"><ele>6.0</ele><time>2026-04-19T09:24:28.999Z</time></trkpt><trkpt lat="40.41818547527876" lon="18.24745307088548"><ele>6.0</ele><time>2026-04-19T09:24:29.999Z</time></trkpt><trkpt lat="40.418268993225794" lon="18.247363866093696"><ele>6.0</ele><time>2026-04-19T09:24:30.999Z</time></trkpt><trkpt lat="40.418340913536916" lon="18.247281838466993"><ele>6.0</ele><time>2026-04-19T09:24:31.999Z</time></trkpt><trkpt lat="40.41842115135514" lon="18.24721867387179"><ele>6.0</ele><time>2026-04-19T09:24:32.999Z</time></trkpt><trkpt lat="40.41849590511274" lon="18.247135988050303"><ele>6.0</ele><time>2026-04-19T09:24:33.999Z</time></trkpt><trkpt lat="40.41857386928321" lon="18.247054160976134"><ele>6.0</ele><time>2026-04-19T09:24:34.999Z</time></trkpt><trkpt lat="40.418649377916545" lon="18.24696955839023"><ele>6.0</ele><time>2026-04-19T09:24:35.999Z</time></trkpt><trkpt lat="40.41872736361189" lon="18.246887091322527"><ele>6.0</ele><time>2026-04-19T09:24:36.999Z</time></trkpt><trkpt lat="40.41880713545436" lon="18.246805393097148"><ele>6.0</ele><time>2026-04-19T09:24:37.999Z</time></trkpt><trkpt lat="40.4188827054862" lon="18.24672272851278"><ele>6.0</ele><time>2026-04-19T09:24:38.999Z</time></trkpt><trkpt lat="40.41895847185061" lon="18.2466282045861"><ele>6.0</ele><time>2026-04-19T09:24:39.999Z</time></trkpt><trkpt lat="40.41903470607341" lon="18.246535518993053"><ele>6.0</ele><time>2026-04-19T09:24:40.999Z</time></trkpt><trkpt lat="40.419110355373995" lon="18.246434864292173"><ele>6.5</ele><time>2026-04-19T09:24:41.999Z</time></trkpt><trkpt lat="40.41919089920477" lon="18.246329381703063"><ele>7.0</ele><time>2026-04-19T09:24:42.999Z</time></trkpt><trkpt lat="40.4192730905024" lon="18.24622505731007"><ele>7.5</ele><time>2026-04-19T09:24:43.999Z</time></trkpt><trkpt lat="40.419355468120244" lon="18.24612340576388"><ele>8.0</ele><time>2026-04-19T09:24:44.999Z</time></trkpt><trkpt lat="40.41943802344359" lon="18.246015878521117"><ele>8.0</ele><time>2026-04-19T09:24:45.999Z</time></trkpt><trkpt lat="40.41952109784796" lon="18.245912335421778"><ele>8.0</ele><time>2026-04-19T09:24:46.999Z</time></trkpt><trkpt lat="40.41960558603337" lon="18.24580940343525"><ele>8.0</ele><time>2026-04-19T09:24:47.999Z</time></trkpt><trkpt lat="40.419693028210276" lon="18.245705833971304"><ele>8.0</ele><time>2026-04-19T09:24:48.999Z</time></trkpt><trkpt lat="40.41977605670681" lon="18.24559190809941"><ele>7.800000000000001</ele><time>2026-04-19T09:24:49.999Z</time></trkpt><trkpt lat="40.41984298874239" lon="18.24546283748518"><ele>7.6000000000000005</ele><time>2026-04-19T09:24:50.999Z</time></trkpt><trkpt lat="40.419898431940254" lon="18.245335960100217"><ele>7.3999999999999995</ele><time>2026-04-19T09:24:51.999Z</time></trkpt><trkpt lat="40.419928232693124" lon="18.24520004098844"><ele>7.199999999999999</ele><time>2026-04-19T09:24:52.999Z</time></trkpt><trkpt lat="40.41994562395583" lon="18.245073028634785"><ele>7.0</ele><time>2026-04-19T09:24:53.999Z</time></trkpt><trkpt lat="40.419997713892705" lon="18.24497571403831"><ele>7.0</ele><time>2026-04-19T09:24:54.999Z</time></trkpt><trkpt lat="40.420051609638975" lon="18.244866700915846"><ele>6.999999999999999</ele><time>2026-04-19T09:24:55.999Z</time></trkpt><trkpt lat="40.420105520872504" lon="18.24476129075794"><ele>6.999999999999999</ele><time>2026-04-19T09:24:56.999Z</time></trkpt><trkpt lat="40.42020615154041" lon="18.24469471566773"><ele>7.0</ele><time>2026-04-19T09:24:57.999Z</time></trkpt><trkpt lat="40.42029935246304" lon="18.244610399538733"><ele>7.0</ele><time>2026-04-19T09:24:58.999Z</time></trkpt><trkpt lat="40.42039389721048" lon="18.244524867438717"><ele>7.75</ele><time>2026-04-19T09:24:59.999Z</time></trkpt><trkpt lat="40.420494613108026" lon="18.244436470915545"><ele>8.5</ele><time>2026-04-19T09:25:00.999Z</time></trkpt><trkpt lat="40.42059929326691" lon="18.244352305137426"><ele>9.25</ele><time>2026-04-19T09:25:01.999Z</time></trkpt><trkpt lat="40.42070622120734" lon="18.244279194741413"><ele>10.0</ele><time>2026-04-19T09:25:02.999Z</time></trkpt><trkpt lat="40.4208233781962" lon="18.244203407955208"><ele>10.0</ele><time>2026-04-19T09:25:03.999Z</time></trkpt><trkpt lat="40.420942320231006" lon="18.244129411455226"><ele>10.0</ele><time>2026-04-19T09:25:04.999Z</time></trkpt><trkpt lat="40.42106076549238" lon="18.24405576674734"><ele>10.0</ele><time>2026-04-19T09:25:05.999Z</time></trkpt><trkpt lat="40.42117905502062" lon="18.243982218680273"><ele>10.0</ele><time>2026-04-19T09:25:06.999Z</time></trkpt><trkpt lat="40.42131612743217" lon="18.243896026680822"><ele>10.0</ele><time>2026-04-19T09:25:07.999Z</time></trkpt><trkpt lat="40.421439878055345" lon="18.243815295025346"><ele>10.0</ele><time>2026-04-19T09:25:08.999Z</time></trkpt><trkpt lat="40.42153912796312" lon="18.243727184059818"><ele>10.0</ele><time>2026-04-19T09:25:09.999Z</time></trkpt><trkpt lat="40.421615314208026" lon="18.243681604045957"><ele>10.0</ele><time>2026-04-19T09:25:10.999Z</time></trkpt><trkpt lat="40.4216774681389" lon="18.243620773737575"><ele>10.0</ele><time>2026-04-19T09:25:11.999Z</time></trkpt><trkpt lat="40.421751492084674" lon="18.243566095372284"><ele>10.0</ele><time>2026-04-19T09:25:12.999Z</time></trkpt><trkpt lat="40.42182094381134" lon="18.24348135173665"><ele>10.0</ele><time>2026-04-19T09:25:13.999Z</time></trkpt><trkpt lat="40.421903079199275" lon="18.243398057781427"><ele>10.0</ele><time>2026-04-19T09:25:14.999Z</time></trkpt><trkpt lat="40.42199246277617" lon="18.243309822877574"><ele>10.0</ele><time>2026-04-19T09:25:15.999Z</time></trkpt><trkpt lat="40.42209134173687" lon="18.243215680113785"><ele>10.0</ele><time>2026-04-19T09:25:16.999Z</time></trkpt><trkpt lat="40.42218765511777" lon="18.243117171696422"><ele>9.6</ele><time>2026-04-19T09:25:17.999Z</time></trkpt><trkpt lat="40.42227525865212" lon="18.243025852612092"><ele>9.2</ele><time>2026-04-19T09:25:18.999Z</time></trkpt><trkpt lat="40.422366734222656" lon="18.242937848636828"><ele>8.8</ele><time>2026-04-19T09:25:19.999Z</time></trkpt><trkpt lat="40.42245187285986" lon="18.242859287747187"><ele>8.4</ele><time>2026-04-19T09:25:20.999Z</time></trkpt><trkpt lat="40.42253267184673" lon="18.242782423371903"><ele>8.0</ele><time>2026-04-19T09:25:21.999Z</time></trkpt><trkpt lat="40.42261804327935" lon="18.242706502655466"><ele>8.0</ele><time>2026-04-19T09:25:22.999Z</time></trkpt><trkpt lat="40.42271233027034" lon="18.242636098007498"><ele>8.0</ele><time>2026-04-19T09:25:23.999Z</time></trkpt><trkpt lat="40.42281791355188" lon="18.242569279870537"><ele>8.0</ele><time>2026-04-19T09:25:24.999Z</time></trkpt><trkpt lat="40.42292779635562" lon="18.242506140574566"><ele>8.0</ele><time>2026-04-19T09:25:25.999Z</time></trkpt><trkpt lat="40.423043498400766" lon="18.242441563855312"><ele>8.25</ele><time>2026-04-19T09:25:26.999Z</time></trkpt><trkpt lat="40.42315132509225" lon="18.242379835226373"><ele>8.5</ele><time>2026-04-19T09:25:27.999Z</time></trkpt><trkpt lat="40.42324950526238" lon="18.242320601478298"><ele>8.75</ele><time>2026-04-19T09:25:28.999Z</time></trkpt><trkpt lat="40.42335801626192" lon="18.24225503348995"><ele>9.0</ele><time>2026-04-19T09:25:29.999Z</time></trkpt><trkpt lat="40.423471706976784" lon="18.242190930829523"><ele>9.0</ele><time>2026-04-19T09:25:30.999Z</time></trkpt><trkpt lat="40.42358650222856" lon="18.242128189184868"><ele>9.0</ele><time>2026-04-19T09:25:31.999Z</time></trkpt><trkpt lat="40.42369105809186" lon="18.242067566052665"><ele>9.0</ele><time>2026-04-19T09:25:32.999Z</time></trkpt><trkpt lat="40.42379431928826" lon="18.242004590623658"><ele>9.0</ele><time>2026-04-19T09:25:33.999Z</time></trkpt><trkpt lat="40.423900111288226" lon="18.24194016872431"><ele>9.0</ele><time>2026-04-19T09:25:34.999Z</time></trkpt><trkpt lat="40.423976619086176" lon="18.24189419889825"><ele>9.0</ele><time>2026-04-19T09:25:35.999Z</time></trkpt><trkpt lat="40.42408375549317" lon="18.24182217467051"><ele>9.0</ele><time>2026-04-19T09:25:37.999Z</time></trkpt><trkpt lat="40.42414922229594" lon="18.241802529004048"><ele>9.0</ele><time>2026-04-19T09:25:38.999Z</time></trkpt><trkpt lat="40.424154177648035" lon="18.24164718240586"><ele>9.0</ele><time>2026-04-19T09:25:39.999Z</time></trkpt><trkpt lat="40.42416457721139" lon="18.24151914472572"><ele>8.666666666666666</ele><time>2026-04-19T09:25:40.999Z</time></trkpt><trkpt lat="40.42417128126023" lon="18.241388803883254"><ele>8.333333333333334</ele><time>2026-04-19T09:25:41.999Z</time></trkpt><trkpt lat="40.42420537261161" lon="18.241295779787784"><ele>8.0</ele><time>2026-04-19T09:25:42.999Z</time></trkpt><trkpt lat="40.42421475337889" lon="18.24120039048086"><ele>7.666666666666667</ele><time>2026-04-19T09:25:43.999Z</time></trkpt><trkpt lat="40.42425624900558" lon="18.24109337516549"><ele>7.333333333333334</ele><time>2026-04-19T09:25:44.999Z</time></trkpt><trkpt lat="40.424315413008785" lon="18.240986408579523"><ele>7.0</ele><time>2026-04-19T09:25:45.999Z</time></trkpt><trkpt lat="40.4243856352857" lon="18.24088216212937"><ele>7.0</ele><time>2026-04-19T09:25:46.999Z</time></trkpt><trkpt lat="40.42446893607591" lon="18.240789759612667"><ele>6.999999999999999</ele><time>2026-04-19T09:25:47.999Z</time></trkpt><trkpt lat="40.4245490238445" lon="18.24072730408499"><ele>6.999999999999999</ele><time>2026-04-19T09:25:48.999Z</time></trkpt><trkpt lat="40.424625376893346" lon="18.240669564639326"><ele>7.0</ele><time>2026-04-19T09:25:49.999Z</time></trkpt><trkpt lat="40.42470606006883" lon="18.240617168890786"><ele>7.0</ele><time>2026-04-19T09:25:50.999Z</time></trkpt><trkpt lat="40.42477564087132" lon="18.24057340920587"><ele>7.000000000000001</ele><time>2026-04-19T09:25:51.999Z</time></trkpt><trkpt lat="40.424845435610145" lon="18.240534881705802"><ele>7.0</ele><time>2026-04-19T09:25:52.999Z</time></trkpt><trkpt lat="40.424904441330575" lon="18.240492869908117"><ele>7.0</ele><time>2026-04-19T09:25:53.999Z</time></trkpt><trkpt lat="40.42497253808836" lon="18.240437167296225"><ele>7.0</ele><time>2026-04-19T09:25:54.999Z</time></trkpt><trkpt lat="40.42503697164417" lon="18.240408804938443"><ele>7.000000000000001</ele><time>2026-04-19T09:25:55.999Z</time></trkpt><trkpt lat="40.42509523422052" lon="18.24036766794762"><ele>7.0</ele><time>2026-04-19T09:25:56.999Z</time></trkpt><trkpt lat="40.425186731642206" lon="18.24030306498051"><ele>7.0</ele><time>2026-04-19T09:25:58.999Z</time></trkpt><trkpt lat="40.42511062330686" lon="18.23998169075357"><ele>7.0</ele><time>2026-04-19T09:26:00.999Z</time></trkpt><trkpt lat="40.42506925719232" lon="18.239859669386266"><ele>7.0</ele><time>2026-04-19T09:26:01.999Z</time></trkpt><trkpt lat="40.4250357982686" lon="18.239760972924383"><ele>7.0</ele><time>2026-04-19T09:26:02.999Z</time></trkpt><trkpt lat="40.42500405955865" lon="18.239675579264212"><ele>6.8</ele><time>2026-04-19T09:26:03.999Z</time></trkpt><trkpt lat="40.42492919734781" lon="18.239532761591395"><ele>6.6</ele><time>2026-04-19T09:26:05.999Z</time></trkpt><trkpt lat="40.4249234264568" lon="18.239417266275886"><ele>6.3999999999999995</ele><time>2026-04-19T09:26:06.999Z</time></trkpt><trkpt lat="40.42485260167434" lon="18.23930752582191"><ele>6.199999999999999</ele><time>2026-04-19T09:26:07.999Z</time></trkpt><trkpt lat="40.42481155316779" lon="18.239199724446294"><ele>6.0</ele><time>2026-04-19T09:26:08.999Z</time></trkpt><trkpt lat="40.42476863985965" lon="18.239092375597732"><ele>6.0</ele><time>2026-04-19T09:26:09.999Z</time></trkpt><trkpt lat="40.42472575364878" lon="18.238971028909987"><ele>6.0</ele><time>2026-04-19T09:26:10.998Z</time></trkpt><trkpt lat="40.424684950533795" lon="18.238842490115648"><ele>6.0</ele><time>2026-04-19T09:26:11.998Z</time></trkpt><trkpt lat="40.4246434194914" lon="18.238714073922058"><ele>6.0</ele><time>2026-04-19T09:26:12.998Z</time></trkpt><trkpt lat="40.42460296436283" lon="18.238596165339214"><ele>6.0</ele><time>2026-04-19T09:26:13.998Z</time></trkpt><trkpt lat="40.42456157910071" lon="18.238466991235377"><ele>6.0</ele><time>2026-04-19T09:26:14.998Z</time></trkpt><trkpt lat="40.42452250711408" lon="18.238351448674468"><ele>6.0</ele><time>2026-04-19T09:26:15.998Z</time></trkpt><trkpt lat="40.42448123386053" lon="18.23823651415709"><ele>6.0</ele><time>2026-04-19T09:26:16.998Z</time></trkpt><trkpt lat="40.42444277136396" lon="18.238115559783182"><ele>6.0</ele><time>2026-04-19T09:26:17.998Z</time></trkpt><trkpt lat="40.42439902919494" lon="18.23799552754847"><ele>6.0</ele><time>2026-04-19T09:26:18.998Z</time></trkpt><trkpt lat="40.424358693845804" lon="18.237879783516806"><ele>6.0</ele><time>2026-04-19T09:26:19.999Z</time></trkpt><trkpt lat="40.42432882805721" lon="18.23775355579251"><ele>6.0</ele><time>2026-04-19T09:26:20.999Z</time></trkpt><trkpt lat="40.42427868738533" lon="18.23761780954678"><ele>6.0</ele><time>2026-04-19T09:26:21.999Z</time></trkpt><trkpt lat="40.42422738930516" lon="18.237495024055093"><ele>6.0</ele><time>2026-04-19T09:26:22.999Z</time></trkpt><trkpt lat="40.42418872256533" lon="18.23737331262938"><ele>6.0</ele><time>2026-04-19T09:26:23.999Z</time></trkpt><trkpt lat="40.42413495061762" lon="18.237245146637964"><ele>6.0</ele><time>2026-04-19T09:26:24.999Z</time></trkpt><trkpt lat="40.424102785855254" lon="18.23710397486716"><ele>6.0</ele><time>2026-04-19T09:26:25.999Z</time></trkpt><trkpt lat="40.4240560016966" lon="18.23696947556282"><ele>6.0</ele><time>2026-04-19T09:26:26.999Z</time></trkpt><trkpt lat="40.42399312241079" lon="18.23683803897985"><ele>6.0</ele><time>2026-04-19T09:26:27.999Z</time></trkpt><trkpt lat="40.42394539595991" lon="18.236699378428263"><ele>6.0</ele><time>2026-04-19T09:26:28.999Z</time></trkpt><trkpt lat="40.42389703788406" lon="18.2365619777236"><ele>6.0</ele><time>2026-04-19T09:26:29.999Z</time></trkpt><trkpt lat="40.42385474921002" lon="18.23643142252833"><ele>6.0</ele><time>2026-04-19T09:26:30.999Z</time></trkpt><trkpt lat="40.423809086798514" lon="18.2362937531338"><ele>6.0</ele><time>2026-04-19T09:26:31.999Z</time></trkpt><trkpt lat="40.42376172210544" lon="18.23615993503952"><ele>6.0</ele><time>2026-04-19T09:26:32.999Z</time></trkpt><trkpt lat="40.423714261956604" lon="18.23602383143684"><ele>6.0</ele><time>2026-04-19T09:26:33.999Z</time></trkpt><trkpt lat="40.42366893211753" lon="18.235887384771203"><ele>6.0</ele><time>2026-04-19T09:26:34.999Z</time></trkpt><trkpt lat="40.42362627062703" lon="18.235754549465433"><ele>6.0</ele><time>2026-04-19T09:26:35.999Z</time></trkpt><trkpt lat="40.42358439790251" lon="18.235628571182787"><ele>6.0</ele><time>2026-04-19T09:26:36.999Z</time></trkpt><trkpt lat="40.42353766918555" lon="18.235501209029017"><ele>6.0</ele><time>2026-04-19T09:26:37.999Z</time></trkpt><trkpt lat="40.423493937317254" lon="18.235373873166264"><ele>6.0</ele><time>2026-04-19T09:26:38.999Z</time></trkpt><trkpt lat="40.42345460931299" lon="18.23525339564709"><ele>6.0</ele><time>2026-04-19T09:26:39.999Z</time></trkpt><trkpt lat="40.42341765696452" lon="18.235149031012323"><ele>6.0</ele><time>2026-04-19T09:26:40.999Z</time></trkpt><trkpt lat="40.423380732329406" lon="18.23503933766468"><ele>6.0</ele><time>2026-04-19T09:26:41.999Z</time></trkpt><trkpt lat="40.42333817846965" lon="18.234920900431014"><ele>6.6</ele><time>2026-04-19T09:26:42.999Z</time></trkpt><trkpt lat="40.42329796444527" lon="18.23480286668632"><ele>7.199999999999999</ele><time>2026-04-19T09:26:43.999Z</time></trkpt><trkpt lat="40.4232600144464" lon="18.2346873706526"><ele>7.800000000000001</ele><time>2026-04-19T09:26:44.999Z</time></trkpt><trkpt lat="40.42321869888356" lon="18.23456241416677"><ele>8.4</ele><time>2026-04-19T09:26:45.999Z</time></trkpt><trkpt lat="40.423171229360605" lon="18.234432536806384"><ele>9.0</ele><time>2026-04-19T09:26:46.999Z</time></trkpt><trkpt lat="40.42312538477481" lon="18.234296688754494"><ele>9.0</ele><time>2026-04-19T09:26:47.999Z</time></trkpt><trkpt lat="40.423080625125074" lon="18.23416278042431"><ele>9.0</ele><time>2026-04-19T09:26:48.999Z</time></trkpt><trkpt lat="40.42303694190085" lon="18.234032822006032"><ele>9.0</ele><time>2026-04-19T09:26:49.999Z</time></trkpt><trkpt lat="40.42299052581059" lon="18.233893713487095"><ele>9.0</ele><time>2026-04-19T09:26:50.999Z</time></trkpt><trkpt lat="40.422940705584246" lon="18.233749835774557"><ele>10.0</ele><time>2026-04-19T09:26:51.999Z</time></trkpt><trkpt lat="40.42289150709021" lon="18.23361571258942"><ele>11.0</ele><time>2026-04-19T09:26:52.999Z</time></trkpt><trkpt lat="40.42284359346755" lon="18.23346400052434"><ele>12.0</ele><time>2026-04-19T09:26:53.999Z</time></trkpt><trkpt lat="40.422791696692194" lon="18.23330752098398"><ele>13.0</ele><time>2026-04-19T09:26:54.999Z</time></trkpt><trkpt lat="40.42273748375051" lon="18.233151557124334"><ele>13.25</ele><time>2026-04-19T09:26:55.999Z</time></trkpt><trkpt lat="40.422689689083015" lon="18.23301019929776"><ele>13.5</ele><time>2026-04-19T09:26:56.999Z</time></trkpt><trkpt lat="40.42264017978309" lon="18.23286755932964"><ele>13.75</ele><time>2026-04-19T09:26:57.999Z</time></trkpt><trkpt lat="40.42259975801943" lon="18.232736924542746"><ele>14.0</ele><time>2026-04-19T09:26:58.999Z</time></trkpt><trkpt lat="40.42255397541001" lon="18.232610913455673"><ele>14.0</ele><time>2026-04-19T09:26:59.999Z</time></trkpt><trkpt lat="40.42251244225926" lon="18.2324908058756"><ele>13.999999999999998</ele><time>2026-04-19T09:27:00.999Z</time></trkpt><trkpt lat="40.4224760329868" lon="18.232381723177703"><ele>13.999999999999998</ele><time>2026-04-19T09:27:01.999Z</time></trkpt><trkpt lat="40.42243938539831" lon="18.232275288263864"><ele>14.0</ele><time>2026-04-19T09:27:02.999Z</time></trkpt><trkpt lat="40.4224067566305" lon="18.23216953980997"><ele>14.0</ele><time>2026-04-19T09:27:03.999Z</time></trkpt><trkpt lat="40.422372454633674" lon="18.232066692391168"><ele>13.799999999999999</ele><time>2026-04-19T09:27:04.999Z</time></trkpt><trkpt lat="40.422334170224666" lon="18.231961069437965"><ele>13.599999999999998</ele><time>2026-04-19T09:27:05.999Z</time></trkpt><trkpt lat="40.42228850876912" lon="18.231852916961625"><ele>13.4</ele><time>2026-04-19T09:27:06.999Z</time></trkpt><trkpt lat="40.42224953651019" lon="18.231741017234864"><ele>13.2</ele><time>2026-04-19T09:27:07.999Z</time></trkpt><trkpt lat="40.422209117654205" lon="18.231628445605978"><ele>13.0</ele><time>2026-04-19T09:27:08.999Z</time></trkpt><trkpt lat="40.422165767712634" lon="18.231512970616425"><ele>12.600000000000001</ele><time>2026-04-19T09:27:09.999Z</time></trkpt><trkpt lat="40.42212545652523" lon="18.231393826832782"><ele>12.200000000000001</ele><time>2026-04-19T09:27:10.999Z</time></trkpt><trkpt lat="40.422082127086895" lon="18.23126255053587"><ele>11.8</ele><time>2026-04-19T09:27:11.999Z</time></trkpt><trkpt lat="40.42203589267312" lon="18.23112675881273"><ele>11.4</ele><time>2026-04-19T09:27:12.999Z</time></trkpt><trkpt lat="40.42198986013368" lon="18.230995454203796"><ele>11.0</ele><time>2026-04-19T09:27:13.999Z</time></trkpt><trkpt lat="40.42194561200267" lon="18.230864233104608"><ele>11.0</ele><time>2026-04-19T09:27:14.999Z</time></trkpt><trkpt lat="40.42189364739563" lon="18.230703511227425"><ele>11.0</ele><time>2026-04-19T09:27:15.999Z</time></trkpt><trkpt lat="40.42184109874217" lon="18.23056317304783"><ele>11.0</ele><time>2026-04-19T09:27:16.999Z</time></trkpt><trkpt lat="40.42179468129938" lon="18.230438735007912"><ele>11.0</ele><time>2026-04-19T09:27:17.999Z</time></trkpt><trkpt lat="40.42174883869079" lon="18.23032607494093"><ele>11.0</ele><time>2026-04-19T09:27:18.999Z</time></trkpt><trkpt lat="40.42172059266217" lon="18.230223592004982"><ele>11.0</ele><time>2026-04-19T09:27:19.999Z</time></trkpt><trkpt lat="40.42169323893666" lon="18.230130622131895"><ele>11.0</ele><time>2026-04-19T09:27:20.999Z</time></trkpt><trkpt lat="40.421668204159346" lon="18.23005132097006"><ele>11.0</ele><time>2026-04-19T09:27:21.999Z</time></trkpt><trkpt lat="40.421635642480716" lon="18.22992083907725"><ele>11.0</ele><time>2026-04-19T09:27:23.999Z</time></trkpt><trkpt lat="40.421639105800054" lon="18.22982212211584"><ele>11.0</ele><time>2026-04-19T09:27:25.999Z</time></trkpt><trkpt lat="40.421730176735366" lon="18.229789410738363"><ele>11.0</ele><time>2026-04-19T09:27:26.999Z</time></trkpt><trkpt lat="40.421785039277026" lon="18.229715551489626"><ele>11.0</ele><time>2026-04-19T09:27:27.999Z</time></trkpt><trkpt lat="40.42184933745558" lon="18.229628989430115"><ele>11.0</ele><time>2026-04-19T09:27:28.999Z</time></trkpt><trkpt lat="40.42192104193977" lon="18.22953321864987"><ele>11.0</ele><time>2026-04-19T09:27:29.999Z</time></trkpt><trkpt lat="40.42199822032722" lon="18.22943229310355"><ele>11.0</ele><time>2026-04-19T09:27:30.999Z</time></trkpt><trkpt lat="40.4220792803211" lon="18.229326291522334"><ele>11.5</ele><time>2026-04-19T09:27:31.999Z</time></trkpt><trkpt lat="40.42216501699118" lon="18.229208470584144"><ele>12.0</ele><time>2026-04-19T09:27:32.999Z</time></trkpt><trkpt lat="40.422248183833815" lon="18.22909330482275"><ele>12.5</ele><time>2026-04-19T09:27:33.999Z</time></trkpt><trkpt lat="40.422335704888916" lon="18.228973034134327"><ele>13.0</ele><time>2026-04-19T09:27:34.999Z</time></trkpt><trkpt lat="40.42241912857183" lon="18.228862442242942"><ele>13.75</ele><time>2026-04-19T09:27:35.999Z</time></trkpt><trkpt lat="40.42249376065923" lon="18.22874098911243"><ele>14.5</ele><time>2026-04-19T09:27:36.999Z</time></trkpt><trkpt lat="40.422579219824314" lon="18.228649619766905"><ele>15.25</ele><time>2026-04-19T09:27:37.999Z</time></trkpt><trkpt lat="40.42265921975817" lon="18.228543269365133"><ele>16.0</ele><time>2026-04-19T09:27:38.999Z</time></trkpt><trkpt lat="40.42273759141481" lon="18.228439083651445"><ele>16.0</ele><time>2026-04-19T09:27:39.999Z</time></trkpt><trkpt lat="40.422808656414446" lon="18.228319664633737"><ele>16.0</ele><time>2026-04-19T09:27:40.999Z</time></trkpt><trkpt lat="40.42289154036669" lon="18.22821185333121"><ele>16.0</ele><time>2026-04-19T09:27:41.999Z</time></trkpt><trkpt lat="40.422974955055345" lon="18.228099536515447"><ele>16.0</ele><time>2026-04-19T09:27:42.999Z</time></trkpt><trkpt lat="40.42305622680131" lon="18.227989269451882"><ele>15.75</ele><time>2026-04-19T09:27:43.999Z</time></trkpt><trkpt lat="40.42313810896653" lon="18.227875398708782"><ele>15.5</ele><time>2026-04-19T09:27:44.999Z</time></trkpt><trkpt lat="40.42322520567485" lon="18.227771697218692"><ele>15.25</ele><time>2026-04-19T09:27:45.999Z</time></trkpt><trkpt lat="40.42331210217478" lon="18.227661389895125"><ele>15.0</ele><time>2026-04-19T09:27:46.999Z</time></trkpt><trkpt lat="40.42339924609093" lon="18.227542828045596"><ele>15.0</ele><time>2026-04-19T09:27:47.999Z</time></trkpt><trkpt lat="40.42348435074279" lon="18.22742038417818"><ele>15.0</ele><time>2026-04-19T09:27:48.999Z</time></trkpt><trkpt lat="40.42356668002732" lon="18.22730852753683"><ele>15.0</ele><time>2026-04-19T09:27:49.999Z</time></trkpt><trkpt lat="40.423649769403376" lon="18.227201620971996"><ele>15.0</ele><time>2026-04-19T09:27:50.999Z</time></trkpt><trkpt lat="40.42373563034877" lon="18.227094785297673"><ele>15.2</ele><time>2026-04-19T09:27:51.999Z</time></trkpt><trkpt lat="40.423811053567285" lon="18.226992658774968"><ele>15.4</ele><time>2026-04-19T09:27:52.999Z</time></trkpt><trkpt lat="40.42388680833765" lon="18.226893276031294"><ele>15.600000000000001</ele><time>2026-04-19T09:27:53.999Z</time></trkpt><trkpt lat="40.42396484585879" lon="18.226789258596483"><ele>15.8</ele><time>2026-04-19T09:27:54.999Z</time></trkpt><trkpt lat="40.42404141010921" lon="18.226688502658167"><ele>16.0</ele><time>2026-04-19T09:27:55.999Z</time></trkpt><trkpt lat="40.42411567417444" lon="18.22659323076296"><ele>16.2</ele><time>2026-04-19T09:27:56.999Z</time></trkpt><trkpt lat="40.42418744709075" lon="18.2265013358975"><ele>16.400000000000002</ele><time>2026-04-19T09:27:57.999Z</time></trkpt><trkpt lat="40.42425665396726" lon="18.226404291028544"><ele>16.6</ele><time>2026-04-19T09:27:58.999Z</time></trkpt><trkpt lat="40.42433512143847" lon="18.2262984351368"><ele>16.8</ele><time>2026-04-19T09:27:59.999Z</time></trkpt><trkpt lat="40.42441468700915" lon="18.226194295663554"><ele>17.0</ele><time>2026-04-19T09:28:00.999Z</time></trkpt><trkpt lat="40.424491504569026" lon="18.226095860935356"><ele>17.0</ele><time>2026-04-19T09:28:01.999Z</time></trkpt><trkpt lat="40.42456659676442" lon="18.22598921263277"><ele>17.0</ele><time>2026-04-19T09:28:02.999Z</time></trkpt><trkpt lat="40.42464146398155" lon="18.22588120838916"><ele>17.0</ele><time>2026-04-19T09:28:03.999Z</time></trkpt><trkpt lat="40.42471735507136" lon="18.225776511160962"><ele>17.0</ele><time>2026-04-19T09:28:04.999Z</time></trkpt><trkpt lat="40.42479752767771" lon="18.22568147984421"><ele>17.0</ele><time>2026-04-19T09:28:05.999Z</time></trkpt><trkpt lat="40.42487568321538" lon="18.2255750728582"><ele>16.75</ele><time>2026-04-19T09:28:06.999Z</time></trkpt><trkpt lat="40.42495699562434" lon="18.225472280994538"><ele>16.5</ele><time>2026-04-19T09:28:07.999Z</time></trkpt><trkpt lat="40.42503611688595" lon="18.225363153874635"><ele>16.25</ele><time>2026-04-19T09:28:08.999Z</time></trkpt><trkpt lat="40.42511450163722" lon="18.225253196053654"><ele>16.0</ele><time>2026-04-19T09:28:09.999Z</time></trkpt><trkpt lat="40.42519951448892" lon="18.22516394472316"><ele>16.0</ele><time>2026-04-19T09:28:10.999Z</time></trkpt><trkpt lat="40.42526899026448" lon="18.225055009880837"><ele>16.0</ele><time>2026-04-19T09:28:11.999Z</time></trkpt><trkpt lat="40.42534131853373" lon="18.224957988881098"><ele>16.0</ele><time>2026-04-19T09:28:12.999Z</time></trkpt><trkpt lat="40.425415092586746" lon="18.22486880858042"><ele>16.0</ele><time>2026-04-19T09:28:13.999Z</time></trkpt><trkpt lat="40.42548919687249" lon="18.224764131740823"><ele>16.0</ele><time>2026-04-19T09:28:14.999Z</time></trkpt><trkpt lat="40.42556837635232" lon="18.224658413397407"><ele>16.0</ele><time>2026-04-19T09:28:15.999Z</time></trkpt><trkpt lat="40.425644451163244" lon="18.224554557614734"><ele>16.0</ele><time>2026-04-19T09:28:16.999Z</time></trkpt><trkpt lat="40.42572348871687" lon="18.22445112903827"><ele>16.0</ele><time>2026-04-19T09:28:17.999Z</time></trkpt><trkpt lat="40.425802005524396" lon="18.22434413480393"><ele>16.0</ele><time>2026-04-19T09:28:18.999Z</time></trkpt><trkpt lat="40.425887219699476" lon="18.22424093030309"><ele>16.0</ele><time>2026-04-19T09:28:19.999Z</time></trkpt><trkpt lat="40.42596842041831" lon="18.22413297625194"><ele>16.0</ele><time>2026-04-19T09:28:20.999Z</time></trkpt><trkpt lat="40.42605246212293" lon="18.224034617751215"><ele>16.0</ele><time>2026-04-19T09:28:21.999Z</time></trkpt><trkpt lat="40.42613030560971" lon="18.22393309749495"><ele>16.0</ele><time>2026-04-19T09:28:22.999Z</time></trkpt><trkpt lat="40.42620266286489" lon="18.22382617771533"><ele>16.0</ele><time>2026-04-19T09:28:23.999Z</time></trkpt><trkpt lat="40.4262694841567" lon="18.223735348126432"><ele>15.833333333333332</ele><time>2026-04-19T09:28:24.999Z</time></trkpt><trkpt lat="40.42632158987063" lon="18.22366607997633"><ele>15.666666666666666</ele><time>2026-04-19T09:28:25.999Z</time></trkpt><trkpt lat="40.426370732092174" lon="18.22360333241716"><ele>15.5</ele><time>2026-04-19T09:28:26.999Z</time></trkpt><trkpt lat="40.42643886896826" lon="18.22352084338126"><ele>15.333333333333332</ele><time>2026-04-19T09:28:27.999Z</time></trkpt><trkpt lat="40.42650734455347" lon="18.2234280208139"><ele>15.166666666666666</ele><time>2026-04-19T09:28:28.999Z</time></trkpt><trkpt lat="40.426585144042434" lon="18.22331670454153"><ele>15.0</ele><time>2026-04-19T09:28:29.999Z</time></trkpt><trkpt lat="40.42666617868773" lon="18.223204985475846"><ele>15.0</ele><time>2026-04-19T09:28:30.999Z</time></trkpt><trkpt lat="40.42675404148905" lon="18.223085240325773"><ele>15.0</ele><time>2026-04-19T09:28:31.999Z</time></trkpt><trkpt lat="40.42683997878228" lon="18.222965999203847"><ele>15.0</ele><time>2026-04-19T09:28:32.999Z</time></trkpt><trkpt lat="40.42692199768252" lon="18.22285434770064"><ele>15.0</ele><time>2026-04-19T09:28:33.999Z</time></trkpt><trkpt lat="40.42701011469091" lon="18.222751558521868"><ele>15.0</ele><time>2026-04-19T09:28:34.999Z</time></trkpt><trkpt lat="40.42708929931651" lon="18.22264577629886"><ele>15.0</ele><time>2026-04-19T09:28:35.999Z</time></trkpt><trkpt lat="40.42716876170854" lon="18.22253644885142"><ele>15.0</ele><time>2026-04-19T09:28:36.999Z</time></trkpt><trkpt lat="40.427262229002686" lon="18.222423030583258"><ele>15.0</ele><time>2026-04-19T09:28:37.999Z</time></trkpt><trkpt lat="40.42734217858777" lon="18.222304163883415"><ele>15.0</ele><time>2026-04-19T09:28:38.999Z</time></trkpt><trkpt lat="40.42743492647827" lon="18.222201030604435"><ele>15.0</ele><time>2026-04-19T09:28:39.999Z</time></trkpt><trkpt lat="40.42751176529596" lon="18.222071612182646"><ele>15.0</ele><time>2026-04-19T09:28:40.999Z</time></trkpt><trkpt lat="40.427599476521486" lon="18.22196291312375"><ele>15.0</ele><time>2026-04-19T09:28:41.999Z</time></trkpt><trkpt lat="40.427682876429444" lon="18.221851803935497"><ele>15.0</ele><time>2026-04-19T09:28:42.999Z</time></trkpt><trkpt lat="40.42776976669744" lon="18.221730758284775"><ele>15.0</ele><time>2026-04-19T09:28:43.999Z</time></trkpt><trkpt lat="40.42786167616038" lon="18.22162014720767"><ele>15.0</ele><time>2026-04-19T09:28:44.999Z</time></trkpt><trkpt lat="40.4279376824534" lon="18.22150532289794"><ele>15.0</ele><time>2026-04-19T09:28:45.999Z</time></trkpt><trkpt lat="40.428021084298585" lon="18.221401229895502"><ele>14.5</ele><time>2026-04-19T09:28:46.999Z</time></trkpt><trkpt lat="40.42810235278412" lon="18.22128937816361"><ele>14.0</ele><time>2026-04-19T09:28:47.999Z</time></trkpt><trkpt lat="40.42818339128931" lon="18.221180422542243"><ele>13.5</ele><time>2026-04-19T09:28:48.999Z</time></trkpt><trkpt lat="40.42826758605543" lon="18.221077005258113"><ele>13.0</ele><time>2026-04-19T09:28:49.999Z</time></trkpt><trkpt lat="40.4283541469671" lon="18.220970918322752"><ele>13.0</ele><time>2026-04-19T09:28:50.999Z</time></trkpt><trkpt lat="40.42843871021929" lon="18.22086743342738"><ele>13.0</ele><time>2026-04-19T09:28:51.999Z</time></trkpt><trkpt lat="40.428514265784365" lon="18.22075600500368"><ele>13.0</ele><time>2026-04-19T09:28:52.999Z</time></trkpt><trkpt lat="40.42859287567732" lon="18.220636454300255"><ele>13.0</ele><time>2026-04-19T09:28:53.999Z</time></trkpt><trkpt lat="40.42867901779605" lon="18.220520125845404"><ele>13.0</ele><time>2026-04-19T09:28:54.999Z</time></trkpt><trkpt lat="40.428768961721275" lon="18.220411553382153"><ele>13.0</ele><time>2026-04-19T09:28:55.999Z</time></trkpt><trkpt lat="40.428855100223124" lon="18.22029659491159"><ele>13.0</ele><time>2026-04-19T09:28:56.999Z</time></trkpt><trkpt lat="40.42894160029534" lon="18.220175040000733"><ele>13.0</ele><time>2026-04-19T09:28:57.999Z</time></trkpt><trkpt lat="40.42903505729854" lon="18.22005818988206"><ele>13.0</ele><time>2026-04-19T09:28:58.999Z</time></trkpt><trkpt lat="40.4291294838533" lon="18.219944834176925"><ele>13.0</ele><time>2026-04-19T09:28:59.999Z</time></trkpt><trkpt lat="40.429221879252474" lon="18.219817496965337"><ele>13.0</ele><time>2026-04-19T09:29:00.999Z</time></trkpt><trkpt lat="40.429311768421094" lon="18.219696714539168"><ele>13.0</ele><time>2026-04-19T09:29:01.999Z</time></trkpt><trkpt lat="40.42939683590636" lon="18.219581846361756"><ele>13.0</ele><time>2026-04-19T09:29:02.999Z</time></trkpt><trkpt lat="40.42947921377894" lon="18.21948097378378"><ele>13.0</ele><time>2026-04-19T09:29:03.999Z</time></trkpt><trkpt lat="40.42956054336226" lon="18.21936282939824"><ele>13.0</ele><time>2026-04-19T09:29:04.999Z</time></trkpt><trkpt lat="40.42963285454114" lon="18.219270721522435"><ele>13.0</ele><time>2026-04-19T09:29:05.999Z</time></trkpt><trkpt lat="40.42970036572585" lon="18.21917991431724"><ele>13.0</ele><time>2026-04-19T09:29:06.999Z</time></trkpt><trkpt lat="40.42977247434993" lon="18.21909219331843"><ele>13.0</ele><time>2026-04-19T09:29:07.999Z</time></trkpt><trkpt lat="40.42983981722762" lon="18.218993884904723"><ele>13.0</ele><time>2026-04-19T09:29:08.999Z</time></trkpt><trkpt lat="40.42990847199739" lon="18.21889703277402"><ele>13.0</ele><time>2026-04-19T09:29:09.999Z</time></trkpt><trkpt lat="40.429978431941386" lon="18.21880880227488"><ele>13.0</ele><time>2026-04-19T09:29:10.999Z</time></trkpt><trkpt lat="40.43005212738933" lon="18.218715984966085"><ele>13.0</ele><time>2026-04-19T09:29:11.999Z</time></trkpt><trkpt lat="40.43012494311289" lon="18.21861646881827"><ele>12.8</ele><time>2026-04-19T09:29:12.999Z</time></trkpt><trkpt lat="40.43019861947548" lon="18.218517289755432"><ele>12.600000000000001</ele><time>2026-04-19T09:29:13.999Z</time></trkpt><trkpt lat="40.430276810994776" lon="18.218419051663297"><ele>12.399999999999999</ele><time>2026-04-19T09:29:14.999Z</time></trkpt><trkpt lat="40.43035422641796" lon="18.21832153167404"><ele>12.2</ele><time>2026-04-19T09:29:15.999Z</time></trkpt><trkpt lat="40.430432317982394" lon="18.218221247308257"><ele>12.0</ele><time>2026-04-19T09:29:16.999Z</time></trkpt><trkpt lat="40.430508916390494" lon="18.218118011209285"><ele>12.0</ele><time>2026-04-19T09:29:17.999Z</time></trkpt><trkpt lat="40.43058225502198" lon="18.21802016279548"><ele>12.0</ele><time>2026-04-19T09:29:18.999Z</time></trkpt><trkpt lat="40.43065988054515" lon="18.21791923108723"><ele>12.0</ele><time>2026-04-19T09:29:19.999Z</time></trkpt><trkpt lat="40.43073746929545" lon="18.217809427250327"><ele>12.0</ele><time>2026-04-19T09:29:20.999Z</time></trkpt><trkpt lat="40.43082175712345" lon="18.21769174510765"><ele>12.0</ele><time>2026-04-19T09:29:21.999Z</time></trkpt><trkpt lat="40.430910819464366" lon="18.217573984409505"><ele>12.0</ele><time>2026-04-19T09:29:22.999Z</time></trkpt><trkpt lat="40.43100000583263" lon="18.21745573803008"><ele>12.0</ele><time>2026-04-19T09:29:23.999Z</time></trkpt><trkpt lat="40.43108154332447" lon="18.217345379745826"><ele>12.0</ele><time>2026-04-19T09:29:24.999Z</time></trkpt><trkpt lat="40.431157464131616" lon="18.217244257839123"><ele>12.399999999999999</ele><time>2026-04-19T09:29:25.999Z</time></trkpt><trkpt lat="40.43122767874682" lon="18.217155890722584"><ele>12.799999999999999</ele><time>2026-04-19T09:29:26.999Z</time></trkpt><trkpt lat="40.43129999381722" lon="18.21705590364513"><ele>13.2</ele><time>2026-04-19T09:29:27.999Z</time></trkpt><trkpt lat="40.431376464705295" lon="18.21695449622199"><ele>13.6</ele><time>2026-04-19T09:29:28.999Z</time></trkpt><trkpt lat="40.43144687910229" lon="18.21686613379905"><ele>14.0</ele><time>2026-04-19T09:29:29.999Z</time></trkpt><trkpt lat="40.431520050497966" lon="18.216767718622492"><ele>14.25</ele><time>2026-04-19T09:29:30.999Z</time></trkpt><trkpt lat="40.43159276025554" lon="18.21666834512457"><ele>14.5</ele><time>2026-04-19T09:29:31.999Z</time></trkpt><trkpt lat="40.43167161262538" lon="18.216554865820036"><ele>14.75</ele><time>2026-04-19T09:29:32.999Z</time></trkpt><trkpt lat="40.431752811321026" lon="18.21645609875858"><ele>15.0</ele><time>2026-04-19T09:29:33.999Z</time></trkpt><trkpt lat="40.43183722745669" lon="18.216348761309337"><ele>15.25</ele><time>2026-04-19T09:29:34.999Z</time></trkpt><trkpt lat="40.4319267753781" lon="18.21624199712501"><ele>15.5</ele><time>2026-04-19T09:29:35.999Z</time></trkpt><trkpt lat="40.43201107082521" lon="18.21612490957999"><ele>15.75</ele><time>2026-04-19T09:29:36.999Z</time></trkpt><trkpt lat="40.432093898934234" lon="18.21600401581431"><ele>16.0</ele><time>2026-04-19T09:29:37.999Z</time></trkpt><trkpt lat="40.43217836508495" lon="18.21588970959636"><ele>15.25</ele><time>2026-04-19T09:29:38.999Z</time></trkpt><trkpt lat="40.43226390078069" lon="18.215769870291545"><ele>14.5</ele><time>2026-04-19T09:29:39.999Z</time></trkpt><trkpt lat="40.432343827320636" lon="18.215664911277486"><ele>13.75</ele><time>2026-04-19T09:29:40.999Z</time></trkpt><trkpt lat="40.43243069930639" lon="18.215562291873724"><ele>13.0</ele><time>2026-04-19T09:29:41.999Z</time></trkpt><trkpt lat="40.432505359222915" lon="18.21545851851224"><ele>13.0</ele><time>2026-04-19T09:29:42.999Z</time></trkpt><trkpt lat="40.43257069111099" lon="18.215367295840217"><ele>13.0</ele><time>2026-04-19T09:29:43.999Z</time></trkpt><trkpt lat="40.4326418003391" lon="18.215274109262328"><ele>13.0</ele><time>2026-04-19T09:29:44.999Z</time></trkpt><trkpt lat="40.4327148401739" lon="18.21517688842259"><ele>13.0</ele><time>2026-04-19T09:29:45.999Z</time></trkpt><trkpt lat="40.432793240345426" lon="18.2150693635521"><ele>13.0</ele><time>2026-04-19T09:29:46.999Z</time></trkpt><trkpt lat="40.43286720107444" lon="18.214975350577582"><ele>12.999999999999998</ele><time>2026-04-19T09:29:47.999Z</time></trkpt><trkpt lat="40.43292978087132" lon="18.214892307150294"><ele>13.0</ele><time>2026-04-19T09:29:48.999Z</time></trkpt><trkpt lat="40.432986914141786" lon="18.21482321033093"><ele>13.0</ele><time>2026-04-19T09:29:49.999Z</time></trkpt><trkpt lat="40.433041573258386" lon="18.21475631311258"><ele>13.0</ele><time>2026-04-19T09:29:50.999Z</time></trkpt><trkpt lat="40.433095146932324" lon="18.214686423056843"><ele>12.999999999999998</ele><time>2026-04-19T09:29:51.999Z</time></trkpt><trkpt lat="40.43318655538711" lon="18.21456634959397"><ele>13.0</ele><time>2026-04-19T09:29:53.999Z</time></trkpt><trkpt lat="40.433246355501524" lon="18.21448775171956"><ele>13.166666666666666</ele><time>2026-04-19T09:29:55.999Z</time></trkpt><trkpt lat="40.433296624561166" lon="18.214434863347737"><ele>13.333333333333332</ele><time>2026-04-19T09:29:58.999Z</time></trkpt><trkpt lat="40.4333855252711" lon="18.214535071720256"><ele>13.5</ele><time>2026-04-19T09:30:01.999Z</time></trkpt><trkpt lat="40.43343260515024" lon="18.214612809132507"><ele>13.666666666666668</ele><time>2026-04-19T09:30:02.999Z</time></trkpt><trkpt lat="40.43348260116867" lon="18.2146907282135"><ele>13.833333333333334</ele><time>2026-04-19T09:30:03.999Z</time></trkpt><trkpt lat="40.4335463242438" lon="18.214787585428077"><ele>14.0</ele><time>2026-04-19T09:30:04.999Z</time></trkpt><trkpt lat="40.43362323370225" lon="18.21488929549622"><ele>13.6</ele><time>2026-04-19T09:30:05.999Z</time></trkpt><trkpt lat="40.433684430153605" lon="18.214978433404454"><ele>13.2</ele><time>2026-04-19T09:30:06.999Z</time></trkpt><trkpt lat="40.43374611853153" lon="18.21507406169793"><ele>12.799999999999999</ele><time>2026-04-19T09:30:07.999Z</time></trkpt><trkpt lat="40.43381239250625" lon="18.215174943199912"><ele>12.399999999999999</ele><time>2026-04-19T09:30:08.999Z</time></trkpt><trkpt lat="40.43387828990008" lon="18.215271860460575"><ele>12.0</ele><time>2026-04-19T09:30:09.999Z</time></trkpt><trkpt lat="40.43394677431624" lon="18.215377155909042"><ele>11.6</ele><time>2026-04-19T09:30:10.999Z</time></trkpt><trkpt lat="40.43402519957387" lon="18.215499074988617"><ele>11.2</ele><time>2026-04-19T09:30:11.999Z</time></trkpt><trkpt lat="40.434090893641326" lon="18.215604411830487"><ele>10.8</ele><time>2026-04-19T09:30:12.999Z</time></trkpt><trkpt lat="40.43415521443992" lon="18.215700863862647"><ele>10.4</ele><time>2026-04-19T09:30:13.999Z</time></trkpt><trkpt lat="40.434212496412385" lon="18.215783020940243"><ele>10.0</ele><time>2026-04-19T09:30:14.999Z</time></trkpt><trkpt lat="40.43426186886828" lon="18.21585822869934"><ele>10.0</ele><time>2026-04-19T09:30:15.999Z</time></trkpt><trkpt lat="40.43430910417231" lon="18.215925367621722"><ele>10.0</ele><time>2026-04-19T09:30:16.999Z</time></trkpt><trkpt lat="40.434387965644866" lon="18.216046625985"><ele>10.0</ele><time>2026-04-19T09:30:18.999Z</time></trkpt><trkpt lat="40.43442844510917" lon="18.216110718295393"><ele>10.0</ele><time>2026-04-19T09:30:19.999Z</time></trkpt><trkpt lat="40.43447404114953" lon="18.216185240506213"><ele>10.0</ele><time>2026-04-19T09:30:20.999Z</time></trkpt><trkpt lat="40.43452873319164" lon="18.216264468392364"><ele>10.0</ele><time>2026-04-19T09:30:21.999Z</time></trkpt><trkpt lat="40.434589700759666" lon="18.2163536360382"><ele>10.0</ele><time>2026-04-19T09:30:22.999Z</time></trkpt><trkpt lat="40.434651849672" lon="18.216447955839946"><ele>10.0</ele><time>2026-04-19T09:30:23.999Z</time></trkpt><trkpt lat="40.434713299716485" lon="18.216538450782615"><ele>10.0</ele><time>2026-04-19T09:30:24.999Z</time></trkpt><trkpt lat="40.4347725777984" lon="18.216631096949612"><ele>10.0</ele><time>2026-04-19T09:30:25.999Z</time></trkpt><trkpt lat="40.43483416475666" lon="18.216721624657644"><ele>10.0</ele><time>2026-04-19T09:30:26.999Z</time></trkpt><trkpt lat="40.43489723528859" lon="18.21681178885035"><ele>9.8</ele><time>2026-04-19T09:30:27.999Z</time></trkpt><trkpt lat="40.43496467162401" lon="18.21690308603823"><ele>9.6</ele><time>2026-04-19T09:30:28.999Z</time></trkpt><trkpt lat="40.435028700995716" lon="18.216997989714127"><ele>9.4</ele><time>2026-04-19T09:30:29.999Z</time></trkpt><trkpt lat="40.435091262120125" lon="18.217095603674558"><ele>9.2</ele><time>2026-04-19T09:30:30.999Z</time></trkpt><trkpt lat="40.43515173958612" lon="18.217202606029787"><ele>9.0</ele><time>2026-04-19T09:30:31.999Z</time></trkpt><trkpt lat="40.435223611236644" lon="18.217307325209717"><ele>8.6</ele><time>2026-04-19T09:30:32.999Z</time></trkpt><trkpt lat="40.435295211782574" lon="18.217408623400278"><ele>8.2</ele><time>2026-04-19T09:30:33.999Z</time></trkpt><trkpt lat="40.435360921982024" lon="18.21749978651153"><ele>7.799999999999999</ele><time>2026-04-19T09:30:34.999Z</time></trkpt><trkpt lat="40.43541936968604" lon="18.21758829691093"><ele>7.3999999999999995</ele><time>2026-04-19T09:30:35.999Z</time></trkpt><trkpt lat="40.4354815014954" lon="18.21767801654264"><ele>7.0</ele><time>2026-04-19T09:30:36.999Z</time></trkpt><trkpt lat="40.4355402678197" lon="18.21777449086618"><ele>7.0</ele><time>2026-04-19T09:30:37.999Z</time></trkpt><trkpt lat="40.43560325891403" lon="18.21787274482054"><ele>6.999999999999999</ele><time>2026-04-19T09:30:38.999Z</time></trkpt><trkpt lat="40.43566999444894" lon="18.217973080204708"><ele>6.999999999999999</ele><time>2026-04-19T09:30:39.999Z</time></trkpt><trkpt lat="40.435742282345274" lon="18.2180769575988"><ele>7.0</ele><time>2026-04-19T09:30:40.999Z</time></trkpt><trkpt lat="40.43581411045865" lon="18.218183093470266"><ele>7.0</ele><time>2026-04-19T09:30:41.999Z</time></trkpt><trkpt lat="40.43588541109933" lon="18.218293049435488"><ele>6.75</ele><time>2026-04-19T09:30:42.999Z</time></trkpt><trkpt lat="40.43595895463975" lon="18.218402512748675"><ele>6.5</ele><time>2026-04-19T09:30:43.999Z</time></trkpt><trkpt lat="40.43603377253761" lon="18.21851370556181"><ele>6.25</ele><time>2026-04-19T09:30:44.999Z</time></trkpt><trkpt lat="40.436109688588445" lon="18.218631985101595"><ele>6.0</ele><time>2026-04-19T09:30:46Z</time></trkpt><trkpt lat="40.43619138127954" lon="18.218753620310636"><ele>6.0</ele><time>2026-04-19T09:30:47Z</time></trkpt><trkpt lat="40.43627767483267" lon="18.218884620344625"><ele>6.0</ele><time>2026-04-19T09:30:48Z</time></trkpt><trkpt lat="40.43637467090458" lon="18.219038235905806"><ele>6.0</ele><time>2026-04-19T09:30:49Z</time></trkpt><trkpt lat="40.43646627436598" lon="18.21915827798739"><ele>6.0</ele><time>2026-04-19T09:30:50Z</time></trkpt><trkpt lat="40.43653973528005" lon="18.219283700957376"><ele>6.25</ele><time>2026-04-19T09:30:51Z</time></trkpt><trkpt lat="40.43661909264642" lon="18.219387718768818"><ele>6.5</ele><time>2026-04-19T09:30:52Z</time></trkpt><trkpt lat="40.43670060555811" lon="18.21951662235592"><ele>6.75</ele><time>2026-04-19T09:30:53Z</time></trkpt><trkpt lat="40.43678431264541" lon="18.219642031941927"><ele>7.0</ele><time>2026-04-19T09:30:54Z</time></trkpt><trkpt lat="40.436862920619646" lon="18.219751831456094"><ele>6.75</ele><time>2026-04-19T09:30:55Z</time></trkpt><trkpt lat="40.43694101575823" lon="18.21986654219899"><ele>6.5</ele><time>2026-04-19T09:30:56Z</time></trkpt><trkpt lat="40.43702095121595" lon="18.21998016994188"><ele>6.25</ele><time>2026-04-19T09:30:57Z</time></trkpt><trkpt lat="40.43708877096254" lon="18.22010251436874"><ele>6.0</ele><time>2026-04-19T09:30:58Z</time></trkpt><trkpt lat="40.437167944315725" lon="18.220209639994987"><ele>6.0</ele><time>2026-04-19T09:30:59Z</time></trkpt><trkpt lat="40.437249852717926" lon="18.220321210563156"><ele>6.0</ele><time>2026-04-19T09:31:00Z</time></trkpt><trkpt lat="40.4373290430884" lon="18.220429514964618"><ele>6.0</ele><time>2026-04-19T09:31:01Z</time></trkpt><trkpt lat="40.437393807869604" lon="18.220559319532356"><ele>6.0</ele><time>2026-04-19T09:31:02Z</time></trkpt><trkpt lat="40.437468538905726" lon="18.220679801873132"><ele>5.3999999999999995</ele><time>2026-04-19T09:31:03Z</time></trkpt><trkpt lat="40.43754587337676" lon="18.22079615412398"><ele>4.8</ele><time>2026-04-19T09:31:04Z</time></trkpt><trkpt lat="40.43761906993827" lon="18.22090370843401"><ele>4.199999999999999</ele><time>2026-04-19T09:31:05Z</time></trkpt><trkpt lat="40.4376865395343" lon="18.221009645815176"><ele>3.5999999999999996</ele><time>2026-04-19T09:31:06Z</time></trkpt><trkpt lat="40.4377524112651" lon="18.22111250481784"><ele>3.0</ele><time>2026-04-19T09:31:07Z</time></trkpt><trkpt lat="40.43781990423033" lon="18.22121782108692"><ele>3.0</ele><time>2026-04-19T09:31:08Z</time></trkpt><trkpt lat="40.437887183038114" lon="18.22132174114124"><ele>3.0</ele><time>2026-04-19T09:31:09Z</time></trkpt><trkpt lat="40.43795637660767" lon="18.221431998493212"><ele>3.0</ele><time>2026-04-19T09:31:10Z</time></trkpt><trkpt lat="40.43804079268387" lon="18.22156050290737"><ele>3.0</ele><time>2026-04-19T09:31:11Z</time></trkpt><trkpt lat="40.43813689929493" lon="18.221706371816133"><ele>2.75</ele><time>2026-04-19T09:31:12Z</time></trkpt><trkpt lat="40.43822781030321" lon="18.221823496992794"><ele>2.5</ele><time>2026-04-19T09:31:13Z</time></trkpt><trkpt lat="40.438305306318114" lon="18.221936268599958"><ele>2.25</ele><time>2026-04-19T09:31:14Z</time></trkpt><trkpt lat="40.43838628050027" lon="18.222060046409364"><ele>2.0</ele><time>2026-04-19T09:31:15Z</time></trkpt><trkpt lat="40.43846843515736" lon="18.222187689177616"><ele>2.0</ele><time>2026-04-19T09:31:16Z</time></trkpt><trkpt lat="40.43855444506828" lon="18.222304822879906"><ele>2.0</ele><time>2026-04-19T09:31:17Z</time></trkpt><trkpt lat="40.43863385905103" lon="18.222427313926502"><ele>2.0</ele><time>2026-04-19T09:31:18Z</time></trkpt><trkpt lat="40.43871357750179" lon="18.222542069886384"><ele>2.0</ele><time>2026-04-19T09:31:19Z</time></trkpt><trkpt lat="40.43878737537877" lon="18.22266058635831"><ele>2.5</ele><time>2026-04-19T09:31:20Z</time></trkpt><trkpt lat="40.43886169598748" lon="18.222775573643457"><ele>3.0</ele><time>2026-04-19T09:31:21Z</time></trkpt><trkpt lat="40.43893809577827" lon="18.222888601544984"><ele>3.5</ele><time>2026-04-19T09:31:22Z</time></trkpt><trkpt lat="40.439016836170175" lon="18.223000181191107"><ele>4.0</ele><time>2026-04-19T09:31:23Z</time></trkpt><trkpt lat="40.439095898789596" lon="18.223113740585116"><ele>4.2</ele><time>2026-04-19T09:31:24Z</time></trkpt><trkpt lat="40.43917787736537" lon="18.223228482474394"><ele>4.4</ele><time>2026-04-19T09:31:25Z</time></trkpt><trkpt lat="40.43925400205544" lon="18.223344274516702"><ele>4.6</ele><time>2026-04-19T09:31:26Z</time></trkpt><trkpt lat="40.43932949991936" lon="18.22345424726321"><ele>4.8</ele><time>2026-04-19T09:31:27Z</time></trkpt><trkpt lat="40.43939395649245" lon="18.223552630910408"><ele>5.0</ele><time>2026-04-19T09:31:28Z</time></trkpt><trkpt lat="40.439456233034534" lon="18.223647036574242"><ele>5.0</ele><time>2026-04-19T09:31:29Z</time></trkpt><trkpt lat="40.43951252372679" lon="18.223733205401444"><ele>5.0</ele><time>2026-04-19T09:31:30Z</time></trkpt><trkpt lat="40.43956262511753" lon="18.22381018733709"><ele>5.0</ele><time>2026-04-19T09:31:31Z</time></trkpt><trkpt lat="40.439606966371116" lon="18.22387540750072"><ele>5.0</ele><time>2026-04-19T09:31:32Z</time></trkpt><trkpt lat="40.4396811841565" lon="18.22398910074655"><ele>5.0</ele><time>2026-04-19T09:31:34Z</time></trkpt><trkpt lat="40.439737984452144" lon="18.224077263333786"><ele>5.0</ele><time>2026-04-19T09:31:36Z</time></trkpt><trkpt lat="40.43965852794895" lon="18.22417935530772"><ele>5.5</ele><time>2026-04-19T09:31:40Z</time></trkpt><trkpt lat="40.439605330682745" lon="18.224225297959517"><ele>6.0</ele><time>2026-04-19T09:31:41Z</time></trkpt><trkpt lat="40.439558081857825" lon="18.224297354927835"><ele>6.5</ele><time>2026-04-19T09:31:42Z</time></trkpt><trkpt lat="40.43950159089328" lon="18.22436379101052"><ele>7.0</ele><time>2026-04-19T09:31:43Z</time></trkpt><trkpt lat="40.43943833704238" lon="18.224436053485675"><ele>7.499999999999999</ele><time>2026-04-19T09:31:44Z</time></trkpt><trkpt lat="40.43937411479626" lon="18.224506034749627"><ele>8.0</ele><time>2026-04-19T09:31:45Z</time></trkpt><trkpt lat="40.439308495665095" lon="18.22458011745408"><ele>8.0</ele><time>2026-04-19T09:31:46Z</time></trkpt><trkpt lat="40.439237673414596" lon="18.22466180866"><ele>8.0</ele><time>2026-04-19T09:31:47Z</time></trkpt><trkpt lat="40.43916385609002" lon="18.224744936417128"><ele>8.0</ele><time>2026-04-19T09:31:48Z</time></trkpt><trkpt lat="40.43908464320563" lon="18.224834038773142"><ele>8.0</ele><time>2026-04-19T09:31:49Z</time></trkpt><trkpt lat="40.43899809332133" lon="18.224929321761625"><ele>8.0</ele><time>2026-04-19T09:31:50Z</time></trkpt><trkpt lat="40.43891138865056" lon="18.225026157265667"><ele>8.0</ele><time>2026-04-19T09:31:51Z</time></trkpt><trkpt lat="40.438833254329666" lon="18.2251181713626"><ele>8.0</ele><time>2026-04-19T09:31:52Z</time></trkpt><trkpt lat="40.43875305929712" lon="18.225209038681978"><ele>8.0</ele><time>2026-04-19T09:31:53Z</time></trkpt><trkpt lat="40.43867487247309" lon="18.225301229741163"><ele>8.0</ele><time>2026-04-19T09:31:54Z</time></trkpt><trkpt lat="40.43859638892125" lon="18.22539635923466"><ele>8.0</ele><time>2026-04-19T09:31:55Z</time></trkpt><trkpt lat="40.43851569667418" lon="18.22548986403346"><ele>7.800000000000001</ele><time>2026-04-19T09:31:56Z</time></trkpt><trkpt lat="40.438434419776605" lon="18.225572138634114"><ele>7.6000000000000005</ele><time>2026-04-19T09:31:57Z</time></trkpt><trkpt lat="40.43835153266598" lon="18.225661151731504"><ele>7.3999999999999995</ele><time>2026-04-19T09:31:58Z</time></trkpt><trkpt lat="40.43826484392648" lon="18.225754039851434"><ele>7.199999999999999</ele><time>2026-04-19T09:31:59Z</time></trkpt><trkpt lat="40.43817766531486" lon="18.22584945207344"><ele>7.0</ele><time>2026-04-19T09:32:00Z</time></trkpt><trkpt lat="40.43809087926936" lon="18.225949620632672"><ele>7.0</ele><time>2026-04-19T09:32:01Z</time></trkpt><trkpt lat="40.4379996019416" lon="18.226052192671844"><ele>7.0</ele><time>2026-04-19T09:32:02Z</time></trkpt><trkpt lat="40.437904253566494" lon="18.22615582869331"><ele>7.0</ele><time>2026-04-19T09:32:03Z</time></trkpt><trkpt lat="40.437808207284945" lon="18.226261861368467"><ele>7.0</ele><time>2026-04-19T09:32:04Z</time></trkpt><trkpt lat="40.43772295729792" lon="18.226359281414254"><ele>7.25</ele><time>2026-04-19T09:32:05Z</time></trkpt><trkpt lat="40.43763142267893" lon="18.22646280540668"><ele>7.5</ele><time>2026-04-19T09:32:06Z</time></trkpt><trkpt lat="40.43754151258461" lon="18.226570654507324"><ele>7.75</ele><time>2026-04-19T09:32:07Z</time></trkpt><trkpt lat="40.43745072783146" lon="18.226678104701055"><ele>8.0</ele><time>2026-04-19T09:32:08Z</time></trkpt><trkpt lat="40.43736296792876" lon="18.226767148286154"><ele>8.0</ele><time>2026-04-19T09:32:09Z</time></trkpt><trkpt lat="40.43726851736913" lon="18.226873576483584"><ele>8.0</ele><time>2026-04-19T09:32:10Z</time></trkpt><trkpt lat="40.43717192759196" lon="18.226982808809794"><ele>8.0</ele><time>2026-04-19T09:32:11Z</time></trkpt><trkpt lat="40.43707947869485" lon="18.227088753826106"><ele>8.0</ele><time>2026-04-19T09:32:12Z</time></trkpt><trkpt lat="40.43698875360002" lon="18.227193698491643"><ele>8.200000000000001</ele><time>2026-04-19T09:32:13Z</time></trkpt><trkpt lat="40.43689978498709" lon="18.22729625658569"><ele>8.4</ele><time>2026-04-19T09:32:14Z</time></trkpt><trkpt lat="40.43681918916735" lon="18.22739138719681"><ele>8.600000000000001</ele><time>2026-04-19T09:32:15Z</time></trkpt><trkpt lat="40.436744387206105" lon="18.227474078225836"><ele>8.8</ele><time>2026-04-19T09:32:16Z</time></trkpt><trkpt lat="40.436663819926274" lon="18.227563186657637"><ele>9.0</ele><time>2026-04-19T09:32:17Z</time></trkpt><trkpt lat="40.43657879485439" lon="18.227660125383355"><ele>9.0</ele><time>2026-04-19T09:32:18Z</time></trkpt><trkpt lat="40.4364911534414" lon="18.227764323569758"><ele>9.0</ele><time>2026-04-19T09:32:19Z</time></trkpt><trkpt lat="40.43640207132914" lon="18.227868788678"><ele>9.0</ele><time>2026-04-19T09:32:20Z</time></trkpt><trkpt lat="40.43631150994322" lon="18.227969648561185"><ele>9.0</ele><time>2026-04-19T09:32:21Z</time></trkpt><trkpt lat="40.436221226463495" lon="18.228079533564042"><ele>9.0</ele><time>2026-04-19T09:32:22Z</time></trkpt><trkpt lat="40.43613035210237" lon="18.228189353655463"><ele>9.0</ele><time>2026-04-19T09:32:23Z</time></trkpt><trkpt lat="40.43603678848966" lon="18.22829414182272"><ele>9.0</ele><time>2026-04-19T09:32:24Z</time></trkpt><trkpt lat="40.43594067784165" lon="18.228400237725122"><ele>9.0</ele><time>2026-04-19T09:32:25Z</time></trkpt><trkpt lat="40.435846940613104" lon="18.228511074671395"><ele>9.0</ele><time>2026-04-19T09:32:26Z</time></trkpt><trkpt lat="40.43575639060317" lon="18.228603213234102"><ele>9.0</ele><time>2026-04-19T09:32:27Z</time></trkpt><trkpt lat="40.43565399971643" lon="18.2287191175184"><ele>9.0</ele><time>2026-04-19T09:32:28Z</time></trkpt><trkpt lat="40.435550610432315" lon="18.228834123357185"><ele>9.0</ele><time>2026-04-19T09:32:29Z</time></trkpt><trkpt lat="40.435447889629536" lon="18.22895844124277"><ele>9.0</ele><time>2026-04-19T09:32:30Z</time></trkpt><trkpt lat="40.43534195596021" lon="18.229087790453633"><ele>9.0</ele><time>2026-04-19T09:32:31Z</time></trkpt><trkpt lat="40.4352424986496" lon="18.229201776162494"><ele>9.0</ele><time>2026-04-19T09:32:32Z</time></trkpt><trkpt lat="40.435143559147846" lon="18.22930924977012"><ele>9.0</ele><time>2026-04-19T09:32:33Z</time></trkpt><trkpt lat="40.43504802773109" lon="18.229422890191145"><ele>9.0</ele><time>2026-04-19T09:32:34Z</time></trkpt><trkpt lat="40.43495020449144" lon="18.229536766215922"><ele>9.0</ele><time>2026-04-19T09:32:35Z</time></trkpt><trkpt lat="40.43485363456134" lon="18.22964891411446"><ele>9.0</ele><time>2026-04-19T09:32:36Z</time></trkpt><trkpt lat="40.434755517992244" lon="18.229760492504205"><ele>9.0</ele><time>2026-04-19T09:32:37Z</time></trkpt><trkpt lat="40.434656062589504" lon="18.229876046646392"><ele>9.0</ele><time>2026-04-19T09:32:38Z</time></trkpt><trkpt lat="40.434554076352086" lon="18.22999400805854"><ele>9.0</ele><time>2026-04-19T09:32:39Z</time></trkpt><trkpt lat="40.43445151052559" lon="18.230107236352342"><ele>9.0</ele><time>2026-04-19T09:32:40Z</time></trkpt><trkpt lat="40.43434617075943" lon="18.230226769075333"><ele>9.0</ele><time>2026-04-19T09:32:41Z</time></trkpt><trkpt lat="40.43424983816632" lon="18.23033322310426"><ele>9.0</ele><time>2026-04-19T09:32:42Z</time></trkpt><trkpt lat="40.434150261937376" lon="18.23044850217472"><ele>9.0</ele><time>2026-04-19T09:32:43Z</time></trkpt><trkpt lat="40.434050550782516" lon="18.230556971020672"><ele>9.0</ele><time>2026-04-19T09:32:44Z</time></trkpt><trkpt lat="40.43395337859569" lon="18.230666003425583"><ele>9.0</ele><time>2026-04-19T09:32:45Z</time></trkpt><trkpt lat="40.433861087676846" lon="18.230771333342997"><ele>9.0</ele><time>2026-04-19T09:32:46Z</time></trkpt><trkpt lat="40.433764758724585" lon="18.23088614074604"><ele>9.0</ele><time>2026-04-19T09:32:47Z</time></trkpt><trkpt lat="40.43366716948723" lon="18.23099888578039"><ele>9.0</ele><time>2026-04-19T09:32:48Z</time></trkpt><trkpt lat="40.43356971152445" lon="18.23110640933677"><ele>9.0</ele><time>2026-04-19T09:32:49Z</time></trkpt><trkpt lat="40.43347703493992" lon="18.231216384928835"><ele>9.0</ele><time>2026-04-19T09:32:50Z</time></trkpt><trkpt lat="40.43338419012225" lon="18.23132607171547"><ele>9.0</ele><time>2026-04-19T09:32:51Z</time></trkpt><trkpt lat="40.43329136519669" lon="18.231430578738664"><ele>9.0</ele><time>2026-04-19T09:32:52Z</time></trkpt><trkpt lat="40.433202063231306" lon="18.231538266009213"><ele>9.0</ele><time>2026-04-19T09:32:53Z</time></trkpt><trkpt lat="40.43311037184981" lon="18.231642265257676"><ele>8.75</ele><time>2026-04-19T09:32:54Z</time></trkpt><trkpt lat="40.43301788795998" lon="18.231744221787523"><ele>8.5</ele><time>2026-04-19T09:32:55Z</time></trkpt><trkpt lat="40.43292422289612" lon="18.231848810214466"><ele>8.25</ele><time>2026-04-19T09:32:56Z</time></trkpt><trkpt lat="40.43283155374228" lon="18.231953968668957"><ele>8.0</ele><time>2026-04-19T09:32:57Z</time></trkpt><trkpt lat="40.43273936325002" lon="18.23205841990875"><ele>8.0</ele><time>2026-04-19T09:32:58Z</time></trkpt><trkpt lat="40.43264956170598" lon="18.232164258979495"><ele>8.0</ele><time>2026-04-19T09:32:59Z</time></trkpt><trkpt lat="40.432556292241" lon="18.23226980194152"><ele>8.0</ele><time>2026-04-19T09:33:00Z</time></trkpt><trkpt lat="40.4324598858394" lon="18.232376491406512"><ele>8.0</ele><time>2026-04-19T09:33:01Z</time></trkpt><trkpt lat="40.43236428782596" lon="18.232484254484742"><ele>8.0</ele><time>2026-04-19T09:33:02Z</time></trkpt><trkpt lat="40.43226690069656" lon="18.23259539018336"><ele>8.0</ele><time>2026-04-19T09:33:03Z</time></trkpt><trkpt lat="40.432173555247076" lon="18.232700021999513"><ele>8.0</ele><time>2026-04-19T09:33:04Z</time></trkpt><trkpt lat="40.43207636340589" lon="18.232815808309976"><ele>8.0</ele><time>2026-04-19T09:33:05Z</time></trkpt><trkpt lat="40.43197792855213" lon="18.232923567390614"><ele>8.0</ele><time>2026-04-19T09:33:06Z</time></trkpt><trkpt lat="40.431888889872006" lon="18.233021420919922"><ele>8.0</ele><time>2026-04-19T09:33:07Z</time></trkpt><trkpt lat="40.43180714022261" lon="18.233110197247694"><ele>8.0</ele><time>2026-04-19T09:33:08Z</time></trkpt><trkpt lat="40.43172033535613" lon="18.23320845808082"><ele>8.0</ele><time>2026-04-19T09:33:09Z</time></trkpt><trkpt lat="40.43163273038395" lon="18.23331429614657"><ele>7.75</ele><time>2026-04-19T09:33:10Z</time></trkpt><trkpt lat="40.43154218852175" lon="18.2334213548881"><ele>7.5</ele><time>2026-04-19T09:33:11Z</time></trkpt><trkpt lat="40.43144695765084" lon="18.233525658520826"><ele>7.25</ele><time>2026-04-19T09:33:12Z</time></trkpt><trkpt lat="40.43135383241856" lon="18.233630977658247"><ele>7.0</ele><time>2026-04-19T09:33:13Z</time></trkpt><trkpt lat="40.43126579622202" lon="18.2337359079835"><ele>7.0</ele><time>2026-04-19T09:33:14Z</time></trkpt><trkpt lat="40.43118201838009" lon="18.233832458336547"><ele>7.0</ele><time>2026-04-19T09:33:15Z</time></trkpt><trkpt lat="40.43109331010532" lon="18.23392888291737"><ele>7.0</ele><time>2026-04-19T09:33:16Z</time></trkpt><trkpt lat="40.43100261505216" lon="18.23403226050612"><ele>7.0</ele><time>2026-04-19T09:33:17Z</time></trkpt><trkpt lat="40.43091186111522" lon="18.234135155619807"><ele>6.75</ele><time>2026-04-19T09:33:18Z</time></trkpt><trkpt lat="40.430819181837194" lon="18.234241963057325"><ele>6.5</ele><time>2026-04-19T09:33:19Z</time></trkpt><trkpt lat="40.43072382892429" lon="18.234354221241475"><ele>6.25</ele><time>2026-04-19T09:33:20Z</time></trkpt><trkpt lat="40.43062816027308" lon="18.234468837102302"><ele>6.0</ele><time>2026-04-19T09:33:21Z</time></trkpt><trkpt lat="40.43052963248587" lon="18.23458312393099"><ele>6.0</ele><time>2026-04-19T09:33:22Z</time></trkpt><trkpt lat="40.430428548089" lon="18.23469598417967"><ele>6.0</ele><time>2026-04-19T09:33:23Z</time></trkpt><trkpt lat="40.43033236994896" lon="18.234811191105575"><ele>6.0</ele><time>2026-04-19T09:33:24Z</time></trkpt><trkpt lat="40.43024028102404" lon="18.234915840256814"><ele>6.0</ele><time>2026-04-19T09:33:25Z</time></trkpt><trkpt lat="40.43014274750104" lon="18.235024451446858"><ele>5.75</ele><time>2026-04-19T09:33:26Z</time></trkpt><trkpt lat="40.430042284007726" lon="18.235135684221316"><ele>5.5</ele><time>2026-04-19T09:33:27Z</time></trkpt><trkpt lat="40.42994417115768" lon="18.235250515004658"><ele>5.25</ele><time>2026-04-19T09:33:28Z</time></trkpt><trkpt lat="40.42984787511754" lon="18.235361367453972"><ele>5.0</ele><time>2026-04-19T09:33:29Z</time></trkpt><trkpt lat="40.42975434870374" lon="18.235467546512723"><ele>5.0</ele><time>2026-04-19T09:33:30Z</time></trkpt><trkpt lat="40.42966664430564" lon="18.2355672932283"><ele>5.0</ele><time>2026-04-19T09:33:31Z</time></trkpt><trkpt lat="40.429577212582" lon="18.23566628642329"><ele>5.0</ele><time>2026-04-19T09:33:32Z</time></trkpt><trkpt lat="40.429492638579895" lon="18.235764510286685"><ele>5.0</ele><time>2026-04-19T09:33:33Z</time></trkpt><trkpt lat="40.42941254863473" lon="18.23586546305498"><ele>5.0</ele><time>2026-04-19T09:33:34Z</time></trkpt><trkpt lat="40.429336525613564" lon="18.235952062070297"><ele>5.0</ele><time>2026-04-19T09:33:35Z</time></trkpt><trkpt lat="40.4292657581127" lon="18.23603303142196"><ele>5.0</ele><time>2026-04-19T09:33:36Z</time></trkpt><trkpt lat="40.42919861189344" lon="18.236111058871163"><ele>5.0</ele><time>2026-04-19T09:33:37Z</time></trkpt><trkpt lat="40.42913442863982" lon="18.23619269297119"><ele>5.0</ele><time>2026-04-19T09:33:38Z</time></trkpt><trkpt lat="40.42906177089347" lon="18.236269948578776"><ele>5.0</ele><time>2026-04-19T09:33:39Z</time></trkpt><trkpt lat="40.428989788935105" lon="18.23634652943349"><ele>5.0</ele><time>2026-04-19T09:33:40Z</time></trkpt><trkpt lat="40.42891751387178" lon="18.23642444067061"><ele>5.0</ele><time>2026-04-19T09:33:41Z</time></trkpt><trkpt lat="40.42884818902572" lon="18.236503555461027"><ele>5.0</ele><time>2026-04-19T09:33:42Z</time></trkpt><trkpt lat="40.42878065381075" lon="18.236579257746197"><ele>5.0</ele><time>2026-04-19T09:33:43Z</time></trkpt><trkpt lat="40.42871945970004" lon="18.236653076786478"><ele>5.2</ele><time>2026-04-19T09:33:44Z</time></trkpt><trkpt lat="40.428654029080995" lon="18.23672986264874"><ele>5.4</ele><time>2026-04-19T09:33:45Z</time></trkpt><trkpt lat="40.42858721466788" lon="18.236809997962766"><ele>5.6</ele><time>2026-04-19T09:33:46Z</time></trkpt><trkpt lat="40.42851578541058" lon="18.236890521010714"><ele>5.8</ele><time>2026-04-19T09:33:47Z</time></trkpt><trkpt lat="40.428444414505606" lon="18.236975112457213"><ele>6.0</ele><time>2026-04-19T09:33:48Z</time></trkpt><trkpt lat="40.428369949806694" lon="18.23706078746784"><ele>6.0</ele><time>2026-04-19T09:33:49Z</time></trkpt><trkpt lat="40.42829466709323" lon="18.23714446241923"><ele>6.0</ele><time>2026-04-19T09:33:50Z</time></trkpt><trkpt lat="40.42822198946289" lon="18.237223885263923"><ele>6.0</ele><time>2026-04-19T09:33:51Z</time></trkpt><trkpt lat="40.42814630238273" lon="18.237296594546265"><ele>6.0</ele><time>2026-04-19T09:33:52Z</time></trkpt><trkpt lat="40.42807335928979" lon="18.237375094468305"><ele>6.0</ele><time>2026-04-19T09:33:53Z</time></trkpt><trkpt lat="40.42800205736338" lon="18.2374654950372"><ele>5.8</ele><time>2026-04-19T09:33:54Z</time></trkpt><trkpt lat="40.42793330004326" lon="18.23754796154295"><ele>5.6</ele><time>2026-04-19T09:33:55Z</time></trkpt><trkpt lat="40.427855927868265" lon="18.237636013022"><ele>5.4</ele><time>2026-04-19T09:33:56Z</time></trkpt><trkpt lat="40.4277736917521" lon="18.237726063340897"><ele>5.2</ele><time>2026-04-19T09:33:57Z</time></trkpt><trkpt lat="40.42769577768008" lon="18.237822916100676"><ele>5.0</ele><time>2026-04-19T09:33:58Z</time></trkpt><trkpt lat="40.42761809389054" lon="18.237915633149793"><ele>5.0</ele><time>2026-04-19T09:33:59Z</time></trkpt><trkpt lat="40.427548128877206" lon="18.237995020556927"><ele>5.0</ele><time>2026-04-19T09:34:00Z</time></trkpt><trkpt lat="40.427475655887136" lon="18.238073191921025"><ele>5.0</ele><time>2026-04-19T09:34:01Z</time></trkpt><trkpt lat="40.42740951207368" lon="18.238147499379206"><ele>5.0</ele><time>2026-04-19T09:34:02Z</time></trkpt><trkpt lat="40.427346899385036" lon="18.238215399179925"><ele>5.0</ele><time>2026-04-19T09:34:03Z</time></trkpt><trkpt lat="40.42729310617224" lon="18.23828102884185"><ele>5.0</ele><time>2026-04-19T09:34:04Z</time></trkpt><trkpt lat="40.42724139018562" lon="18.238342193531047"><ele>4.75</ele><time>2026-04-19T09:34:05Z</time></trkpt><trkpt lat="40.42718498616865" lon="18.2384188228498"><ele>4.5</ele><time>2026-04-19T09:34:06Z</time></trkpt><trkpt lat="40.427096274062876" lon="18.238498518008992"><ele>4.25</ele><time>2026-04-19T09:34:07Z</time></trkpt><trkpt lat="40.426988475283" lon="18.2386222739129"><ele>4.0</ele><time>2026-04-19T09:34:08Z</time></trkpt><trkpt lat="40.426890249490135" lon="18.238735039381577"><ele>4.75</ele><time>2026-04-19T09:34:09Z</time></trkpt><trkpt lat="40.42679470689372" lon="18.23885024069678"><ele>5.5</ele><time>2026-04-19T09:34:10Z</time></trkpt><trkpt lat="40.426705388199586" lon="18.238948177687526"><ele>6.25</ele><time>2026-04-19T09:34:11Z</time></trkpt><trkpt lat="40.42662462048585" lon="18.239048269930137"><ele>7.0</ele><time>2026-04-19T09:34:12Z</time></trkpt><trkpt lat="40.42654535936681" lon="18.239142112837115"><ele>7.0</ele><time>2026-04-19T09:34:13Z</time></trkpt><trkpt lat="40.42647238385093" lon="18.239227245997448"><ele>6.999999999999999</ele><time>2026-04-19T09:34:14Z</time></trkpt><trkpt lat="40.426399511783984" lon="18.239308715532907"><ele>6.999999999999999</ele><time>2026-04-19T09:34:15Z</time></trkpt><trkpt lat="40.42633213221939" lon="18.2393845925918"><ele>7.0</ele><time>2026-04-19T09:34:16Z</time></trkpt><trkpt lat="40.42623935013354" lon="18.239479573543615"><ele>7.0</ele><time>2026-04-19T09:34:18Z</time></trkpt><trkpt lat="40.42615206702471" lon="18.23955245763372"><ele>7.000000000000001</ele><time>2026-04-19T09:34:20Z</time></trkpt><trkpt lat="40.42606686217675" lon="18.239534816436475"><ele>7.0</ele><time>2026-04-19T09:34:21Z</time></trkpt><trkpt lat="40.42599121078551" lon="18.23953913320431"><ele>7.0</ele><time>2026-04-19T09:34:22Z</time></trkpt><trkpt lat="40.42590901127902" lon="18.239541174128085"><ele>7.0</ele><time>2026-04-19T09:34:23Z</time></trkpt><trkpt lat="40.425830435543034" lon="18.23955371094908"><ele>7.000000000000001</ele><time>2026-04-19T09:34:24Z</time></trkpt><trkpt lat="40.42576152667909" lon="18.239566151339485"><ele>7.0</ele><time>2026-04-19T09:34:25Z</time></trkpt><trkpt lat="40.4256952086318" lon="18.23957014919485"><ele>7.0</ele><time>2026-04-19T09:34:26Z</time></trkpt><trkpt lat="40.425585025124775" lon="18.23957645867843"><ele>6.999999999999999</ele><time>2026-04-19T09:34:28Z</time></trkpt><trkpt lat="40.42550754629164" lon="18.239575235664333"><ele>6.999999999999999</ele><time>2026-04-19T09:34:31Z</time></trkpt><trkpt lat="40.42543502550906" lon="18.239627950052952"><ele>7.0</ele><time>2026-04-19T09:34:42Z</time></trkpt><trkpt lat="40.42530955280809" lon="18.23965286717058"><ele>7.0</ele><time>2026-04-19T09:34:44Z</time></trkpt><trkpt lat="40.425203754688766" lon="18.239629159306862"><ele>6.8</ele><time>2026-04-19T09:34:45Z</time></trkpt><trkpt lat="40.42508917568071" lon="18.239569869877695"><ele>6.6</ele><time>2026-04-19T09:34:46Z</time></trkpt><trkpt lat="40.424984215021745" lon="18.239481095510705"><ele>6.3999999999999995</ele><time>2026-04-19T09:34:47Z</time></trkpt><trkpt lat="40.42490756819242" lon="18.239377607867247"><ele>6.199999999999999</ele><time>2026-04-19T09:34:48Z</time></trkpt><trkpt lat="40.424847918114835" lon="18.239286274266465"><ele>6.0</ele><time>2026-04-19T09:34:49Z</time></trkpt><trkpt lat="40.424808909707636" lon="18.239196615082435"><ele>6.0</ele><time>2026-04-19T09:34:50Z</time></trkpt><trkpt lat="40.424777596951834" lon="18.239106162807374"><ele>6.0</ele><time>2026-04-19T09:34:51Z</time></trkpt><trkpt lat="40.424744474652655" lon="18.239022598200968"><ele>6.0</ele><time>2026-04-19T09:34:52Z</time></trkpt><trkpt lat="40.42471455862397" lon="18.23893178921035"><ele>6.0</ele><time>2026-04-19T09:34:53Z</time></trkpt><trkpt lat="40.424683153064315" lon="18.238838268097844"><ele>6.0</ele><time>2026-04-19T09:34:54Z</time></trkpt><trkpt lat="40.42465016831328" lon="18.238737428447504"><ele>6.0</ele><time>2026-04-19T09:34:55Z</time></trkpt><trkpt lat="40.42461263064694" lon="18.238633656698692"><ele>6.0</ele><time>2026-04-19T09:34:56Z</time></trkpt><trkpt lat="40.42458028238209" lon="18.23854236955602"><ele>6.0</ele><time>2026-04-19T09:34:57Z</time></trkpt><trkpt lat="40.42455402223075" lon="18.23845731660776"><ele>6.0</ele><time>2026-04-19T09:34:58Z</time></trkpt><trkpt lat="40.42451367388177" lon="18.238329320651356"><ele>6.0</ele><time>2026-04-19T09:35:00Z</time></trkpt><trkpt lat="40.42448303269167" lon="18.238246255375564"><ele>6.0</ele><time>2026-04-19T09:35:02Z</time></trkpt><trkpt lat="40.42445398670313" lon="18.23817062514097"><ele>6.0</ele><time>2026-04-19T09:35:08Z</time></trkpt><trkpt lat="40.4243847137077" lon="18.238307155552338"><ele>6.0</ele><time>2026-04-19T09:35:14Z</time></trkpt><trkpt lat="40.42444417845379" lon="18.23835775523581"><ele>6.0</ele><time>2026-04-19T09:35:16Z</time></trkpt><trkpt lat="40.424524893023225" lon="18.238452195554206"><ele>6.0</ele><time>2026-04-19T09:35:18Z</time></trkpt><trkpt lat="40.4245573759683" lon="18.23852475450455"><ele>6.0</ele><time>2026-04-19T09:35:19Z</time></trkpt><trkpt lat="40.42458198159601" lon="18.23860374737699"><ele>6.0</ele><time>2026-04-19T09:35:20Z</time></trkpt><trkpt lat="40.42460940938141" lon="18.2386913632211"><ele>6.0</ele><time>2026-04-19T09:35:21Z</time></trkpt><trkpt lat="40.42463758340021" lon="18.238784282598708"><ele>6.0</ele><time>2026-04-19T09:35:22Z</time></trkpt><trkpt lat="40.42466060916531" lon="18.238864978477313"><ele>6.0</ele><time>2026-04-19T09:35:23Z</time></trkpt><trkpt lat="40.4246878219327" lon="18.238949331851856"><ele>6.0</ele><time>2026-04-19T09:35:24Z</time></trkpt><trkpt lat="40.42471647218219" lon="18.239029020443446"><ele>6.0</ele><time>2026-04-19T09:35:25Z</time></trkpt><trkpt lat="40.424744580179954" lon="18.239107861273435"><ele>6.0</ele><time>2026-04-19T09:35:26Z</time></trkpt><trkpt lat="40.42479298639842" lon="18.239248501660423"><ele>6.0</ele><time>2026-04-19T09:35:28Z</time></trkpt><trkpt lat="40.42484050693759" lon="18.23937100165412"><ele>6.0</ele><time>2026-04-19T09:35:30Z</time></trkpt><trkpt lat="40.42489955412097" lon="18.239472389497664"><ele>6.0</ele><time>2026-04-19T09:35:32Z</time></trkpt><trkpt lat="40.42493917043203" lon="18.2395829184995"><ele>6.0</ele><time>2026-04-19T09:35:34Z</time></trkpt><trkpt lat="40.42494868292217" lon="18.239717719094394"><ele>6.0</ele><time>2026-04-19T09:35:36Z</time></trkpt><trkpt lat="40.42495284224204" lon="18.239804527268095"><ele>6.0</ele><time>2026-04-19T09:35:37Z</time></trkpt><trkpt lat="40.424973841404174" lon="18.239894575863318"><ele>6.0</ele><time>2026-04-19T09:35:38Z</time></trkpt><trkpt lat="40.42502927631368" lon="18.240006044631716"><ele>6.0</ele><time>2026-04-19T09:35:40Z</time></trkpt><trkpt lat="40.425101285126104" lon="18.240004521106453"><ele>6.0</ele><time>2026-04-19T09:35:43Z</time></trkpt><trkpt lat="40.42510729959315" lon="18.23988685743017"><ele>6.0</ele><time>2026-04-19T09:35:46Z</time></trkpt><trkpt lat="40.42506723149808" lon="18.239811023551077"><ele>6.0</ele><time>2026-04-19T09:35:48Z</time></trkpt><trkpt lat="40.425031146446884" lon="18.239711607042764"><ele>6.0</ele><time>2026-04-19T09:35:51Z</time></trkpt><trkpt lat="40.42498088413364" lon="18.23963186096477"><ele>6.0</ele><time>2026-04-19T09:35:54Z</time></trkpt><trkpt lat="40.42494301286" lon="18.239548561231715"><ele>6.0</ele><time>2026-04-19T09:35:57Z</time></trkpt><trkpt lat="40.424926888276474" lon="18.239437092813215"><ele>6.0</ele><time>2026-04-19T09:36:03Z</time></trkpt><trkpt lat="40.424860476216914" lon="18.23930720442915"><ele>6.0</ele><time>2026-04-19T09:36:05Z</time></trkpt><trkpt lat="40.42480703596528" lon="18.23919158087213"><ele>6.0</ele><time>2026-04-19T09:36:06Z</time></trkpt><trkpt lat="40.42477248585281" lon="18.239057737001552"><ele>6.0</ele><time>2026-04-19T09:36:07Z</time></trkpt><trkpt lat="40.42471084620915" lon="18.238925243073442"><ele>6.0</ele><time>2026-04-19T09:36:08Z</time></trkpt><trkpt lat="40.42466298496756" lon="18.238779589593463"><ele>6.0</ele><time>2026-04-19T09:36:09Z</time></trkpt><trkpt lat="40.42461551438834" lon="18.238636097020798"><ele>6.0</ele><time>2026-04-19T09:36:10Z</time></trkpt><trkpt lat="40.4245676552425" lon="18.23849207201907"><ele>6.0</ele><time>2026-04-19T09:36:11Z</time></trkpt><trkpt lat="40.42452032730367" lon="18.238349171438205"><ele>6.0</ele><time>2026-04-19T09:36:12Z</time></trkpt><trkpt lat="40.42447427890089" lon="18.238215091177214"><ele>6.0</ele><time>2026-04-19T09:36:13Z</time></trkpt><trkpt lat="40.42443287781959" lon="18.23809594600753"><ele>6.0</ele><time>2026-04-19T09:36:14Z</time></trkpt><trkpt lat="40.42439385343926" lon="18.237977984865346"><ele>6.0</ele><time>2026-04-19T09:36:15Z</time></trkpt><trkpt lat="40.42435050625117" lon="18.237854984886166"><ele>6.0</ele><time>2026-04-19T09:36:16Z</time></trkpt><trkpt lat="40.42430896895446" lon="18.237731542630918"><ele>6.0</ele><time>2026-04-19T09:36:17Z</time></trkpt><trkpt lat="40.42426713445534" lon="18.23761249825239"><ele>6.0</ele><time>2026-04-19T09:36:18Z</time></trkpt><trkpt lat="40.424229051799045" lon="18.23750804004277"><ele>6.0</ele><time>2026-04-19T09:36:19Z</time></trkpt><trkpt lat="40.42419391460436" lon="18.23740890316952"><ele>6.0</ele><time>2026-04-19T09:36:20Z</time></trkpt><trkpt lat="40.424158006227" lon="18.23731602233305"><ele>6.0</ele><time>2026-04-19T09:36:21Z</time></trkpt><trkpt lat="40.424132643747036" lon="18.237226391722327"><ele>6.0</ele><time>2026-04-19T09:36:22Z</time></trkpt><trkpt lat="40.424108600258776" lon="18.23714167146882"><ele>6.0</ele><time>2026-04-19T09:36:23Z</time></trkpt><trkpt lat="40.4240925350862" lon="18.23698621353636"><ele>6.0</ele><time>2026-04-19T09:36:25Z</time></trkpt><trkpt lat="40.424033784254746" lon="18.236952912615948"><ele>6.0</ele><time>2026-04-19T09:36:36Z</time></trkpt><trkpt lat="40.42408021209056" lon="18.237039572873645"><ele>6.0</ele><time>2026-04-19T09:36:39Z</time></trkpt><trkpt lat="40.42411767518138" lon="18.23714804224302"><ele>6.0</ele><time>2026-04-19T09:36:41.999Z</time></trkpt><trkpt lat="40.423719970798146" lon="18.237096448998557"><ele>6.0</ele><time>2026-04-19T09:40:00Z</time></trkpt><trkpt lat="40.42362614308745" lon="18.237149562843584"><ele>6.0</ele><time>2026-04-19T09:40:02Z</time></trkpt><trkpt lat="40.42355704904854" lon="18.23719495010042"><ele>6.0</ele><time>2026-04-19T09:40:03Z</time></trkpt><trkpt lat="40.423464827244544" lon="18.237279303588423"><ele>6.0</ele><time>2026-04-19T09:40:04Z</time></trkpt><trkpt lat="40.42340064910229" lon="18.237345502625292"><ele>6.0</ele><time>2026-04-19T09:40:05Z</time></trkpt><trkpt lat="40.42333632178908" lon="18.237411855516932"><ele>6.0</ele><time>2026-04-19T09:40:06Z</time></trkpt><trkpt lat="40.42326624935208" lon="18.237484134507426"><ele>6.0</ele><time>2026-04-19T09:40:07Z</time></trkpt><trkpt lat="40.42329721166206" lon="18.23775440193414"><ele>6.0</ele><time>2026-04-19T09:40:08Z</time></trkpt><trkpt lat="40.423207110263654" lon="18.23782347032969"><ele>6.0</ele><time>2026-04-19T09:40:09Z</time></trkpt><trkpt lat="40.42310996901281" lon="18.237893281944807"><ele>6.0</ele><time>2026-04-19T09:40:10Z</time></trkpt><trkpt lat="40.42301691733464" lon="18.237961627815384"><ele>6.0</ele><time>2026-04-19T09:40:11Z</time></trkpt><trkpt lat="40.42292484999829" lon="18.23803504802593"><ele>6.0</ele><time>2026-04-19T09:40:12Z</time></trkpt><trkpt lat="40.422835724229486" lon="18.23809984596452"><ele>6.0</ele><time>2026-04-19T09:40:13Z</time></trkpt><trkpt lat="40.42273947546299" lon="18.238159013710828"><ele>6.0</ele><time>2026-04-19T09:40:14Z</time></trkpt><trkpt lat="40.422634365772176" lon="18.23823525977777"><ele>6.0</ele><time>2026-04-19T09:40:15Z</time></trkpt><trkpt lat="40.42253511721643" lon="18.238319602433197"><ele>6.0</ele><time>2026-04-19T09:40:16Z</time></trkpt><trkpt lat="40.42244890143298" lon="18.238408632018718"><ele>6.0</ele><time>2026-04-19T09:40:17Z</time></trkpt><trkpt lat="40.42236627884729" lon="18.238489387406805"><ele>6.0</ele><time>2026-04-19T09:40:18Z</time></trkpt><trkpt lat="40.42226731336865" lon="18.23856763528471"><ele>6.0</ele><time>2026-04-19T09:40:19Z</time></trkpt><trkpt lat="40.42217540475963" lon="18.23862360791862"><ele>6.0</ele><time>2026-04-19T09:40:20Z</time></trkpt><trkpt lat="40.422086773775135" lon="18.23866777291132"><ele>6.0</ele><time>2026-04-19T09:40:21Z</time></trkpt><trkpt lat="40.421998847870455" lon="18.238726288176004"><ele>6.0</ele><time>2026-04-19T09:40:22Z</time></trkpt><trkpt lat="40.42190593447059" lon="18.238814397782672"><ele>6.0</ele><time>2026-04-19T09:40:23Z</time></trkpt><trkpt lat="40.42180897706403" lon="18.238913440209615"><ele>6.0</ele><time>2026-04-19T09:40:24Z</time></trkpt><trkpt lat="40.42171269666194" lon="18.239004542515403"><ele>6.333333333333333</ele><time>2026-04-19T09:40:25Z</time></trkpt><trkpt lat="40.421629176761606" lon="18.239077243194263"><ele>6.666666666666666</ele><time>2026-04-19T09:40:26Z</time></trkpt><trkpt lat="40.421561554716035" lon="18.239132026946077"><ele>7.0</ele><time>2026-04-19T09:40:27Z</time></trkpt><trkpt lat="40.42149564698638" lon="18.239200386037194"><ele>7.333333333333333</ele><time>2026-04-19T09:40:28Z</time></trkpt><trkpt lat="40.42142535028645" lon="18.239281974621754"><ele>7.666666666666666</ele><time>2026-04-19T09:40:29Z</time></trkpt><trkpt lat="40.42135396660513" lon="18.239342897539306"><ele>8.0</ele><time>2026-04-19T09:40:30Z</time></trkpt><trkpt lat="40.42127972505968" lon="18.239398231093386"><ele>7.999999999999999</ele><time>2026-04-19T09:40:31Z</time></trkpt><trkpt lat="40.4212000855695" lon="18.239453699072303"><ele>8.0</ele><time>2026-04-19T09:40:32Z</time></trkpt><trkpt lat="40.421139817132875" lon="18.23949814756737"><ele>8.0</ele><time>2026-04-19T09:40:33Z</time></trkpt><trkpt lat="40.42107045521613" lon="18.23955024456309"><ele>8.0</ele><time>2026-04-19T09:40:34Z</time></trkpt><trkpt lat="40.420994460610956" lon="18.23960813444949"><ele>7.999999999999999</ele><time>2026-04-19T09:40:35Z</time></trkpt><trkpt lat="40.420915043946685" lon="18.239672410887092"><ele>8.0</ele><time>2026-04-19T09:40:36Z</time></trkpt><trkpt lat="40.420846661255176" lon="18.239725035931432"><ele>8.0</ele><time>2026-04-19T09:40:37Z</time></trkpt><trkpt lat="40.420773223583886" lon="18.239786705126328"><ele>8.0</ele><time>2026-04-19T09:40:38Z</time></trkpt><trkpt lat="40.42068887805108" lon="18.239857358216664"><ele>8.0</ele><time>2026-04-19T09:40:39Z</time></trkpt><trkpt lat="40.4205993807416" lon="18.239928359919272"><ele>8.0</ele><time>2026-04-19T09:40:40Z</time></trkpt><trkpt lat="40.42050937449838" lon="18.239997961850563"><ele>8.0</ele><time>2026-04-19T09:40:41Z</time></trkpt><trkpt lat="40.4204098649264" lon="18.240065998923363"><ele>7.5</ele><time>2026-04-19T09:40:42Z</time></trkpt><trkpt lat="40.420308232696016" lon="18.240109162334335"><ele>7.0</ele><time>2026-04-19T09:40:43Z</time></trkpt><trkpt lat="40.420207606301254" lon="18.24015203515851"><ele>6.5</ele><time>2026-04-19T09:40:44Z</time></trkpt><trkpt lat="40.420101763136174" lon="18.240218447167976"><ele>6.0</ele><time>2026-04-19T09:40:45Z</time></trkpt><trkpt lat="40.419991604989086" lon="18.240280138461664"><ele>6.0</ele><time>2026-04-19T09:40:46Z</time></trkpt><trkpt lat="40.41988376119228" lon="18.240342081069432"><ele>6.0</ele><time>2026-04-19T09:40:47Z</time></trkpt><trkpt lat="40.4197822301861" lon="18.240391294113103"><ele>6.0</ele><time>2026-04-19T09:40:48Z</time></trkpt><trkpt lat="40.41969264301998" lon="18.24045273507706"><ele>6.0</ele><time>2026-04-19T09:40:49Z</time></trkpt><trkpt lat="40.41960417485384" lon="18.24052795449521"><ele>6.0</ele><time>2026-04-19T09:40:50Z</time></trkpt><trkpt lat="40.419522945083536" lon="18.240581500412183"><ele>6.0</ele><time>2026-04-19T09:40:51Z</time></trkpt><trkpt lat="40.419437144730836" lon="18.24061106272739"><ele>6.0</ele><time>2026-04-19T09:40:52Z</time></trkpt><trkpt lat="40.4193561405622" lon="18.240655974575624"><ele>6.0</ele><time>2026-04-19T09:40:52.999Z</time></trkpt><trkpt lat="40.419281411662894" lon="18.24069604506916"><ele>6.0</ele><time>2026-04-19T09:40:53.999Z</time></trkpt><trkpt lat="40.41921711978664" lon="18.24072022581693"><ele>6.0</ele><time>2026-04-19T09:40:55Z</time></trkpt><trkpt lat="40.41911354733166" lon="18.240785641739556"><ele>6.0</ele><time>2026-04-19T09:40:56.999Z</time></trkpt><trkpt lat="40.41906521981443" lon="18.240867658742566"><ele>6.0</ele><time>2026-04-19T09:40:59Z</time></trkpt><trkpt lat="40.41901750782115" lon="18.240946320143898"><ele>6.0</ele><time>2026-04-19T09:41:03Z</time></trkpt><trkpt lat="40.41892104003807" lon="18.240877365510464"><ele>6.0</ele><time>2026-04-19T09:41:05Z</time></trkpt><trkpt lat="40.418849912567104" lon="18.24079742120739"><ele>6.0</ele><time>2026-04-19T09:41:06Z</time></trkpt><trkpt lat="40.41875958753528" lon="18.240739171394157"><ele>6.0</ele><time>2026-04-19T09:41:07Z</time></trkpt><trkpt lat="40.418655718641205" lon="18.24067897946859"><ele>6.25</ele><time>2026-04-19T09:41:08Z</time></trkpt><trkpt lat="40.418539802605856" lon="18.2406060038971"><ele>6.5</ele><time>2026-04-19T09:41:09Z</time></trkpt><trkpt lat="40.4184237657184" lon="18.240536080130546"><ele>6.75</ele><time>2026-04-19T09:41:10Z</time></trkpt><trkpt lat="40.4183233871708" lon="18.240475681357534"><ele>7.0</ele><time>2026-04-19T09:41:11Z</time></trkpt><trkpt lat="40.41822881566593" lon="18.24041489876075"><ele>7.0</ele><time>2026-04-19T09:41:12Z</time></trkpt><trkpt lat="40.418127260138" lon="18.240356156111307"><ele>6.999999999999999</ele><time>2026-04-19T09:41:13Z</time></trkpt><trkpt lat="40.4180272444684" lon="18.240299232165174"><ele>6.999999999999999</ele><time>2026-04-19T09:41:14Z</time></trkpt><trkpt lat="40.417932206581" lon="18.240241885777074"><ele>7.0</ele><time>2026-04-19T09:41:15Z</time></trkpt><trkpt lat="40.417823510961895" lon="18.24016542033716"><ele>7.0</ele><time>2026-04-19T09:41:16Z</time></trkpt><trkpt lat="40.417723842382635" lon="18.240108656870866"><ele>7.3999999999999995</ele><time>2026-04-19T09:41:17Z</time></trkpt><trkpt lat="40.417640758473965" lon="18.240059002241125"><ele>7.799999999999999</ele><time>2026-04-19T09:41:18Z</time></trkpt><trkpt lat="40.41758196115549" lon="18.24001810935597"><ele>8.2</ele><time>2026-04-19T09:41:19Z</time></trkpt><trkpt lat="40.41749633037023" lon="18.23994111389951"><ele>8.6</ele><time>2026-04-19T09:41:21Z</time></trkpt><trkpt lat="40.4173576419476" lon="18.240056008077087"><ele>9.0</ele><time>2026-04-19T09:41:24Z</time></trkpt><trkpt lat="40.417302668274644" lon="18.240124063136374"><ele>9.0</ele><time>2026-04-19T09:41:25Z</time></trkpt><trkpt lat="40.41724179265679" lon="18.24020707977763"><ele>9.0</ele><time>2026-04-19T09:41:26Z</time></trkpt><trkpt lat="40.41717562254751" lon="18.240294814937762"><ele>9.0</ele><time>2026-04-19T09:41:27Z</time></trkpt><trkpt lat="40.417097517757" lon="18.240395457009996"><ele>9.0</ele><time>2026-04-19T09:41:28Z</time></trkpt><trkpt lat="40.41700729594066" lon="18.240506556516355"><ele>9.0</ele><time>2026-04-19T09:41:29Z</time></trkpt><trkpt lat="40.416919956974624" lon="18.240616076759203"><ele>9.25</ele><time>2026-04-19T09:41:30Z</time></trkpt><trkpt lat="40.41683177339435" lon="18.240717327183408"><ele>9.5</ele><time>2026-04-19T09:41:31Z</time></trkpt><trkpt lat="40.41674422369875" lon="18.240821474821644"><ele>9.75</ele><time>2026-04-19T09:41:32Z</time></trkpt><trkpt lat="40.41666213713199" lon="18.24091906347744"><ele>10.0</ele><time>2026-04-19T09:41:33Z</time></trkpt><trkpt lat="40.41658552048784" lon="18.241030249805657"><ele>10.0</ele><time>2026-04-19T09:41:34Z</time></trkpt><trkpt lat="40.416499594210045" lon="18.241131338997224"><ele>10.0</ele><time>2026-04-19T09:41:35Z</time></trkpt><trkpt lat="40.41641551922156" lon="18.241220012220275"><ele>10.0</ele><time>2026-04-19T09:41:36Z</time></trkpt><trkpt lat="40.416330146775046" lon="18.241313557932596"><ele>10.0</ele><time>2026-04-19T09:41:37Z</time></trkpt><trkpt lat="40.41624157539856" lon="18.241432571057466"><ele>10.0</ele><time>2026-04-19T09:41:38Z</time></trkpt><trkpt lat="40.416155282659034" lon="18.241542699381263"><ele>10.0</ele><time>2026-04-19T09:41:39Z</time></trkpt><trkpt lat="40.41608375597199" lon="18.241625869778908"><ele>10.0</ele><time>2026-04-19T09:41:40Z</time></trkpt><trkpt lat="40.41603161413606" lon="18.24169906309533"><ele>10.0</ele><time>2026-04-19T09:41:41Z</time></trkpt><trkpt lat="40.41601289635049" lon="18.24178868729539"><ele>10.0</ele><time>2026-04-19T09:41:42Z</time></trkpt><trkpt lat="40.416023367566645" lon="18.241881370659026"><ele>10.0</ele><time>2026-04-19T09:41:43Z</time></trkpt><trkpt lat="40.41605348042712" lon="18.241981581539978"><ele>10.0</ele><time>2026-04-19T09:41:44Z</time></trkpt><trkpt lat="40.41599277389442" lon="18.24209491800133"><ele>10.0</ele><time>2026-04-19T09:41:46Z</time></trkpt><trkpt lat="40.41592263710821" lon="18.24211892952328"><ele>10.0</ele><time>2026-04-19T09:41:47Z</time></trkpt><trkpt lat="40.41582616523361" lon="18.242194036190167"><ele>10.0</ele><time>2026-04-19T09:41:48Z</time></trkpt><trkpt lat="40.41571635632185" lon="18.242301678523997"><ele>10.0</ele><time>2026-04-19T09:41:49Z</time></trkpt><trkpt lat="40.415583342288755" lon="18.242405907552275"><ele>10.25</ele><time>2026-04-19T09:41:50Z</time></trkpt><trkpt lat="40.41544978174382" lon="18.242515032428027"><ele>10.5</ele><time>2026-04-19T09:41:51Z</time></trkpt><trkpt lat="40.41532158141019" lon="18.24259703910897"><ele>10.75</ele><time>2026-04-19T09:41:52Z</time></trkpt><trkpt lat="40.415218188329376" lon="18.242693416912584"><ele>11.0</ele><time>2026-04-19T09:41:53Z</time></trkpt><trkpt lat="40.41513216733603" lon="18.242763711620206"><ele>11.0</ele><time>2026-04-19T09:41:54Z</time></trkpt><trkpt lat="40.41502781173708" lon="18.242815010548327"><ele>11.0</ele><time>2026-04-19T09:41:55Z</time></trkpt><trkpt lat="40.414927462493246" lon="18.24288340265263"><ele>11.0</ele><time>2026-04-19T09:41:56Z</time></trkpt><trkpt lat="40.414820210232826" lon="18.2429564994453"><ele>11.0</ele><time>2026-04-19T09:41:57Z</time></trkpt><trkpt lat="40.41473963401347" lon="18.243064122274568"><ele>10.75</ele><time>2026-04-19T09:41:58Z</time></trkpt><trkpt lat="40.414649916496685" lon="18.243129156022253"><ele>10.5</ele><time>2026-04-19T09:41:59Z</time></trkpt><trkpt lat="40.414549943367845" lon="18.243203170288442"><ele>10.25</ele><time>2026-04-19T09:42:00Z</time></trkpt><trkpt lat="40.41443624115254" lon="18.24327935632192"><ele>10.0</ele><time>2026-04-19T09:42:01Z</time></trkpt><trkpt lat="40.41434006745784" lon="18.24336786678615"><ele>10.0</ele><time>2026-04-19T09:42:02Z</time></trkpt><trkpt lat="40.41426532764963" lon="18.243427845699678"><ele>10.0</ele><time>2026-04-19T09:42:03Z</time></trkpt><trkpt lat="40.41418635227095" lon="18.24350823006072"><ele>10.0</ele><time>2026-04-19T09:42:04Z</time></trkpt><trkpt lat="40.414118067062354" lon="18.243558877341542"><ele>10.0</ele><time>2026-04-19T09:42:05Z</time></trkpt><trkpt lat="40.414036457678115" lon="18.243578674588946"><ele>10.0</ele><time>2026-04-19T09:42:07Z</time></trkpt><trkpt lat="40.413999207296754" lon="18.243509512636013"><ele>10.0</ele><time>2026-04-19T09:42:08Z</time></trkpt><trkpt lat="40.413970718389244" lon="18.24338080168896"><ele>10.0</ele><time>2026-04-19T09:42:10Z</time></trkpt><trkpt lat="40.4139369354105" lon="18.24329767683342"><ele>10.0</ele><time>2026-04-19T09:42:11Z</time></trkpt><trkpt lat="40.41390419861827" lon="18.243223509593236"><ele>10.0</ele><time>2026-04-19T09:42:12Z</time></trkpt><trkpt lat="40.4138560865777" lon="18.24312744236038"><ele>10.0</ele><time>2026-04-19T09:42:14Z</time></trkpt><trkpt lat="40.41380593195469" lon="18.243055349812927"><ele>10.0</ele><time>2026-04-19T09:42:16Z</time></trkpt><trkpt lat="40.413702500244455" lon="18.24317245983209"><ele>10.0</ele><time>2026-04-19T09:42:17Z</time></trkpt><trkpt lat="40.413646656610105" lon="18.243234372987104"><ele>10.4</ele><time>2026-04-19T09:42:18Z</time></trkpt><trkpt lat="40.41357547729949" lon="18.24330186755495"><ele>10.8</ele><time>2026-04-19T09:42:19Z</time></trkpt><trkpt lat="40.41348126530658" lon="18.24336426563879"><ele>11.2</ele><time>2026-04-19T09:42:20Z</time></trkpt><trkpt lat="40.41339710848274" lon="18.243425313457404"><ele>11.6</ele><time>2026-04-19T09:42:21Z</time></trkpt><trkpt lat="40.41331211017153" lon="18.24348434442763"><ele>12.0</ele><time>2026-04-19T09:42:22Z</time></trkpt><trkpt lat="40.41323764286031" lon="18.243550843436648"><ele>12.0</ele><time>2026-04-19T09:42:23Z</time></trkpt><trkpt lat="40.41315772566453" lon="18.243608397807705"><ele>12.0</ele><time>2026-04-19T09:42:24Z</time></trkpt><trkpt lat="40.41308868817518" lon="18.243664503896696"><ele>12.0</ele><time>2026-04-19T09:42:25Z</time></trkpt><trkpt lat="40.41302264572329" lon="18.243715351270733"><ele>12.0</ele><time>2026-04-19T09:42:26Z</time></trkpt><trkpt lat="40.412964923686744" lon="18.243752987233147"><ele>12.0</ele><time>2026-04-19T09:42:27Z</time></trkpt><trkpt lat="40.41288198312186" lon="18.243841775513463"><ele>12.0</ele><time>2026-04-19T09:42:29Z</time></trkpt><trkpt lat="40.41289628370804" lon="18.243968671517244"><ele>12.0</ele><time>2026-04-19T09:42:31Z</time></trkpt><trkpt lat="40.41295009800628" lon="18.244043880490725"><ele>12.0</ele><time>2026-04-19T09:42:32Z</time></trkpt><trkpt lat="40.41299119624252" lon="18.24414960816141"><ele>12.0</ele><time>2026-04-19T09:42:33Z</time></trkpt><trkpt lat="40.4130343539496" lon="18.244242995640512"><ele>12.0</ele><time>2026-04-19T09:42:34Z</time></trkpt><trkpt lat="40.41306053579667" lon="18.24437208737794"><ele>12.0</ele><time>2026-04-19T09:42:36Z</time></trkpt><trkpt lat="40.41295359588618" lon="18.244464463587125"><ele>12.0</ele><time>2026-04-19T09:42:38.001Z</time></trkpt><trkpt lat="40.41288952307738" lon="18.24453588416149"><ele>12.0</ele><time>2026-04-19T09:42:39.001Z</time></trkpt><trkpt lat="40.412801132773296" lon="18.244589491802202"><ele>12.0</ele><time>2026-04-19T09:42:40.001Z</time></trkpt><trkpt lat="40.41270225907029" lon="18.24466579345358"><ele>12.0</ele><time>2026-04-19T09:42:41.001Z</time></trkpt><trkpt lat="40.41259913577386" lon="18.24475116243539"><ele>12.0</ele><time>2026-04-19T09:42:42.001Z</time></trkpt><trkpt lat="40.41249773153907" lon="18.2448364448825"><ele>11.75</ele><time>2026-04-19T09:42:43.001Z</time></trkpt><trkpt lat="40.41241027317288" lon="18.24490519322144"><ele>11.5</ele><time>2026-04-19T09:42:44.001Z</time></trkpt><trkpt lat="40.41231120807286" lon="18.24498053704409"><ele>11.25</ele><time>2026-04-19T09:42:45.001Z</time></trkpt><trkpt lat="40.41220236266931" lon="18.245066126175736"><ele>11.0</ele><time>2026-04-19T09:42:46.001Z</time></trkpt><trkpt lat="40.41209451101849" lon="18.245152284980097"><ele>11.5</ele><time>2026-04-19T09:42:47.001Z</time></trkpt><trkpt lat="40.41199103720977" lon="18.245235891780368"><ele>12.0</ele><time>2026-04-19T09:42:48.001Z</time></trkpt><trkpt lat="40.411881009964716" lon="18.24532663878354"><ele>12.5</ele><time>2026-04-19T09:42:49.001Z</time></trkpt><trkpt lat="40.41176349935251" lon="18.24541722517427"><ele>13.0</ele><time>2026-04-19T09:42:50.001Z</time></trkpt><trkpt lat="40.41164948767235" lon="18.24550907684225"><ele>13.0</ele><time>2026-04-19T09:42:51.001Z</time></trkpt><trkpt lat="40.411539999983276" lon="18.24558948225929"><ele>13.0</ele><time>2026-04-19T09:42:52.001Z</time></trkpt><trkpt lat="40.41144281087134" lon="18.245665366805152"><ele>13.0</ele><time>2026-04-19T09:42:53.001Z</time></trkpt><trkpt lat="40.41135713103742" lon="18.24573504932832"><ele>13.0</ele><time>2026-04-19T09:42:54.001Z</time></trkpt><trkpt lat="40.41127349942956" lon="18.24580523181718"><ele>13.0</ele><time>2026-04-19T09:42:55.001Z</time></trkpt><trkpt lat="40.41118235302265" lon="18.24587563260233"><ele>12.8</ele><time>2026-04-19T09:42:56.001Z</time></trkpt><trkpt lat="40.411093349903076" lon="18.245940703341763"><ele>12.600000000000001</ele><time>2026-04-19T09:42:57.001Z</time></trkpt><trkpt lat="40.410999487791024" lon="18.246007380476147"><ele>12.399999999999999</ele><time>2026-04-19T09:42:58.001Z</time></trkpt><trkpt lat="40.41090257658198" lon="18.246081305341487"><ele>12.2</ele><time>2026-04-19T09:42:58.999Z</time></trkpt><trkpt lat="40.410811884772265" lon="18.246152372815818"><ele>12.0</ele><time>2026-04-19T09:42:59.999Z</time></trkpt><trkpt lat="40.410727212170606" lon="18.246218690165957"><ele>12.0</ele><time>2026-04-19T09:43:00.999Z</time></trkpt><trkpt lat="40.41064326141667" lon="18.24628590240814"><ele>12.0</ele><time>2026-04-19T09:43:01.999Z</time></trkpt><trkpt lat="40.41056565506762" lon="18.246350010222177"><ele>12.0</ele><time>2026-04-19T09:43:02.999Z</time></trkpt><trkpt lat="40.41049145089705" lon="18.24641338227282"><ele>12.0</ele><time>2026-04-19T09:43:03.999Z</time></trkpt><trkpt lat="40.410411598093624" lon="18.246471800797956"><ele>12.0</ele><time>2026-04-19T09:43:04.999Z</time></trkpt><trkpt lat="40.410331023168425" lon="18.246536271599858"><ele>12.2</ele><time>2026-04-19T09:43:05.999Z</time></trkpt><trkpt lat="40.41025728676137" lon="18.246594731712978"><ele>12.399999999999999</ele><time>2026-04-19T09:43:06.999Z</time></trkpt><trkpt lat="40.410184332406644" lon="18.2466541701138"><ele>12.600000000000001</ele><time>2026-04-19T09:43:07.999Z</time></trkpt><trkpt lat="40.410109226755836" lon="18.246725153005748"><ele>12.8</ele><time>2026-04-19T09:43:08.999Z</time></trkpt><trkpt lat="40.41004068198076" lon="18.246761636217276"><ele>13.0</ele><time>2026-04-19T09:43:09.999Z</time></trkpt><trkpt lat="40.40993552471022" lon="18.246863813635787"><ele>12.999999999999998</ele><time>2026-04-19T09:43:11.999Z</time></trkpt><trkpt lat="40.40986755726713" lon="18.246898012815436"><ele>13.0</ele><time>2026-04-19T09:43:12.999Z</time></trkpt><trkpt lat="40.40980276922565" lon="18.246948286034566"><ele>13.0</ele><time>2026-04-19T09:43:13.999Z</time></trkpt><trkpt lat="40.40971666668138" lon="18.247035709177304"><ele>13.0</ele><time>2026-04-19T09:43:15.999Z</time></trkpt><trkpt lat="40.40964988415925" lon="18.24703654326373"><ele>12.999999999999998</ele><time>2026-04-19T09:43:18.999Z</time></trkpt><trkpt lat="40.409750989921825" lon="18.247009635624394"><ele>13.0</ele><time>2026-04-19T09:43:29Z</time></trkpt><trkpt lat="40.40979808262569" lon="18.246951922574038"><ele>13.0</ele><time>2026-04-19T09:43:30Z</time></trkpt><trkpt lat="40.40985490423216" lon="18.246907830879373"><ele>13.0</ele><time>2026-04-19T09:43:31Z</time></trkpt><trkpt lat="40.41008949135432" lon="18.246756792355296"><ele>13.0</ele><time>2026-04-19T09:43:32Z</time></trkpt><trkpt lat="40.410055929787724" lon="18.24664909454952"><ele>13.0</ele><time>2026-04-19T09:43:37Z</time></trkpt><trkpt lat="40.409989293164244" lon="18.246489526880723"><ele>12.8</ele><time>2026-04-19T09:43:39Z</time></trkpt><trkpt lat="40.409945690347605" lon="18.24638939404507"><ele>12.600000000000001</ele><time>2026-04-19T09:43:40Z</time></trkpt><trkpt lat="40.409890555659096" lon="18.246269844762104"><ele>12.399999999999999</ele><time>2026-04-19T09:43:41Z</time></trkpt><trkpt lat="40.409816801685025" lon="18.246144276947604"><ele>12.2</ele><time>2026-04-19T09:43:42Z</time></trkpt><trkpt lat="40.40974630134019" lon="18.245999379114366"><ele>12.0</ele><time>2026-04-19T09:43:43Z</time></trkpt><trkpt lat="40.409692729609716" lon="18.245881267800907"><ele>12.2</ele><time>2026-04-19T09:43:44Z</time></trkpt><trkpt lat="40.409637560981615" lon="18.24577325073505"><ele>12.399999999999999</ele><time>2026-04-19T09:43:45Z</time></trkpt><trkpt lat="40.40958287457351" lon="18.24565672528056"><ele>12.600000000000001</ele><time>2026-04-19T09:43:46Z</time></trkpt><trkpt lat="40.40952610909236" lon="18.245534932059304"><ele>12.8</ele><time>2026-04-19T09:43:47Z</time></trkpt><trkpt lat="40.409467066390675" lon="18.24541240806026"><ele>13.0</ele><time>2026-04-19T09:43:48Z</time></trkpt><trkpt lat="40.4094113174486" lon="18.2452961816433"><ele>13.25</ele><time>2026-04-19T09:43:49Z</time></trkpt><trkpt lat="40.40939434251906" lon="18.24515295314072"><ele>13.5</ele><time>2026-04-19T09:43:50Z</time></trkpt><trkpt lat="40.40937529578784" lon="18.24499972478465"><ele>13.75</ele><time>2026-04-19T09:43:51Z</time></trkpt><trkpt lat="40.40935119544868" lon="18.244842590499186"><ele>14.0</ele><time>2026-04-19T09:43:52Z</time></trkpt><trkpt lat="40.40932591614109" lon="18.244691403263023"><ele>14.0</ele><time>2026-04-19T09:43:53Z</time></trkpt><trkpt lat="40.40930029835862" lon="18.244552732754848"><ele>14.0</ele><time>2026-04-19T09:43:54Z</time></trkpt><trkpt lat="40.40927582771971" lon="18.24439995430391"><ele>14.0</ele><time>2026-04-19T09:43:55Z</time></trkpt><trkpt lat="40.409244647823094" lon="18.244240610865777"><ele>14.0</ele><time>2026-04-19T09:43:56Z</time></trkpt><trkpt lat="40.409214007486945" lon="18.2441010832723"><ele>14.2</ele><time>2026-04-19T09:43:57Z</time></trkpt><trkpt lat="40.4091784546835" lon="18.243950427044023"><ele>14.399999999999999</ele><time>2026-04-19T09:43:58Z</time></trkpt><trkpt lat="40.4091470071742" lon="18.24381609756786"><ele>14.6</ele><time>2026-04-19T09:43:59Z</time></trkpt><trkpt lat="40.40912630626628" lon="18.24370705597365"><ele>14.8</ele><time>2026-04-19T09:44:00Z</time></trkpt><trkpt lat="40.40911635526624" lon="18.243592819091273"><ele>15.0</ele><time>2026-04-19T09:44:01Z</time></trkpt><trkpt lat="40.409106094723" lon="18.24346980367586"><ele>15.0</ele><time>2026-04-19T09:44:02Z</time></trkpt><trkpt lat="40.40907849953687" lon="18.24333599952129"><ele>15.0</ele><time>2026-04-19T09:44:03Z</time></trkpt><trkpt lat="40.40905302887374" lon="18.243217738506353"><ele>15.0</ele><time>2026-04-19T09:44:04Z</time></trkpt><trkpt lat="40.40903219396462" lon="18.243106324521612"><ele>15.0</ele><time>2026-04-19T09:44:05Z</time></trkpt><trkpt lat="40.40901590737356" lon="18.243003540459018"><ele>15.0</ele><time>2026-04-19T09:44:06Z</time></trkpt><trkpt lat="40.40899828790149" lon="18.242899659626516"><ele>15.0</ele><time>2026-04-19T09:44:07Z</time></trkpt><trkpt lat="40.40898101471687" lon="18.242799015243268"><ele>14.833333333333334</ele><time>2026-04-19T09:44:08Z</time></trkpt><trkpt lat="40.408962677974614" lon="18.242693107079436"><ele>14.666666666666668</ele><time>2026-04-19T09:44:09Z</time></trkpt><trkpt lat="40.408944280920615" lon="18.24259317975246"><ele>14.5</ele><time>2026-04-19T09:44:10Z</time></trkpt><trkpt lat="40.40892435736717" lon="18.242496766650447"><ele>14.333333333333334</ele><time>2026-04-19T09:44:11Z</time></trkpt><trkpt lat="40.40890433026286" lon="18.24239992312085"><ele>14.166666666666668</ele><time>2026-04-19T09:44:12Z</time></trkpt><trkpt lat="40.40888741678261" lon="18.242313024673567"><ele>14.0</ele><time>2026-04-19T09:44:13Z</time></trkpt><trkpt lat="40.40886718024136" lon="18.24218833745058"><ele>14.2</ele><time>2026-04-19T09:44:15Z</time></trkpt><trkpt lat="40.4088529235389" lon="18.242088652254694"><ele>14.399999999999999</ele><time>2026-04-19T09:44:17Z</time></trkpt><trkpt lat="40.408795063724725" lon="18.24203459305517"><ele>14.6</ele><time>2026-04-19T09:44:24Z</time></trkpt><trkpt lat="40.40868643132468" lon="18.24201294774654"><ele>14.8</ele><time>2026-04-19T09:44:26Z</time></trkpt><trkpt lat="40.40859046842236" lon="18.24201513979178"><ele>15.0</ele><time>2026-04-19T09:44:27Z</time></trkpt><trkpt lat="40.408481130370674" lon="18.242017622572074"><ele>15.0</ele><time>2026-04-19T09:44:28Z</time></trkpt><trkpt lat="40.40835401611439" lon="18.242019132106467"><ele>15.0</ele><time>2026-04-19T09:44:29Z</time></trkpt><trkpt lat="40.40822847898225" lon="18.242020622912616"><ele>15.0</ele><time>2026-04-19T09:44:30Z</time></trkpt><trkpt lat="40.408113428430504" lon="18.242021989186934"><ele>15.0</ele><time>2026-04-19T09:44:31Z</time></trkpt><trkpt lat="40.40801793556836" lon="18.242022976439884"><ele>15.333333333333334</ele><time>2026-04-19T09:44:32Z</time></trkpt><trkpt lat="40.40794051052246" lon="18.24202327711878"><ele>15.666666666666668</ele><time>2026-04-19T09:44:33Z</time></trkpt><trkpt lat="40.407864691169465" lon="18.24204333827209"><ele>16.0</ele><time>2026-04-19T09:44:34.001Z</time></trkpt><trkpt lat="40.407795590854086" lon="18.242044316389855"><ele>16.333333333333336</ele><time>2026-04-19T09:44:35.001Z</time></trkpt><trkpt lat="40.40772199188645" lon="18.242041976405794"><ele>16.666666666666668</ele><time>2026-04-19T09:44:36.001Z</time></trkpt><trkpt lat="40.40763852471452" lon="18.242039247512007"><ele>17.0</ele><time>2026-04-19T09:44:37.001Z</time></trkpt><trkpt lat="40.40755493662808" lon="18.242044278506654"><ele>17.0</ele><time>2026-04-19T09:44:38.001Z</time></trkpt><trkpt lat="40.407450446264406" lon="18.242039148388095"><ele>17.0</ele><time>2026-04-19T09:44:39.001Z</time></trkpt><trkpt lat="40.407331441607" lon="18.242039138668552"><ele>17.0</ele><time>2026-04-19T09:44:40.001Z</time></trkpt><trkpt lat="40.40721981320858" lon="18.24203529420047"><ele>17.0</ele><time>2026-04-19T09:44:41.001Z</time></trkpt><trkpt lat="40.40713127609156" lon="18.242044256777678"><ele>17.0</ele><time>2026-04-19T09:44:42.001Z</time></trkpt><trkpt lat="40.407045397008204" lon="18.242045366351984"><ele>16.75</ele><time>2026-04-19T09:44:43.001Z</time></trkpt><trkpt lat="40.40694841341127" lon="18.24203830992304"><ele>16.5</ele><time>2026-04-19T09:44:44.001Z</time></trkpt><trkpt lat="40.40683075079214" lon="18.24203882357347"><ele>16.25</ele><time>2026-04-19T09:44:45.001Z</time></trkpt><trkpt lat="40.40670442082157" lon="18.242044799657066"><ele>16.0</ele><time>2026-04-19T09:44:46.001Z</time></trkpt><trkpt lat="40.4065847622469" lon="18.242043950353125"><ele>16.0</ele><time>2026-04-19T09:44:47.001Z</time></trkpt><trkpt lat="40.40647765917401" lon="18.242046874907338"><ele>16.0</ele><time>2026-04-19T09:44:48.001Z</time></trkpt><trkpt lat="40.406381613224895" lon="18.242046732447477"><ele>16.0</ele><time>2026-04-19T09:44:49.001Z</time></trkpt><trkpt lat="40.406278836672854" lon="18.242044314926197"><ele>16.0</ele><time>2026-04-19T09:44:50.001Z</time></trkpt><trkpt lat="40.40617250630181" lon="18.24204508684114"><ele>16.0</ele><time>2026-04-19T09:44:51.001Z</time></trkpt><trkpt lat="40.40606014731926" lon="18.24204829035644"><ele>16.25</ele><time>2026-04-19T09:44:52.001Z</time></trkpt><trkpt lat="40.40594166772854" lon="18.242042841812918"><ele>16.5</ele><time>2026-04-19T09:44:53.001Z</time></trkpt><trkpt lat="40.40581505527167" lon="18.242040160841874"><ele>16.75</ele><time>2026-04-19T09:44:54.001Z</time></trkpt><trkpt lat="40.405684681602146" lon="18.242053050113796"><ele>17.0</ele><time>2026-04-19T09:44:55.001Z</time></trkpt><trkpt lat="40.40554617957015" lon="18.24205982231958"><ele>17.0</ele><time>2026-04-19T09:44:56.001Z</time></trkpt><trkpt lat="40.40539916281839" lon="18.242059679992934"><ele>17.0</ele><time>2026-04-19T09:44:57.001Z</time></trkpt><trkpt lat="40.405276052293395" lon="18.242055622935442"><ele>17.0</ele><time>2026-04-19T09:44:58.001Z</time></trkpt><trkpt lat="40.40514086842938" lon="18.24205315355833"><ele>17.0</ele><time>2026-04-19T09:44:59.001Z</time></trkpt><trkpt lat="40.404997395900914" lon="18.242057662519752"><ele>17.0</ele><time>2026-04-19T09:45:00.001Z</time></trkpt><trkpt lat="40.404876688720144" lon="18.242059027021163"><ele>17.0</ele><time>2026-04-19T09:45:01.001Z</time></trkpt><trkpt lat="40.40477250016991" lon="18.242063506516562"><ele>17.0</ele><time>2026-04-19T09:45:02.001Z</time></trkpt><trkpt lat="40.40466627993826" lon="18.24206479014434"><ele>17.0</ele><time>2026-04-19T09:45:03.001Z</time></trkpt><trkpt lat="40.404562226810654" lon="18.24206547174688"><ele>17.0</ele><time>2026-04-19T09:45:04.001Z</time></trkpt><trkpt lat="40.40446133907382" lon="18.242059466597826"><ele>17.2</ele><time>2026-04-19T09:45:04.999Z</time></trkpt><trkpt lat="40.404367018309394" lon="18.242060974935047"><ele>17.4</ele><time>2026-04-19T09:45:05.999Z</time></trkpt><trkpt lat="40.40427092900815" lon="18.242063054066758"><ele>17.6</ele><time>2026-04-19T09:45:06.999Z</time></trkpt><trkpt lat="40.40416708614183" lon="18.24206586143809"><ele>17.8</ele><time>2026-04-19T09:45:07.999Z</time></trkpt><trkpt lat="40.404063372795804" lon="18.242071160097357"><ele>18.0</ele><time>2026-04-19T09:45:08.999Z</time></trkpt><trkpt lat="40.40396380595056" lon="18.242069111980836"><ele>18.0</ele><time>2026-04-19T09:45:09.999Z</time></trkpt><trkpt lat="40.40387341811863" lon="18.24206955086672"><ele>18.0</ele><time>2026-04-19T09:45:10.999Z</time></trkpt><trkpt lat="40.40379643454097" lon="18.24207871363039"><ele>18.0</ele><time>2026-04-19T09:45:11.999Z</time></trkpt><trkpt lat="40.403731254767926" lon="18.242087575073967"><ele>18.0</ele><time>2026-04-19T09:45:12.999Z</time></trkpt><trkpt lat="40.40364389899986" lon="18.24208320064624"><ele>18.0</ele><time>2026-04-19T09:45:13.999Z</time></trkpt><trkpt lat="40.403549595118875" lon="18.24208235036303"><ele>18.0</ele><time>2026-04-19T09:45:14.999Z</time></trkpt><trkpt lat="40.40348343116395" lon="18.242082566737263"><ele>18.0</ele><time>2026-04-19T09:45:15.999Z</time></trkpt><trkpt lat="40.40336035017603" lon="18.242074077232314"><ele>18.0</ele><time>2026-04-19T09:45:17.999Z</time></trkpt><trkpt lat="40.403288438301324" lon="18.242080014531712"><ele>18.0</ele><time>2026-04-19T09:45:18.999Z</time></trkpt><trkpt lat="40.40320583217727" lon="18.24208874109082"><ele>18.0</ele><time>2026-04-19T09:45:19.999Z</time></trkpt><trkpt lat="40.40312266453883" lon="18.24209415690828"><ele>18.0</ele><time>2026-04-19T09:45:20.999Z</time></trkpt><trkpt lat="40.40304196874553" lon="18.242092573598306"><ele>18.0</ele><time>2026-04-19T09:45:21.999Z</time></trkpt><trkpt lat="40.40295826485597" lon="18.242090584075385"><ele>18.166666666666668</ele><time>2026-04-19T09:45:22.999Z</time></trkpt><trkpt lat="40.40286689894436" lon="18.242088957585956"><ele>18.333333333333332</ele><time>2026-04-19T09:45:23.999Z</time></trkpt><trkpt lat="40.40278114989955" lon="18.24208485807189"><ele>18.5</ele><time>2026-04-19T09:45:24.999Z</time></trkpt><trkpt lat="40.40269451174756" lon="18.242083404709817"><ele>18.666666666666664</ele><time>2026-04-19T09:45:25.999Z</time></trkpt><trkpt lat="40.40259893083342" lon="18.242092598761598"><ele>18.833333333333332</ele><time>2026-04-19T09:45:26.999Z</time></trkpt><trkpt lat="40.402512114082285" lon="18.242098265871277"><ele>19.0</ele><time>2026-04-19T09:45:27.999Z</time></trkpt><trkpt lat="40.40241904104188" lon="18.24210293557547"><ele>19.0</ele><time>2026-04-19T09:45:28.999Z</time></trkpt><trkpt lat="40.4023239987715" lon="18.242100959596453"><ele>19.0</ele><time>2026-04-19T09:45:29.999Z</time></trkpt><trkpt lat="40.40222675010581" lon="18.242099614485827"><ele>19.0</ele><time>2026-04-19T09:45:30.999Z</time></trkpt><trkpt lat="40.40214512677472" lon="18.242098814732813"><ele>19.0</ele><time>2026-04-19T09:45:32Z</time></trkpt><trkpt lat="40.402013612311826" lon="18.242102674109212"><ele>19.0</ele><time>2026-04-19T09:45:34Z</time></trkpt><trkpt lat="40.40192722441252" lon="18.24210570728563"><ele>19.333333333333332</ele><time>2026-04-19T09:45:35Z</time></trkpt><trkpt lat="40.40185209397591" lon="18.242102891588022"><ele>19.666666666666664</ele><time>2026-04-19T09:45:36Z</time></trkpt><trkpt lat="40.40178010575478" lon="18.24209915463453"><ele>20.0</ele><time>2026-04-19T09:45:37Z</time></trkpt><trkpt lat="40.40171331070324" lon="18.24210429882012"><ele>20.333333333333332</ele><time>2026-04-19T09:45:38Z</time></trkpt><trkpt lat="40.401580534349804" lon="18.242087022836117"><ele>20.666666666666668</ele><time>2026-04-19T09:45:40Z</time></trkpt><trkpt lat="40.401507727421986" lon="18.242070850151755"><ele>21.0</ele><time>2026-04-19T09:45:41Z</time></trkpt><trkpt lat="40.40138800413635" lon="18.242102983297976"><ele>20.8</ele><time>2026-04-19T09:45:43Z</time></trkpt><trkpt lat="40.4013158258707" lon="18.242109408877475"><ele>20.6</ele><time>2026-04-19T09:45:44Z</time></trkpt><trkpt lat="40.401218978827735" lon="18.242109074332188"><ele>20.4</ele><time>2026-04-19T09:45:45Z</time></trkpt><trkpt lat="40.40112302575498" lon="18.242100884153913"><ele>20.2</ele><time>2026-04-19T09:45:46Z</time></trkpt><trkpt lat="40.40102484892139" lon="18.242096661776827"><ele>20.0</ele><time>2026-04-19T09:45:47Z</time></trkpt><trkpt lat="40.40093137568936" lon="18.24209112743554"><ele>20.0</ele><time>2026-04-19T09:45:48Z</time></trkpt><trkpt lat="40.40084849498062" lon="18.242097794093908"><ele>20.0</ele><time>2026-04-19T09:45:49Z</time></trkpt><trkpt lat="40.40076527645718" lon="18.24210132378682"><ele>20.0</ele><time>2026-04-19T09:45:50Z</time></trkpt><trkpt lat="40.40068406502524" lon="18.24210667798509"><ele>20.0</ele><time>2026-04-19T09:45:51Z</time></trkpt><trkpt lat="40.40060681913321" lon="18.24211005045718"><ele>20.0</ele><time>2026-04-19T09:45:52Z</time></trkpt><trkpt lat="40.40050530065334" lon="18.242060332392494"><ele>20.0</ele><time>2026-04-19T09:45:54Z</time></trkpt><trkpt lat="40.40044622894613" lon="18.241997976434508"><ele>20.333333333333336</ele><time>2026-04-19T09:45:55Z</time></trkpt><trkpt lat="40.40037348449041" lon="18.24192807233109"><ele>20.666666666666668</ele><time>2026-04-19T09:45:56Z</time></trkpt><trkpt lat="40.40028916715873" lon="18.241891250217922"><ele>21.0</ele><time>2026-04-19T09:45:57Z</time></trkpt><trkpt lat="40.40019482013961" lon="18.24187010457576"><ele>21.333333333333332</ele><time>2026-04-19T09:45:58Z</time></trkpt><trkpt lat="40.40011136853515" lon="18.241863696607936"><ele>21.666666666666664</ele><time>2026-04-19T09:45:59Z</time></trkpt><trkpt lat="40.40003341405899" lon="18.24184975555787"><ele>22.0</ele><time>2026-04-19T09:46:00Z</time></trkpt><trkpt lat="40.39995313912727" lon="18.241803260096994"><ele>22.0</ele><time>2026-04-19T09:46:01Z</time></trkpt><trkpt lat="40.399877744377235" lon="18.241749208604993"><ele>22.0</ele><time>2026-04-19T09:46:02Z</time></trkpt><trkpt lat="40.39980318965668" lon="18.241678540899425"><ele>22.0</ele><time>2026-04-19T09:46:03Z</time></trkpt><trkpt lat="40.39974087684366" lon="18.241599335228535"><ele>22.0</ele><time>2026-04-19T09:46:04Z</time></trkpt><trkpt lat="40.399680791035166" lon="18.24152913536188"><ele>22.0</ele><time>2026-04-19T09:46:05Z</time></trkpt><trkpt lat="40.39961253033338" lon="18.24144988389182"><ele>22.0</ele><time>2026-04-19T09:46:06Z</time></trkpt><trkpt lat="40.399557446556166" lon="18.241366091585085"><ele>22.0</ele><time>2026-04-19T09:46:07Z</time></trkpt><trkpt lat="40.39951831094106" lon="18.24129168518566"><ele>22.0</ele><time>2026-04-19T09:46:08Z</time></trkpt><trkpt lat="40.399456282762486" lon="18.24121923793154"><ele>22.0</ele><time>2026-04-19T09:46:10Z</time></trkpt><trkpt lat="40.39941032330634" lon="18.241073205507693"><ele>22.0</ele><time>2026-04-19T09:46:12Z</time></trkpt><trkpt lat="40.399384131297445" lon="18.240980164849205"><ele>22.0</ele><time>2026-04-19T09:46:13Z</time></trkpt><trkpt lat="40.39936771556104" lon="18.24085715317699"><ele>22.0</ele><time>2026-04-19T09:46:14Z</time></trkpt><trkpt lat="40.399339228939354" lon="18.240743912074414"><ele>22.0</ele><time>2026-04-19T09:46:15Z</time></trkpt><trkpt lat="40.399318798827395" lon="18.240650388928795"><ele>22.0</ele><time>2026-04-19T09:46:16Z</time></trkpt><trkpt lat="40.39929257782299" lon="18.24056319663501"><ele>22.0</ele><time>2026-04-19T09:46:17Z</time></trkpt><trkpt lat="40.39926759779889" lon="18.240431829837704"><ele>22.0</ele><time>2026-04-19T09:46:19Z</time></trkpt><trkpt lat="40.39920829310437" lon="18.240326531300337"><ele>22.0</ele><time>2026-04-19T09:46:21Z</time></trkpt><trkpt lat="40.399126698532534" lon="18.240321437352964"><ele>22.0</ele><time>2026-04-19T09:46:23Z</time></trkpt><trkpt lat="40.399027409293524" lon="18.240324167426735"><ele>21.6</ele><time>2026-04-19T09:46:26.001Z</time></trkpt><trkpt lat="40.398946319144194" lon="18.24030992790137"><ele>21.200000000000003</ele><time>2026-04-19T09:46:28.001Z</time></trkpt><trkpt lat="40.398879302372976" lon="18.240259173843953"><ele>20.8</ele><time>2026-04-19T09:46:30.001Z</time></trkpt><trkpt lat="40.39881441231762" lon="18.240121002957125"><ele>20.4</ele><time>2026-04-19T09:46:32.001Z</time></trkpt><trkpt lat="40.39878138063164" lon="18.240035255425138"><ele>20.0</ele><time>2026-04-19T09:46:33.001Z</time></trkpt><trkpt lat="40.39871895898872" lon="18.239912435315777"><ele>19.833333333333336</ele><time>2026-04-19T09:46:35.001Z</time></trkpt><trkpt lat="40.3986807024054" lon="18.239835283896056"><ele>19.666666666666668</ele><time>2026-04-19T09:46:36.001Z</time></trkpt><trkpt lat="40.3986341616821" lon="18.239756099077205"><ele>19.5</ele><time>2026-04-19T09:46:37.001Z</time></trkpt><trkpt lat="40.39855149553776" lon="18.23966951754115"><ele>19.333333333333332</ele><time>2026-04-19T09:46:38.001Z</time></trkpt><trkpt lat="40.39847438814081" lon="18.239595999204443"><ele>19.166666666666664</ele><time>2026-04-19T09:46:39.001Z</time></trkpt><trkpt lat="40.39839972055915" lon="18.239540231524828"><ele>19.0</ele><time>2026-04-19T09:46:40.001Z</time></trkpt><trkpt lat="40.39833593877636" lon="18.239506861235714"><ele>19.0</ele><time>2026-04-19T09:46:41.001Z</time></trkpt><trkpt lat="40.39823817401617" lon="18.23941553470026"><ele>19.0</ele><time>2026-04-19T09:46:43.001Z</time></trkpt><trkpt lat="40.39818762837847" lon="18.23934021643818"><ele>19.0</ele><time>2026-04-19T09:46:44.001Z</time></trkpt><trkpt lat="40.39813191107253" lon="18.239258398296446"><ele>19.0</ele><time>2026-04-19T09:46:45.001Z</time></trkpt><trkpt lat="40.398093939954094" lon="18.23917776490402"><ele>19.0</ele><time>2026-04-19T09:46:46.001Z</time></trkpt><trkpt lat="40.39805593989405" lon="18.23909518121406"><ele>19.0</ele><time>2026-04-19T09:46:47.001Z</time></trkpt><trkpt lat="40.398010608613475" lon="18.238950534899743"><ele>18.8</ele><time>2026-04-19T09:46:49.001Z</time></trkpt><trkpt lat="40.397962992131745" lon="18.238786821331793"><ele>18.599999999999998</ele><time>2026-04-19T09:46:51.001Z</time></trkpt><trkpt lat="40.39792305923224" lon="18.238676568962735"><ele>18.4</ele><time>2026-04-19T09:46:52.001Z</time></trkpt><trkpt lat="40.39788554683299" lon="18.238597596865972"><ele>18.2</ele><time>2026-04-19T09:46:53.001Z</time></trkpt><trkpt lat="40.39783986747496" lon="18.238511906784304"><ele>18.0</ele><time>2026-04-19T09:46:54.001Z</time></trkpt><trkpt lat="40.39780015687017" lon="18.238402048033905"><ele>18.0</ele><time>2026-04-19T09:46:56.001Z</time></trkpt><trkpt lat="40.39777033653065" lon="18.238246693360622"><ele>18.0</ele><time>2026-04-19T09:46:58.001Z</time></trkpt><trkpt lat="40.39771113978518" lon="18.238129942026468"><ele>18.0</ele><time>2026-04-19T09:46:59.001Z</time></trkpt><trkpt lat="40.39766687305558" lon="18.238006785224076"><ele>18.0</ele><time>2026-04-19T09:47:00.001Z</time></trkpt><trkpt lat="40.39763660874584" lon="18.237915889878323"><ele>18.0</ele><time>2026-04-19T09:47:01.001Z</time></trkpt><trkpt lat="40.397607127686264" lon="18.23777263093427"><ele>18.25</ele><time>2026-04-19T09:47:03.001Z</time></trkpt><trkpt lat="40.39754808842017" lon="18.237642835701358"><ele>18.5</ele><time>2026-04-19T09:47:05.001Z</time></trkpt><trkpt lat="40.3975018939951" lon="18.237494404993985"><ele>18.75</ele><time>2026-04-19T09:47:07.001Z</time></trkpt><trkpt lat="40.39745445584717" lon="18.237375429417963"><ele>19.0</ele><time>2026-04-19T09:47:08.001Z</time></trkpt><trkpt lat="40.397405486259316" lon="18.237242755732346"><ele>19.2</ele><time>2026-04-19T09:47:09.001Z</time></trkpt><trkpt lat="40.39737910311533" lon="18.23713997551289"><ele>19.4</ele><time>2026-04-19T09:47:10.001Z</time></trkpt><trkpt lat="40.39733447148008" lon="18.23697342655278"><ele>19.6</ele><time>2026-04-19T09:47:11.999Z</time></trkpt><trkpt lat="40.39730956121254" lon="18.23689602931129"><ele>19.8</ele><time>2026-04-19T09:47:12.999Z</time></trkpt><trkpt lat="40.39727293542002" lon="18.236752807242155"><ele>20.0</ele><time>2026-04-19T09:47:14.999Z</time></trkpt><trkpt lat="40.39725428438113" lon="18.23663592958806"><ele>20.0</ele><time>2026-04-19T09:47:16.999Z</time></trkpt><trkpt lat="40.397185285718926" lon="18.236491016493012"><ele>20.0</ele><time>2026-04-19T09:47:18.999Z</time></trkpt><trkpt lat="40.39714480795556" lon="18.236410599194606"><ele>20.0</ele><time>2026-04-19T09:47:19.999Z</time></trkpt><trkpt lat="40.39710626296653" lon="18.23633759520237"><ele>20.0</ele><time>2026-04-19T09:47:20.999Z</time></trkpt><trkpt lat="40.39703034270772" lon="18.236215485289016"><ele>20.0</ele><time>2026-04-19T09:47:22.999Z</time></trkpt><trkpt lat="40.39697891290476" lon="18.2361198957611"><ele>20.0</ele><time>2026-04-19T09:47:23.999Z</time></trkpt><trkpt lat="40.396917220324866" lon="18.236026848425567"><ele>20.0</ele><time>2026-04-19T09:47:24.999Z</time></trkpt><trkpt lat="40.39684640843804" lon="18.23594857063381"><ele>20.0</ele><time>2026-04-19T09:47:25.999Z</time></trkpt><trkpt lat="40.396781043065864" lon="18.235878688728786"><ele>20.0</ele><time>2026-04-19T09:47:26.999Z</time></trkpt><trkpt lat="40.39673298704204" lon="18.23581831387612"><ele>20.0</ele><time>2026-04-19T09:47:27.999Z</time></trkpt><trkpt lat="40.39668850582268" lon="18.2357544178391"><ele>20.0</ele><time>2026-04-19T09:47:28.999Z</time></trkpt><trkpt lat="40.396605199556895" lon="18.2356566394219"><ele>20.0</ele><time>2026-04-19T09:47:30.999Z</time></trkpt><trkpt lat="40.396516495248896" lon="18.235645370016186"><ele>20.0</ele><time>2026-04-19T09:47:32.999Z</time></trkpt><trkpt lat="40.3964557167322" lon="18.23556367466199"><ele>20.0</ele><time>2026-04-19T09:47:34.999Z</time></trkpt><trkpt lat="40.39642964386837" lon="18.235479172992406"><ele>20.0</ele><time>2026-04-19T09:47:36Z</time></trkpt><trkpt lat="40.39639297010161" lon="18.235369472237824"><ele>20.0</ele><time>2026-04-19T09:47:37Z</time></trkpt><trkpt lat="40.396350219804845" lon="18.235256858675896"><ele>20.0</ele><time>2026-04-19T09:47:38Z</time></trkpt><trkpt lat="40.39631177982099" lon="18.235170002846896"><ele>20.666666666666668</ele><time>2026-04-19T09:47:39Z</time></trkpt><trkpt lat="40.39628505668171" lon="18.23508913720843"><ele>21.333333333333336</ele><time>2026-04-19T09:47:40Z</time></trkpt><trkpt lat="40.396269931280344" lon="18.23498995307348"><ele>22.0</ele><time>2026-04-19T09:47:41Z</time></trkpt><trkpt lat="40.39625004026472" lon="18.234888873512936"><ele>22.666666666666668</ele><time>2026-04-19T09:47:42Z</time></trkpt><trkpt lat="40.39621756619204" lon="18.234754806878794"><ele>23.333333333333332</ele><time>2026-04-19T09:47:43Z</time></trkpt><trkpt lat="40.39616891338857" lon="18.234617168807834"><ele>24.0</ele><time>2026-04-19T09:47:44Z</time></trkpt><trkpt lat="40.396111106041076" lon="18.234476325453944"><ele>24.0</ele><time>2026-04-19T09:47:45Z</time></trkpt><trkpt lat="40.39607735166572" lon="18.23435867789401"><ele>24.0</ele><time>2026-04-19T09:47:46Z</time></trkpt><trkpt lat="40.39605376737639" lon="18.234263686065457"><ele>24.0</ele><time>2026-04-19T09:47:47Z</time></trkpt><trkpt lat="40.396021967670215" lon="18.234171770659295"><ele>24.0</ele><time>2026-04-19T09:47:48Z</time></trkpt><trkpt lat="40.39599727248645" lon="18.23409423369599"><ele>24.0</ele><time>2026-04-19T09:47:49Z</time></trkpt><trkpt lat="40.395964862598426" lon="18.234014759187566"><ele>24.0</ele><time>2026-04-19T09:47:50Z</time></trkpt><trkpt lat="40.395919295627124" lon="18.233913950774962"><ele>24.0</ele><time>2026-04-19T09:47:51Z</time></trkpt><trkpt lat="40.395885482438636" lon="18.233840877426644"><ele>24.0</ele><time>2026-04-19T09:47:52Z</time></trkpt><trkpt lat="40.395801047581415" lon="18.23371747207655"><ele>24.0</ele><time>2026-04-19T09:47:54Z</time></trkpt><trkpt lat="40.39572745601812" lon="18.233618402940234"><ele>24.0</ele><time>2026-04-19T09:47:56Z</time></trkpt><trkpt lat="40.39566523245893" lon="18.23353674365873"><ele>24.0</ele><time>2026-04-19T09:47:58Z</time></trkpt><trkpt lat="40.395628875340925" lon="18.233464575564295"><ele>24.0</ele><time>2026-04-19T09:48:00Z</time></trkpt><trkpt lat="40.395578094015846" lon="18.233367738744885"><ele>24.0</ele><time>2026-04-19T09:48:02Z</time></trkpt><trkpt lat="40.39549852945619" lon="18.23324284091326"><ele>24.0</ele><time>2026-04-19T09:48:04Z</time></trkpt><trkpt lat="40.3954178569198" lon="18.233104763127987"><ele>24.0</ele><time>2026-04-19T09:48:06Z</time></trkpt><trkpt lat="40.395338243973555" lon="18.233011467307676"><ele>24.166666666666668</ele><time>2026-04-19T09:48:08Z</time></trkpt><trkpt lat="40.39528740067017" lon="18.232905820779536"><ele>24.333333333333336</ele><time>2026-04-19T09:48:10Z</time></trkpt><trkpt lat="40.39522418971309" lon="18.23285452099606"><ele>24.5</ele><time>2026-04-19T09:48:13Z</time></trkpt><trkpt lat="40.395258488569276" lon="18.232768039654843"><ele>24.666666666666668</ele><time>2026-04-19T09:49:07.001Z</time></trkpt><trkpt lat="40.39534182854195" lon="18.23265868107471"><ele>24.833333333333336</ele><time>2026-04-19T09:49:09.001Z</time></trkpt><trkpt lat="40.39537653000712" lon="18.232578448073838"><ele>25.0</ele><time>2026-04-19T09:49:10.001Z</time></trkpt><trkpt lat="40.395422859533674" lon="18.23250183141837"><ele>25.000000000000004</ele><time>2026-04-19T09:49:11.001Z</time></trkpt><trkpt lat="40.395472305261066" lon="18.232421629545883"><ele>25.0</ele><time>2026-04-19T09:49:12.001Z</time></trkpt><trkpt lat="40.395519543745934" lon="18.232340440393948"><ele>25.0</ele><time>2026-04-19T09:49:13.001Z</time></trkpt><trkpt lat="40.39556470328369" lon="18.232262702438838"><ele>25.0</ele><time>2026-04-19T09:49:14.001Z</time></trkpt><trkpt lat="40.39561008727781" lon="18.23217083354848"><ele>25.000000000000004</ele><time>2026-04-19T09:49:15.001Z</time></trkpt><trkpt lat="40.39566084549861" lon="18.232074265403327"><ele>25.0</ele><time>2026-04-19T09:49:16.001Z</time></trkpt><trkpt lat="40.395711770333556" lon="18.231997081078433"><ele>25.0</ele><time>2026-04-19T09:49:16.999Z</time></trkpt><trkpt lat="40.39579794148284" lon="18.23188261441729"><ele>25.0</ele><time>2026-04-19T09:49:18.999Z</time></trkpt><trkpt lat="40.39592739302017" lon="18.23178690296171"><ele>25.0</ele><time>2026-04-19T09:49:20.999Z</time></trkpt><trkpt lat="40.39599386605823" lon="18.231721634908453"><ele>25.0</ele><time>2026-04-19T09:49:21.999Z</time></trkpt><trkpt lat="40.39605684504789" lon="18.231636348134554"><ele>25.0</ele><time>2026-04-19T09:49:22.999Z</time></trkpt><trkpt lat="40.39611894960429" lon="18.231561656599396"><ele>25.0</ele><time>2026-04-19T09:49:23.999Z</time></trkpt><trkpt lat="40.39618921007848" lon="18.231492326619556"><ele>25.0</ele><time>2026-04-19T09:49:24.999Z</time></trkpt><trkpt lat="40.396246063919094" lon="18.2314175053981"><ele>25.0</ele><time>2026-04-19T09:49:25.999Z</time></trkpt><trkpt lat="40.39629545237819" lon="18.231337556476458"><ele>25.0</ele><time>2026-04-19T09:49:26.999Z</time></trkpt><trkpt lat="40.39631256798738" lon="18.231221306044507"><ele>25.0</ele><time>2026-04-19T09:49:28.999Z</time></trkpt><trkpt lat="40.396274564851694" lon="18.231070666424436"><ele>25.000000000000004</ele><time>2026-04-19T09:49:30.999Z</time></trkpt><trkpt lat="40.396241243402685" lon="18.23099235627787"><ele>25.0</ele><time>2026-04-19T09:49:31.999Z</time></trkpt><trkpt lat="40.396196268152" lon="18.230925477908627"><ele>25.0</ele><time>2026-04-19T09:49:32.999Z</time></trkpt><trkpt lat="40.39612430648152" lon="18.230852066544198"><ele>25.0</ele><time>2026-04-19T09:49:34.999Z</time></trkpt><trkpt lat="40.396116087254995" lon="18.230733921199917"><ele>25.000000000000004</ele><time>2026-04-19T09:49:37.999Z</time></trkpt><trkpt lat="40.396141282931495" lon="18.230626756103568"><ele>25.0</ele><time>2026-04-19T09:49:39.999Z</time></trkpt><trkpt lat="40.39617146728871" lon="18.230483611429655"><ele>25.166666666666668</ele><time>2026-04-19T09:49:41.999Z</time></trkpt><trkpt lat="40.39621364017875" lon="18.230397447352107"><ele>25.333333333333336</ele><time>2026-04-19T09:49:42.999Z</time></trkpt><trkpt lat="40.39626184817287" lon="18.230331388037637"><ele>25.5</ele><time>2026-04-19T09:49:44Z</time></trkpt><trkpt lat="40.39631654992271" lon="18.230226871191658"><ele>25.666666666666664</ele><time>2026-04-19T09:49:46Z</time></trkpt><trkpt lat="40.39627703658927" lon="18.23014761300441"><ele>25.833333333333332</ele><time>2026-04-19T09:49:48Z</time></trkpt><trkpt lat="40.39625122385026" lon="18.23007181282938"><ele>26.0</ele><time>2026-04-19T09:49:49Z</time></trkpt><trkpt lat="40.39620059567429" lon="18.229978427704697"><ele>26.0</ele><time>2026-04-19T09:49:51Z</time></trkpt><trkpt lat="40.39620549846329" lon="18.22989035235684"><ele>26.0</ele><time>2026-04-19T09:49:53Z</time></trkpt><trkpt lat="40.396283661496234" lon="18.22980781082423"><ele>26.0</ele><time>2026-04-19T09:49:55Z</time></trkpt><trkpt lat="40.39636187687376" lon="18.229719250366553"><ele>26.0</ele><time>2026-04-19T09:49:56Z</time></trkpt><trkpt lat="40.396440516061304" lon="18.229621125665552"><ele>26.0</ele><time>2026-04-19T09:49:57Z</time></trkpt><trkpt lat="40.39648758519905" lon="18.229539071565657"><ele>25.8</ele><time>2026-04-19T09:49:58Z</time></trkpt><trkpt lat="40.39654690216654" lon="18.229417610877025"><ele>25.6</ele><time>2026-04-19T09:50:00Z</time></trkpt><trkpt lat="40.396629640145186" lon="18.22936662576306"><ele>25.4</ele><time>2026-04-19T09:50:02Z</time></trkpt><trkpt lat="40.39674371028718" lon="18.229327983141303"><ele>25.2</ele><time>2026-04-19T09:50:04Z</time></trkpt><trkpt lat="40.39682282734" lon="18.229251425503822"><ele>25.0</ele><time>2026-04-19T09:50:06Z</time></trkpt><trkpt lat="40.39689059251151" lon="18.229124464252312"><ele>25.0</ele><time>2026-04-19T09:50:08Z</time></trkpt><trkpt lat="40.39694811484405" lon="18.229014514128817"><ele>25.0</ele><time>2026-04-19T09:50:10Z</time></trkpt><trkpt lat="40.396968601962065" lon="18.228874851802043"><ele>25.0</ele><time>2026-04-19T09:50:12Z</time></trkpt><trkpt lat="40.39705508303799" lon="18.228853177743687"><ele>25.0</ele><time>2026-04-19T09:50:14Z</time></trkpt><trkpt lat="40.39715492305442" lon="18.22887616601119"><ele>25.0</ele><time>2026-04-19T09:50:16Z</time></trkpt><trkpt lat="40.397209713793934" lon="18.228814928922876"><ele>24.8</ele><time>2026-04-19T09:50:18Z</time></trkpt><trkpt lat="40.397269085511006" lon="18.228728778892055"><ele>24.6</ele><time>2026-04-19T09:50:20Z</time></trkpt><trkpt lat="40.39735475547753" lon="18.22866666035939"><ele>24.4</ele><time>2026-04-19T09:50:22Z</time></trkpt><trkpt lat="40.397436428102885" lon="18.228535076479336"><ele>24.2</ele><time>2026-04-19T09:50:24.001Z</time></trkpt><trkpt lat="40.39749797031815" lon="18.228457955976666"><ele>24.0</ele><time>2026-04-19T09:50:25.001Z</time></trkpt><trkpt lat="40.39757288260279" lon="18.228361850490906"><ele>24.0</ele><time>2026-04-19T09:50:26.001Z</time></trkpt><trkpt lat="40.397631265353695" lon="18.228285695630166"><ele>24.0</ele><time>2026-04-19T09:50:27.001Z</time></trkpt><trkpt lat="40.39770414622904" lon="18.228172039162004"><ele>24.0</ele><time>2026-04-19T09:50:29.001Z</time></trkpt><trkpt lat="40.397785262399516" lon="18.228082022675245"><ele>24.0</ele><time>2026-04-19T09:50:31.001Z</time></trkpt><trkpt lat="40.39784430883148" lon="18.228049609004326"><ele>24.0</ele><time>2026-04-19T09:50:32.001Z</time></trkpt><trkpt lat="40.39793460661673" lon="18.227978915838715"><ele>24.4</ele><time>2026-04-19T09:50:34.001Z</time></trkpt><trkpt lat="40.397988869946595" lon="18.227922323908732"><ele>24.799999999999997</ele><time>2026-04-19T09:50:35.001Z</time></trkpt><trkpt lat="40.39807641686236" lon="18.2278647728575"><ele>25.200000000000003</ele><time>2026-04-19T09:50:36.001Z</time></trkpt><trkpt lat="40.39816732877909" lon="18.227795396558275"><ele>25.6</ele><time>2026-04-19T09:50:38.001Z</time></trkpt><trkpt lat="40.39823142071667" lon="18.227679876389303"><ele>26.0</ele><time>2026-04-19T09:50:40.001Z</time></trkpt><trkpt lat="40.39829844312764" lon="18.227607146964374"><ele>26.285714285714285</ele><time>2026-04-19T09:50:42.001Z</time></trkpt><trkpt lat="40.39830845868566" lon="18.22751683681901"><ele>26.571428571428573</ele><time>2026-04-19T09:50:44.001Z</time></trkpt><trkpt lat="40.39836692074598" lon="18.227456492674822"><ele>26.857142857142858</ele><time>2026-04-19T09:50:47.001Z</time></trkpt><trkpt lat="40.39844756993393" lon="18.2274545334637"><ele>27.142857142857142</ele><time>2026-04-19T09:50:49.001Z</time></trkpt><trkpt lat="40.398490094337994" lon="18.22737530350476"><ele>27.42857142857143</ele><time>2026-04-19T09:50:51.001Z</time></trkpt><trkpt lat="40.398550429169276" lon="18.22733756243027"><ele>27.714285714285715</ele><time>2026-04-19T09:50:54.001Z</time></trkpt><trkpt lat="40.39862476012" lon="18.227322266223297"><ele>28.0</ele><time>2026-04-19T09:50:57.001Z</time></trkpt><trkpt lat="40.398692613478936" lon="18.227380648093305"><ele>28.000000000000004</ele><time>2026-04-19T09:50:59.001Z</time></trkpt><trkpt lat="40.3987645755524" lon="18.22738808088788"><ele>28.0</ele><time>2026-04-19T09:51:01.001Z</time></trkpt><trkpt lat="40.39885848200263" lon="18.227350316593984"><ele>28.0</ele><time>2026-04-19T09:51:04.001Z</time></trkpt><trkpt lat="40.398897917701255" lon="18.227280782567654"><ele>28.0</ele><time>2026-04-19T09:51:06.001Z</time></trkpt><trkpt lat="40.39893737413895" lon="18.22713474727484"><ele>28.000000000000004</ele><time>2026-04-19T09:51:08.001Z</time></trkpt><trkpt lat="40.39896021066138" lon="18.227055127389907"><ele>28.0</ele><time>2026-04-19T09:51:09.001Z</time></trkpt><trkpt lat="40.39899878967986" lon="18.22692271263129"><ele>27.333333333333336</ele><time>2026-04-19T09:51:11.002Z</time></trkpt><trkpt lat="40.39901926645369" lon="18.22677384223767"><ele>26.666666666666668</ele><time>2026-04-19T09:51:13.002Z</time></trkpt><trkpt lat="40.399007996472626" lon="18.22668379625485"><ele>26.0</ele><time>2026-04-19T09:51:14.002Z</time></trkpt><trkpt lat="40.398990500344446" lon="18.226601992288952"><ele>25.333333333333336</ele><time>2026-04-19T09:51:15.002Z</time></trkpt><trkpt lat="40.39894542902956" lon="18.226472825566816"><ele>24.666666666666668</ele><time>2026-04-19T09:51:17.002Z</time></trkpt><trkpt lat="40.398963182529265" lon="18.226364885427905"><ele>24.0</ele><time>2026-04-19T09:51:19.002Z</time></trkpt><trkpt lat="40.39902033214483" lon="18.22628691445146"><ele>24.0</ele><time>2026-04-19T09:51:21.002Z</time></trkpt><trkpt lat="40.39913362734057" lon="18.22619536063837"><ele>24.0</ele><time>2026-04-19T09:51:23.001Z</time></trkpt><trkpt lat="40.39919593910327" lon="18.226126589321737"><ele>24.0</ele><time>2026-04-19T09:51:24.001Z</time></trkpt><trkpt lat="40.39924953264135" lon="18.22605328948706"><ele>24.0</ele><time>2026-04-19T09:51:25.001Z</time></trkpt><trkpt lat="40.399307198765875" lon="18.225985554115873"><ele>24.0</ele><time>2026-04-19T09:51:27.001Z</time></trkpt><trkpt lat="40.39929039785989" lon="18.225871573675107"><ele>24.0</ele><time>2026-04-19T09:51:29.001Z</time></trkpt><trkpt lat="40.39927193357246" lon="18.22578673051029"><ele>24.0</ele><time>2026-04-19T09:51:31.001Z</time></trkpt><trkpt lat="40.39920241259918" lon="18.225745483609"><ele>24.0</ele><time>2026-04-19T09:51:32.001Z</time></trkpt><trkpt lat="40.3991155835872" lon="18.22571487198299"><ele>24.0</ele><time>2026-04-19T09:51:33.001Z</time></trkpt><trkpt lat="40.39902053597509" lon="18.225663215084346"><ele>24.0</ele><time>2026-04-19T09:51:34.001Z</time></trkpt><trkpt lat="40.398923419928565" lon="18.225571799223186"><ele>24.2</ele><time>2026-04-19T09:51:35.001Z</time></trkpt><trkpt lat="40.398834498213546" lon="18.225460665403315"><ele>24.4</ele><time>2026-04-19T09:51:36.001Z</time></trkpt><trkpt lat="40.39875791530212" lon="18.22536424052466"><ele>24.6</ele><time>2026-04-19T09:51:37.001Z</time></trkpt><trkpt lat="40.39868328838144" lon="18.225293672399868"><ele>24.8</ele><time>2026-04-19T09:51:38.001Z</time></trkpt><trkpt lat="40.3986101717385" lon="18.22522484001524"><ele>25.0</ele><time>2026-04-19T09:51:39.001Z</time></trkpt><trkpt lat="40.39855449091761" lon="18.225163443864755"><ele>25.0</ele><time>2026-04-19T09:51:40.001Z</time></trkpt><trkpt lat="40.39850878665687" lon="18.22505792490206"><ele>25.0</ele><time>2026-04-19T09:51:42.001Z</time></trkpt><trkpt lat="40.398549766305464" lon="18.224960082885893"><ele>25.0</ele><time>2026-04-19T09:51:48.001Z</time></trkpt><trkpt lat="40.39868153988831" lon="18.225024864449793"><ele>25.0</ele><time>2026-04-19T09:51:50.001Z</time></trkpt><trkpt lat="40.398803810877304" lon="18.225030179870267"><ele>25.0</ele><time>2026-04-19T09:51:52.001Z</time></trkpt><trkpt lat="40.39887450499333" lon="18.225011859437785"><ele>25.4</ele><time>2026-04-19T09:51:53.001Z</time></trkpt><trkpt lat="40.3990065210629" lon="18.22496404424215"><ele>25.8</ele><time>2026-04-19T09:51:55.001Z</time></trkpt><trkpt lat="40.39907672173774" lon="18.224940063399604"><ele>26.200000000000003</ele><time>2026-04-19T09:51:56.001Z</time></trkpt><trkpt lat="40.399170675894" lon="18.224858543332452"><ele>26.6</ele><time>2026-04-19T09:51:58.001Z</time></trkpt><trkpt lat="40.39925697659679" lon="18.22478683758347"><ele>27.0</ele><time>2026-04-19T09:52:00.001Z</time></trkpt><trkpt lat="40.3993135821028" lon="18.224683325925803"><ele>26.0</ele><time>2026-04-19T09:52:02.001Z</time></trkpt><trkpt lat="40.39932707009285" lon="18.224555226826343"><ele>25.000000000000004</ele><time>2026-04-19T09:52:03.001Z</time></trkpt><trkpt lat="40.3993490585751" lon="18.224433555554047"><ele>24.0</ele><time>2026-04-19T09:52:04.001Z</time></trkpt><trkpt lat="40.399404256408154" lon="18.224347885858947"><ele>23.0</ele><time>2026-04-19T09:52:05.001Z</time></trkpt><trkpt lat="40.399486276476004" lon="18.22424112314061"><ele>22.0</ele><time>2026-04-19T09:52:06.001Z</time></trkpt><trkpt lat="40.399578425225094" lon="18.224121612508156"><ele>22.0</ele><time>2026-04-19T09:52:07.001Z</time></trkpt><trkpt lat="40.3996919762911" lon="18.224024536103805"><ele>22.0</ele><time>2026-04-19T09:52:08.001Z</time></trkpt><trkpt lat="40.39980542955914" lon="18.223943517560365"><ele>22.0</ele><time>2026-04-19T09:52:09.001Z</time></trkpt><trkpt lat="40.39990666882249" lon="18.223865318775495"><ele>22.0</ele><time>2026-04-19T09:52:10.001Z</time></trkpt><trkpt lat="40.39998566640376" lon="18.22377918862613"><ele>21.8</ele><time>2026-04-19T09:52:11.001Z</time></trkpt><trkpt lat="40.40004590872042" lon="18.223684985004592"><ele>21.6</ele><time>2026-04-19T09:52:12.001Z</time></trkpt><trkpt lat="40.40009928098472" lon="18.223621388441483"><ele>21.400000000000002</ele><time>2026-04-19T09:52:13.001Z</time></trkpt><trkpt lat="40.40014241170063" lon="18.223551650489473"><ele>21.200000000000003</ele><time>2026-04-19T09:52:14.001Z</time></trkpt><trkpt lat="40.40020698459879" lon="18.22342141714926"><ele>21.0</ele><time>2026-04-19T09:52:16.001Z</time></trkpt><trkpt lat="40.400307621864684" lon="18.223330044170936"><ele>21.0</ele><time>2026-04-19T09:52:18.001Z</time></trkpt><trkpt lat="40.40035636957319" lon="18.22327397051795"><ele>21.0</ele><time>2026-04-19T09:52:19.001Z</time></trkpt><trkpt lat="40.40042611583468" lon="18.223179611854977"><ele>21.0</ele><time>2026-04-19T09:52:21.001Z</time></trkpt><trkpt lat="40.400474561875384" lon="18.22309481656784"><ele>21.0</ele><time>2026-04-19T09:52:23.001Z</time></trkpt><trkpt lat="40.40054885104466" lon="18.223019132534212"><ele>21.0</ele><time>2026-04-19T09:52:25.001Z</time></trkpt><trkpt lat="40.40060044037501" lon="18.222960529813072"><ele>21.0</ele><time>2026-04-19T09:52:26.001Z</time></trkpt><trkpt lat="40.400650746358934" lon="18.222905572228505"><ele>20.833333333333332</ele><time>2026-04-19T09:52:27.001Z</time></trkpt><trkpt lat="40.40069148517057" lon="18.222840884589136"><ele>20.666666666666668</ele><time>2026-04-19T09:52:28.001Z</time></trkpt><trkpt lat="40.40074624476587" lon="18.22271093072223"><ele>20.5</ele><time>2026-04-19T09:52:30.002Z</time></trkpt><trkpt lat="40.4007835220087" lon="18.222644205925214"><ele>20.333333333333336</ele><time>2026-04-19T09:52:31.002Z</time></trkpt><trkpt lat="40.40083787559314" lon="18.222595650332842"><ele>20.166666666666668</ele><time>2026-04-19T09:52:32.002Z</time></trkpt><trkpt lat="40.40094983530507" lon="18.222520904522593"><ele>20.0</ele><time>2026-04-19T09:52:34.002Z</time></trkpt><trkpt lat="40.401024054189016" lon="18.222462414365246"><ele>20.0</ele><time>2026-04-19T09:52:35.002Z</time></trkpt><trkpt lat="40.40107502588637" lon="18.22240022877394"><ele>20.0</ele><time>2026-04-19T09:52:36.002Z</time></trkpt><trkpt lat="40.40116403794925" lon="18.22226489539254"><ele>20.0</ele><time>2026-04-19T09:52:38.002Z</time></trkpt><trkpt lat="40.40120932316857" lon="18.22219549281154"><ele>20.0</ele><time>2026-04-19T09:52:39.002Z</time></trkpt><trkpt lat="40.40125791291048" lon="18.22213039627946"><ele>20.0</ele><time>2026-04-19T09:52:40.002Z</time></trkpt><trkpt lat="40.40132640639035" lon="18.222050013559056"><ele>20.0</ele><time>2026-04-19T09:52:42.002Z</time></trkpt><trkpt lat="40.401341931207995" lon="18.221955077696617"><ele>19.666666666666668</ele><time>2026-04-19T09:54:30.001Z</time></trkpt><trkpt lat="40.40124229524209" lon="18.221886907046194"><ele>19.333333333333336</ele><time>2026-04-19T09:54:32.002Z</time></trkpt><trkpt lat="40.401132952100795" lon="18.221826425018385"><ele>19.0</ele><time>2026-04-19T09:54:34.002Z</time></trkpt><trkpt lat="40.401074412277595" lon="18.221789450700015"><ele>18.666666666666668</ele><time>2026-04-19T09:54:35.002Z</time></trkpt><trkpt lat="40.401009819980324" lon="18.22174238315297"><ele>18.333333333333332</ele><time>2026-04-19T09:54:36.002Z</time></trkpt><trkpt lat="40.400944063217686" lon="18.2216946263429"><ele>18.0</ele><time>2026-04-19T09:54:37.002Z</time></trkpt><trkpt lat="40.400843012739394" lon="18.221631046028875"><ele>18.0</ele><time>2026-04-19T09:54:39.002Z</time></trkpt><trkpt lat="40.4007872045855" lon="18.221577144075937"><ele>18.0</ele><time>2026-04-19T09:54:41.002Z</time></trkpt><trkpt lat="40.40078193569738" lon="18.22146976371756"><ele>18.0</ele><time>2026-04-19T09:54:43.002Z</time></trkpt><trkpt lat="40.40085544971487" lon="18.22132822459118"><ele>18.0</ele><time>2026-04-19T09:54:45.002Z</time></trkpt><trkpt lat="40.400898057189806" lon="18.2212273776031"><ele>18.0</ele><time>2026-04-19T09:54:46.002Z</time></trkpt><trkpt lat="40.40094658085723" lon="18.221109192618044"><ele>18.0</ele><time>2026-04-19T09:54:47.002Z</time></trkpt><trkpt lat="40.40099492376894" lon="18.220983835669237"><ele>18.0</ele><time>2026-04-19T09:54:48.002Z</time></trkpt><trkpt lat="40.40104514151846" lon="18.220856385816678"><ele>18.0</ele><time>2026-04-19T09:54:49.002Z</time></trkpt><trkpt lat="40.40109566283063" lon="18.220720533301964"><ele>18.0</ele><time>2026-04-19T09:54:50.002Z</time></trkpt><trkpt lat="40.40115601164259" lon="18.220592940014953"><ele>18.0</ele><time>2026-04-19T09:54:51.002Z</time></trkpt><trkpt lat="40.401211291505795" lon="18.220465561348774"><ele>18.0</ele><time>2026-04-19T09:54:52.002Z</time></trkpt><trkpt lat="40.401255297282916" lon="18.220345424127597"><ele>18.0</ele><time>2026-04-19T09:54:53.002Z</time></trkpt><trkpt lat="40.401303425414724" lon="18.220233853362963"><ele>18.0</ele><time>2026-04-19T09:54:54.002Z</time></trkpt><trkpt lat="40.40135130937466" lon="18.2201340699839"><ele>18.0</ele><time>2026-04-19T09:54:55.002Z</time></trkpt><trkpt lat="40.40139870739461" lon="18.2200227749291"><ele>18.0</ele><time>2026-04-19T09:54:56.002Z</time></trkpt><trkpt lat="40.40144789730279" lon="18.219902152137795"><ele>18.0</ele><time>2026-04-19T09:54:57.002Z</time></trkpt><trkpt lat="40.401495516785154" lon="18.219787337660502"><ele>18.0</ele><time>2026-04-19T09:54:58.002Z</time></trkpt><trkpt lat="40.40154387872918" lon="18.219654687642432"><ele>18.0</ele><time>2026-04-19T09:54:59.002Z</time></trkpt><trkpt lat="40.40158641468611" lon="18.219520774394436"><ele>18.0</ele><time>2026-04-19T09:55:00.002Z</time></trkpt><trkpt lat="40.40162049659109" lon="18.219390073309956"><ele>18.0</ele><time>2026-04-19T09:55:01.002Z</time></trkpt><trkpt lat="40.40167238244925" lon="18.21927332262702"><ele>18.0</ele><time>2026-04-19T09:55:02.002Z</time></trkpt><trkpt lat="40.401740365295794" lon="18.219145295165493"><ele>18.0</ele><time>2026-04-19T09:55:03.002Z</time></trkpt><trkpt lat="40.401806103706974" lon="18.219007526656384"><ele>18.0</ele><time>2026-04-19T09:55:04.002Z</time></trkpt><trkpt lat="40.401864095792305" lon="18.218854394121966"><ele>18.0</ele><time>2026-04-19T09:55:05.002Z</time></trkpt><trkpt lat="40.40192552100141" lon="18.218706400932113"><ele>18.0</ele><time>2026-04-19T09:55:06.002Z</time></trkpt><trkpt lat="40.401992160202056" lon="18.21854856052442"><ele>18.0</ele><time>2026-04-19T09:55:07.002Z</time></trkpt><trkpt lat="40.40205461438773" lon="18.218384277815876"><ele>18.0</ele><time>2026-04-19T09:55:08.002Z</time></trkpt><trkpt lat="40.40211493464333" lon="18.218226133192598"><ele>18.0</ele><time>2026-04-19T09:55:09.002Z</time></trkpt><trkpt lat="40.402186512104464" lon="18.218067000806144"><ele>18.0</ele><time>2026-04-19T09:55:10.002Z</time></trkpt><trkpt lat="40.40225016553279" lon="18.21790911819429"><ele>18.0</ele><time>2026-04-19T09:55:11.002Z</time></trkpt><trkpt lat="40.40231274653501" lon="18.217767966464276"><ele>18.0</ele><time>2026-04-19T09:55:12.002Z</time></trkpt><trkpt lat="40.40237172721093" lon="18.217617556745488"><ele>18.0</ele><time>2026-04-19T09:55:13.002Z</time></trkpt><trkpt lat="40.40242370364758" lon="18.21746876489023"><ele>18.0</ele><time>2026-04-19T09:55:14.002Z</time></trkpt><trkpt lat="40.40248232917989" lon="18.21733548459374"><ele>18.0</ele><time>2026-04-19T09:55:15.002Z</time></trkpt><trkpt lat="40.40254025369286" lon="18.217192734394303"><ele>18.0</ele><time>2026-04-19T09:55:16.002Z</time></trkpt><trkpt lat="40.40259416314251" lon="18.217046976949025"><ele>18.0</ele><time>2026-04-19T09:55:17.002Z</time></trkpt><trkpt lat="40.40265415548558" lon="18.216921490507904"><ele>18.25</ele><time>2026-04-19T09:55:18.002Z</time></trkpt><trkpt lat="40.402714406563334" lon="18.21678785289266"><ele>18.5</ele><time>2026-04-19T09:55:19.002Z</time></trkpt><trkpt lat="40.40276094187972" lon="18.21664493182902"><ele>18.75</ele><time>2026-04-19T09:55:20.002Z</time></trkpt><trkpt lat="40.40281339407829" lon="18.21650237756208"><ele>19.0</ele><time>2026-04-19T09:55:21.002Z</time></trkpt><trkpt lat="40.40287700589683" lon="18.21637509127343"><ele>19.333333333333332</ele><time>2026-04-19T09:55:22.002Z</time></trkpt><trkpt lat="40.40292356961177" lon="18.216262733006747"><ele>19.666666666666664</ele><time>2026-04-19T09:55:23.002Z</time></trkpt><trkpt lat="40.40296457625945" lon="18.216183753939447"><ele>20.0</ele><time>2026-04-19T09:55:24.002Z</time></trkpt><trkpt lat="40.40299956660995" lon="18.21608626543089"><ele>20.333333333333332</ele><time>2026-04-19T09:55:25.002Z</time></trkpt><trkpt lat="40.40304798193649" lon="18.21597821139373"><ele>20.666666666666668</ele><time>2026-04-19T09:55:26.002Z</time></trkpt><trkpt lat="40.40309579779935" lon="18.215861246499248"><ele>21.0</ele><time>2026-04-19T09:55:27.002Z</time></trkpt><trkpt lat="40.40314148997218" lon="18.21574716257437"><ele>21.200000000000003</ele><time>2026-04-19T09:55:28.002Z</time></trkpt><trkpt lat="40.40319585161759" lon="18.21562262338876"><ele>21.400000000000002</ele><time>2026-04-19T09:55:29.002Z</time></trkpt><trkpt lat="40.40325210408796" lon="18.215500128394897"><ele>21.6</ele><time>2026-04-19T09:55:30.002Z</time></trkpt><trkpt lat="40.40330763350275" lon="18.215380729352166"><ele>21.8</ele><time>2026-04-19T09:55:31.002Z</time></trkpt><trkpt lat="40.4033486380134" lon="18.21528093800958"><ele>22.0</ele><time>2026-04-19T09:55:32.002Z</time></trkpt><trkpt lat="40.40338254007936" lon="18.2151754326928"><ele>22.0</ele><time>2026-04-19T09:55:33.002Z</time></trkpt><trkpt lat="40.403407267913906" lon="18.21506367794179"><ele>22.0</ele><time>2026-04-19T09:55:34.002Z</time></trkpt><trkpt lat="40.40343940880998" lon="18.21494708100368"><ele>22.0</ele><time>2026-04-19T09:55:35.003Z</time></trkpt><trkpt lat="40.403464099719166" lon="18.21484716027886"><ele>22.0</ele><time>2026-04-19T09:55:36.003Z</time></trkpt><trkpt lat="40.403533870624756" lon="18.214706246837626"><ele>22.0</ele><time>2026-04-19T09:55:38.003Z</time></trkpt><trkpt lat="40.403579658079764" lon="18.214636692257027"><ele>22.200000000000003</ele><time>2026-04-19T09:55:39.002Z</time></trkpt><trkpt lat="40.40363621045585" lon="18.214566299800403"><ele>22.4</ele><time>2026-04-19T09:55:40.002Z</time></trkpt><trkpt lat="40.40369109686778" lon="18.21447478966444"><ele>22.6</ele><time>2026-04-19T09:55:41.002Z</time></trkpt><trkpt lat="40.403747715284716" lon="18.214367682274183"><ele>22.799999999999997</ele><time>2026-04-19T09:55:42.002Z</time></trkpt><trkpt lat="40.40378719557262" lon="18.214264925268626"><ele>23.0</ele><time>2026-04-19T09:55:43.002Z</time></trkpt><trkpt lat="40.40383696292733" lon="18.2141549639653"><ele>23.0</ele><time>2026-04-19T09:55:44.002Z</time></trkpt><trkpt lat="40.40389332632824" lon="18.21403044666323"><ele>23.0</ele><time>2026-04-19T09:55:45.002Z</time></trkpt><trkpt lat="40.403943827231366" lon="18.21391003845487"><ele>23.0</ele><time>2026-04-19T09:55:46.002Z</time></trkpt><trkpt lat="40.40399786870278" lon="18.213785285299096"><ele>23.0</ele><time>2026-04-19T09:55:47.002Z</time></trkpt><trkpt lat="40.404047801783655" lon="18.213653524668732"><ele>23.0</ele><time>2026-04-19T09:55:48.002Z</time></trkpt><trkpt lat="40.40409144267104" lon="18.213538122128426"><ele>23.2</ele><time>2026-04-19T09:55:49.002Z</time></trkpt><trkpt lat="40.40412911625145" lon="18.213423906567822"><ele>23.4</ele><time>2026-04-19T09:55:50.002Z</time></trkpt><trkpt lat="40.404176319059225" lon="18.213311181333115"><ele>23.599999999999998</ele><time>2026-04-19T09:55:51.002Z</time></trkpt><trkpt lat="40.40422090784337" lon="18.213190838906872"><ele>23.799999999999997</ele><time>2026-04-19T09:55:52.002Z</time></trkpt><trkpt lat="40.40426618495504" lon="18.21306249116755"><ele>24.0</ele><time>2026-04-19T09:55:53.002Z</time></trkpt><trkpt lat="40.4043127937441" lon="18.2129401402877"><ele>24.4</ele><time>2026-04-19T09:55:54.002Z</time></trkpt><trkpt lat="40.404371137570635" lon="18.21283304018221"><ele>24.799999999999997</ele><time>2026-04-19T09:55:55.002Z</time></trkpt><trkpt lat="40.404434703529866" lon="18.21271755345534"><ele>25.200000000000003</ele><time>2026-04-19T09:55:56.002Z</time></trkpt><trkpt lat="40.40448867786369" lon="18.212602592855912"><ele>25.6</ele><time>2026-04-19T09:55:57.002Z</time></trkpt><trkpt lat="40.404533276163995" lon="18.212475064877868"><ele>26.0</ele><time>2026-04-19T09:55:58.002Z</time></trkpt><trkpt lat="40.40458631570511" lon="18.21233594281173"><ele>25.833333333333332</ele><time>2026-04-19T09:55:59.002Z</time></trkpt><trkpt lat="40.40464463757997" lon="18.212207351394998"><ele>25.666666666666664</ele><time>2026-04-19T09:56:00.002Z</time></trkpt><trkpt lat="40.40469250598254" lon="18.212088868042358"><ele>25.5</ele><time>2026-04-19T09:56:01.002Z</time></trkpt><trkpt lat="40.404733070738864" lon="18.21198280986335"><ele>25.333333333333336</ele><time>2026-04-19T09:56:02.002Z</time></trkpt><trkpt lat="40.40476357618235" lon="18.21189579039928"><ele>25.166666666666668</ele><time>2026-04-19T09:56:03.002Z</time></trkpt><trkpt lat="40.40479653123649" lon="18.211822604757124"><ele>25.0</ele><time>2026-04-19T09:56:04.001Z</time></trkpt><trkpt lat="40.40485714813249" lon="18.211772419429"><ele>25.0</ele><time>2026-04-19T09:56:05.001Z</time></trkpt><trkpt lat="40.40488186128599" lon="18.211673226524034"><ele>25.0</ele><time>2026-04-19T09:56:06.001Z</time></trkpt><trkpt lat="40.404934409255524" lon="18.21155248109096"><ele>25.0</ele><time>2026-04-19T09:56:07.001Z</time></trkpt><trkpt lat="40.40498262360083" lon="18.2114130463014"><ele>25.0</ele><time>2026-04-19T09:56:08.001Z</time></trkpt><trkpt lat="40.4050450464453" lon="18.21126039340923"><ele>25.0</ele><time>2026-04-19T09:56:09.001Z</time></trkpt><trkpt lat="40.405112085596485" lon="18.211099285140325"><ele>24.75</ele><time>2026-04-19T09:56:10.001Z</time></trkpt><trkpt lat="40.405183116956216" lon="18.210927979565124"><ele>24.5</ele><time>2026-04-19T09:56:11.001Z</time></trkpt><trkpt lat="40.405252865157514" lon="18.21075655489034"><ele>24.25</ele><time>2026-04-19T09:56:12.001Z</time></trkpt><trkpt lat="40.405310975832876" lon="18.210615272406663"><ele>24.0</ele><time>2026-04-19T09:56:13.001Z</time></trkpt><trkpt lat="40.40536466745953" lon="18.210488760681017"><ele>23.799999999999997</ele><time>2026-04-19T09:56:14.001Z</time></trkpt><trkpt lat="40.405412306000464" lon="18.210380215975515"><ele>23.599999999999998</ele><time>2026-04-19T09:56:15.001Z</time></trkpt><trkpt lat="40.40545932722008" lon="18.210280037041816"><ele>23.4</ele><time>2026-04-19T09:56:16.001Z</time></trkpt><trkpt lat="40.40549358992576" lon="18.21018512422659"><ele>23.2</ele><time>2026-04-19T09:56:17.001Z</time></trkpt><trkpt lat="40.40554059767841" lon="18.210095301348204"><ele>23.0</ele><time>2026-04-19T09:56:18.001Z</time></trkpt><trkpt lat="40.40559344456508" lon="18.20996788307991"><ele>22.833333333333336</ele><time>2026-04-19T09:56:19.001Z</time></trkpt><trkpt lat="40.405635902117524" lon="18.209850342140086"><ele>22.666666666666668</ele><time>2026-04-19T09:56:20.001Z</time></trkpt><trkpt lat="40.40567314853195" lon="18.209748351334884"><ele>22.5</ele><time>2026-04-19T09:56:21.001Z</time></trkpt><trkpt lat="40.40570762636011" lon="18.20965555560201"><ele>22.333333333333332</ele><time>2026-04-19T09:56:22.001Z</time></trkpt><trkpt lat="40.40574495364067" lon="18.20953459411059"><ele>22.166666666666664</ele><time>2026-04-19T09:56:24.001Z</time></trkpt><trkpt lat="40.40577229624411" lon="18.20944611836476"><ele>22.0</ele><time>2026-04-19T09:56:28.001Z</time></trkpt><trkpt lat="40.40584841501965" lon="18.209373856660648"><ele>22.0</ele><time>2026-04-19T09:56:30.001Z</time></trkpt><trkpt lat="40.40588889158951" lon="18.20930600094491"><ele>22.0</ele><time>2026-04-19T09:56:31.001Z</time></trkpt><trkpt lat="40.40594576321272" lon="18.20925106269313"><ele>22.0</ele><time>2026-04-19T09:56:32.001Z</time></trkpt><trkpt lat="40.406012828293015" lon="18.209187275947304"><ele>22.0</ele><time>2026-04-19T09:56:33.001Z</time></trkpt><trkpt lat="40.40608990641995" lon="18.209112683436487"><ele>22.0</ele><time>2026-04-19T09:56:34.001Z</time></trkpt><trkpt lat="40.406171455354205" lon="18.209030593078"><ele>22.0</ele><time>2026-04-19T09:56:35.001Z</time></trkpt><trkpt lat="40.40625327216462" lon="18.20894092854293"><ele>22.0</ele><time>2026-04-19T09:56:36.001Z</time></trkpt><trkpt lat="40.40633504676789" lon="18.20885229483058"><ele>22.0</ele><time>2026-04-19T09:56:37.001Z</time></trkpt><trkpt lat="40.40641788826331" lon="18.208767450681343"><ele>22.0</ele><time>2026-04-19T09:56:38.001Z</time></trkpt><trkpt lat="40.406509761152805" lon="18.20868692308517"><ele>22.0</ele><time>2026-04-19T09:56:39.001Z</time></trkpt><trkpt lat="40.40660402849544" lon="18.208589763967442"><ele>22.0</ele><time>2026-04-19T09:56:40.001Z</time></trkpt><trkpt lat="40.40670380903207" lon="18.20849111558437"><ele>22.0</ele><time>2026-04-19T09:56:41.001Z</time></trkpt><trkpt lat="40.406809903800884" lon="18.208392682770867"><ele>22.0</ele><time>2026-04-19T09:56:42.001Z</time></trkpt><trkpt lat="40.40691110209818" lon="18.208287367244893"><ele>22.0</ele><time>2026-04-19T09:56:43.001Z</time></trkpt><trkpt lat="40.407014893245616" lon="18.208181723622918"><ele>22.0</ele><time>2026-04-19T09:56:44.001Z</time></trkpt><trkpt lat="40.40712238152337" lon="18.20807371318847"><ele>22.0</ele><time>2026-04-19T09:56:45.001Z</time></trkpt><trkpt lat="40.407232917541236" lon="18.207956889992026"><ele>22.0</ele><time>2026-04-19T09:56:46.001Z</time></trkpt><trkpt lat="40.40735487510864" lon="18.207836031869032"><ele>22.0</ele><time>2026-04-19T09:56:47.001Z</time></trkpt><trkpt lat="40.40747590503459" lon="18.207717272696023"><ele>22.0</ele><time>2026-04-19T09:56:48.001Z</time></trkpt><trkpt lat="40.407597769457844" lon="18.207595895116985"><ele>22.0</ele><time>2026-04-19T09:56:49.001Z</time></trkpt><trkpt lat="40.40771941106819" lon="18.207477946402587"><ele>22.0</ele><time>2026-04-19T09:56:50.001Z</time></trkpt><trkpt lat="40.407833157636944" lon="18.207359415525243"><ele>22.0</ele><time>2026-04-19T09:56:51.001Z</time></trkpt><trkpt lat="40.407945388664544" lon="18.207244826452172"><ele>22.0</ele><time>2026-04-19T09:56:52.001Z</time></trkpt><trkpt lat="40.40804987650313" lon="18.207136155021498"><ele>22.0</ele><time>2026-04-19T09:56:53.001Z</time></trkpt><trkpt lat="40.40814998209803" lon="18.207030166691712"><ele>22.0</ele><time>2026-04-19T09:56:54.001Z</time></trkpt><trkpt lat="40.408243802763536" lon="18.20692701900937"><ele>22.0</ele><time>2026-04-19T09:56:55.001Z</time></trkpt><trkpt lat="40.408344659001266" lon="18.20682117007837"><ele>22.0</ele><time>2026-04-19T09:56:56.001Z</time></trkpt><trkpt lat="40.40844574866852" lon="18.206719775210118"><ele>22.0</ele><time>2026-04-19T09:56:57.001Z</time></trkpt><trkpt lat="40.40854655653067" lon="18.20661793155588"><ele>22.0</ele><time>2026-04-19T09:56:58.001Z</time></trkpt><trkpt lat="40.40864637955076" lon="18.20651375136609"><ele>22.0</ele><time>2026-04-19T09:56:59.001Z</time></trkpt><trkpt lat="40.40874626373165" lon="18.206412120545465"><ele>22.0</ele><time>2026-04-19T09:57:00.001Z</time></trkpt><trkpt lat="40.40884457253566" lon="18.206310037485093"><ele>22.0</ele><time>2026-04-19T09:57:01.001Z</time></trkpt><trkpt lat="40.408943326839484" lon="18.206209151643847"><ele>22.0</ele><time>2026-04-19T09:57:02.001Z</time></trkpt><trkpt lat="40.409044003725285" lon="18.206107959347786"><ele>22.0</ele><time>2026-04-19T09:57:03.001Z</time></trkpt><trkpt lat="40.40914347088749" lon="18.2060072624605"><ele>22.0</ele><time>2026-04-19T09:57:04.001Z</time></trkpt><trkpt lat="40.4092443503442" lon="18.205905854445696"><ele>22.0</ele><time>2026-04-19T09:57:05.001Z</time></trkpt><trkpt lat="40.40934662713474" lon="18.205802213563718"><ele>22.0</ele><time>2026-04-19T09:57:06.001Z</time></trkpt><trkpt lat="40.40944866624782" lon="18.20570158248703"><ele>22.0</ele><time>2026-04-19T09:57:07.001Z</time></trkpt><trkpt lat="40.40954732873975" lon="18.20559751889075"><ele>22.0</ele><time>2026-04-19T09:57:08.001Z</time></trkpt><trkpt lat="40.40964533957854" lon="18.20549126772901"><ele>21.75</ele><time>2026-04-19T09:57:09.001Z</time></trkpt><trkpt lat="40.409746140273455" lon="18.205386729203383"><ele>21.5</ele><time>2026-04-19T09:57:10.001Z</time></trkpt><trkpt lat="40.4098511658329" lon="18.205284783519723"><ele>21.25</ele><time>2026-04-19T09:57:11.002Z</time></trkpt><trkpt lat="40.409955882197195" lon="18.20518080657608"><ele>21.0</ele><time>2026-04-19T09:57:12.002Z</time></trkpt><trkpt lat="40.41006027358137" lon="18.205068467051657"><ele>21.0</ele><time>2026-04-19T09:57:13.002Z</time></trkpt><trkpt lat="40.4101625641137" lon="18.204961113920135"><ele>21.0</ele><time>2026-04-19T09:57:14.002Z</time></trkpt><trkpt lat="40.41026386310564" lon="18.20485515318507"><ele>21.0</ele><time>2026-04-19T09:57:15.002Z</time></trkpt><trkpt lat="40.410370277061595" lon="18.204749133976847"><ele>21.0</ele><time>2026-04-19T09:57:16.002Z</time></trkpt><trkpt lat="40.4104816104921" lon="18.204639440068203"><ele>21.333333333333332</ele><time>2026-04-19T09:57:17.002Z</time></trkpt><trkpt lat="40.41059628672822" lon="18.204514391455664"><ele>21.666666666666664</ele><time>2026-04-19T09:57:18.002Z</time></trkpt><trkpt lat="40.41071866534872" lon="18.204382790697675"><ele>22.0</ele><time>2026-04-19T09:57:19.002Z</time></trkpt><trkpt lat="40.41084078564752" lon="18.204286558673083"><ele>22.0</ele><time>2026-04-19T09:57:20.002Z</time></trkpt><trkpt lat="40.41093782027068" lon="18.204163078101327"><ele>22.0</ele><time>2026-04-19T09:57:21.002Z</time></trkpt><trkpt lat="40.41105233589656" lon="18.20404815521676"><ele>22.0</ele><time>2026-04-19T09:57:22.002Z</time></trkpt><trkpt lat="40.411156429327555" lon="18.203940665284627"><ele>22.0</ele><time>2026-04-19T09:57:23.002Z</time></trkpt><trkpt lat="40.41125994321855" lon="18.20383328637367"><ele>22.0</ele><time>2026-04-19T09:57:24.002Z</time></trkpt><trkpt lat="40.41136994393917" lon="18.20372141538297"><ele>22.0</ele><time>2026-04-19T09:57:25.002Z</time></trkpt><trkpt lat="40.41148246564269" lon="18.20361300030091"><ele>22.0</ele><time>2026-04-19T09:57:26.002Z</time></trkpt><trkpt lat="40.411590987423644" lon="18.20349616793218"><ele>22.0</ele><time>2026-04-19T09:57:27.002Z</time></trkpt><trkpt lat="40.41168839364646" lon="18.20339396278151"><ele>22.0</ele><time>2026-04-19T09:57:28.002Z</time></trkpt><trkpt lat="40.411779660559944" lon="18.20330743613251"><ele>22.0</ele><time>2026-04-19T09:57:29.002Z</time></trkpt><trkpt lat="40.411864419639194" lon="18.203223469210116"><ele>22.0</ele><time>2026-04-19T09:57:30.002Z</time></trkpt><trkpt lat="40.41196134649258" lon="18.203126451955026"><ele>22.0</ele><time>2026-04-19T09:57:31.002Z</time></trkpt><trkpt lat="40.41205680107339" lon="18.203027447145537"><ele>22.0</ele><time>2026-04-19T09:57:32.002Z</time></trkpt><trkpt lat="40.412138998415486" lon="18.202946723249955"><ele>22.0</ele><time>2026-04-19T09:57:33.002Z</time></trkpt><trkpt lat="40.41221469309396" lon="18.202868574561503"><ele>22.0</ele><time>2026-04-19T09:57:34.002Z</time></trkpt><trkpt lat="40.41228297457978" lon="18.20279910970928"><ele>22.0</ele><time>2026-04-19T09:57:35.002Z</time></trkpt><trkpt lat="40.412344130749936" lon="18.202735385969085"><ele>22.0</ele><time>2026-04-19T09:57:36.002Z</time></trkpt><trkpt lat="40.412403119554156" lon="18.202676403159067"><ele>22.0</ele><time>2026-04-19T09:57:37.002Z</time></trkpt><trkpt lat="40.41246338456441" lon="18.20262442455847"><ele>22.0</ele><time>2026-04-19T09:57:38.002Z</time></trkpt><trkpt lat="40.41253451704467" lon="18.202600023892025"><ele>22.0</ele><time>2026-04-19T09:57:39.002Z</time></trkpt><trkpt lat="40.41261556556224" lon="18.20259046427592"><ele>22.0</ele><time>2026-04-19T09:57:40.002Z</time></trkpt><trkpt lat="40.41268830955112" lon="18.202572409244407"><ele>22.0</ele><time>2026-04-19T09:57:41.002Z</time></trkpt><trkpt lat="40.41273820295339" lon="18.20251533247485"><ele>22.0</ele><time>2026-04-19T09:57:42.002Z</time></trkpt><trkpt lat="40.41277259204377" lon="18.20244321897558"><ele>22.0</ele><time>2026-04-19T09:57:43.002Z</time></trkpt><trkpt lat="40.41279803920613" lon="18.202339941885466"><ele>22.0</ele><time>2026-04-19T09:57:44.002Z</time></trkpt><trkpt lat="40.412841951611085" lon="18.202219015561752"><ele>22.0</ele><time>2026-04-19T09:57:45.002Z</time></trkpt><trkpt lat="40.412937754122794" lon="18.20214885413077"><ele>22.0</ele><time>2026-04-19T09:57:46.002Z</time></trkpt><trkpt lat="40.41303656655293" lon="18.202048804748625"><ele>22.0</ele><time>2026-04-19T09:57:47.002Z</time></trkpt><trkpt lat="40.4131505928234" lon="18.201932963829055"><ele>22.0</ele><time>2026-04-19T09:57:48.002Z</time></trkpt><trkpt lat="40.413276802005676" lon="18.201801920094685"><ele>22.0</ele><time>2026-04-19T09:57:49.002Z</time></trkpt><trkpt lat="40.413394670355466" lon="18.201679536742308"><ele>22.0</ele><time>2026-04-19T09:57:50.002Z</time></trkpt><trkpt lat="40.413495494530245" lon="18.201574850350028"><ele>22.0</ele><time>2026-04-19T09:57:51.002Z</time></trkpt><trkpt lat="40.41358949338368" lon="18.20147939142171"><ele>22.0</ele><time>2026-04-19T09:57:52.002Z</time></trkpt><trkpt lat="40.41367558228681" lon="18.20136610785243"><ele>22.0</ele><time>2026-04-19T09:57:53.002Z</time></trkpt><trkpt lat="40.41377176648219" lon="18.201271440825785"><ele>22.0</ele><time>2026-04-19T09:57:54.002Z</time></trkpt><trkpt lat="40.413869175298665" lon="18.201175523189523"><ele>22.0</ele><time>2026-04-19T09:57:55.002Z</time></trkpt><trkpt lat="40.4139684495138" lon="18.20107999540253"><ele>22.0</ele><time>2026-04-19T09:57:56.002Z</time></trkpt><trkpt lat="40.4140664888666" lon="18.200979955171896"><ele>21.75</ele><time>2026-04-19T09:57:57.002Z</time></trkpt><trkpt lat="40.41416359962073" lon="18.200879601796274"><ele>21.5</ele><time>2026-04-19T09:57:58.002Z</time></trkpt><trkpt lat="40.41425888541451" lon="18.200782236328727"><ele>21.25</ele><time>2026-04-19T09:57:59.002Z</time></trkpt><trkpt lat="40.41435281717942" lon="18.200685302968555"><ele>21.0</ele><time>2026-04-19T09:58:00.001Z</time></trkpt><trkpt lat="40.414449026574935" lon="18.20059077964474"><ele>21.0</ele><time>2026-04-19T09:58:01.001Z</time></trkpt><trkpt lat="40.414545489332845" lon="18.200494450498653"><ele>21.0</ele><time>2026-04-19T09:58:02.001Z</time></trkpt><trkpt lat="40.414643544465505" lon="18.20040191258086"><ele>21.0</ele><time>2026-04-19T09:58:03.001Z</time></trkpt><trkpt lat="40.41473372709707" lon="18.200312761321577"><ele>21.0</ele><time>2026-04-19T09:58:04.001Z</time></trkpt><trkpt lat="40.41482508511783" lon="18.200217696476336"><ele>21.0</ele><time>2026-04-19T09:58:05.001Z</time></trkpt><trkpt lat="40.41491662890488" lon="18.2001208579722"><ele>21.0</ele><time>2026-04-19T09:58:06.001Z</time></trkpt><trkpt lat="40.41500757546135" lon="18.200023238657472"><ele>21.0</ele><time>2026-04-19T09:58:07.001Z</time></trkpt><trkpt lat="40.41509926575954" lon="18.199929041387144"><ele>21.0</ele><time>2026-04-19T09:58:08.001Z</time></trkpt><trkpt lat="40.41518774877974" lon="18.199838835429723"><ele>21.0</ele><time>2026-04-19T09:58:09.001Z</time></trkpt><trkpt lat="40.41527007386315" lon="18.19975420123697"><ele>21.0</ele><time>2026-04-19T09:58:10.001Z</time></trkpt><trkpt lat="40.41535550971181" lon="18.1996688749767"><ele>21.0</ele><time>2026-04-19T09:58:11.001Z</time></trkpt><trkpt lat="40.41544199150377" lon="18.199583029169506"><ele>21.0</ele><time>2026-04-19T09:58:12.001Z</time></trkpt><trkpt lat="40.415530685485066" lon="18.199490077570992"><ele>21.0</ele><time>2026-04-19T09:58:13.001Z</time></trkpt><trkpt lat="40.4156218349739" lon="18.19939962503223"><ele>21.0</ele><time>2026-04-19T09:58:14.001Z</time></trkpt><trkpt lat="40.41571369167371" lon="18.19930696127599"><ele>21.0</ele><time>2026-04-19T09:58:15.001Z</time></trkpt><trkpt lat="40.41580369664098" lon="18.19921289797206"><ele>21.0</ele><time>2026-04-19T09:58:16.001Z</time></trkpt><trkpt lat="40.41589520608741" lon="18.199116625236076"><ele>21.0</ele><time>2026-04-19T09:58:17.001Z</time></trkpt><trkpt lat="40.415987472224735" lon="18.19901946889028"><ele>21.25</ele><time>2026-04-19T09:58:18.001Z</time></trkpt><trkpt lat="40.41607941025515" lon="18.198923916054603"><ele>21.5</ele><time>2026-04-19T09:58:19.001Z</time></trkpt><trkpt lat="40.41617362296825" lon="18.19882477710511"><ele>21.75</ele><time>2026-04-19T09:58:20.001Z</time></trkpt><trkpt lat="40.41626857979881" lon="18.19872865160211"><ele>22.0</ele><time>2026-04-19T09:58:21.001Z</time></trkpt><trkpt lat="40.41636290700602" lon="18.198630745722948"><ele>22.0</ele><time>2026-04-19T09:58:22.001Z</time></trkpt><trkpt lat="40.4164578722396" lon="18.19853298269653"><ele>22.0</ele><time>2026-04-19T09:58:23.001Z</time></trkpt><trkpt lat="40.41655330533071" lon="18.198436901643397"><ele>22.0</ele><time>2026-04-19T09:58:24.001Z</time></trkpt><trkpt lat="40.41664786849462" lon="18.198343555126506"><ele>22.0</ele><time>2026-04-19T09:58:25.001Z</time></trkpt><trkpt lat="40.41673984792266" lon="18.19824758015712"><ele>22.25</ele><time>2026-04-19T09:58:26.001Z</time></trkpt><trkpt lat="40.41682707239834" lon="18.1981568905422"><ele>22.5</ele><time>2026-04-19T09:58:27.001Z</time></trkpt><trkpt lat="40.41691475248184" lon="18.198056390883192"><ele>22.75</ele><time>2026-04-19T09:58:28.001Z</time></trkpt><trkpt lat="40.417014700567805" lon="18.197977365081908"><ele>23.0</ele><time>2026-04-19T09:58:29.001Z</time></trkpt><trkpt lat="40.417105612924786" lon="18.197883624064943"><ele>22.599999999999998</ele><time>2026-04-19T09:58:30.001Z</time></trkpt><trkpt lat="40.41718906399149" lon="18.197798732182516"><ele>22.2</ele><time>2026-04-19T09:58:31.001Z</time></trkpt><trkpt lat="40.41726406126415" lon="18.197722994204607"><ele>21.8</ele><time>2026-04-19T09:58:32.001Z</time></trkpt><trkpt lat="40.41733910010071" lon="18.197647214234898"><ele>21.4</ele><time>2026-04-19T09:58:33.001Z</time></trkpt><trkpt lat="40.41741829656559" lon="18.197567235460617"><ele>21.0</ele><time>2026-04-19T09:58:34.001Z</time></trkpt><trkpt lat="40.41749050681875" lon="18.197494547695612"><ele>21.0</ele><time>2026-04-19T09:58:35.001Z</time></trkpt><trkpt lat="40.41757145225175" lon="18.197412717370597"><ele>21.0</ele><time>2026-04-19T09:58:36.001Z</time></trkpt><trkpt lat="40.417658961972606" lon="18.19732295106266"><ele>21.0</ele><time>2026-04-19T09:58:37.001Z</time></trkpt><trkpt lat="40.4177516937227" lon="18.1972278280639"><ele>21.0</ele><time>2026-04-19T09:58:38.001Z</time></trkpt><trkpt lat="40.41784775724716" lon="18.19712985951909"><ele>21.5</ele><time>2026-04-19T09:58:39.001Z</time></trkpt><trkpt lat="40.417948196253434" lon="18.1970277632974"><ele>22.0</ele><time>2026-04-19T09:58:40.001Z</time></trkpt><trkpt lat="40.41804946697152" lon="18.196924821641165"><ele>22.5</ele><time>2026-04-19T09:58:41.001Z</time></trkpt><trkpt lat="40.41815458949081" lon="18.19681796462987"><ele>23.0</ele><time>2026-04-19T09:58:42.001Z</time></trkpt><trkpt lat="40.41825959719026" lon="18.196711224336084"><ele>23.0</ele><time>2026-04-19T09:58:43.001Z</time></trkpt><trkpt lat="40.41836410379971" lon="18.19660499339909"><ele>23.0</ele><time>2026-04-19T09:58:44.001Z</time></trkpt><trkpt lat="40.41846520611275" lon="18.19650222293048"><ele>23.0</ele><time>2026-04-19T09:58:45.001Z</time></trkpt><trkpt lat="40.418573829283304" lon="18.196391807501623"><ele>23.0</ele><time>2026-04-19T09:58:46.001Z</time></trkpt><trkpt lat="40.418682069863685" lon="18.196281021637258"><ele>23.0</ele><time>2026-04-19T09:58:47.001Z</time></trkpt><trkpt lat="40.41879586145945" lon="18.19616352950154"><ele>23.0</ele><time>2026-04-19T09:58:48.001Z</time></trkpt><trkpt lat="40.41891119216928" lon="18.19604444819827"><ele>23.0</ele><time>2026-04-19T09:58:49.001Z</time></trkpt><trkpt lat="40.41902908863784" lon="18.195922717698963"><ele>23.0</ele><time>2026-04-19T09:58:50.001Z</time></trkpt><trkpt lat="40.41914800465074" lon="18.195799934500325"><ele>23.333333333333336</ele><time>2026-04-19T09:58:51.001Z</time></trkpt><trkpt lat="40.41925556818753" lon="18.19566140974438"><ele>23.666666666666668</ele><time>2026-04-19T09:58:52.001Z</time></trkpt><trkpt lat="40.41937886738921" lon="18.195535360277947"><ele>24.0</ele><time>2026-04-19T09:58:53.001Z</time></trkpt><trkpt lat="40.41951268545124" lon="18.19542452602416"><ele>24.0</ele><time>2026-04-19T09:58:54.001Z</time></trkpt><trkpt lat="40.419635586463635" lon="18.195299726633998"><ele>24.0</ele><time>2026-04-19T09:58:55.001Z</time></trkpt><trkpt lat="40.41974414804247" lon="18.195162162546804"><ele>24.0</ele><time>2026-04-19T09:58:56.001Z</time></trkpt><trkpt lat="40.4198583818648" lon="18.195049375161425"><ele>24.0</ele><time>2026-04-19T09:58:57.001Z</time></trkpt><trkpt lat="40.41996724755308" lon="18.194936577399403"><ele>24.5</ele><time>2026-04-19T09:58:58.001Z</time></trkpt><trkpt lat="40.42008292343504" lon="18.194820230758513"><ele>25.0</ele><time>2026-04-19T09:58:59.001Z</time></trkpt><trkpt lat="40.42018576913685" lon="18.19471747219259"><ele>25.5</ele><time>2026-04-19T09:59:00.001Z</time></trkpt><trkpt lat="40.4202700022916" lon="18.194627797134192"><ele>26.0</ele><time>2026-04-19T09:59:01.001Z</time></trkpt><trkpt lat="40.420357368310476" lon="18.194538181618423"><ele>26.0</ele><time>2026-04-19T09:59:02.001Z</time></trkpt><trkpt lat="40.42044597404348" lon="18.194449304114364"><ele>26.0</ele><time>2026-04-19T09:59:03.001Z</time></trkpt><trkpt lat="40.42053509852971" lon="18.19436677408675"><ele>26.0</ele><time>2026-04-19T09:59:04.001Z</time></trkpt><trkpt lat="40.420627796392964" lon="18.194283626433087"><ele>26.0</ele><time>2026-04-19T09:59:05.001Z</time></trkpt><trkpt lat="40.420711313428185" lon="18.194184871422948"><ele>26.0</ele><time>2026-04-19T09:59:06.001Z</time></trkpt><trkpt lat="40.420794302215455" lon="18.19410000237558"><ele>25.833333333333332</ele><time>2026-04-19T09:59:07.001Z</time></trkpt><trkpt lat="40.420871001577616" lon="18.194031930919312"><ele>25.666666666666664</ele><time>2026-04-19T09:59:08.001Z</time></trkpt><trkpt lat="40.42093749072388" lon="18.193966911858116"><ele>25.5</ele><time>2026-04-19T09:59:09.001Z</time></trkpt><trkpt lat="40.4209958001315" lon="18.193904097926357"><ele>25.333333333333336</ele><time>2026-04-19T09:59:10.001Z</time></trkpt><trkpt lat="40.42105079316401" lon="18.193857093817837"><ele>25.166666666666668</ele><time>2026-04-19T09:59:11.001Z</time></trkpt><trkpt lat="40.42114506662302" lon="18.193781842611216"><ele>25.0</ele><time>2026-04-19T09:59:13.001Z</time></trkpt><trkpt lat="40.42109870569101" lon="18.193606827318536"><ele>25.0</ele><time>2026-04-19T09:59:17.001Z</time></trkpt><trkpt lat="40.42103970897319" lon="18.193540768339304"><ele>25.0</ele><time>2026-04-19T09:59:18.001Z</time></trkpt><trkpt lat="40.420962576975015" lon="18.193461931439714"><ele>25.0</ele><time>2026-04-19T09:59:19.001Z</time></trkpt><trkpt lat="40.42087845558544" lon="18.19337595065937"><ele>25.0</ele><time>2026-04-19T09:59:20.001Z</time></trkpt><trkpt lat="40.42077259527315" lon="18.193267886131046"><ele>25.0</ele><time>2026-04-19T09:59:21.001Z</time></trkpt><trkpt lat="40.42064150390116" lon="18.193134141304448"><ele>25.0</ele><time>2026-04-19T09:59:22.001Z</time></trkpt><trkpt lat="40.42049346738294" lon="18.19298310833747"><ele>25.0</ele><time>2026-04-19T09:59:23.001Z</time></trkpt><trkpt lat="40.42035967259724" lon="18.19284660537833"><ele>25.0</ele><time>2026-04-19T09:59:24.001Z</time></trkpt><trkpt lat="40.42024796544514" lon="18.192754213567053"><ele>25.0</ele><time>2026-04-19T09:59:25.001Z</time></trkpt><trkpt lat="40.42014722074331" lon="18.192655465980838"><ele>25.0</ele><time>2026-04-19T09:59:26.001Z</time></trkpt><trkpt lat="40.42004657969332" lon="18.192553151580267"><ele>25.0</ele><time>2026-04-19T09:59:27.001Z</time></trkpt><trkpt lat="40.41995079412858" lon="18.192453809164203"><ele>25.0</ele><time>2026-04-19T09:59:28.001Z</time></trkpt><trkpt lat="40.41985525449894" lon="18.192359724405563"><ele>25.2</ele><time>2026-04-19T09:59:29.001Z</time></trkpt><trkpt lat="40.419765454764864" lon="18.192272713253857"><ele>25.4</ele><time>2026-04-19T09:59:30.001Z</time></trkpt><trkpt lat="40.419688360110435" lon="18.19218803543268"><ele>25.6</ele><time>2026-04-19T09:59:31.001Z</time></trkpt><trkpt lat="40.41960925314025" lon="18.192116945395703"><ele>25.8</ele><time>2026-04-19T09:59:32.001Z</time></trkpt><trkpt lat="40.4195422807423" lon="18.192046139862587"><ele>26.0</ele><time>2026-04-19T09:59:33.001Z</time></trkpt><trkpt lat="40.41947596067933" lon="18.19192856523329"><ele>25.6</ele><time>2026-04-19T09:59:35.001Z</time></trkpt><trkpt lat="40.419451584935565" lon="18.19180038863382"><ele>25.200000000000003</ele><time>2026-04-19T09:59:37.001Z</time></trkpt><trkpt lat="40.41930573068193" lon="18.191803053267453"><ele>24.799999999999997</ele><time>2026-04-19T09:59:38.001Z</time></trkpt><trkpt lat="40.419233307277736" lon="18.19173801380011"><ele>24.4</ele><time>2026-04-19T09:59:39.001Z</time></trkpt><trkpt lat="40.41915128826091" lon="18.19170155146134"><ele>24.0</ele><time>2026-04-19T09:59:40.001Z</time></trkpt><trkpt lat="40.419058604320455" lon="18.191672036545796"><ele>24.0</ele><time>2026-04-19T09:59:41.001Z</time></trkpt><trkpt lat="40.418953662270354" lon="18.19166952321831"><ele>24.0</ele><time>2026-04-19T09:59:42.001Z</time></trkpt><trkpt lat="40.418842245626344" lon="18.191666717089344"><ele>24.0</ele><time>2026-04-19T09:59:43.001Z</time></trkpt><trkpt lat="40.41872871158977" lon="18.191658686565056"><ele>24.0</ele><time>2026-04-19T09:59:44.001Z</time></trkpt><trkpt lat="40.41863169889516" lon="18.19165493769329"><ele>24.0</ele><time>2026-04-19T09:59:45.001Z</time></trkpt><trkpt lat="40.41853344510737" lon="18.191642282741306"><ele>24.2</ele><time>2026-04-19T09:59:46.001Z</time></trkpt><trkpt lat="40.418452283144184" lon="18.19162845273279"><ele>24.4</ele><time>2026-04-19T09:59:47.002Z</time></trkpt><trkpt lat="40.41835593534785" lon="18.191608489107523"><ele>24.6</ele><time>2026-04-19T09:59:48.002Z</time></trkpt><trkpt lat="40.41824871453553" lon="18.1915957694861"><ele>24.8</ele><time>2026-04-19T09:59:49.002Z</time></trkpt><trkpt lat="40.418136355639376" lon="18.19159280133443"><ele>25.0</ele><time>2026-04-19T09:59:50.002Z</time></trkpt><trkpt lat="40.418038770610835" lon="18.19159521265083"><ele>25.000000000000004</ele><time>2026-04-19T09:59:51.002Z</time></trkpt><trkpt lat="40.41795274957235" lon="18.19159872191793"><ele>25.0</ele><time>2026-04-19T09:59:52.002Z</time></trkpt><trkpt lat="40.41786952730175" lon="18.191594466895985"><ele>25.0</ele><time>2026-04-19T09:59:53.002Z</time></trkpt><trkpt lat="40.41779256818567" lon="18.191599478137313"><ele>25.0</ele><time>2026-04-19T09:59:54.002Z</time></trkpt><trkpt lat="40.41771445639929" lon="18.19161794547182"><ele>25.000000000000004</ele><time>2026-04-19T09:59:55.002Z</time></trkpt><trkpt lat="40.41762361954603" lon="18.191623415128813"><ele>25.0</ele><time>2026-04-19T09:59:56.001Z</time></trkpt><trkpt lat="40.41752886046923" lon="18.19161967418065"><ele>25.0</ele><time>2026-04-19T09:59:57.001Z</time></trkpt><trkpt lat="40.41742917243196" lon="18.191617316396513"><ele>25.0</ele><time>2026-04-19T09:59:58.001Z</time></trkpt><trkpt lat="40.41733008180522" lon="18.191612668579094"><ele>25.0</ele><time>2026-04-19T09:59:59.001Z</time></trkpt><trkpt lat="40.417237708179286" lon="18.19162077604373"><ele>25.0</ele><time>2026-04-19T10:00:00.001Z</time></trkpt><trkpt lat="40.41714066618461" lon="18.191634061547774"><ele>25.0</ele><time>2026-04-19T10:00:01.001Z</time></trkpt><trkpt lat="40.4170609787895" lon="18.19164573765794"><ele>25.000000000000004</ele><time>2026-04-19T10:00:02.001Z</time></trkpt><trkpt lat="40.416976529784186" lon="18.191641589107892"><ele>25.0</ele><time>2026-04-19T10:00:03.001Z</time></trkpt><trkpt lat="40.41687862600726" lon="18.19163481735777"><ele>25.0</ele><time>2026-04-19T10:00:04.001Z</time></trkpt><trkpt lat="40.41678866916397" lon="18.19162472235263"><ele>25.0</ele><time>2026-04-19T10:00:05.001Z</time></trkpt><trkpt lat="40.4167004706714" lon="18.1916058078139"><ele>25.000000000000004</ele><time>2026-04-19T10:00:06.001Z</time></trkpt><trkpt lat="40.41663057593544" lon="18.191598185342304"><ele>25.0</ele><time>2026-04-19T10:00:07.001Z</time></trkpt><trkpt lat="40.41655028587953" lon="18.191594980840154"><ele>25.000000000000004</ele><time>2026-04-19T10:00:08.001Z</time></trkpt><trkpt lat="40.41647628443553" lon="18.191599764860445"><ele>25.0</ele><time>2026-04-19T10:00:09.001Z</time></trkpt><trkpt lat="40.41641214563252" lon="18.191618657474045"><ele>25.0</ele><time>2026-04-19T10:00:10.001Z</time></trkpt><trkpt lat="40.41633811377725" lon="18.191632952869853"><ele>25.0</ele><time>2026-04-19T10:00:11.001Z</time></trkpt><trkpt lat="40.41626613555214" lon="18.19162906007376"><ele>25.000000000000004</ele><time>2026-04-19T10:00:12.001Z</time></trkpt><trkpt lat="40.41618254336875" lon="18.191609675208337"><ele>25.0</ele><time>2026-04-19T10:00:13.001Z</time></trkpt><trkpt lat="40.41609476558167" lon="18.19154936326062"><ele>24.25</ele><time>2026-04-19T10:00:14.001Z</time></trkpt><trkpt lat="40.41600317400291" lon="18.19145827201335"><ele>23.5</ele><time>2026-04-19T10:00:15.001Z</time></trkpt><trkpt lat="40.41590624494072" lon="18.191353810671476"><ele>22.75</ele><time>2026-04-19T10:00:16.001Z</time></trkpt><trkpt lat="40.41582957677299" lon="18.19125929610999"><ele>22.0</ele><time>2026-04-19T10:00:17.001Z</time></trkpt><trkpt lat="40.41576905563425" lon="18.191144331889905"><ele>22.0</ele><time>2026-04-19T10:00:18.001Z</time></trkpt><trkpt lat="40.415716973006134" lon="18.191015819690467"><ele>22.0</ele><time>2026-04-19T10:00:19.001Z</time></trkpt><trkpt lat="40.41566647335139" lon="18.190915979768835"><ele>22.0</ele><time>2026-04-19T10:00:20.001Z</time></trkpt><trkpt lat="40.415608823519506" lon="18.190817298661784"><ele>22.0</ele><time>2026-04-19T10:00:21.001Z</time></trkpt><trkpt lat="40.415565794727996" lon="18.190739005915322"><ele>22.0</ele><time>2026-04-19T10:00:22.001Z</time></trkpt><trkpt lat="40.41544306735047" lon="18.190667181473582"><ele>22.0</ele><time>2026-04-19T10:00:24.001Z</time></trkpt><trkpt lat="40.41537556293351" lon="18.190662795029475"><ele>22.0</ele><time>2026-04-19T10:00:25.001Z</time></trkpt><trkpt lat="40.41530101310733" lon="18.190690819381654"><ele>22.0</ele><time>2026-04-19T10:00:26.001Z</time></trkpt><trkpt lat="40.415218296720965" lon="18.190743857006375"><ele>22.0</ele><time>2026-04-19T10:00:27.001Z</time></trkpt><trkpt lat="40.415133469834984" lon="18.190824261738616"><ele>22.0</ele><time>2026-04-19T10:00:28.001Z</time></trkpt><trkpt lat="40.41504340380001" lon="18.19089194495058"><ele>22.0</ele><time>2026-04-19T10:00:29.001Z</time></trkpt><trkpt lat="40.4149681427234" lon="18.190951859518055"><ele>22.0</ele><time>2026-04-19T10:00:30.001Z</time></trkpt><trkpt lat="40.414904850126966" lon="18.191000492904383"><ele>22.0</ele><time>2026-04-19T10:00:31.001Z</time></trkpt><trkpt lat="40.41484251745635" lon="18.191049515167677"><ele>22.0</ele><time>2026-04-19T10:00:32.001Z</time></trkpt><trkpt lat="40.4147823919475" lon="18.191082035228273"><ele>22.0</ele><time>2026-04-19T10:00:33.001Z</time></trkpt><trkpt lat="40.41472371773422" lon="18.191117359511132"><ele>22.0</ele><time>2026-04-19T10:00:34.001Z</time></trkpt><trkpt lat="40.414654098817564" lon="18.1911529824739"><ele>22.0</ele><time>2026-04-19T10:00:35.001Z</time></trkpt><trkpt lat="40.414589742402185" lon="18.191182141708158"><ele>22.0</ele><time>2026-04-19T10:00:36.001Z</time></trkpt><trkpt lat="40.41450740650217" lon="18.191208534710118"><ele>21.666666666666664</ele><time>2026-04-19T10:00:37.001Z</time></trkpt><trkpt lat="40.41441771490129" lon="18.191224329285443"><ele>21.333333333333332</ele><time>2026-04-19T10:00:38.001Z</time></trkpt><trkpt lat="40.41434146269526" lon="18.191250595599048"><ele>21.0</ele><time>2026-04-19T10:00:39.001Z</time></trkpt><trkpt lat="40.414263294695516" lon="18.191275479496113"><ele>20.666666666666668</ele><time>2026-04-19T10:00:40.001Z</time></trkpt><trkpt lat="40.4141903981119" lon="18.191274953038675"><ele>20.333333333333336</ele><time>2026-04-19T10:00:41.001Z</time></trkpt><trkpt lat="40.41411147379445" lon="18.19126842813752"><ele>20.0</ele><time>2026-04-19T10:00:42.001Z</time></trkpt><trkpt lat="40.41402770938355" lon="18.191282291623693"><ele>20.0</ele><time>2026-04-19T10:00:43.001Z</time></trkpt><trkpt lat="40.41394453547624" lon="18.191311216423067"><ele>20.0</ele><time>2026-04-19T10:00:44.001Z</time></trkpt><trkpt lat="40.41385486588224" lon="18.19132858625818"><ele>20.0</ele><time>2026-04-19T10:00:45.001Z</time></trkpt><trkpt lat="40.41377495531665" lon="18.191328830525062"><ele>20.0</ele><time>2026-04-19T10:00:46.001Z</time></trkpt><trkpt lat="40.41370562074654" lon="18.191326037019124"><ele>20.0</ele><time>2026-04-19T10:00:47.001Z</time></trkpt><trkpt lat="40.41363640018979" lon="18.19133678539387"><ele>20.0</ele><time>2026-04-19T10:00:48.001Z</time></trkpt><trkpt lat="40.413562071735136" lon="18.19130331685481"><ele>19.75</ele><time>2026-04-19T10:00:49.001Z</time></trkpt><trkpt lat="40.41346725630519" lon="18.191243376612107"><ele>19.5</ele><time>2026-04-19T10:00:50.001Z</time></trkpt><trkpt lat="40.41336061138132" lon="18.19116236580135"><ele>19.25</ele><time>2026-04-19T10:00:51.001Z</time></trkpt><trkpt lat="40.413232495366756" lon="18.191071102245846"><ele>19.0</ele><time>2026-04-19T10:00:52.001Z</time></trkpt><trkpt lat="40.413074280435275" lon="18.190967111388783"><ele>18.333333333333332</ele><time>2026-04-19T10:00:53Z</time></trkpt><trkpt lat="40.412913699212275" lon="18.190868019331976"><ele>17.666666666666668</ele><time>2026-04-19T10:00:54Z</time></trkpt><trkpt lat="40.4127717779855" lon="18.19078501600901"><ele>17.0</ele><time>2026-04-19T10:00:55Z</time></trkpt><trkpt lat="40.41264662851562" lon="18.190725765205308"><ele>17.5</ele><time>2026-04-19T10:00:56Z</time></trkpt><trkpt lat="40.41251762265493" lon="18.190671922551424"><ele>18.0</ele><time>2026-04-19T10:00:57Z</time></trkpt><trkpt lat="40.41238854803133" lon="18.190591626775742"><ele>18.5</ele><time>2026-04-19T10:00:58Z</time></trkpt><trkpt lat="40.412259684049715" lon="18.19053225612648"><ele>19.0</ele><time>2026-04-19T10:00:59Z</time></trkpt><trkpt lat="40.41211862897741" lon="18.190467488356983"><ele>19.0</ele><time>2026-04-19T10:01:00Z</time></trkpt><trkpt lat="40.41198724425371" lon="18.190410383470677"><ele>19.0</ele><time>2026-04-19T10:01:01Z</time></trkpt><trkpt lat="40.41185623606853" lon="18.19034375817978"><ele>19.0</ele><time>2026-04-19T10:01:02Z</time></trkpt><trkpt lat="40.41174710418911" lon="18.190268357210392"><ele>19.0</ele><time>2026-04-19T10:01:03Z</time></trkpt><trkpt lat="40.411645475529255" lon="18.190191090788772"><ele>19.0</ele><time>2026-04-19T10:01:04Z</time></trkpt><trkpt lat="40.411536294329814" lon="18.190123715856846"><ele>19.0</ele><time>2026-04-19T10:01:05Z</time></trkpt><trkpt lat="40.411428438368944" lon="18.190079062890838"><ele>19.0</ele><time>2026-04-19T10:01:06Z</time></trkpt><trkpt lat="40.41131464131256" lon="18.190044506839076"><ele>19.0</ele><time>2026-04-19T10:01:07Z</time></trkpt><trkpt lat="40.41122143004237" lon="18.18997144344148"><ele>19.75</ele><time>2026-04-19T10:01:08Z</time></trkpt><trkpt lat="40.411125909138036" lon="18.189896520647803"><ele>20.5</ele><time>2026-04-19T10:01:09Z</time></trkpt><trkpt lat="40.41101843868517" lon="18.18981856230255"><ele>21.25</ele><time>2026-04-19T10:01:10Z</time></trkpt><trkpt lat="40.410914936434324" lon="18.189752222379187"><ele>22.0</ele><time>2026-04-19T10:01:11Z</time></trkpt><trkpt lat="40.41081050155569" lon="18.189686595776003"><ele>22.5</ele><time>2026-04-19T10:01:12Z</time></trkpt><trkpt lat="40.41070497925923" lon="18.189621345157427"><ele>23.0</ele><time>2026-04-19T10:01:13Z</time></trkpt><trkpt lat="40.410602625986186" lon="18.18955766467576"><ele>23.5</ele><time>2026-04-19T10:01:14Z</time></trkpt><trkpt lat="40.41049652224843" lon="18.189486990680333"><ele>24.0</ele><time>2026-04-19T10:01:15Z</time></trkpt><trkpt lat="40.410396009028254" lon="18.18942004044568"><ele>25.0</ele><time>2026-04-19T10:01:16Z</time></trkpt><trkpt lat="40.41029645808211" lon="18.18937725234443"><ele>26.0</ele><time>2026-04-19T10:01:17Z</time></trkpt><trkpt lat="40.41020200314571" lon="18.189319352718798"><ele>27.0</ele><time>2026-04-19T10:01:18Z</time></trkpt><trkpt lat="40.410116759266955" lon="18.18925563178758"><ele>28.0</ele><time>2026-04-19T10:01:19Z</time></trkpt><trkpt lat="40.41003660629198" lon="18.18920143852757"><ele>29.0</ele><time>2026-04-19T10:01:20Z</time></trkpt><trkpt lat="40.40996385107864" lon="18.189141472552862"><ele>29.0</ele><time>2026-04-19T10:01:21Z</time></trkpt><trkpt lat="40.409879574020444" lon="18.189070401298537"><ele>29.0</ele><time>2026-04-19T10:01:22Z</time></trkpt><trkpt lat="40.409804476256845" lon="18.189004786040645"><ele>29.0</ele><time>2026-04-19T10:01:23Z</time></trkpt><trkpt lat="40.40973039146024" lon="18.188955147185087"><ele>29.0</ele><time>2026-04-19T10:01:24Z</time></trkpt><trkpt lat="40.40963675806195" lon="18.188875492223563"><ele>29.0</ele><time>2026-04-19T10:01:26Z</time></trkpt><trkpt lat="40.40957739335045" lon="18.188822736843527"><ele>28.999999999999996</ele><time>2026-04-19T10:01:27Z</time></trkpt><trkpt lat="40.40951514117469" lon="18.188784243110643"><ele>29.0</ele><time>2026-04-19T10:01:28Z</time></trkpt><trkpt lat="40.40944356402249" lon="18.18873654530158"><ele>29.0</ele><time>2026-04-19T10:01:29Z</time></trkpt><trkpt lat="40.40936309232753" lon="18.18867448347335"><ele>29.0</ele><time>2026-04-19T10:01:30Z</time></trkpt><trkpt lat="40.40927815235738" lon="18.188612034546807"><ele>28.999999999999996</ele><time>2026-04-19T10:01:31Z</time></trkpt><trkpt lat="40.40919687548935" lon="18.188542055477498"><ele>29.0</ele><time>2026-04-19T10:01:32Z</time></trkpt><trkpt lat="40.40912535184949" lon="18.188430538197142"><ele>29.0</ele><time>2026-04-19T10:01:33Z</time></trkpt><trkpt lat="40.40904595051726" lon="18.188325601882028"><ele>29.0</ele><time>2026-04-19T10:01:34Z</time></trkpt><trkpt lat="40.40897702930034" lon="18.188230805286683"><ele>29.0</ele><time>2026-04-19T10:01:35Z</time></trkpt><trkpt lat="40.40891723848152" lon="18.18816605966538"><ele>29.0</ele><time>2026-04-19T10:01:36Z</time></trkpt><trkpt lat="40.40885840030497" lon="18.188097327246492"><ele>29.0</ele><time>2026-04-19T10:01:37Z</time></trkpt><trkpt lat="40.40880054180821" lon="18.188022836920677"><ele>28.71428571428572</ele><time>2026-04-19T10:01:38Z</time></trkpt><trkpt lat="40.408741864240476" lon="18.187944890921575"><ele>28.42857142857143</ele><time>2026-04-19T10:01:39Z</time></trkpt><trkpt lat="40.408689161885405" lon="18.18789633500204"><ele>28.142857142857146</ele><time>2026-04-19T10:01:40Z</time></trkpt><trkpt lat="40.40862935795885" lon="18.187856544631085"><ele>27.85714285714286</ele><time>2026-04-19T10:01:41Z</time></trkpt><trkpt lat="40.40856432954667" lon="18.18782669722335"><ele>27.57142857142857</ele><time>2026-04-19T10:01:42Z</time></trkpt><trkpt lat="40.40849106114077" lon="18.18780478695941"><ele>27.285714285714285</ele><time>2026-04-19T10:01:43Z</time></trkpt><trkpt lat="40.40841765652332" lon="18.18778714590989"><ele>27.0</ele><time>2026-04-19T10:01:44Z</time></trkpt><trkpt lat="40.40835232305631" lon="18.187750946508327"><ele>27.0</ele><time>2026-04-19T10:01:45Z</time></trkpt><trkpt lat="40.40828182073908" lon="18.187701864210304"><ele>27.0</ele><time>2026-04-19T10:01:46Z</time></trkpt><trkpt lat="40.408175276727874" lon="18.18766370363584"><ele>27.0</ele><time>2026-04-19T10:01:47Z</time></trkpt><trkpt lat="40.40803731702332" lon="18.187619910559615"><ele>27.0</ele><time>2026-04-19T10:01:48Z</time></trkpt><trkpt lat="40.40789566965819" lon="18.187563662493098"><ele>27.0</ele><time>2026-04-19T10:01:49Z</time></trkpt><trkpt lat="40.40774083558585" lon="18.187495637529114"><ele>27.0</ele><time>2026-04-19T10:01:50Z</time></trkpt><trkpt lat="40.40759216018339" lon="18.187439806602594"><ele>27.0</ele><time>2026-04-19T10:01:51Z</time></trkpt><trkpt lat="40.40746640986839" lon="18.187384216787244"><ele>27.0</ele><time>2026-04-19T10:01:52Z</time></trkpt><trkpt lat="40.40733350179907" lon="18.187325710634337"><ele>27.0</ele><time>2026-04-19T10:01:53.001Z</time></trkpt><trkpt lat="40.40720656297174" lon="18.187271556797104"><ele>27.0</ele><time>2026-04-19T10:01:54.001Z</time></trkpt><trkpt lat="40.40708393186385" lon="18.18722682678854"><ele>27.0</ele><time>2026-04-19T10:01:55.001Z</time></trkpt><trkpt lat="40.406984787741976" lon="18.187190455219973"><ele>27.5</ele><time>2026-04-19T10:01:56.001Z</time></trkpt><trkpt lat="40.40689046003778" lon="18.18716037812457"><ele>28.0</ele><time>2026-04-19T10:01:57.001Z</time></trkpt><trkpt lat="40.40679833849253" lon="18.18714709127988"><ele>28.5</ele><time>2026-04-19T10:01:58.001Z</time></trkpt><trkpt lat="40.4067107176705" lon="18.187149039543957"><ele>29.0</ele><time>2026-04-19T10:01:59.001Z</time></trkpt><trkpt lat="40.40662384005811" lon="18.187169049133054"><ele>29.5</ele><time>2026-04-19T10:02:00.001Z</time></trkpt><trkpt lat="40.406550386039505" lon="18.187218331910707"><ele>30.0</ele><time>2026-04-19T10:02:01.001Z</time></trkpt><trkpt lat="40.406480365815106" lon="18.18729285982056"><ele>30.0</ele><time>2026-04-19T10:02:02.001Z</time></trkpt><trkpt lat="40.4064229745092" lon="18.187365647394458"><ele>30.0</ele><time>2026-04-19T10:02:03.001Z</time></trkpt><trkpt lat="40.406351144716076" lon="18.18744557202421"><ele>30.0</ele><time>2026-04-19T10:02:04.001Z</time></trkpt><trkpt lat="40.40625792779137" lon="18.18751371097869"><ele>30.0</ele><time>2026-04-19T10:02:05.001Z</time></trkpt><trkpt lat="40.40615637709082" lon="18.18757832892696"><ele>30.0</ele><time>2026-04-19T10:02:06.001Z</time></trkpt><trkpt lat="40.40604344083668" lon="18.187619682768084"><ele>30.5</ele><time>2026-04-19T10:02:07.001Z</time></trkpt><trkpt lat="40.405925468749004" lon="18.18766349402795"><ele>31.0</ele><time>2026-04-19T10:02:08.001Z</time></trkpt><trkpt lat="40.40580607927032" lon="18.18771309357956"><ele>31.5</ele><time>2026-04-19T10:02:09.001Z</time></trkpt><trkpt lat="40.40569473594076" lon="18.187757702204536"><ele>32.0</ele><time>2026-04-19T10:02:10.001Z</time></trkpt><trkpt lat="40.40558412172636" lon="18.187788868154737"><ele>31.8</ele><time>2026-04-19T10:02:11.001Z</time></trkpt><trkpt lat="40.40546773176043" lon="18.187830666179323"><ele>31.6</ele><time>2026-04-19T10:02:12.001Z</time></trkpt><trkpt lat="40.4053670136369" lon="18.187868533888505"><ele>31.400000000000002</ele><time>2026-04-19T10:02:13.001Z</time></trkpt><trkpt lat="40.40528329356694" lon="18.18789689782589"><ele>31.200000000000003</ele><time>2026-04-19T10:02:14.001Z</time></trkpt><trkpt lat="40.405205069766325" lon="18.187905699172497"><ele>31.0</ele><time>2026-04-19T10:02:15.001Z</time></trkpt><trkpt lat="40.40511122053451" lon="18.187907118014373"><ele>31.000000000000004</ele><time>2026-04-19T10:02:16.001Z</time></trkpt><trkpt lat="40.405020167815316" lon="18.18790433385116"><ele>31.0</ele><time>2026-04-19T10:02:17Z</time></trkpt><trkpt lat="40.40494527346552" lon="18.18789680721912"><ele>31.0</ele><time>2026-04-19T10:02:18Z</time></trkpt><trkpt lat="40.40486258806466" lon="18.187887405670534"><ele>31.0</ele><time>2026-04-19T10:02:19Z</time></trkpt><trkpt lat="40.40477776455333" lon="18.187875250321188"><ele>31.000000000000004</ele><time>2026-04-19T10:02:20Z</time></trkpt><trkpt lat="40.40469718256952" lon="18.187845098051316"><ele>31.0</ele><time>2026-04-19T10:02:21Z</time></trkpt><trkpt lat="40.404613423549456" lon="18.187788810969508"><ele>31.0</ele><time>2026-04-19T10:02:22Z</time></trkpt><trkpt lat="40.404535080428666" lon="18.187705353248006"><ele>31.0</ele><time>2026-04-19T10:02:23Z</time></trkpt><trkpt lat="40.4044786803602" lon="18.18761335549821"><ele>31.0</ele><time>2026-04-19T10:02:24Z</time></trkpt><trkpt lat="40.404427497426305" lon="18.187497836951497"><ele>31.0</ele><time>2026-04-19T10:02:25Z</time></trkpt><trkpt lat="40.40438491496719" lon="18.18736935467922"><ele>31.0</ele><time>2026-04-19T10:02:26Z</time></trkpt><trkpt lat="40.40434313183305" lon="18.18727084285819"><ele>31.0</ele><time>2026-04-19T10:02:27Z</time></trkpt><trkpt lat="40.40430134384639" lon="18.187183864673425"><ele>31.0</ele><time>2026-04-19T10:02:28Z</time></trkpt><trkpt lat="40.40425748931271" lon="18.187102926926208"><ele>31.0</ele><time>2026-04-19T10:02:29Z</time></trkpt><trkpt lat="40.404195233362096" lon="18.1870344369126"><ele>31.0</ele><time>2026-04-19T10:02:30Z</time></trkpt><trkpt lat="40.404101894587754" lon="18.186977836000793"><ele>31.0</ele><time>2026-04-19T10:02:31Z</time></trkpt><trkpt lat="40.40399199244858" lon="18.18693686978721"><ele>31.0</ele><time>2026-04-19T10:02:32Z</time></trkpt><trkpt lat="40.40387788581824" lon="18.186893529052703"><ele>31.0</ele><time>2026-04-19T10:02:33Z</time></trkpt><trkpt lat="40.403773582405385" lon="18.186848877244813"><ele>31.0</ele><time>2026-04-19T10:02:34Z</time></trkpt><trkpt lat="40.403679416540925" lon="18.186804564434663"><ele>31.0</ele><time>2026-04-19T10:02:35Z</time></trkpt><trkpt lat="40.40357316807791" lon="18.186760245867475"><ele>31.0</ele><time>2026-04-19T10:02:36Z</time></trkpt><trkpt lat="40.40346340592495" lon="18.186704774035714"><ele>31.0</ele><time>2026-04-19T10:02:37Z</time></trkpt><trkpt lat="40.40336431221196" lon="18.186662595993162"><ele>31.0</ele><time>2026-04-19T10:02:38Z</time></trkpt><trkpt lat="40.40326775228064" lon="18.18661675029711"><ele>31.0</ele><time>2026-04-19T10:02:39Z</time></trkpt><trkpt lat="40.40315685718129" lon="18.186567072289378"><ele>31.0</ele><time>2026-04-19T10:02:40Z</time></trkpt><trkpt lat="40.40303717513546" lon="18.186515870798186"><ele>31.25</ele><time>2026-04-19T10:02:41Z</time></trkpt><trkpt lat="40.40290842926703" lon="18.18646241256077"><ele>31.5</ele><time>2026-04-19T10:02:42Z</time></trkpt><trkpt lat="40.40279369813179" lon="18.186415362676208"><ele>31.75</ele><time>2026-04-19T10:02:43Z</time></trkpt><trkpt lat="40.40269917370569" lon="18.186376552421823"><ele>32.0</ele><time>2026-04-19T10:02:44Z</time></trkpt><trkpt lat="40.40260521591712" lon="18.186334339895495"><ele>32.0</ele><time>2026-04-19T10:02:45Z</time></trkpt><trkpt lat="40.40249366305337" lon="18.18630351562598"><ele>32.0</ele><time>2026-04-19T10:02:46Z</time></trkpt><trkpt lat="40.402372824940514" lon="18.186292708902013"><ele>32.0</ele><time>2026-04-19T10:02:47Z</time></trkpt><trkpt lat="40.402243193616286" lon="18.18629981608627"><ele>32.0</ele><time>2026-04-19T10:02:48Z</time></trkpt><trkpt lat="40.40209790188724" lon="18.186330487875793"><ele>32.0</ele><time>2026-04-19T10:02:49Z</time></trkpt><trkpt lat="40.40194217044254" lon="18.18638868900677"><ele>32.0</ele><time>2026-04-19T10:02:50Z</time></trkpt><trkpt lat="40.40177079436848" lon="18.186445877005134"><ele>32.0</ele><time>2026-04-19T10:02:51Z</time></trkpt><trkpt lat="40.401603894412986" lon="18.186478696015982"><ele>32.0</ele><time>2026-04-19T10:02:52Z</time></trkpt><trkpt lat="40.4014597147124" lon="18.18648663263496"><ele>32.0</ele><time>2026-04-19T10:02:53Z</time></trkpt><trkpt lat="40.40133065985139" lon="18.186486279448967"><ele>32.0</ele><time>2026-04-19T10:02:54Z</time></trkpt><trkpt lat="40.40119754187292" lon="18.18648783953801"><ele>32.0</ele><time>2026-04-19T10:02:55Z</time></trkpt><trkpt lat="40.40107655453021" lon="18.18649072354302"><ele>31.75</ele><time>2026-04-19T10:02:56Z</time></trkpt><trkpt lat="40.400953242827285" lon="18.186499652875405"><ele>31.5</ele><time>2026-04-19T10:02:57Z</time></trkpt><trkpt lat="40.40083096426486" lon="18.18651543998424"><ele>31.25</ele><time>2026-04-19T10:02:58Z</time></trkpt><trkpt lat="40.400715344023986" lon="18.186537141651527"><ele>31.0</ele><time>2026-04-19T10:02:59Z</time></trkpt><trkpt lat="40.40060185673294" lon="18.186565349255893"><ele>31.0</ele><time>2026-04-19T10:03:00Z</time></trkpt><trkpt lat="40.400484549875266" lon="18.186597515230755"><ele>31.0</ele><time>2026-04-19T10:03:01Z</time></trkpt><trkpt lat="40.40037672791203" lon="18.186625998873488"><ele>31.0</ele><time>2026-04-19T10:03:02Z</time></trkpt><trkpt lat="40.40025575307494" lon="18.186648235438536"><ele>31.0</ele><time>2026-04-19T10:03:03Z</time></trkpt><trkpt lat="40.40013104166672" lon="18.186650363914246"><ele>31.0</ele><time>2026-04-19T10:03:04Z</time></trkpt><trkpt lat="40.400003158239336" lon="18.18664060457916"><ele>31.0</ele><time>2026-04-19T10:03:05Z</time></trkpt><trkpt lat="40.39985963736025" lon="18.1866239761178"><ele>31.0</ele><time>2026-04-19T10:03:06Z</time></trkpt><trkpt lat="40.3997157874447" lon="18.186605961652898"><ele>31.0</ele><time>2026-04-19T10:03:07Z</time></trkpt><trkpt lat="40.39957036379862" lon="18.186589534111707"><ele>31.0</ele><time>2026-04-19T10:03:08Z</time></trkpt><trkpt lat="40.39941720110233" lon="18.186564976954614"><ele>31.0</ele><time>2026-04-19T10:03:09Z</time></trkpt><trkpt lat="40.399266952698355" lon="18.186539188194388"><ele>31.0</ele><time>2026-04-19T10:03:10Z</time></trkpt><trkpt lat="40.39911179418173" lon="18.186512789822824"><ele>31.25</ele><time>2026-04-19T10:03:11Z</time></trkpt><trkpt lat="40.3989574989632" lon="18.186487957977093"><ele>31.5</ele><time>2026-04-19T10:03:12Z</time></trkpt><trkpt lat="40.39880749937423" lon="18.186455685502146"><ele>31.75</ele><time>2026-04-19T10:03:13Z</time></trkpt><trkpt lat="40.3986788685492" lon="18.186427685731534"><ele>32.0</ele><time>2026-04-19T10:03:14Z</time></trkpt><trkpt lat="40.39854368394399" lon="18.186396100264055"><ele>32.25</ele><time>2026-04-19T10:03:15Z</time></trkpt><trkpt lat="40.39840759262541" lon="18.1863456265731"><ele>32.5</ele><time>2026-04-19T10:03:16Z</time></trkpt><trkpt lat="40.39827955127865" lon="18.186266847412092"><ele>32.75</ele><time>2026-04-19T10:03:17Z</time></trkpt><trkpt lat="40.39815212278487" lon="18.186165910623497"><ele>33.0</ele><time>2026-04-19T10:03:18Z</time></trkpt><trkpt lat="40.39803210368087" lon="18.186062424013766"><ele>33.0</ele><time>2026-04-19T10:03:19Z</time></trkpt><trkpt lat="40.39791890598049" lon="18.185966307181527"><ele>33.0</ele><time>2026-04-19T10:03:20Z</time></trkpt><trkpt lat="40.397798758750966" lon="18.185875040582673"><ele>33.0</ele><time>2026-04-19T10:03:21Z</time></trkpt><trkpt lat="40.39767333326334" lon="18.185782664844197"><ele>33.0</ele><time>2026-04-19T10:03:22Z</time></trkpt><trkpt lat="40.3975478143045" lon="18.18570280592833"><ele>32.75</ele><time>2026-04-19T10:03:23Z</time></trkpt><trkpt lat="40.39742460426945" lon="18.185630322531196"><ele>32.5</ele><time>2026-04-19T10:03:24Z</time></trkpt><trkpt lat="40.39730519619092" lon="18.185565284985838"><ele>32.25</ele><time>2026-04-19T10:03:25Z</time></trkpt><trkpt lat="40.39718074351469" lon="18.185504914786716"><ele>32.0</ele><time>2026-04-19T10:03:26Z</time></trkpt><trkpt lat="40.39703858723667" lon="18.185444487436843"><ele>32.0</ele><time>2026-04-19T10:03:27Z</time></trkpt><trkpt lat="40.39689720576882" lon="18.18538733414329"><ele>32.0</ele><time>2026-04-19T10:03:28Z</time></trkpt><trkpt lat="40.3967611880468" lon="18.185335886840928"><ele>32.0</ele><time>2026-04-19T10:03:29Z</time></trkpt><trkpt lat="40.396626517690116" lon="18.18530755538564"><ele>32.0</ele><time>2026-04-19T10:03:30Z</time></trkpt><trkpt lat="40.396495695901045" lon="18.18529706092479"><ele>32.0</ele><time>2026-04-19T10:03:31Z</time></trkpt><trkpt lat="40.39637184060036" lon="18.185285770541057"><ele>32.0</ele><time>2026-04-19T10:03:32Z</time></trkpt><trkpt lat="40.39623995417395" lon="18.185260137407976"><ele>32.0</ele><time>2026-04-19T10:03:33Z</time></trkpt><trkpt lat="40.396115224264655" lon="18.185225776152915"><ele>32.0</ele><time>2026-04-19T10:03:34Z</time></trkpt><trkpt lat="40.395978177151065" lon="18.185178959233276"><ele>31.75</ele><time>2026-04-19T10:03:35Z</time></trkpt><trkpt lat="40.39585112946676" lon="18.18513855849041"><ele>31.5</ele><time>2026-04-19T10:03:36Z</time></trkpt><trkpt lat="40.39571938488703" lon="18.18510288069863"><ele>31.25</ele><time>2026-04-19T10:03:37Z</time></trkpt><trkpt lat="40.39558741420943" lon="18.185066686106946"><ele>31.0</ele><time>2026-04-19T10:03:38Z</time></trkpt><trkpt lat="40.395456906830134" lon="18.18503368692709"><ele>31.5</ele><time>2026-04-19T10:03:39Z</time></trkpt><trkpt lat="40.39532690135564" lon="18.185004911236106"><ele>32.0</ele><time>2026-04-19T10:03:40Z</time></trkpt><trkpt lat="40.395188468373554" lon="18.184973366638044"><ele>32.5</ele><time>2026-04-19T10:03:41Z</time></trkpt><trkpt lat="40.39505713378388" lon="18.184940585389477"><ele>33.0</ele><time>2026-04-19T10:03:42Z</time></trkpt><trkpt lat="40.3949192718002" lon="18.184901278411505"><ele>33.0</ele><time>2026-04-19T10:03:43Z</time></trkpt><trkpt lat="40.394787723472454" lon="18.184859228097864"><ele>33.0</ele><time>2026-04-19T10:03:44Z</time></trkpt><trkpt lat="40.39466783642711" lon="18.184821870759908"><ele>33.0</ele><time>2026-04-19T10:03:45Z</time></trkpt><trkpt lat="40.39454630226471" lon="18.18478527404726"><ele>33.0</ele><time>2026-04-19T10:03:46Z</time></trkpt><trkpt lat="40.394418479576174" lon="18.184746225381545"><ele>33.0</ele><time>2026-04-19T10:03:47Z</time></trkpt><trkpt lat="40.39429057958687" lon="18.18471568341428"><ele>33.0</ele><time>2026-04-19T10:03:48Z</time></trkpt><trkpt lat="40.39416197862473" lon="18.184693404939278"><ele>33.0</ele><time>2026-04-19T10:03:49Z</time></trkpt><trkpt lat="40.394036792456426" lon="18.184680609348575"><ele>33.0</ele><time>2026-04-19T10:03:50Z</time></trkpt><trkpt lat="40.393915365600726" lon="18.184673517732627"><ele>33.0</ele><time>2026-04-19T10:03:51Z</time></trkpt><trkpt lat="40.39378758775135" lon="18.184668310187227"><ele>33.0</ele><time>2026-04-19T10:03:52Z</time></trkpt><trkpt lat="40.39366654160805" lon="18.184660265452475"><ele>33.0</ele><time>2026-04-19T10:03:53Z</time></trkpt><trkpt lat="40.393543945713745" lon="18.18465132209114"><ele>33.0</ele><time>2026-04-19T10:03:54Z</time></trkpt><trkpt lat="40.39342474490388" lon="18.184644892944014"><ele>33.0</ele><time>2026-04-19T10:03:55Z</time></trkpt><trkpt lat="40.39328319325696" lon="18.18463726479811"><ele>33.0</ele><time>2026-04-19T10:03:56Z</time></trkpt><trkpt lat="40.393155069032" lon="18.184617913960032"><ele>33.0</ele><time>2026-04-19T10:03:57Z</time></trkpt><trkpt lat="40.39303675817125" lon="18.184587631789228"><ele>33.0</ele><time>2026-04-19T10:03:58Z</time></trkpt><trkpt lat="40.39290915336339" lon="18.18453813076817"><ele>33.0</ele><time>2026-04-19T10:03:59Z</time></trkpt><trkpt lat="40.392784856194154" lon="18.18447649695103"><ele>33.0</ele><time>2026-04-19T10:04:00Z</time></trkpt><trkpt lat="40.39267115142285" lon="18.18440540336027"><ele>33.0</ele><time>2026-04-19T10:04:01Z</time></trkpt><trkpt lat="40.39256433302812" lon="18.18432956876842"><ele>33.0</ele><time>2026-04-19T10:04:02Z</time></trkpt><trkpt lat="40.39245908849931" lon="18.184257635869216"><ele>33.0</ele><time>2026-04-19T10:04:03Z</time></trkpt><trkpt lat="40.39234983474898" lon="18.184194280394685"><ele>33.0</ele><time>2026-04-19T10:04:04Z</time></trkpt><trkpt lat="40.39224249651671" lon="18.18413302424109"><ele>33.0</ele><time>2026-04-19T10:04:05Z</time></trkpt><trkpt lat="40.392129792804866" lon="18.184074551030974"><ele>33.0</ele><time>2026-04-19T10:04:06Z</time></trkpt><trkpt lat="40.392012285738204" lon="18.184023136030383"><ele>33.5</ele><time>2026-04-19T10:04:07Z</time></trkpt><trkpt lat="40.39189836264898" lon="18.183974797228633"><ele>34.0</ele><time>2026-04-19T10:04:08Z</time></trkpt><trkpt lat="40.391778574263014" lon="18.183923935153633"><ele>34.5</ele><time>2026-04-19T10:04:09Z</time></trkpt><trkpt lat="40.391659057236545" lon="18.183865294959897"><ele>35.0</ele><time>2026-04-19T10:04:10Z</time></trkpt><trkpt lat="40.39154121899155" lon="18.18379167218981"><ele>35.0</ele><time>2026-04-19T10:04:11Z</time></trkpt><trkpt lat="40.39142578789357" lon="18.18371158769297"><ele>35.0</ele><time>2026-04-19T10:04:12Z</time></trkpt><trkpt lat="40.39131319900467" lon="18.183627729789496"><ele>35.0</ele><time>2026-04-19T10:04:13Z</time></trkpt><trkpt lat="40.39119700507139" lon="18.183544817993095"><ele>35.0</ele><time>2026-04-19T10:04:14Z</time></trkpt><trkpt lat="40.391079434227045" lon="18.183461105898505"><ele>34.75</ele><time>2026-04-19T10:04:15Z</time></trkpt><trkpt lat="40.39096824391232" lon="18.183381768734"><ele>34.5</ele><time>2026-04-19T10:04:16Z</time></trkpt><trkpt lat="40.39086575172638" lon="18.183303121749134"><ele>34.25</ele><time>2026-04-19T10:04:17Z</time></trkpt><trkpt lat="40.390749445087295" lon="18.183220969206513"><ele>34.0</ele><time>2026-04-19T10:04:18Z</time></trkpt><trkpt lat="40.390632433690946" lon="18.183141385625138"><ele>33.75</ele><time>2026-04-19T10:04:19Z</time></trkpt><trkpt lat="40.390514222982894" lon="18.183057162560686"><ele>33.5</ele><time>2026-04-19T10:04:20Z</time></trkpt><trkpt lat="40.39039013650043" lon="18.18296675459125"><ele>33.25</ele><time>2026-04-19T10:04:21Z</time></trkpt><trkpt lat="40.390260016359754" lon="18.182883094427456"><ele>33.0</ele><time>2026-04-19T10:04:22Z</time></trkpt><trkpt lat="40.39013406309821" lon="18.18280188589009"><ele>33.25</ele><time>2026-04-19T10:04:23Z</time></trkpt><trkpt lat="40.39000897293902" lon="18.182711574764973"><ele>33.5</ele><time>2026-04-19T10:04:24Z</time></trkpt><trkpt lat="40.38988138815577" lon="18.182618107984574"><ele>33.75</ele><time>2026-04-19T10:04:25Z</time></trkpt><trkpt lat="40.38975503629986" lon="18.18252555188251"><ele>34.0</ele><time>2026-04-19T10:04:26Z</time></trkpt><trkpt lat="40.38963415594905" lon="18.18245350199881"><ele>34.0</ele><time>2026-04-19T10:04:27Z</time></trkpt><trkpt lat="40.3895191019738" lon="18.1823758705819"><ele>34.0</ele><time>2026-04-19T10:04:28Z</time></trkpt><trkpt lat="40.38940769796281" lon="18.18229987050147"><ele>34.0</ele><time>2026-04-19T10:04:29Z</time></trkpt><trkpt lat="40.38929110564523" lon="18.182229792295516"><ele>34.0</ele><time>2026-04-19T10:04:30Z</time></trkpt><trkpt lat="40.38917330294613" lon="18.182166611222478"><ele>34.25</ele><time>2026-04-19T10:04:31Z</time></trkpt><trkpt lat="40.389044576268034" lon="18.18211709634924"><ele>34.5</ele><time>2026-04-19T10:04:32Z</time></trkpt><trkpt lat="40.38891588970001" lon="18.182061175686226"><ele>34.75</ele><time>2026-04-19T10:04:33Z</time></trkpt><trkpt lat="40.38878288649553" lon="18.182016722584297"><ele>35.0</ele><time>2026-04-19T10:04:34Z</time></trkpt><trkpt lat="40.388645880884795" lon="18.18199717274471"><ele>35.5</ele><time>2026-04-19T10:04:35Z</time></trkpt><trkpt lat="40.38850859065419" lon="18.182004292867255"><ele>36.0</ele><time>2026-04-19T10:04:36Z</time></trkpt><trkpt lat="40.38838230121657" lon="18.18200135100725"><ele>36.5</ele><time>2026-04-19T10:04:37Z</time></trkpt><trkpt lat="40.38825560793542" lon="18.181982598020824"><ele>37.0</ele><time>2026-04-19T10:04:38Z</time></trkpt><trkpt lat="40.38814603511288" lon="18.18196275535831"><ele>37.0</ele><time>2026-04-19T10:04:39Z</time></trkpt><trkpt lat="40.388038125407235" lon="18.181963033183305"><ele>37.0</ele><time>2026-04-19T10:04:40Z</time></trkpt><trkpt lat="40.387927680370716" lon="18.181956122618157"><ele>37.0</ele><time>2026-04-19T10:04:41Z</time></trkpt><trkpt lat="40.387796172897886" lon="18.181941677078527"><ele>37.0</ele><time>2026-04-19T10:04:42Z</time></trkpt><trkpt lat="40.38766085201045" lon="18.18192802336075"><ele>37.0</ele><time>2026-04-19T10:04:43Z</time></trkpt><trkpt lat="40.387512374113385" lon="18.1819113395138"><ele>37.0</ele><time>2026-04-19T10:04:44Z</time></trkpt><trkpt lat="40.38735755684277" lon="18.18189895510914"><ele>37.0</ele><time>2026-04-19T10:04:45Z</time></trkpt><trkpt lat="40.38722193562025" lon="18.18189666624355"><ele>37.0</ele><time>2026-04-19T10:04:46Z</time></trkpt><trkpt lat="40.38710580652606" lon="18.181896875244938"><ele>37.5</ele><time>2026-04-19T10:04:47Z</time></trkpt><trkpt lat="40.386984013737745" lon="18.18188790375515"><ele>38.0</ele><time>2026-04-19T10:04:48Z</time></trkpt><trkpt lat="40.38685841111766" lon="18.181869117404744"><ele>38.5</ele><time>2026-04-19T10:04:49Z</time></trkpt><trkpt lat="40.386727753705095" lon="18.181838359817046"><ele>39.0</ele><time>2026-04-19T10:04:50Z</time></trkpt><trkpt lat="40.38659659569756" lon="18.18180270939801"><ele>39.0</ele><time>2026-04-19T10:04:51Z</time></trkpt><trkpt lat="40.38646963865626" lon="18.181760059732824"><ele>39.0</ele><time>2026-04-19T10:04:52Z</time></trkpt><trkpt lat="40.386342425078325" lon="18.181722124958238"><ele>39.0</ele><time>2026-04-19T10:04:53Z</time></trkpt><trkpt lat="40.386213493028094" lon="18.181689628975075"><ele>39.0</ele><time>2026-04-19T10:04:54Z</time></trkpt><trkpt lat="40.38608406426318" lon="18.18165030834721"><ele>39.0</ele><time>2026-04-19T10:04:55Z</time></trkpt><trkpt lat="40.38596184390485" lon="18.181614513234553"><ele>39.0</ele><time>2026-04-19T10:04:56Z</time></trkpt><trkpt lat="40.3858322281743" lon="18.18157499876555"><ele>39.0</ele><time>2026-04-19T10:04:57Z</time></trkpt><trkpt lat="40.38570332670708" lon="18.1815382484274"><ele>39.0</ele><time>2026-04-19T10:04:58Z</time></trkpt><trkpt lat="40.38558002987838" lon="18.181504138078445"><ele>39.5</ele><time>2026-04-19T10:04:59Z</time></trkpt><trkpt lat="40.38546420345284" lon="18.181470185771886"><ele>40.0</ele><time>2026-04-19T10:05:00Z</time></trkpt><trkpt lat="40.38534189380845" lon="18.181433520886397"><ele>40.5</ele><time>2026-04-19T10:05:01Z</time></trkpt><trkpt lat="40.3852065485859" lon="18.181397098792246"><ele>41.0</ele><time>2026-04-19T10:05:02Z</time></trkpt><trkpt lat="40.38507402079441" lon="18.181374638297264"><ele>41.0</ele><time>2026-04-19T10:05:03Z</time></trkpt><trkpt lat="40.38495277534588" lon="18.18135738102489"><ele>41.0</ele><time>2026-04-19T10:05:04Z</time></trkpt><trkpt lat="40.384831135735546" lon="18.181338745980455"><ele>41.0</ele><time>2026-04-19T10:05:05Z</time></trkpt><trkpt lat="40.38471192291188" lon="18.181322466102703"><ele>41.0</ele><time>2026-04-19T10:05:06Z</time></trkpt><trkpt lat="40.384593842183776" lon="18.181294604067784"><ele>41.5</ele><time>2026-04-19T10:05:07Z</time></trkpt><trkpt lat="40.38447086457195" lon="18.181248451375055"><ele>42.0</ele><time>2026-04-19T10:05:08Z</time></trkpt><trkpt lat="40.38435287638189" lon="18.181203102002"><ele>42.5</ele><time>2026-04-19T10:05:09Z</time></trkpt><trkpt lat="40.38423604556455" lon="18.18116310102762"><ele>43.0</ele><time>2026-04-19T10:05:10Z</time></trkpt><trkpt lat="40.38411637982293" lon="18.1811252744257"><ele>43.0</ele><time>2026-04-19T10:05:11Z</time></trkpt><trkpt lat="40.38399095482558" lon="18.1810835828538"><ele>43.0</ele><time>2026-04-19T10:05:12Z</time></trkpt><trkpt lat="40.38387309543846" lon="18.181035400744253"><ele>43.0</ele><time>2026-04-19T10:05:13Z</time></trkpt><trkpt lat="40.38375723879958" lon="18.180993726612023"><ele>43.0</ele><time>2026-04-19T10:05:14Z</time></trkpt><trkpt lat="40.38363709533311" lon="18.18095745851168"><ele>42.5</ele><time>2026-04-19T10:05:15Z</time></trkpt><trkpt lat="40.383520462794685" lon="18.180917874456963"><ele>42.0</ele><time>2026-04-19T10:05:16Z</time></trkpt><trkpt lat="40.38340803252442" lon="18.180870716026284"><ele>41.5</ele><time>2026-04-19T10:05:17Z</time></trkpt><trkpt lat="40.38329806247779" lon="18.180828676328566"><ele>41.0</ele><time>2026-04-19T10:05:18Z</time></trkpt><trkpt lat="40.3831895931651" lon="18.18078327149199"><ele>41.0</ele><time>2026-04-19T10:05:19Z</time></trkpt><trkpt lat="40.38309486194337" lon="18.180748591918974"><ele>41.0</ele><time>2026-04-19T10:05:20Z</time></trkpt><trkpt lat="40.383002742148285" lon="18.180716447488447"><ele>41.0</ele><time>2026-04-19T10:05:20.999Z</time></trkpt><trkpt lat="40.382921065460195" lon="18.180678264375793"><ele>41.0</ele><time>2026-04-19T10:05:21.999Z</time></trkpt><trkpt lat="40.38284237255293" lon="18.180639576333398"><ele>41.0</ele><time>2026-04-19T10:05:22.999Z</time></trkpt><trkpt lat="40.38276983565524" lon="18.18060108909637"><ele>41.0</ele><time>2026-04-19T10:05:23.999Z</time></trkpt><trkpt lat="40.382701894276494" lon="18.180570116646507"><ele>41.199999999999996</ele><time>2026-04-19T10:05:24.999Z</time></trkpt><trkpt lat="40.38263485441793" lon="18.18052933919147"><ele>41.4</ele><time>2026-04-19T10:05:25.999Z</time></trkpt><trkpt lat="40.3825257181317" lon="18.180470540778234"><ele>41.6</ele><time>2026-04-19T10:05:27.999Z</time></trkpt><trkpt lat="40.38244666643287" lon="18.180416406934814"><ele>41.8</ele><time>2026-04-19T10:05:29.999Z</time></trkpt><trkpt lat="40.382402820597065" lon="18.18035512220754"><ele>42.0</ele><time>2026-04-19T10:05:32.999Z</time></trkpt><trkpt lat="40.382479856978755" lon="18.180258985822075"><ele>42.0</ele><time>2026-04-19T10:05:33.999Z</time></trkpt><trkpt lat="40.3825683521741" lon="18.180126993185027"><ele>42.0</ele><time>2026-04-19T10:05:35.999Z</time></trkpt><trkpt lat="40.38260731835051" lon="18.180040658191768"><ele>42.0</ele><time>2026-04-19T10:05:36.999Z</time></trkpt><trkpt lat="40.38267214506596" lon="18.179962565784"><ele>42.0</ele><time>2026-04-19T10:05:37.999Z</time></trkpt><trkpt lat="40.382738984497806" lon="18.17986710912017"><ele>42.0</ele><time>2026-04-19T10:05:38.999Z</time></trkpt><trkpt lat="40.38281039190774" lon="18.179770420975217"><ele>42.0</ele><time>2026-04-19T10:05:39.999Z</time></trkpt><trkpt lat="40.382885026988156" lon="18.17967600568634"><ele>42.0</ele><time>2026-04-19T10:05:40.999Z</time></trkpt><trkpt lat="40.38295266340417" lon="18.179587304356026"><ele>42.0</ele><time>2026-04-19T10:05:41.999Z</time></trkpt><trkpt lat="40.38301282638157" lon="18.17949288792261"><ele>42.0</ele><time>2026-04-19T10:05:42.999Z</time></trkpt><trkpt lat="40.383084851469356" lon="18.17938790751014"><ele>42.0</ele><time>2026-04-19T10:05:43.999Z</time></trkpt><trkpt lat="40.38315952445311" lon="18.179280229150127"><ele>42.0</ele><time>2026-04-19T10:05:44.999Z</time></trkpt><trkpt lat="40.38324033491681" lon="18.179160507257432"><ele>42.0</ele><time>2026-04-19T10:05:45.999Z</time></trkpt><trkpt lat="40.38331578710184" lon="18.179046551023525"><ele>42.0</ele><time>2026-04-19T10:05:46.999Z</time></trkpt><trkpt lat="40.38339236894103" lon="18.178930142348257"><ele>42.0</ele><time>2026-04-19T10:05:47.999Z</time></trkpt><trkpt lat="40.38345985848256" lon="18.178799680355937"><ele>42.0</ele><time>2026-04-19T10:05:48.999Z</time></trkpt><trkpt lat="40.38353658179468" lon="18.17866338748156"><ele>42.0</ele><time>2026-04-19T10:05:49.999Z</time></trkpt><trkpt lat="40.38360919875512" lon="18.178523235009276"><ele>42.0</ele><time>2026-04-19T10:05:50.999Z</time></trkpt><trkpt lat="40.38366451819261" lon="18.178392710298805"><ele>42.0</ele><time>2026-04-19T10:05:51.999Z</time></trkpt><trkpt lat="40.383697097071" lon="18.178254550986527"><ele>41.75</ele><time>2026-04-19T10:05:52.999Z</time></trkpt><trkpt lat="40.38372394715442" lon="18.17809529118859"><ele>41.5</ele><time>2026-04-19T10:05:53.999Z</time></trkpt><trkpt lat="40.38375102211536" lon="18.177920435809252"><ele>41.25</ele><time>2026-04-19T10:05:54.999Z</time></trkpt><trkpt lat="40.3837879741191" lon="18.177762317704342"><ele>41.0</ele><time>2026-04-19T10:05:55.999Z</time></trkpt><trkpt lat="40.38383371669826" lon="18.177617508693203"><ele>41.0</ele><time>2026-04-19T10:05:56.999Z</time></trkpt><trkpt lat="40.38389572537023" lon="18.177484133156376"><ele>41.0</ele><time>2026-04-19T10:05:57.999Z</time></trkpt><trkpt lat="40.38395395212752" lon="18.177337394564844"><ele>41.0</ele><time>2026-04-19T10:05:58.999Z</time></trkpt><trkpt lat="40.38401763302564" lon="18.17719933381169"><ele>41.0</ele><time>2026-04-19T10:05:59.999Z</time></trkpt><trkpt lat="40.38410125131389" lon="18.177094236281814"><ele>41.0</ele><time>2026-04-19T10:06:00.999Z</time></trkpt><trkpt lat="40.38417301975894" lon="18.176972516702996"><ele>41.0</ele><time>2026-04-19T10:06:01.999Z</time></trkpt><trkpt lat="40.38424210822393" lon="18.176857904396073"><ele>41.0</ele><time>2026-04-19T10:06:02.999Z</time></trkpt><trkpt lat="40.38430994843317" lon="18.17674648295082"><ele>41.0</ele><time>2026-04-19T10:06:03.999Z</time></trkpt><trkpt lat="40.384361376709386" lon="18.17662259573564"><ele>41.0</ele><time>2026-04-19T10:06:05Z</time></trkpt><trkpt lat="40.384428200624136" lon="18.176515952570764"><ele>41.0</ele><time>2026-04-19T10:06:06Z</time></trkpt><trkpt lat="40.38448706158394" lon="18.17641130559719"><ele>41.0</ele><time>2026-04-19T10:06:07Z</time></trkpt><trkpt lat="40.38453900460185" lon="18.176317444736103"><ele>41.0</ele><time>2026-04-19T10:06:08Z</time></trkpt><trkpt lat="40.384582482746445" lon="18.176238588870532"><ele>41.0</ele><time>2026-04-19T10:06:09Z</time></trkpt><trkpt lat="40.38462731230161" lon="18.176146748185232"><ele>41.0</ele><time>2026-04-19T10:06:10Z</time></trkpt><trkpt lat="40.38467337228132" lon="18.17604386681285"><ele>41.0</ele><time>2026-04-19T10:06:11Z</time></trkpt><trkpt lat="40.384709012227624" lon="18.17596288413408"><ele>41.0</ele><time>2026-04-19T10:06:12Z</time></trkpt><trkpt lat="40.38474506376865" lon="18.17586461256686"><ele>41.0</ele><time>2026-04-19T10:06:13Z</time></trkpt><trkpt lat="40.38476748275245" lon="18.175756269173444"><ele>41.0</ele><time>2026-04-19T10:06:14Z</time></trkpt><trkpt lat="40.38478171360524" lon="18.17564132127101"><ele>41.0</ele><time>2026-04-19T10:06:15Z</time></trkpt><trkpt lat="40.38479337814292" lon="18.175525902976617"><ele>41.0</ele><time>2026-04-19T10:06:16Z</time></trkpt><trkpt lat="40.38480486562453" lon="18.175419725909634"><ele>41.0</ele><time>2026-04-19T10:06:17Z</time></trkpt><trkpt lat="40.38480982674452" lon="18.17533150918741"><ele>41.0</ele><time>2026-04-19T10:06:18Z</time></trkpt><trkpt lat="40.38481504604373" lon="18.175240124338202"><ele>41.0</ele><time>2026-04-19T10:06:19Z</time></trkpt><trkpt lat="40.38481573747537" lon="18.17515017475687"><ele>41.0</ele><time>2026-04-19T10:06:20Z</time></trkpt><trkpt lat="40.384830848468155" lon="18.175004689869155"><ele>41.0</ele><time>2026-04-19T10:06:22Z</time></trkpt><trkpt lat="40.38484167873146" lon="18.174915553414586"><ele>41.0</ele><time>2026-04-19T10:06:24Z</time></trkpt><trkpt lat="40.384846418582406" lon="18.174820163477353"><ele>41.0</ele><time>2026-04-19T10:11:27Z</time></trkpt><trkpt lat="40.3851536522066" lon="18.174753393994806"><ele>41.199999999999996</ele><time>2026-04-19T10:11:32Z</time></trkpt><trkpt lat="40.38496675243336" lon="18.17483093189437"><ele>41.4</ele><time>2026-04-19T10:11:37Z</time></trkpt><trkpt lat="40.38500326122293" lon="18.174760987802795"><ele>41.6</ele><time>2026-04-19T10:11:46.999Z</time></trkpt><trkpt lat="40.38500881595264" lon="18.17467580682333"><ele>41.8</ele><time>2026-04-19T10:11:51.999Z</time></trkpt><trkpt lat="40.38501460658823" lon="18.17458579243247"><ele>42.0</ele><time>2026-04-19T10:11:57.999Z</time></trkpt><trkpt lat="40.385079568818234" lon="18.174452547494226"><ele>42.0</ele><time>2026-04-19T10:12:05.999Z</time></trkpt><trkpt lat="40.38517269706365" lon="18.174431552854074"><ele>42.0</ele><time>2026-04-19T10:12:08.999Z</time></trkpt><trkpt lat="40.38502690478896" lon="18.174667626587386"><ele>42.0</ele><time>2026-04-19T10:12:33.018Z</time></trkpt></trkseg></trk></gpx>